<?xml version="1.0" encoding="UTF-8" standalone="no" ?>
<gpx xmlns="http://www.topografix.com/GPX/1/1" xmlns:xsi="http://www.w3.org/2001/XMLSchema-instance" xsi:schemaLocation="http://www.topografix.com/GPX/1/1 http://www.topografix.com/GPX/1/1/gpx.xsd" version="1.1" creator="VisuGPX - https://www.visugpx.com">
  <metadata>
    <name>TdO 2016</name>
    <desc><![CDATA[Excellente journée.
presqu\'une caméra en moins!]]></desc>
  </metadata>
  <trk>
    <name><![CDATA[COMBLOUX TDO 2016]]></name>
    <trkseg>
      <trkpt lat="45.88984" lon="6.61924">
        <ele>1261.39</ele>
        <time>2016-01-23T08:51:30Z</time>
      </trkpt>
      <trkpt lat="45.8895" lon="6.61873">
        <ele>1264.75</ele>
        <time>2016-01-23T08:51:45Z</time>
      </trkpt>
      <trkpt lat="45.88939" lon="6.61856">
        <ele>1268.12</ele>
        <time>2016-01-23T08:51:50Z</time>
      </trkpt>
      <trkpt lat="45.88929" lon="6.61838">
        <ele>1271.96</ele>
        <time>2016-01-23T08:51:55Z</time>
      </trkpt>
      <trkpt lat="45.8892" lon="6.61824">
        <ele>1274.36</ele>
        <time>2016-01-23T08:51:59Z</time>
      </trkpt>
      <trkpt lat="45.88897" lon="6.61789">
        <ele>1277.73</ele>
        <time>2016-01-23T08:52:09Z</time>
      </trkpt>
      <trkpt lat="45.88881" lon="6.61764">
        <ele>1281.09</ele>
        <time>2016-01-23T08:52:16Z</time>
      </trkpt>
      <trkpt lat="45.8887" lon="6.61747">
        <ele>1284.46</ele>
        <time>2016-01-23T08:52:21Z</time>
      </trkpt>
      <trkpt lat="45.88859" lon="6.61729">
        <ele>1287.82</ele>
        <time>2016-01-23T08:52:26Z</time>
      </trkpt>
      <trkpt lat="45.88849" lon="6.61716">
        <ele>1291.19</ele>
        <time>2016-01-23T08:52:30Z</time>
      </trkpt>
      <trkpt lat="45.88841" lon="6.61702">
        <ele>1295.03</ele>
        <time>2016-01-23T08:52:34Z</time>
      </trkpt>
      <trkpt lat="45.88835" lon="6.61691">
        <ele>1297.92</ele>
        <time>2016-01-23T08:52:37Z</time>
      </trkpt>
      <trkpt lat="45.88832" lon="6.61688">
        <ele>1298.4</ele>
        <time>2016-01-23T08:52:38Z</time>
      </trkpt>
      <trkpt lat="45.8881" lon="6.61653">
        <ele>1301.28</ele>
        <time>2016-01-23T08:52:48Z</time>
      </trkpt>
      <trkpt lat="45.88791" lon="6.61625">
        <ele>1304.65</ele>
        <time>2016-01-23T08:52:56Z</time>
      </trkpt>
      <trkpt lat="45.88779" lon="6.61607">
        <ele>1308.01</ele>
        <time>2016-01-23T08:53:01Z</time>
      </trkpt>
      <trkpt lat="45.8877" lon="6.61594">
        <ele>1310.9</ele>
        <time>2016-01-23T08:53:05Z</time>
      </trkpt>
      <trkpt lat="45.88759" lon="6.61577">
        <ele>1314.74</ele>
        <time>2016-01-23T08:53:10Z</time>
      </trkpt>
      <trkpt lat="45.8875" lon="6.61563">
        <ele>1318.1</ele>
        <time>2016-01-23T08:53:14Z</time>
      </trkpt>
      <trkpt lat="45.88743" lon="6.61552">
        <ele>1320.99</ele>
        <time>2016-01-23T08:53:17Z</time>
      </trkpt>
      <trkpt lat="45.88737" lon="6.61542">
        <ele>1324.35</ele>
        <time>2016-01-23T08:53:20Z</time>
      </trkpt>
      <trkpt lat="45.88728" lon="6.61529">
        <ele>1327.72</ele>
        <time>2016-01-23T08:53:24Z</time>
      </trkpt>
      <trkpt lat="45.88712" lon="6.61504">
        <ele>1331.08</ele>
        <time>2016-01-23T08:53:31Z</time>
      </trkpt>
      <trkpt lat="45.88704" lon="6.61491">
        <ele>1334.45</ele>
        <time>2016-01-23T08:53:36Z</time>
      </trkpt>
      <trkpt lat="45.88704" lon="6.61495">
        <ele>1334.45</ele>
        <time>2016-01-23T08:53:46Z</time>
      </trkpt>
      <trkpt lat="45.88703" lon="6.61494">
        <ele>1334.45</ele>
        <time>2016-01-23T08:54:02Z</time>
      </trkpt>
      <trkpt lat="45.88692" lon="6.61477">
        <ele>1337.81</ele>
        <time>2016-01-23T08:54:13Z</time>
      </trkpt>
      <trkpt lat="45.88691" lon="6.61474">
        <ele>1337.81</ele>
        <time>2016-01-23T08:54:14Z</time>
      </trkpt>
      <trkpt lat="45.88681" lon="6.6146">
        <ele>1341.18</ele>
        <time>2016-01-23T08:54:19Z</time>
      </trkpt>
      <trkpt lat="45.88677" lon="6.61454">
        <ele>1342.14</ele>
        <time>2016-01-23T08:54:21Z</time>
      </trkpt>
      <trkpt lat="45.88659" lon="6.61425">
        <ele>1345.5</ele>
        <time>2016-01-23T08:54:29Z</time>
      </trkpt>
      <trkpt lat="45.88641" lon="6.61397">
        <ele>1348.87</ele>
        <time>2016-01-23T08:54:37Z</time>
      </trkpt>
      <trkpt lat="45.88622" lon="6.61369">
        <ele>1352.23</ele>
        <time>2016-01-23T08:54:45Z</time>
      </trkpt>
      <trkpt lat="45.88599" lon="6.61333">
        <ele>1355.6</ele>
        <time>2016-01-23T08:54:55Z</time>
      </trkpt>
      <trkpt lat="45.88585" lon="6.61313">
        <ele>1358.96</ele>
        <time>2016-01-23T08:55:01Z</time>
      </trkpt>
      <trkpt lat="45.88573" lon="6.61296">
        <ele>1362.33</ele>
        <time>2016-01-23T08:55:06Z</time>
      </trkpt>
      <trkpt lat="45.8856" lon="6.61275">
        <ele>1365.69</ele>
        <time>2016-01-23T08:55:12Z</time>
      </trkpt>
      <trkpt lat="45.88551" lon="6.61261">
        <ele>1369.05</ele>
        <time>2016-01-23T08:55:16Z</time>
      </trkpt>
      <trkpt lat="45.88544" lon="6.6125">
        <ele>1372.42</ele>
        <time>2016-01-23T08:55:19Z</time>
      </trkpt>
      <trkpt lat="45.88538" lon="6.6124">
        <ele>1375.78</ele>
        <time>2016-01-23T08:55:22Z</time>
      </trkpt>
      <trkpt lat="45.88531" lon="6.6123">
        <ele>1379.15</ele>
        <time>2016-01-23T08:55:25Z</time>
      </trkpt>
      <trkpt lat="45.88524" lon="6.61219">
        <ele>1382.99</ele>
        <time>2016-01-23T08:55:28Z</time>
      </trkpt>
      <trkpt lat="45.88517" lon="6.61209">
        <ele>1386.36</ele>
        <time>2016-01-23T08:55:31Z</time>
      </trkpt>
      <trkpt lat="45.88511" lon="6.612">
        <ele>1390.68</ele>
        <time>2016-01-23T08:55:34Z</time>
      </trkpt>
      <trkpt lat="45.88504" lon="6.61188">
        <ele>1394.53</ele>
        <time>2016-01-23T08:55:37Z</time>
      </trkpt>
      <trkpt lat="45.88498" lon="6.61179">
        <ele>1398.37</ele>
        <time>2016-01-23T08:55:40Z</time>
      </trkpt>
      <trkpt lat="45.88491" lon="6.6117">
        <ele>1402.22</ele>
        <time>2016-01-23T08:55:43Z</time>
      </trkpt>
      <trkpt lat="45.88484" lon="6.61161">
        <ele>1407.03</ele>
        <time>2016-01-23T08:55:46Z</time>
      </trkpt>
      <trkpt lat="45.88479" lon="6.61155">
        <ele>1409.91</ele>
        <time>2016-01-23T08:55:48Z</time>
      </trkpt>
      <trkpt lat="45.88474" lon="6.61148">
        <ele>1413.28</ele>
        <time>2016-01-23T08:55:50Z</time>
      </trkpt>
      <trkpt lat="45.8847" lon="6.61142">
        <ele>1416.64</ele>
        <time>2016-01-23T08:55:52Z</time>
      </trkpt>
      <trkpt lat="45.88466" lon="6.61136">
        <ele>1419.52</ele>
        <time>2016-01-23T08:55:54Z</time>
      </trkpt>
      <trkpt lat="45.88459" lon="6.61126">
        <ele>1424.81</ele>
        <time>2016-01-23T08:55:57Z</time>
      </trkpt>
      <trkpt lat="45.88453" lon="6.61117">
        <ele>1428.66</ele>
        <time>2016-01-23T08:56:00Z</time>
      </trkpt>
      <trkpt lat="45.88446" lon="6.61107">
        <ele>1432.98</ele>
        <time>2016-01-23T08:56:03Z</time>
      </trkpt>
      <trkpt lat="45.8844" lon="6.61097">
        <ele>1436.35</ele>
        <time>2016-01-23T08:56:06Z</time>
      </trkpt>
      <trkpt lat="45.88432" lon="6.61084">
        <ele>1440.19</ele>
        <time>2016-01-23T08:56:10Z</time>
      </trkpt>
      <trkpt lat="45.88423" lon="6.61071">
        <ele>1444.04</ele>
        <time>2016-01-23T08:56:14Z</time>
      </trkpt>
      <trkpt lat="45.88417" lon="6.61061">
        <ele>1447.4</ele>
        <time>2016-01-23T08:56:17Z</time>
      </trkpt>
      <trkpt lat="45.8841" lon="6.61051">
        <ele>1450.77</ele>
        <time>2016-01-23T08:56:20Z</time>
      </trkpt>
      <trkpt lat="45.88404" lon="6.6104">
        <ele>1454.13</ele>
        <time>2016-01-23T08:56:23Z</time>
      </trkpt>
      <trkpt lat="45.88397" lon="6.61031">
        <ele>1457.5</ele>
        <time>2016-01-23T08:56:26Z</time>
      </trkpt>
      <trkpt lat="45.88391" lon="6.61021">
        <ele>1461.34</ele>
        <time>2016-01-23T08:56:29Z</time>
      </trkpt>
      <trkpt lat="45.88384" lon="6.61011">
        <ele>1464.71</ele>
        <time>2016-01-23T08:56:32Z</time>
      </trkpt>
      <trkpt lat="45.88375" lon="6.60998">
        <ele>1468.07</ele>
        <time>2016-01-23T08:56:36Z</time>
      </trkpt>
      <trkpt lat="45.88366" lon="6.60984">
        <ele>1471.44</ele>
        <time>2016-01-23T08:56:40Z</time>
      </trkpt>
      <trkpt lat="45.88357" lon="6.60971">
        <ele>1475.28</ele>
        <time>2016-01-23T08:56:44Z</time>
      </trkpt>
      <trkpt lat="45.88348" lon="6.60958">
        <ele>1479.13</ele>
        <time>2016-01-23T08:56:48Z</time>
      </trkpt>
      <trkpt lat="45.88341" lon="6.60948">
        <ele>1482.49</ele>
        <time>2016-01-23T08:56:51Z</time>
      </trkpt>
      <trkpt lat="45.88334" lon="6.60938">
        <ele>1485.85</ele>
        <time>2016-01-23T08:56:54Z</time>
      </trkpt>
      <trkpt lat="45.88328" lon="6.60928">
        <ele>1489.22</ele>
        <time>2016-01-23T08:56:57Z</time>
      </trkpt>
      <trkpt lat="45.88321" lon="6.60918">
        <ele>1492.58</ele>
        <time>2016-01-23T08:57:00Z</time>
      </trkpt>
      <trkpt lat="45.88315" lon="6.60907">
        <ele>1496.91</ele>
        <time>2016-01-23T08:57:03Z</time>
      </trkpt>
      <trkpt lat="45.88308" lon="6.60898">
        <ele>1500.76</ele>
        <time>2016-01-23T08:57:06Z</time>
      </trkpt>
      <trkpt lat="45.88302" lon="6.60888">
        <ele>1504.6</ele>
        <time>2016-01-23T08:57:09Z</time>
      </trkpt>
      <trkpt lat="45.88295" lon="6.60878">
        <ele>1508.93</ele>
        <time>2016-01-23T08:57:12Z</time>
      </trkpt>
      <trkpt lat="45.88291" lon="6.60872">
        <ele>1511.81</ele>
        <time>2016-01-23T08:57:14Z</time>
      </trkpt>
      <trkpt lat="45.88285" lon="6.60862">
        <ele>1515.66</ele>
        <time>2016-01-23T08:57:17Z</time>
      </trkpt>
      <trkpt lat="45.88276" lon="6.60848">
        <ele>1519.02</ele>
        <time>2016-01-23T08:57:21Z</time>
      </trkpt>
      <trkpt lat="45.88267" lon="6.60835">
        <ele>1522.39</ele>
        <time>2016-01-23T08:57:25Z</time>
      </trkpt>
      <trkpt lat="45.88244" lon="6.608">
        <ele>1526.23</ele>
        <time>2016-01-23T08:57:35Z</time>
      </trkpt>
      <trkpt lat="45.88228" lon="6.60776">
        <ele>1529.59</ele>
        <time>2016-01-23T08:57:42Z</time>
      </trkpt>
      <trkpt lat="45.88175" lon="6.60692">
        <ele>1532.96</ele>
        <time>2016-01-23T08:58:06Z</time>
      </trkpt>
      <trkpt lat="45.88157" lon="6.60662">
        <ele>1536.32</ele>
        <time>2016-01-23T08:58:14Z</time>
      </trkpt>
      <trkpt lat="45.88141" lon="6.60636">
        <ele>1539.69</ele>
        <time>2016-01-23T08:58:21Z</time>
      </trkpt>
      <trkpt lat="45.88114" lon="6.60594">
        <ele>1543.53</ele>
        <time>2016-01-23T08:58:33Z</time>
      </trkpt>
      <trkpt lat="45.88072" lon="6.60529">
        <ele>1544.5</ele>
        <time>2016-01-23T08:58:54Z</time>
      </trkpt>
      <trkpt lat="45.88073" lon="6.60533">
        <ele>1544.5</ele>
        <time>2016-01-23T08:59:05Z</time>
      </trkpt>
      <trkpt lat="45.88072" lon="6.6053">
        <ele>1544.5</ele>
        <time>2016-01-23T08:59:29Z</time>
      </trkpt>
      <trkpt lat="45.88045" lon="6.6049">
        <ele>1545.46</ele>
        <time>2016-01-23T08:59:47Z</time>
      </trkpt>
      <trkpt lat="45.87992" lon="6.60407">
        <ele>1545.94</ele>
        <time>2016-01-23T09:00:10Z</time>
      </trkpt>
      <trkpt lat="45.87969" lon="6.60374">
        <ele>1546.42</ele>
        <time>2016-01-23T09:00:22Z</time>
      </trkpt>
      <trkpt lat="45.87968" lon="6.60368">
        <ele>1546.42</ele>
        <time>2016-01-23T09:00:26Z</time>
      </trkpt>
      <trkpt lat="45.87968" lon="6.60364">
        <ele>1546.42</ele>
        <time>2016-01-23T09:00:27Z</time>
      </trkpt>
      <trkpt lat="45.87967" lon="6.60359">
        <ele>1544.98</ele>
        <time>2016-01-23T09:00:31Z</time>
      </trkpt>
      <trkpt lat="45.87966" lon="6.60359">
        <ele>1544.98</ele>
        <time>2016-01-23T09:00:32Z</time>
      </trkpt>
      <trkpt lat="45.87966" lon="6.60358">
        <ele>1544.98</ele>
        <time>2016-01-23T09:00:33Z</time>
      </trkpt>
      <trkpt lat="45.87967" lon="6.60354">
        <ele>1544.98</ele>
        <time>2016-01-23T09:00:42Z</time>
      </trkpt>
      <trkpt lat="45.87969" lon="6.60351">
        <ele>1544.98</ele>
        <time>2016-01-23T09:00:56Z</time>
      </trkpt>
      <trkpt lat="45.87969" lon="6.60345">
        <ele>1544.98</ele>
        <time>2016-01-23T09:01:12Z</time>
      </trkpt>
      <trkpt lat="45.87971" lon="6.60345">
        <ele>1544.98</ele>
        <time>2016-01-23T09:01:14Z</time>
      </trkpt>
      <trkpt lat="45.87972" lon="6.60345">
        <ele>1544.98</ele>
        <time>2016-01-23T09:01:15Z</time>
      </trkpt>
      <trkpt lat="45.87974" lon="6.60345">
        <ele>1544.98</ele>
        <time>2016-01-23T09:01:16Z</time>
      </trkpt>
      <trkpt lat="45.87997" lon="6.60356">
        <ele>1543.05</ele>
        <time>2016-01-23T09:01:27Z</time>
      </trkpt>
      <trkpt lat="45.88002" lon="6.60354">
        <ele>1542.09</ele>
        <time>2016-01-23T09:01:28Z</time>
      </trkpt>
      <trkpt lat="45.88006" lon="6.60351">
        <ele>1541.13</ele>
        <time>2016-01-23T09:01:29Z</time>
      </trkpt>
      <trkpt lat="45.88008" lon="6.60348">
        <ele>1541.13</ele>
        <time>2016-01-23T09:01:30Z</time>
      </trkpt>
      <trkpt lat="45.8801" lon="6.60345">
        <ele>1541.13</ele>
        <time>2016-01-23T09:01:31Z</time>
      </trkpt>
      <trkpt lat="45.88043" lon="6.60317">
        <ele>1539.21</ele>
        <time>2016-01-23T09:01:44Z</time>
      </trkpt>
      <trkpt lat="45.88085" lon="6.60314">
        <ele>1535.84</ele>
        <time>2016-01-23T09:02:00Z</time>
      </trkpt>
      <trkpt lat="45.88112" lon="6.60302">
        <ele>1532.48</ele>
        <time>2016-01-23T09:02:09Z</time>
      </trkpt>
      <trkpt lat="45.8812" lon="6.60298">
        <ele>1531.52</ele>
        <time>2016-01-23T09:02:11Z</time>
      </trkpt>
      <trkpt lat="45.88137" lon="6.60285">
        <ele>1528.63</ele>
        <time>2016-01-23T09:02:15Z</time>
      </trkpt>
      <trkpt lat="45.88141" lon="6.60282">
        <ele>1528.63</ele>
        <time>2016-01-23T09:02:16Z</time>
      </trkpt>
      <trkpt lat="45.88143" lon="6.60279">
        <ele>1528.63</ele>
        <time>2016-01-23T09:02:17Z</time>
      </trkpt>
      <trkpt lat="45.88143" lon="6.60279">
        <ele>1528.15</ele>
        <time>2016-01-23T09:02:27Z</time>
      </trkpt>
      <trkpt lat="45.88145" lon="6.60278">
        <ele>1528.15</ele>
        <time>2016-01-23T09:02:32Z</time>
      </trkpt>
      <trkpt lat="45.88147" lon="6.60277">
        <ele>1528.15</ele>
        <time>2016-01-23T09:02:33Z</time>
      </trkpt>
      <trkpt lat="45.88149" lon="6.60275">
        <ele>1527.67</ele>
        <time>2016-01-23T09:02:34Z</time>
      </trkpt>
      <trkpt lat="45.88151" lon="6.60273">
        <ele>1526.71</ele>
        <time>2016-01-23T09:02:35Z</time>
      </trkpt>
      <trkpt lat="45.88153" lon="6.60271">
        <ele>1526.23</ele>
        <time>2016-01-23T09:02:36Z</time>
      </trkpt>
      <trkpt lat="45.88163" lon="6.60256">
        <ele>1523.35</ele>
        <time>2016-01-23T09:02:41Z</time>
      </trkpt>
      <trkpt lat="45.88177" lon="6.6024">
        <ele>1520.46</ele>
        <time>2016-01-23T09:02:48Z</time>
      </trkpt>
      <trkpt lat="45.88181" lon="6.6024">
        <ele>1519.02</ele>
        <time>2016-01-23T09:02:49Z</time>
      </trkpt>
      <trkpt lat="45.88186" lon="6.60241">
        <ele>1517.58</ele>
        <time>2016-01-23T09:02:50Z</time>
      </trkpt>
      <trkpt lat="45.88191" lon="6.60241">
        <ele>1516.14</ele>
        <time>2016-01-23T09:02:51Z</time>
      </trkpt>
      <trkpt lat="45.88197" lon="6.60241">
        <ele>1514.21</ele>
        <time>2016-01-23T09:02:52Z</time>
      </trkpt>
      <trkpt lat="45.88202" lon="6.60244">
        <ele>1512.77</ele>
        <time>2016-01-23T09:02:53Z</time>
      </trkpt>
      <trkpt lat="45.88207" lon="6.60249">
        <ele>1511.33</ele>
        <time>2016-01-23T09:02:54Z</time>
      </trkpt>
      <trkpt lat="45.88212" lon="6.60252">
        <ele>1511.33</ele>
        <time>2016-01-23T09:02:55Z</time>
      </trkpt>
      <trkpt lat="45.88217" lon="6.60251">
        <ele>1509.89</ele>
        <time>2016-01-23T09:02:56Z</time>
      </trkpt>
      <trkpt lat="45.88221" lon="6.6025">
        <ele>1508.93</ele>
        <time>2016-01-23T09:02:57Z</time>
      </trkpt>
      <trkpt lat="45.88226" lon="6.60249">
        <ele>1507</ele>
        <time>2016-01-23T09:02:58Z</time>
      </trkpt>
      <trkpt lat="45.8823" lon="6.60251">
        <ele>1505.56</ele>
        <time>2016-01-23T09:02:59Z</time>
      </trkpt>
      <trkpt lat="45.88233" lon="6.60254">
        <ele>1505.08</ele>
        <time>2016-01-23T09:03:00Z</time>
      </trkpt>
      <trkpt lat="45.88236" lon="6.60258">
        <ele>1505.08</ele>
        <time>2016-01-23T09:03:01Z</time>
      </trkpt>
      <trkpt lat="45.8824" lon="6.6026">
        <ele>1502.68</ele>
        <time>2016-01-23T09:03:02Z</time>
      </trkpt>
      <trkpt lat="45.88245" lon="6.6026">
        <ele>1500.76</ele>
        <time>2016-01-23T09:03:03Z</time>
      </trkpt>
      <trkpt lat="45.8825" lon="6.60262">
        <ele>1499.31</ele>
        <time>2016-01-23T09:03:04Z</time>
      </trkpt>
      <trkpt lat="45.88255" lon="6.60268">
        <ele>1497.87</ele>
        <time>2016-01-23T09:03:05Z</time>
      </trkpt>
      <trkpt lat="45.88259" lon="6.60273">
        <ele>1496.91</ele>
        <time>2016-01-23T09:03:06Z</time>
      </trkpt>
      <trkpt lat="45.88264" lon="6.60276">
        <ele>1495.95</ele>
        <time>2016-01-23T09:03:07Z</time>
      </trkpt>
      <trkpt lat="45.88268" lon="6.60275">
        <ele>1494.99</ele>
        <time>2016-01-23T09:03:08Z</time>
      </trkpt>
      <trkpt lat="45.88271" lon="6.60273">
        <ele>1494.51</ele>
        <time>2016-01-23T09:03:09Z</time>
      </trkpt>
      <trkpt lat="45.88275" lon="6.60272">
        <ele>1493.06</ele>
        <time>2016-01-23T09:03:10Z</time>
      </trkpt>
      <trkpt lat="45.88278" lon="6.60273">
        <ele>1491.14</ele>
        <time>2016-01-23T09:03:11Z</time>
      </trkpt>
      <trkpt lat="45.8828" lon="6.60275">
        <ele>1490.18</ele>
        <time>2016-01-23T09:03:12Z</time>
      </trkpt>
      <trkpt lat="45.88282" lon="6.60278">
        <ele>1488.74</ele>
        <time>2016-01-23T09:03:13Z</time>
      </trkpt>
      <trkpt lat="45.88284" lon="6.60282">
        <ele>1487.3</ele>
        <time>2016-01-23T09:03:14Z</time>
      </trkpt>
      <trkpt lat="45.88291" lon="6.60293">
        <ele>1482.97</ele>
        <time>2016-01-23T09:03:16Z</time>
      </trkpt>
      <trkpt lat="45.88295" lon="6.60301">
        <ele>1480.09</ele>
        <time>2016-01-23T09:03:17Z</time>
      </trkpt>
      <trkpt lat="45.88299" lon="6.60309">
        <ele>1479.13</ele>
        <time>2016-01-23T09:03:18Z</time>
      </trkpt>
      <trkpt lat="45.88305" lon="6.60316">
        <ele>1477.68</ele>
        <time>2016-01-23T09:03:19Z</time>
      </trkpt>
      <trkpt lat="45.8831" lon="6.60323">
        <ele>1475.76</ele>
        <time>2016-01-23T09:03:20Z</time>
      </trkpt>
      <trkpt lat="45.88315" lon="6.60331">
        <ele>1475.28</ele>
        <time>2016-01-23T09:03:21Z</time>
      </trkpt>
      <trkpt lat="45.88319" lon="6.60339">
        <ele>1474.8</ele>
        <time>2016-01-23T09:03:22Z</time>
      </trkpt>
      <trkpt lat="45.88324" lon="6.60344">
        <ele>1474.8</ele>
        <time>2016-01-23T09:03:23Z</time>
      </trkpt>
      <trkpt lat="45.88329" lon="6.60348">
        <ele>1473.36</ele>
        <time>2016-01-23T09:03:24Z</time>
      </trkpt>
      <trkpt lat="45.88335" lon="6.60354">
        <ele>1472.4</ele>
        <time>2016-01-23T09:03:25Z</time>
      </trkpt>
      <trkpt lat="45.88341" lon="6.6036">
        <ele>1470.47</ele>
        <time>2016-01-23T09:03:26Z</time>
      </trkpt>
      <trkpt lat="45.88355" lon="6.60372">
        <ele>1466.63</ele>
        <time>2016-01-23T09:03:28Z</time>
      </trkpt>
      <trkpt lat="45.88361" lon="6.6038">
        <ele>1464.23</ele>
        <time>2016-01-23T09:03:29Z</time>
      </trkpt>
      <trkpt lat="45.88366" lon="6.60389">
        <ele>1464.23</ele>
        <time>2016-01-23T09:03:30Z</time>
      </trkpt>
      <trkpt lat="45.88371" lon="6.60396">
        <ele>1464.23</ele>
        <time>2016-01-23T09:03:31Z</time>
      </trkpt>
      <trkpt lat="45.88376" lon="6.60402">
        <ele>1463.26</ele>
        <time>2016-01-23T09:03:32Z</time>
      </trkpt>
      <trkpt lat="45.8838" lon="6.60409">
        <ele>1463.26</ele>
        <time>2016-01-23T09:03:33Z</time>
      </trkpt>
      <trkpt lat="45.88384" lon="6.60415">
        <ele>1462.78</ele>
        <time>2016-01-23T09:03:34Z</time>
      </trkpt>
      <trkpt lat="45.88387" lon="6.60421">
        <ele>1462.3</ele>
        <time>2016-01-23T09:03:35Z</time>
      </trkpt>
      <trkpt lat="45.8839" lon="6.60427">
        <ele>1462.3</ele>
        <time>2016-01-23T09:03:36Z</time>
      </trkpt>
      <trkpt lat="45.88393" lon="6.60432">
        <ele>1461.82</ele>
        <time>2016-01-23T09:03:37Z</time>
      </trkpt>
      <trkpt lat="45.88397" lon="6.60436">
        <ele>1461.82</ele>
        <time>2016-01-23T09:03:38Z</time>
      </trkpt>
      <trkpt lat="45.884" lon="6.60441">
        <ele>1461.34</ele>
        <time>2016-01-23T09:03:39Z</time>
      </trkpt>
      <trkpt lat="45.88402" lon="6.60446">
        <ele>1461.34</ele>
        <time>2016-01-23T09:03:40Z</time>
      </trkpt>
      <trkpt lat="45.88405" lon="6.60452">
        <ele>1461.34</ele>
        <time>2016-01-23T09:03:41Z</time>
      </trkpt>
      <trkpt lat="45.88406" lon="6.60458">
        <ele>1461.34</ele>
        <time>2016-01-23T09:03:42Z</time>
      </trkpt>
      <trkpt lat="45.88408" lon="6.60464">
        <ele>1460.38</ele>
        <time>2016-01-23T09:03:43Z</time>
      </trkpt>
      <trkpt lat="45.8841" lon="6.60469">
        <ele>1460.38</ele>
        <time>2016-01-23T09:03:44Z</time>
      </trkpt>
      <trkpt lat="45.88413" lon="6.60471">
        <ele>1460.86</ele>
        <time>2016-01-23T09:03:45Z</time>
      </trkpt>
      <trkpt lat="45.88416" lon="6.60472">
        <ele>1460.38</ele>
        <time>2016-01-23T09:03:54Z</time>
      </trkpt>
      <trkpt lat="45.88418" lon="6.60471">
        <ele>1459.9</ele>
        <time>2016-01-23T09:03:56Z</time>
      </trkpt>
      <trkpt lat="45.88427" lon="6.60471">
        <ele>1457.5</ele>
        <time>2016-01-23T09:03:59Z</time>
      </trkpt>
      <trkpt lat="45.88437" lon="6.60474">
        <ele>1454.13</ele>
        <time>2016-01-23T09:04:01Z</time>
      </trkpt>
      <trkpt lat="45.88442" lon="6.60477">
        <ele>1452.21</ele>
        <time>2016-01-23T09:04:02Z</time>
      </trkpt>
      <trkpt lat="45.88448" lon="6.60482">
        <ele>1450.29</ele>
        <time>2016-01-23T09:04:03Z</time>
      </trkpt>
      <trkpt lat="45.88453" lon="6.60487">
        <ele>1450.29</ele>
        <time>2016-01-23T09:04:04Z</time>
      </trkpt>
      <trkpt lat="45.88459" lon="6.6049">
        <ele>1449.32</ele>
        <time>2016-01-23T09:04:05Z</time>
      </trkpt>
      <trkpt lat="45.88467" lon="6.60493">
        <ele>1445.96</ele>
        <time>2016-01-23T09:04:06Z</time>
      </trkpt>
      <trkpt lat="45.88474" lon="6.60499">
        <ele>1444.52</ele>
        <time>2016-01-23T09:04:07Z</time>
      </trkpt>
      <trkpt lat="45.88479" lon="6.60506">
        <ele>1444.52</ele>
        <time>2016-01-23T09:04:08Z</time>
      </trkpt>
      <trkpt lat="45.88486" lon="6.6051">
        <ele>1442.11</ele>
        <time>2016-01-23T09:04:09Z</time>
      </trkpt>
      <trkpt lat="45.88493" lon="6.60516">
        <ele>1438.27</ele>
        <time>2016-01-23T09:04:10Z</time>
      </trkpt>
      <trkpt lat="45.885" lon="6.60522">
        <ele>1436.35</ele>
        <time>2016-01-23T09:04:11Z</time>
      </trkpt>
      <trkpt lat="45.88507" lon="6.60526">
        <ele>1436.35</ele>
        <time>2016-01-23T09:04:12Z</time>
      </trkpt>
      <trkpt lat="45.88516" lon="6.6053">
        <ele>1431.54</ele>
        <time>2016-01-23T09:04:13Z</time>
      </trkpt>
      <trkpt lat="45.88525" lon="6.60537">
        <ele>1428.66</ele>
        <time>2016-01-23T09:04:14Z</time>
      </trkpt>
      <trkpt lat="45.88534" lon="6.60543">
        <ele>1426.73</ele>
        <time>2016-01-23T09:04:15Z</time>
      </trkpt>
      <trkpt lat="45.88543" lon="6.60546">
        <ele>1422.41</ele>
        <time>2016-01-23T09:04:16Z</time>
      </trkpt>
      <trkpt lat="45.88552" lon="6.60551">
        <ele>1421.45</ele>
        <time>2016-01-23T09:04:17Z</time>
      </trkpt>
      <trkpt lat="45.88578" lon="6.60572">
        <ele>1418.56</ele>
        <time>2016-01-23T09:04:20Z</time>
      </trkpt>
      <trkpt lat="45.88583" lon="6.60581">
        <ele>1420.49</ele>
        <time>2016-01-23T09:04:21Z</time>
      </trkpt>
      <trkpt lat="45.88588" lon="6.60591">
        <ele>1420</ele>
        <time>2016-01-23T09:04:22Z</time>
      </trkpt>
      <trkpt lat="45.88595" lon="6.606">
        <ele>1418.56</ele>
        <time>2016-01-23T09:04:23Z</time>
      </trkpt>
      <trkpt lat="45.88601" lon="6.60608">
        <ele>1418.56</ele>
        <time>2016-01-23T09:04:24Z</time>
      </trkpt>
      <trkpt lat="45.88625" lon="6.60644">
        <ele>1415.2</ele>
        <time>2016-01-23T09:04:28Z</time>
      </trkpt>
      <trkpt lat="45.88642" lon="6.60673">
        <ele>1412.31</ele>
        <time>2016-01-23T09:04:31Z</time>
      </trkpt>
      <trkpt lat="45.88667" lon="6.60708">
        <ele>1409.43</ele>
        <time>2016-01-23T09:04:35Z</time>
      </trkpt>
      <trkpt lat="45.88674" lon="6.60715">
        <ele>1407.51</ele>
        <time>2016-01-23T09:04:36Z</time>
      </trkpt>
      <trkpt lat="45.8869" lon="6.60727">
        <ele>1403.66</ele>
        <time>2016-01-23T09:04:38Z</time>
      </trkpt>
      <trkpt lat="45.88699" lon="6.60733">
        <ele>1399.82</ele>
        <time>2016-01-23T09:04:39Z</time>
      </trkpt>
      <trkpt lat="45.88708" lon="6.60741">
        <ele>1396.93</ele>
        <time>2016-01-23T09:04:40Z</time>
      </trkpt>
      <trkpt lat="45.88717" lon="6.60747">
        <ele>1395.97</ele>
        <time>2016-01-23T09:04:41Z</time>
      </trkpt>
      <trkpt lat="45.88726" lon="6.60752">
        <ele>1393.57</ele>
        <time>2016-01-23T09:04:42Z</time>
      </trkpt>
      <trkpt lat="45.88736" lon="6.60758">
        <ele>1391.65</ele>
        <time>2016-01-23T09:04:43Z</time>
      </trkpt>
      <trkpt lat="45.88745" lon="6.60764">
        <ele>1388.76</ele>
        <time>2016-01-23T09:04:44Z</time>
      </trkpt>
      <trkpt lat="45.88756" lon="6.60772">
        <ele>1384.44</ele>
        <time>2016-01-23T09:04:45Z</time>
      </trkpt>
      <trkpt lat="45.88773" lon="6.60797">
        <ele>1381.07</ele>
        <time>2016-01-23T09:04:47Z</time>
      </trkpt>
      <trkpt lat="45.88782" lon="6.60808">
        <ele>1378.67</ele>
        <time>2016-01-23T09:04:48Z</time>
      </trkpt>
      <trkpt lat="45.88787" lon="6.60819">
        <ele>1376.26</ele>
        <time>2016-01-23T09:04:49Z</time>
      </trkpt>
      <trkpt lat="45.88792" lon="6.60832">
        <ele>1375.3</ele>
        <time>2016-01-23T09:04:50Z</time>
      </trkpt>
      <trkpt lat="45.88797" lon="6.60844">
        <ele>1376.75</ele>
        <time>2016-01-23T09:04:51Z</time>
      </trkpt>
      <trkpt lat="45.88801" lon="6.60856">
        <ele>1374.82</ele>
        <time>2016-01-23T09:04:52Z</time>
      </trkpt>
      <trkpt lat="45.88805" lon="6.60867">
        <ele>1371.94</ele>
        <time>2016-01-23T09:04:53Z</time>
      </trkpt>
      <trkpt lat="45.88809" lon="6.60879">
        <ele>1371.46</ele>
        <time>2016-01-23T09:04:54Z</time>
      </trkpt>
      <trkpt lat="45.88813" lon="6.6089">
        <ele>1370.98</ele>
        <time>2016-01-23T09:04:55Z</time>
      </trkpt>
      <trkpt lat="45.88818" lon="6.60899">
        <ele>1368.57</ele>
        <time>2016-01-23T09:04:56Z</time>
      </trkpt>
      <trkpt lat="45.88823" lon="6.60909">
        <ele>1364.73</ele>
        <time>2016-01-23T09:04:57Z</time>
      </trkpt>
      <trkpt lat="45.88835" lon="6.60932">
        <ele>1360.4</ele>
        <time>2016-01-23T09:04:59Z</time>
      </trkpt>
      <trkpt lat="45.88841" lon="6.60946">
        <ele>1357.04</ele>
        <time>2016-01-23T09:05:00Z</time>
      </trkpt>
      <trkpt lat="45.88848" lon="6.60964">
        <ele>1360.4</ele>
        <time>2016-01-23T09:05:05Z</time>
      </trkpt>
      <trkpt lat="45.88851" lon="6.60981">
        <ele>1356.56</ele>
        <time>2016-01-23T09:05:14Z</time>
      </trkpt>
      <trkpt lat="45.88856" lon="6.60998">
        <ele>1353.19</ele>
        <time>2016-01-23T09:05:16Z</time>
      </trkpt>
      <trkpt lat="45.88859" lon="6.6101">
        <ele>1351.27</ele>
        <time>2016-01-23T09:05:17Z</time>
      </trkpt>
      <trkpt lat="45.88866" lon="6.61031">
        <ele>1349.83</ele>
        <time>2016-01-23T09:05:19Z</time>
      </trkpt>
      <trkpt lat="45.88873" lon="6.61053">
        <ele>1347.91</ele>
        <time>2016-01-23T09:05:23Z</time>
      </trkpt>
      <trkpt lat="45.88873" lon="6.61056">
        <ele>1347.91</ele>
        <time>2016-01-23T09:05:29Z</time>
      </trkpt>
      <trkpt lat="45.88872" lon="6.61068">
        <ele>1347.43</ele>
        <time>2016-01-23T09:05:33Z</time>
      </trkpt>
      <trkpt lat="45.88869" lon="6.61093">
        <ele>1346.46</ele>
        <time>2016-01-23T09:05:39Z</time>
      </trkpt>
      <trkpt lat="45.88864" lon="6.611">
        <ele>1346.46</ele>
        <time>2016-01-23T09:05:44Z</time>
      </trkpt>
      <trkpt lat="45.88854" lon="6.61101">
        <ele>1345.98</ele>
        <time>2016-01-23T09:05:54Z</time>
      </trkpt>
      <trkpt lat="45.88853" lon="6.61096">
        <ele>1345.98</ele>
        <time>2016-01-23T09:05:57Z</time>
      </trkpt>
      <trkpt lat="45.8885" lon="6.61092">
        <ele>1345.5</ele>
        <time>2016-01-23T09:06:07Z</time>
      </trkpt>
      <trkpt lat="45.8885" lon="6.61091">
        <ele>1345.5</ele>
        <time>2016-01-23T09:06:09Z</time>
      </trkpt>
      <trkpt lat="45.88848" lon="6.61089">
        <ele>1345.5</ele>
        <time>2016-01-23T09:06:18Z</time>
      </trkpt>
      <trkpt lat="45.88846" lon="6.61086">
        <ele>1345.5</ele>
        <time>2016-01-23T09:06:24Z</time>
      </trkpt>
      <trkpt lat="45.88831" lon="6.61048">
        <ele>1348.87</ele>
        <time>2016-01-23T09:06:33Z</time>
      </trkpt>
      <trkpt lat="45.88826" lon="6.61039">
        <ele>1351.75</ele>
        <time>2016-01-23T09:06:35Z</time>
      </trkpt>
      <trkpt lat="45.88823" lon="6.6103">
        <ele>1355.12</ele>
        <time>2016-01-23T09:06:37Z</time>
      </trkpt>
      <trkpt lat="45.88819" lon="6.6102">
        <ele>1357.04</ele>
        <time>2016-01-23T09:06:39Z</time>
      </trkpt>
      <trkpt lat="45.88811" lon="6.61">
        <ele>1360.4</ele>
        <time>2016-01-23T09:06:43Z</time>
      </trkpt>
      <trkpt lat="45.88804" lon="6.60982">
        <ele>1363.77</ele>
        <time>2016-01-23T09:06:47Z</time>
      </trkpt>
      <trkpt lat="45.88796" lon="6.60963">
        <ele>1367.13</ele>
        <time>2016-01-23T09:06:51Z</time>
      </trkpt>
      <trkpt lat="45.88789" lon="6.60943">
        <ele>1370.98</ele>
        <time>2016-01-23T09:06:55Z</time>
      </trkpt>
      <trkpt lat="45.88781" lon="6.60924">
        <ele>1374.82</ele>
        <time>2016-01-23T09:06:59Z</time>
      </trkpt>
      <trkpt lat="45.88775" lon="6.6091">
        <ele>1378.19</ele>
        <time>2016-01-23T09:07:02Z</time>
      </trkpt>
      <trkpt lat="45.88766" lon="6.60889">
        <ele>1381.55</ele>
        <time>2016-01-23T09:07:07Z</time>
      </trkpt>
      <trkpt lat="45.88758" lon="6.60871">
        <ele>1384.44</ele>
        <time>2016-01-23T09:07:11Z</time>
      </trkpt>
      <trkpt lat="45.88756" lon="6.60867">
        <ele>1384.44</ele>
        <time>2016-01-23T09:07:12Z</time>
      </trkpt>
      <trkpt lat="45.88748" lon="6.60848">
        <ele>1388.28</ele>
        <time>2016-01-23T09:07:16Z</time>
      </trkpt>
      <trkpt lat="45.88741" lon="6.60827">
        <ele>1392.61</ele>
        <time>2016-01-23T09:07:21Z</time>
      </trkpt>
      <trkpt lat="45.88735" lon="6.60807">
        <ele>1396.45</ele>
        <time>2016-01-23T09:07:25Z</time>
      </trkpt>
      <trkpt lat="45.8873" lon="6.60789">
        <ele>1400.3</ele>
        <time>2016-01-23T09:07:29Z</time>
      </trkpt>
      <trkpt lat="45.88727" lon="6.60776">
        <ele>1403.66</ele>
        <time>2016-01-23T09:07:32Z</time>
      </trkpt>
      <trkpt lat="45.8872" lon="6.60761">
        <ele>1406.55</ele>
        <time>2016-01-23T09:07:36Z</time>
      </trkpt>
      <trkpt lat="45.88704" lon="6.60732">
        <ele>1409.91</ele>
        <time>2016-01-23T09:07:43Z</time>
      </trkpt>
      <trkpt lat="45.8869" lon="6.60706">
        <ele>1413.28</ele>
        <time>2016-01-23T09:07:49Z</time>
      </trkpt>
      <trkpt lat="45.88681" lon="6.60684">
        <ele>1416.64</ele>
        <time>2016-01-23T09:07:54Z</time>
      </trkpt>
      <trkpt lat="45.88672" lon="6.60663">
        <ele>1420.49</ele>
        <time>2016-01-23T09:07:59Z</time>
      </trkpt>
      <trkpt lat="45.88665" lon="6.60645">
        <ele>1423.37</ele>
        <time>2016-01-23T09:08:03Z</time>
      </trkpt>
      <trkpt lat="45.88659" lon="6.60627">
        <ele>1426.73</ele>
        <time>2016-01-23T09:08:07Z</time>
      </trkpt>
      <trkpt lat="45.88652" lon="6.60611">
        <ele>1430.1</ele>
        <time>2016-01-23T09:08:11Z</time>
      </trkpt>
      <trkpt lat="45.88651" lon="6.60606">
        <ele>1430.1</ele>
        <time>2016-01-23T09:08:12Z</time>
      </trkpt>
      <trkpt lat="45.88646" lon="6.60593">
        <ele>1432.02</ele>
        <time>2016-01-23T09:08:15Z</time>
      </trkpt>
      <trkpt lat="45.88637" lon="6.60566">
        <ele>1434.91</ele>
        <time>2016-01-23T09:08:21Z</time>
      </trkpt>
      <trkpt lat="45.88627" lon="6.60538">
        <ele>1438.27</ele>
        <time>2016-01-23T09:08:27Z</time>
      </trkpt>
      <trkpt lat="45.88617" lon="6.60516">
        <ele>1441.63</ele>
        <time>2016-01-23T09:08:32Z</time>
      </trkpt>
      <trkpt lat="45.88604" lon="6.60496">
        <ele>1444.52</ele>
        <time>2016-01-23T09:08:37Z</time>
      </trkpt>
      <trkpt lat="45.88589" lon="6.60489">
        <ele>1447.88</ele>
        <time>2016-01-23T09:08:41Z</time>
      </trkpt>
      <trkpt lat="45.88581" lon="6.60474">
        <ele>1451.25</ele>
        <time>2016-01-23T09:08:45Z</time>
      </trkpt>
      <trkpt lat="45.88576" lon="6.60462">
        <ele>1454.61</ele>
        <time>2016-01-23T09:08:48Z</time>
      </trkpt>
      <trkpt lat="45.88568" lon="6.60446">
        <ele>1456.53</ele>
        <time>2016-01-23T09:08:52Z</time>
      </trkpt>
      <trkpt lat="45.88559" lon="6.60426">
        <ele>1459.42</ele>
        <time>2016-01-23T09:08:57Z</time>
      </trkpt>
      <trkpt lat="45.88553" lon="6.60413">
        <ele>1461.34</ele>
        <time>2016-01-23T09:09:00Z</time>
      </trkpt>
      <trkpt lat="45.8854" lon="6.60387">
        <ele>1465.19</ele>
        <time>2016-01-23T09:09:06Z</time>
      </trkpt>
      <trkpt lat="45.8853" lon="6.60367">
        <ele>1469.03</ele>
        <time>2016-01-23T09:09:11Z</time>
      </trkpt>
      <trkpt lat="45.88523" lon="6.6035">
        <ele>1472.4</ele>
        <time>2016-01-23T09:09:15Z</time>
      </trkpt>
      <trkpt lat="45.88515" lon="6.60333">
        <ele>1475.76</ele>
        <time>2016-01-23T09:09:19Z</time>
      </trkpt>
      <trkpt lat="45.88507" lon="6.60316">
        <ele>1479.61</ele>
        <time>2016-01-23T09:09:23Z</time>
      </trkpt>
      <trkpt lat="45.88499" lon="6.60298">
        <ele>1483.93</ele>
        <time>2016-01-23T09:09:27Z</time>
      </trkpt>
      <trkpt lat="45.88494" lon="6.60287">
        <ele>1486.82</ele>
        <time>2016-01-23T09:09:30Z</time>
      </trkpt>
      <trkpt lat="45.88489" lon="6.60276">
        <ele>1490.18</ele>
        <time>2016-01-23T09:09:33Z</time>
      </trkpt>
      <trkpt lat="45.88479" lon="6.60251">
        <ele>1493.55</ele>
        <time>2016-01-23T09:09:39Z</time>
      </trkpt>
      <trkpt lat="45.88469" lon="6.60229">
        <ele>1496.91</ele>
        <time>2016-01-23T09:09:44Z</time>
      </trkpt>
      <trkpt lat="45.88461" lon="6.6021">
        <ele>1500.27</ele>
        <time>2016-01-23T09:09:48Z</time>
      </trkpt>
      <trkpt lat="45.88455" lon="6.60197">
        <ele>1503.64</ele>
        <time>2016-01-23T09:09:51Z</time>
      </trkpt>
      <trkpt lat="45.88448" lon="6.60181">
        <ele>1507</ele>
        <time>2016-01-23T09:09:55Z</time>
      </trkpt>
      <trkpt lat="45.88445" lon="6.60176">
        <ele>1507</ele>
        <time>2016-01-23T09:09:56Z</time>
      </trkpt>
      <trkpt lat="45.88432" lon="6.60145">
        <ele>1510.37</ele>
        <time>2016-01-23T09:10:03Z</time>
      </trkpt>
      <trkpt lat="45.8842" lon="6.60119">
        <ele>1513.73</ele>
        <time>2016-01-23T09:10:09Z</time>
      </trkpt>
      <trkpt lat="45.88419" lon="6.60115">
        <ele>1513.73</ele>
        <time>2016-01-23T09:10:10Z</time>
      </trkpt>
      <trkpt lat="45.88409" lon="6.60093">
        <ele>1517.1</ele>
        <time>2016-01-23T09:10:15Z</time>
      </trkpt>
      <trkpt lat="45.88402" lon="6.60076">
        <ele>1519.98</ele>
        <time>2016-01-23T09:10:19Z</time>
      </trkpt>
      <trkpt lat="45.88395" lon="6.60058">
        <ele>1522.87</ele>
        <time>2016-01-23T09:10:23Z</time>
      </trkpt>
      <trkpt lat="45.8839" lon="6.60045">
        <ele>1526.23</ele>
        <time>2016-01-23T09:10:26Z</time>
      </trkpt>
      <trkpt lat="45.88381" lon="6.60023">
        <ele>1529.59</ele>
        <time>2016-01-23T09:10:31Z</time>
      </trkpt>
      <trkpt lat="45.88373" lon="6.60005">
        <ele>1532.96</ele>
        <time>2016-01-23T09:10:35Z</time>
      </trkpt>
      <trkpt lat="45.88363" lon="6.59984">
        <ele>1536.8</ele>
        <time>2016-01-23T09:10:40Z</time>
      </trkpt>
      <trkpt lat="45.88355" lon="6.59966">
        <ele>1540.17</ele>
        <time>2016-01-23T09:10:44Z</time>
      </trkpt>
      <trkpt lat="45.88348" lon="6.59949">
        <ele>1544.5</ele>
        <time>2016-01-23T09:10:48Z</time>
      </trkpt>
      <trkpt lat="45.88341" lon="6.59932">
        <ele>1548.34</ele>
        <time>2016-01-23T09:10:52Z</time>
      </trkpt>
      <trkpt lat="45.88333" lon="6.59915">
        <ele>1552.67</ele>
        <time>2016-01-23T09:10:56Z</time>
      </trkpt>
      <trkpt lat="45.88328" lon="6.59903">
        <ele>1556.03</ele>
        <time>2016-01-23T09:10:59Z</time>
      </trkpt>
      <trkpt lat="45.88323" lon="6.5989">
        <ele>1559.4</ele>
        <time>2016-01-23T09:11:02Z</time>
      </trkpt>
      <trkpt lat="45.88317" lon="6.59878">
        <ele>1562.76</ele>
        <time>2016-01-23T09:11:05Z</time>
      </trkpt>
      <trkpt lat="45.88312" lon="6.59865">
        <ele>1566.61</ele>
        <time>2016-01-23T09:11:08Z</time>
      </trkpt>
      <trkpt lat="45.88307" lon="6.59853">
        <ele>1570.45</ele>
        <time>2016-01-23T09:11:11Z</time>
      </trkpt>
      <trkpt lat="45.88297" lon="6.59831">
        <ele>1573.82</ele>
        <time>2016-01-23T09:11:16Z</time>
      </trkpt>
      <trkpt lat="45.8829" lon="6.59813">
        <ele>1577.18</ele>
        <time>2016-01-23T09:11:20Z</time>
      </trkpt>
      <trkpt lat="45.88282" lon="6.59796">
        <ele>1580.54</ele>
        <time>2016-01-23T09:11:24Z</time>
      </trkpt>
      <trkpt lat="45.88275" lon="6.59779">
        <ele>1583.91</ele>
        <time>2016-01-23T09:11:28Z</time>
      </trkpt>
      <trkpt lat="45.88267" lon="6.59762">
        <ele>1587.75</ele>
        <time>2016-01-23T09:11:32Z</time>
      </trkpt>
      <trkpt lat="45.8826" lon="6.59746">
        <ele>1592.08</ele>
        <time>2016-01-23T09:11:36Z</time>
      </trkpt>
      <trkpt lat="45.88253" lon="6.59729">
        <ele>1596.41</ele>
        <time>2016-01-23T09:11:40Z</time>
      </trkpt>
      <trkpt lat="45.88248" lon="6.59716">
        <ele>1599.29</ele>
        <time>2016-01-23T09:11:43Z</time>
      </trkpt>
      <trkpt lat="45.88242" lon="6.59703">
        <ele>1602.66</ele>
        <time>2016-01-23T09:11:46Z</time>
      </trkpt>
      <trkpt lat="45.88236" lon="6.59691">
        <ele>1606.5</ele>
        <time>2016-01-23T09:11:49Z</time>
      </trkpt>
      <trkpt lat="45.88228" lon="6.59674">
        <ele>1610.35</ele>
        <time>2016-01-23T09:11:53Z</time>
      </trkpt>
      <trkpt lat="45.88218" lon="6.59652">
        <ele>1614.19</ele>
        <time>2016-01-23T09:11:58Z</time>
      </trkpt>
      <trkpt lat="45.88209" lon="6.59632">
        <ele>1617.07</ele>
        <time>2016-01-23T09:12:03Z</time>
      </trkpt>
      <trkpt lat="45.88191" lon="6.59593">
        <ele>1620.44</ele>
        <time>2016-01-23T09:12:12Z</time>
      </trkpt>
      <trkpt lat="45.88177" lon="6.59562">
        <ele>1623.8</ele>
        <time>2016-01-23T09:12:19Z</time>
      </trkpt>
      <trkpt lat="45.88168" lon="6.59541">
        <ele>1627.17</ele>
        <time>2016-01-23T09:12:24Z</time>
      </trkpt>
      <trkpt lat="45.88158" lon="6.59519">
        <ele>1630.53</ele>
        <time>2016-01-23T09:12:29Z</time>
      </trkpt>
      <trkpt lat="45.88147" lon="6.59493">
        <ele>1633.42</ele>
        <time>2016-01-23T09:12:35Z</time>
      </trkpt>
      <trkpt lat="45.88133" lon="6.59463">
        <ele>1636.78</ele>
        <time>2016-01-23T09:12:42Z</time>
      </trkpt>
      <trkpt lat="45.88122" lon="6.59437">
        <ele>1640.63</ele>
        <time>2016-01-23T09:12:48Z</time>
      </trkpt>
      <trkpt lat="45.88112" lon="6.59415">
        <ele>1643.99</ele>
        <time>2016-01-23T09:12:53Z</time>
      </trkpt>
      <trkpt lat="45.88105" lon="6.59398">
        <ele>1646.88</ele>
        <time>2016-01-23T09:12:57Z</time>
      </trkpt>
      <trkpt lat="45.88098" lon="6.5938">
        <ele>1650.72</ele>
        <time>2016-01-23T09:13:01Z</time>
      </trkpt>
      <trkpt lat="45.88088" lon="6.59359">
        <ele>1654.09</ele>
        <time>2016-01-23T09:13:06Z</time>
      </trkpt>
      <trkpt lat="45.8808" lon="6.59341">
        <ele>1657.93</ele>
        <time>2016-01-23T09:13:10Z</time>
      </trkpt>
      <trkpt lat="45.88072" lon="6.59326">
        <ele>1661.3</ele>
        <time>2016-01-23T09:13:14Z</time>
      </trkpt>
      <trkpt lat="45.88065" lon="6.5931">
        <ele>1665.14</ele>
        <time>2016-01-23T09:13:18Z</time>
      </trkpt>
      <trkpt lat="45.88057" lon="6.59293">
        <ele>1668.99</ele>
        <time>2016-01-23T09:13:22Z</time>
      </trkpt>
      <trkpt lat="45.88051" lon="6.5928">
        <ele>1671.87</ele>
        <time>2016-01-23T09:13:25Z</time>
      </trkpt>
      <trkpt lat="45.88046" lon="6.59267">
        <ele>1675.23</ele>
        <time>2016-01-23T09:13:28Z</time>
      </trkpt>
      <trkpt lat="45.8804" lon="6.59253">
        <ele>1678.6</ele>
        <time>2016-01-23T09:13:31Z</time>
      </trkpt>
      <trkpt lat="45.88035" lon="6.5924">
        <ele>1681.96</ele>
        <time>2016-01-23T09:13:34Z</time>
      </trkpt>
      <trkpt lat="45.8803" lon="6.59227">
        <ele>1685.33</ele>
        <time>2016-01-23T09:13:37Z</time>
      </trkpt>
      <trkpt lat="45.88024" lon="6.59215">
        <ele>1689.17</ele>
        <time>2016-01-23T09:13:40Z</time>
      </trkpt>
      <trkpt lat="45.88019" lon="6.59202">
        <ele>1692.54</ele>
        <time>2016-01-23T09:13:43Z</time>
      </trkpt>
      <trkpt lat="45.88013" lon="6.59189">
        <ele>1696.86</ele>
        <time>2016-01-23T09:13:46Z</time>
      </trkpt>
      <trkpt lat="45.88008" lon="6.59177">
        <ele>1700.23</ele>
        <time>2016-01-23T09:13:49Z</time>
      </trkpt>
      <trkpt lat="45.88002" lon="6.59163">
        <ele>1704.07</ele>
        <time>2016-01-23T09:13:52Z</time>
      </trkpt>
      <trkpt lat="45.87997" lon="6.59152">
        <ele>1707.92</ele>
        <time>2016-01-23T09:13:55Z</time>
      </trkpt>
      <trkpt lat="45.87991" lon="6.59139">
        <ele>1711.76</ele>
        <time>2016-01-23T09:13:58Z</time>
      </trkpt>
      <trkpt lat="45.87986" lon="6.59126">
        <ele>1716.09</ele>
        <time>2016-01-23T09:14:01Z</time>
      </trkpt>
      <trkpt lat="45.8798" lon="6.59114">
        <ele>1719.94</ele>
        <time>2016-01-23T09:14:04Z</time>
      </trkpt>
      <trkpt lat="45.87977" lon="6.59105">
        <ele>1723.3</ele>
        <time>2016-01-23T09:14:06Z</time>
      </trkpt>
      <trkpt lat="45.87972" lon="6.59093">
        <ele>1727.15</ele>
        <time>2016-01-23T09:14:09Z</time>
      </trkpt>
      <trkpt lat="45.87968" lon="6.59085">
        <ele>1730.51</ele>
        <time>2016-01-23T09:14:11Z</time>
      </trkpt>
      <trkpt lat="45.87963" lon="6.59073">
        <ele>1734.84</ele>
        <time>2016-01-23T09:14:14Z</time>
      </trkpt>
      <trkpt lat="45.87957" lon="6.59061">
        <ele>1739.16</ele>
        <time>2016-01-23T09:14:17Z</time>
      </trkpt>
      <trkpt lat="45.87954" lon="6.59053">
        <ele>1742.53</ele>
        <time>2016-01-23T09:14:19Z</time>
      </trkpt>
      <trkpt lat="45.8795" lon="6.59045">
        <ele>1745.89</ele>
        <time>2016-01-23T09:14:21Z</time>
      </trkpt>
      <trkpt lat="45.87944" lon="6.59032">
        <ele>1748.78</ele>
        <time>2016-01-23T09:14:24Z</time>
      </trkpt>
      <trkpt lat="45.87936" lon="6.59015">
        <ele>1752.62</ele>
        <time>2016-01-23T09:14:28Z</time>
      </trkpt>
      <trkpt lat="45.87934" lon="6.59011">
        <ele>1752.62</ele>
        <time>2016-01-23T09:14:29Z</time>
      </trkpt>
      <trkpt lat="45.87917" lon="6.58971">
        <ele>1755.99</ele>
        <time>2016-01-23T09:14:38Z</time>
      </trkpt>
      <trkpt lat="45.8789" lon="6.58911">
        <ele>1758.87</ele>
        <time>2016-01-23T09:14:54Z</time>
      </trkpt>
      <trkpt lat="45.87889" lon="6.58909">
        <ele>1758.87</ele>
        <time>2016-01-23T09:14:55Z</time>
      </trkpt>
      <trkpt lat="45.87888" lon="6.58907">
        <ele>1758.87</ele>
        <time>2016-01-23T09:14:56Z</time>
      </trkpt>
      <trkpt lat="45.87888" lon="6.58904">
        <ele>1758.87</ele>
        <time>2016-01-23T09:14:57Z</time>
      </trkpt>
      <trkpt lat="45.87888" lon="6.58903">
        <ele>1758.87</ele>
        <time>2016-01-23T09:14:58Z</time>
      </trkpt>
      <trkpt lat="45.87887" lon="6.58901">
        <ele>1758.87</ele>
        <time>2016-01-23T09:14:59Z</time>
      </trkpt>
      <trkpt lat="45.87887" lon="6.58899">
        <ele>1757.43</ele>
        <time>2016-01-23T09:15:00Z</time>
      </trkpt>
      <trkpt lat="45.87886" lon="6.58897">
        <ele>1757.43</ele>
        <time>2016-01-23T09:15:01Z</time>
      </trkpt>
      <trkpt lat="45.87884" lon="6.58896">
        <ele>1757.43</ele>
        <time>2016-01-23T09:15:02Z</time>
      </trkpt>
      <trkpt lat="45.87885" lon="6.58893">
        <ele>1757.43</ele>
        <time>2016-01-23T09:15:06Z</time>
      </trkpt>
      <trkpt lat="45.87885" lon="6.58893">
        <ele>1757.43</ele>
        <time>2016-01-23T09:15:08Z</time>
      </trkpt>
      <trkpt lat="45.87885" lon="6.58894">
        <ele>1757.43</ele>
        <time>2016-01-23T09:15:15Z</time>
      </trkpt>
      <trkpt lat="45.87883" lon="6.58894">
        <ele>1758.39</ele>
        <time>2016-01-23T09:15:21Z</time>
      </trkpt>
      <trkpt lat="45.87883" lon="6.58896">
        <ele>1758.39</ele>
        <time>2016-01-23T09:15:36Z</time>
      </trkpt>
      <trkpt lat="45.87878" lon="6.58895">
        <ele>1758.87</ele>
        <time>2016-01-23T09:15:54Z</time>
      </trkpt>
      <trkpt lat="45.87872" lon="6.58909">
        <ele>1757.43</ele>
        <time>2016-01-23T09:16:04Z</time>
      </trkpt>
      <trkpt lat="45.87858" lon="6.58928">
        <ele>1755.02</ele>
        <time>2016-01-23T09:16:11Z</time>
      </trkpt>
      <trkpt lat="45.87854" lon="6.5893">
        <ele>1754.54</ele>
        <time>2016-01-23T09:16:12Z</time>
      </trkpt>
      <trkpt lat="45.87851" lon="6.58932">
        <ele>1753.58</ele>
        <time>2016-01-23T09:16:13Z</time>
      </trkpt>
      <trkpt lat="45.87849" lon="6.58936">
        <ele>1753.1</ele>
        <time>2016-01-23T09:16:14Z</time>
      </trkpt>
      <trkpt lat="45.87847" lon="6.58941">
        <ele>1753.1</ele>
        <time>2016-01-23T09:16:15Z</time>
      </trkpt>
      <trkpt lat="45.87845" lon="6.58946">
        <ele>1752.14</ele>
        <time>2016-01-23T09:16:16Z</time>
      </trkpt>
      <trkpt lat="45.87843" lon="6.58949">
        <ele>1751.66</ele>
        <time>2016-01-23T09:16:17Z</time>
      </trkpt>
      <trkpt lat="45.8784" lon="6.58951">
        <ele>1750.7</ele>
        <time>2016-01-23T09:16:18Z</time>
      </trkpt>
      <trkpt lat="45.87838" lon="6.58954">
        <ele>1750.7</ele>
        <time>2016-01-23T09:16:19Z</time>
      </trkpt>
      <trkpt lat="45.87836" lon="6.58957">
        <ele>1750.22</ele>
        <time>2016-01-23T09:16:20Z</time>
      </trkpt>
      <trkpt lat="45.87835" lon="6.5896">
        <ele>1749.26</ele>
        <time>2016-01-23T09:16:21Z</time>
      </trkpt>
      <trkpt lat="45.87833" lon="6.58963">
        <ele>1748.78</ele>
        <time>2016-01-23T09:16:22Z</time>
      </trkpt>
      <trkpt lat="45.87831" lon="6.58967">
        <ele>1747.81</ele>
        <time>2016-01-23T09:16:23Z</time>
      </trkpt>
      <trkpt lat="45.87822" lon="6.58986">
        <ele>1742.53</ele>
        <time>2016-01-23T09:16:26Z</time>
      </trkpt>
      <trkpt lat="45.8782" lon="6.58992">
        <ele>1742.53</ele>
        <time>2016-01-23T09:16:27Z</time>
      </trkpt>
      <trkpt lat="45.87815" lon="6.59002">
        <ele>1741.08</ele>
        <time>2016-01-23T09:16:29Z</time>
      </trkpt>
      <trkpt lat="45.87805" lon="6.59021">
        <ele>1738.68</ele>
        <time>2016-01-23T09:16:32Z</time>
      </trkpt>
      <trkpt lat="45.87804" lon="6.59026">
        <ele>1737.72</ele>
        <time>2016-01-23T09:16:33Z</time>
      </trkpt>
      <trkpt lat="45.87804" lon="6.59033">
        <ele>1736.28</ele>
        <time>2016-01-23T09:16:34Z</time>
      </trkpt>
      <trkpt lat="45.87803" lon="6.59041">
        <ele>1735.32</ele>
        <time>2016-01-23T09:16:35Z</time>
      </trkpt>
      <trkpt lat="45.87801" lon="6.59046">
        <ele>1734.36</ele>
        <time>2016-01-23T09:16:36Z</time>
      </trkpt>
      <trkpt lat="45.87795" lon="6.59051">
        <ele>1732.91</ele>
        <time>2016-01-23T09:16:37Z</time>
      </trkpt>
      <trkpt lat="45.8779" lon="6.59054">
        <ele>1731.47</ele>
        <time>2016-01-23T09:16:38Z</time>
      </trkpt>
      <trkpt lat="45.87784" lon="6.59059">
        <ele>1729.07</ele>
        <time>2016-01-23T09:16:39Z</time>
      </trkpt>
      <trkpt lat="45.87781" lon="6.59066">
        <ele>1728.11</ele>
        <time>2016-01-23T09:16:40Z</time>
      </trkpt>
      <trkpt lat="45.87778" lon="6.59076">
        <ele>1726.18</ele>
        <time>2016-01-23T09:16:41Z</time>
      </trkpt>
      <trkpt lat="45.87774" lon="6.59086">
        <ele>1724.26</ele>
        <time>2016-01-23T09:16:42Z</time>
      </trkpt>
      <trkpt lat="45.87771" lon="6.59094">
        <ele>1725.7</ele>
        <time>2016-01-23T09:16:43Z</time>
      </trkpt>
      <trkpt lat="45.87768" lon="6.59102">
        <ele>1726.18</ele>
        <time>2016-01-23T09:16:44Z</time>
      </trkpt>
      <trkpt lat="45.87767" lon="6.59105">
        <ele>1724.74</ele>
        <time>2016-01-23T09:16:45Z</time>
      </trkpt>
      <trkpt lat="45.87764" lon="6.59109">
        <ele>1724.74</ele>
        <time>2016-01-23T09:16:55Z</time>
      </trkpt>
      <trkpt lat="45.8776" lon="6.59106">
        <ele>1724.74</ele>
        <time>2016-01-23T09:17:10Z</time>
      </trkpt>
      <trkpt lat="45.87761" lon="6.59111">
        <ele>1724.26</ele>
        <time>2016-01-23T09:17:16Z</time>
      </trkpt>
      <trkpt lat="45.87757" lon="6.59129">
        <ele>1721.38</ele>
        <time>2016-01-23T09:17:23Z</time>
      </trkpt>
      <trkpt lat="45.8775" lon="6.59142">
        <ele>1718.49</ele>
        <time>2016-01-23T09:17:25Z</time>
      </trkpt>
      <trkpt lat="45.87747" lon="6.59151">
        <ele>1717.53</ele>
        <time>2016-01-23T09:17:26Z</time>
      </trkpt>
      <trkpt lat="45.87741" lon="6.59168">
        <ele>1714.17</ele>
        <time>2016-01-23T09:17:28Z</time>
      </trkpt>
      <trkpt lat="45.87734" lon="6.59185">
        <ele>1712.25</ele>
        <time>2016-01-23T09:17:30Z</time>
      </trkpt>
      <trkpt lat="45.87728" lon="6.59201">
        <ele>1709.84</ele>
        <time>2016-01-23T09:17:32Z</time>
      </trkpt>
      <trkpt lat="45.87722" lon="6.59209">
        <ele>1707.92</ele>
        <time>2016-01-23T09:17:33Z</time>
      </trkpt>
      <trkpt lat="45.87704" lon="6.59226">
        <ele>1703.59</ele>
        <time>2016-01-23T09:17:36Z</time>
      </trkpt>
      <trkpt lat="45.87697" lon="6.59234">
        <ele>1701.67</ele>
        <time>2016-01-23T09:17:37Z</time>
      </trkpt>
      <trkpt lat="45.87693" lon="6.59241">
        <ele>1701.67</ele>
        <time>2016-01-23T09:17:38Z</time>
      </trkpt>
      <trkpt lat="45.8769" lon="6.59247">
        <ele>1703.11</ele>
        <time>2016-01-23T09:17:39Z</time>
      </trkpt>
      <trkpt lat="45.87688" lon="6.59252">
        <ele>1703.59</ele>
        <time>2016-01-23T09:17:40Z</time>
      </trkpt>
      <trkpt lat="45.87688" lon="6.59255">
        <ele>1703.59</ele>
        <time>2016-01-23T09:17:41Z</time>
      </trkpt>
      <trkpt lat="45.87686" lon="6.59259">
        <ele>1704.55</ele>
        <time>2016-01-23T09:17:48Z</time>
      </trkpt>
      <trkpt lat="45.87672" lon="6.5926">
        <ele>1700.71</ele>
        <time>2016-01-23T09:17:52Z</time>
      </trkpt>
      <trkpt lat="45.87659" lon="6.59243">
        <ele>1698.31</ele>
        <time>2016-01-23T09:18:00Z</time>
      </trkpt>
      <trkpt lat="45.87656" lon="6.59244">
        <ele>1697.34</ele>
        <time>2016-01-23T09:18:14Z</time>
      </trkpt>
      <trkpt lat="45.87656" lon="6.59243">
        <ele>1697.34</ele>
        <time>2016-01-23T09:18:19Z</time>
      </trkpt>
      <trkpt lat="45.87653" lon="6.59245">
        <ele>1697.34</ele>
        <time>2016-01-23T09:18:21Z</time>
      </trkpt>
      <trkpt lat="45.87644" lon="6.59245">
        <ele>1694.94</ele>
        <time>2016-01-23T09:18:23Z</time>
      </trkpt>
      <trkpt lat="45.87639" lon="6.59243">
        <ele>1693.5</ele>
        <time>2016-01-23T09:18:24Z</time>
      </trkpt>
      <trkpt lat="45.87636" lon="6.5924">
        <ele>1693.02</ele>
        <time>2016-01-23T09:18:25Z</time>
      </trkpt>
      <trkpt lat="45.87635" lon="6.59238">
        <ele>1693.02</ele>
        <time>2016-01-23T09:18:26Z</time>
      </trkpt>
      <trkpt lat="45.87632" lon="6.59237">
        <ele>1693.02</ele>
        <time>2016-01-23T09:18:35Z</time>
      </trkpt>
      <trkpt lat="45.8763" lon="6.59237">
        <ele>1692.06</ele>
        <time>2016-01-23T09:18:36Z</time>
      </trkpt>
      <trkpt lat="45.87619" lon="6.59233">
        <ele>1690.14</ele>
        <time>2016-01-23T09:18:39Z</time>
      </trkpt>
      <trkpt lat="45.87614" lon="6.59227">
        <ele>1688.69</ele>
        <time>2016-01-23T09:18:40Z</time>
      </trkpt>
      <trkpt lat="45.87612" lon="6.59222">
        <ele>1687.73</ele>
        <time>2016-01-23T09:18:41Z</time>
      </trkpt>
      <trkpt lat="45.8761" lon="6.59216">
        <ele>1687.25</ele>
        <time>2016-01-23T09:18:42Z</time>
      </trkpt>
      <trkpt lat="45.87609" lon="6.59209">
        <ele>1686.77</ele>
        <time>2016-01-23T09:18:43Z</time>
      </trkpt>
      <trkpt lat="45.87608" lon="6.59202">
        <ele>1685.81</ele>
        <time>2016-01-23T09:18:44Z</time>
      </trkpt>
      <trkpt lat="45.87607" lon="6.59194">
        <ele>1684.37</ele>
        <time>2016-01-23T09:18:45Z</time>
      </trkpt>
      <trkpt lat="45.87605" lon="6.59186">
        <ele>1682.93</ele>
        <time>2016-01-23T09:18:46Z</time>
      </trkpt>
      <trkpt lat="45.87607" lon="6.59176">
        <ele>1681</ele>
        <time>2016-01-23T09:18:47Z</time>
      </trkpt>
      <trkpt lat="45.87608" lon="6.59166">
        <ele>1679.08</ele>
        <time>2016-01-23T09:18:48Z</time>
      </trkpt>
      <trkpt lat="45.8761" lon="6.59156">
        <ele>1677.16</ele>
        <time>2016-01-23T09:18:49Z</time>
      </trkpt>
      <trkpt lat="45.87614" lon="6.59147">
        <ele>1676.2</ele>
        <time>2016-01-23T09:18:50Z</time>
      </trkpt>
      <trkpt lat="45.87617" lon="6.59138">
        <ele>1674.75</ele>
        <time>2016-01-23T09:18:51Z</time>
      </trkpt>
      <trkpt lat="45.8762" lon="6.59128">
        <ele>1673.79</ele>
        <time>2016-01-23T09:18:52Z</time>
      </trkpt>
      <trkpt lat="45.87623" lon="6.59118">
        <ele>1672.83</ele>
        <time>2016-01-23T09:18:53Z</time>
      </trkpt>
      <trkpt lat="45.87625" lon="6.59106">
        <ele>1671.39</ele>
        <time>2016-01-23T09:18:54Z</time>
      </trkpt>
      <trkpt lat="45.87626" lon="6.59095">
        <ele>1671.39</ele>
        <time>2016-01-23T09:18:55Z</time>
      </trkpt>
      <trkpt lat="45.87626" lon="6.59084">
        <ele>1671.39</ele>
        <time>2016-01-23T09:18:56Z</time>
      </trkpt>
      <trkpt lat="45.87619" lon="6.59048">
        <ele>1667.54</ele>
        <time>2016-01-23T09:18:59Z</time>
      </trkpt>
      <trkpt lat="45.87608" lon="6.59003">
        <ele>1664.18</ele>
        <time>2016-01-23T09:19:03Z</time>
      </trkpt>
      <trkpt lat="45.87602" lon="6.5898">
        <ele>1662.74</ele>
        <time>2016-01-23T09:19:05Z</time>
      </trkpt>
      <trkpt lat="45.87594" lon="6.58922">
        <ele>1659.37</ele>
        <time>2016-01-23T09:19:10Z</time>
      </trkpt>
      <trkpt lat="45.87593" lon="6.5891">
        <ele>1658.41</ele>
        <time>2016-01-23T09:19:11Z</time>
      </trkpt>
      <trkpt lat="45.87594" lon="6.58899">
        <ele>1657.93</ele>
        <time>2016-01-23T09:19:12Z</time>
      </trkpt>
      <trkpt lat="45.87596" lon="6.58887">
        <ele>1656.97</ele>
        <time>2016-01-23T09:19:13Z</time>
      </trkpt>
      <trkpt lat="45.87601" lon="6.58863">
        <ele>1653.6</ele>
        <time>2016-01-23T09:19:15Z</time>
      </trkpt>
      <trkpt lat="45.87604" lon="6.5885">
        <ele>1653.6</ele>
        <time>2016-01-23T09:19:16Z</time>
      </trkpt>
      <trkpt lat="45.87611" lon="6.58823">
        <ele>1650.24</ele>
        <time>2016-01-23T09:19:18Z</time>
      </trkpt>
      <trkpt lat="45.87617" lon="6.58796">
        <ele>1647.36</ele>
        <time>2016-01-23T09:19:20Z</time>
      </trkpt>
      <trkpt lat="45.87617" lon="6.58783">
        <ele>1645.43</ele>
        <time>2016-01-23T09:19:21Z</time>
      </trkpt>
      <trkpt lat="45.87617" lon="6.58771">
        <ele>1645.43</ele>
        <time>2016-01-23T09:19:22Z</time>
      </trkpt>
      <trkpt lat="45.87615" lon="6.5876">
        <ele>1643.99</ele>
        <time>2016-01-23T09:19:23Z</time>
      </trkpt>
      <trkpt lat="45.87612" lon="6.58753">
        <ele>1645.91</ele>
        <time>2016-01-23T09:19:24Z</time>
      </trkpt>
      <trkpt lat="45.87609" lon="6.58747">
        <ele>1646.4</ele>
        <time>2016-01-23T09:19:31Z</time>
      </trkpt>
      <trkpt lat="45.87601" lon="6.58742">
        <ele>1643.51</ele>
        <time>2016-01-23T09:19:43Z</time>
      </trkpt>
      <trkpt lat="45.87592" lon="6.58747">
        <ele>1639.67</ele>
        <time>2016-01-23T09:19:46Z</time>
      </trkpt>
      <trkpt lat="45.87588" lon="6.58752">
        <ele>1638.22</ele>
        <time>2016-01-23T09:19:47Z</time>
      </trkpt>
      <trkpt lat="45.87577" lon="6.58754">
        <ele>1632.46</ele>
        <time>2016-01-23T09:19:49Z</time>
      </trkpt>
      <trkpt lat="45.87565" lon="6.58746">
        <ele>1623.8</ele>
        <time>2016-01-23T09:19:51Z</time>
      </trkpt>
      <trkpt lat="45.87552" lon="6.58744">
        <ele>1619.96</ele>
        <time>2016-01-23T09:19:52Z</time>
      </trkpt>
      <trkpt lat="45.8752" lon="6.58731">
        <ele>1602.17</ele>
        <time>2016-01-23T09:19:55Z</time>
      </trkpt>
      <trkpt lat="45.87504" lon="6.58724">
        <ele>1596.41</ele>
        <time>2016-01-23T09:19:57Z</time>
      </trkpt>
      <trkpt lat="45.8746" lon="6.5869">
        <ele>1588.24</ele>
        <time>2016-01-23T09:20:01Z</time>
      </trkpt>
      <trkpt lat="45.87445" lon="6.58681">
        <ele>1581.03</ele>
        <time>2016-01-23T09:20:03Z</time>
      </trkpt>
      <trkpt lat="45.87437" lon="6.58672">
        <ele>1576.7</ele>
        <time>2016-01-23T09:20:04Z</time>
      </trkpt>
      <trkpt lat="45.87424" lon="6.58659">
        <ele>1571.41</ele>
        <time>2016-01-23T09:20:06Z</time>
      </trkpt>
      <trkpt lat="45.87408" lon="6.58644">
        <ele>1568.53</ele>
        <time>2016-01-23T09:20:08Z</time>
      </trkpt>
      <trkpt lat="45.87386" lon="6.5862">
        <ele>1560.36</ele>
        <time>2016-01-23T09:20:11Z</time>
      </trkpt>
      <trkpt lat="45.87369" lon="6.58605">
        <ele>1554.11</ele>
        <time>2016-01-23T09:20:13Z</time>
      </trkpt>
      <trkpt lat="45.87347" lon="6.58583">
        <ele>1554.11</ele>
        <time>2016-01-23T09:20:17Z</time>
      </trkpt>
      <trkpt lat="45.87333" lon="6.58576">
        <ele>1544.98</ele>
        <time>2016-01-23T09:20:20Z</time>
      </trkpt>
      <trkpt lat="45.87326" lon="6.58566">
        <ele>1540.17</ele>
        <time>2016-01-23T09:20:21Z</time>
      </trkpt>
      <trkpt lat="45.87315" lon="6.58552">
        <ele>1533.92</ele>
        <time>2016-01-23T09:20:23Z</time>
      </trkpt>
      <trkpt lat="45.87301" lon="6.58534">
        <ele>1531.52</ele>
        <time>2016-01-23T09:20:25Z</time>
      </trkpt>
      <trkpt lat="45.87294" lon="6.58526">
        <ele>1527.67</ele>
        <time>2016-01-23T09:20:26Z</time>
      </trkpt>
      <trkpt lat="45.8729" lon="6.5852">
        <ele>1527.67</ele>
        <time>2016-01-23T09:20:27Z</time>
      </trkpt>
      <trkpt lat="45.87283" lon="6.58503">
        <ele>1524.79</ele>
        <time>2016-01-23T09:20:29Z</time>
      </trkpt>
      <trkpt lat="45.87275" lon="6.58491">
        <ele>1519.98</ele>
        <time>2016-01-23T09:20:31Z</time>
      </trkpt>
      <trkpt lat="45.87271" lon="6.58474">
        <ele>1516.14</ele>
        <time>2016-01-23T09:20:33Z</time>
      </trkpt>
      <trkpt lat="45.87262" lon="6.58449">
        <ele>1513.25</ele>
        <time>2016-01-23T09:20:36Z</time>
      </trkpt>
      <trkpt lat="45.87259" lon="6.5844">
        <ele>1513.25</ele>
        <time>2016-01-23T09:20:40Z</time>
      </trkpt>
      <trkpt lat="45.87253" lon="6.58435">
        <ele>1514.21</ele>
        <time>2016-01-23T09:20:58Z</time>
      </trkpt>
      <trkpt lat="45.87251" lon="6.5844">
        <ele>1513.73</ele>
        <time>2016-01-23T09:21:17Z</time>
      </trkpt>
      <trkpt lat="45.87249" lon="6.58444">
        <ele>1513.25</ele>
        <time>2016-01-23T09:21:35Z</time>
      </trkpt>
      <trkpt lat="45.87247" lon="6.58445">
        <ele>1513.25</ele>
        <time>2016-01-23T09:21:36Z</time>
      </trkpt>
      <trkpt lat="45.87238" lon="6.58452">
        <ele>1510.37</ele>
        <time>2016-01-23T09:21:39Z</time>
      </trkpt>
      <trkpt lat="45.87223" lon="6.58478">
        <ele>1507</ele>
        <time>2016-01-23T09:21:45Z</time>
      </trkpt>
      <trkpt lat="45.87205" lon="6.58497">
        <ele>1503.16</ele>
        <time>2016-01-23T09:21:49Z</time>
      </trkpt>
      <trkpt lat="45.87189" lon="6.58516">
        <ele>1499.79</ele>
        <time>2016-01-23T09:21:52Z</time>
      </trkpt>
      <trkpt lat="45.87185" lon="6.58523">
        <ele>1498.83</ele>
        <time>2016-01-23T09:21:53Z</time>
      </trkpt>
      <trkpt lat="45.87179" lon="6.58528">
        <ele>1498.35</ele>
        <time>2016-01-23T09:21:54Z</time>
      </trkpt>
      <trkpt lat="45.87174" lon="6.58531">
        <ele>1498.35</ele>
        <time>2016-01-23T09:21:55Z</time>
      </trkpt>
      <trkpt lat="45.87168" lon="6.58529">
        <ele>1494.99</ele>
        <time>2016-01-23T09:21:56Z</time>
      </trkpt>
      <trkpt lat="45.87165" lon="6.58524">
        <ele>1492.58</ele>
        <time>2016-01-23T09:21:57Z</time>
      </trkpt>
      <trkpt lat="45.87163" lon="6.58516">
        <ele>1490.66</ele>
        <time>2016-01-23T09:21:58Z</time>
      </trkpt>
      <trkpt lat="45.87163" lon="6.58507">
        <ele>1488.26</ele>
        <time>2016-01-23T09:21:59Z</time>
      </trkpt>
      <trkpt lat="45.87165" lon="6.58496">
        <ele>1486.82</ele>
        <time>2016-01-23T09:22:00Z</time>
      </trkpt>
      <trkpt lat="45.87168" lon="6.58485">
        <ele>1485.85</ele>
        <time>2016-01-23T09:22:01Z</time>
      </trkpt>
      <trkpt lat="45.87171" lon="6.58474">
        <ele>1484.89</ele>
        <time>2016-01-23T09:22:02Z</time>
      </trkpt>
      <trkpt lat="45.87178" lon="6.5845">
        <ele>1482.49</ele>
        <time>2016-01-23T09:22:04Z</time>
      </trkpt>
      <trkpt lat="45.87179" lon="6.58438">
        <ele>1482.49</ele>
        <time>2016-01-23T09:22:05Z</time>
      </trkpt>
      <trkpt lat="45.87177" lon="6.58428">
        <ele>1482.01</ele>
        <time>2016-01-23T09:22:06Z</time>
      </trkpt>
      <trkpt lat="45.87169" lon="6.58419">
        <ele>1479.13</ele>
        <time>2016-01-23T09:22:08Z</time>
      </trkpt>
      <trkpt lat="45.87163" lon="6.58421">
        <ele>1477.2</ele>
        <time>2016-01-23T09:22:09Z</time>
      </trkpt>
      <trkpt lat="45.87158" lon="6.58426">
        <ele>1475.76</ele>
        <time>2016-01-23T09:22:10Z</time>
      </trkpt>
      <trkpt lat="45.87152" lon="6.58432">
        <ele>1473.36</ele>
        <time>2016-01-23T09:22:11Z</time>
      </trkpt>
      <trkpt lat="45.87147" lon="6.5844">
        <ele>1470.95</ele>
        <time>2016-01-23T09:22:12Z</time>
      </trkpt>
      <trkpt lat="45.87135" lon="6.58458">
        <ele>1468.07</ele>
        <time>2016-01-23T09:22:14Z</time>
      </trkpt>
      <trkpt lat="45.87122" lon="6.58478">
        <ele>1464.71</ele>
        <time>2016-01-23T09:22:16Z</time>
      </trkpt>
      <trkpt lat="45.87115" lon="6.58488">
        <ele>1463.26</ele>
        <time>2016-01-23T09:22:17Z</time>
      </trkpt>
      <trkpt lat="45.87101" lon="6.58509">
        <ele>1459.9</ele>
        <time>2016-01-23T09:22:19Z</time>
      </trkpt>
      <trkpt lat="45.87081" lon="6.58543">
        <ele>1455.57</ele>
        <time>2016-01-23T09:22:22Z</time>
      </trkpt>
      <trkpt lat="45.87059" lon="6.58577">
        <ele>1452.69</ele>
        <time>2016-01-23T09:22:25Z</time>
      </trkpt>
      <trkpt lat="45.8705" lon="6.58585">
        <ele>1451.25</ele>
        <time>2016-01-23T09:22:26Z</time>
      </trkpt>
      <trkpt lat="45.87042" lon="6.58593">
        <ele>1451.25</ele>
        <time>2016-01-23T09:22:27Z</time>
      </trkpt>
      <trkpt lat="45.87018" lon="6.58616">
        <ele>1449.32</ele>
        <time>2016-01-23T09:22:30Z</time>
      </trkpt>
      <trkpt lat="45.86959" lon="6.58692">
        <ele>1447.88</ele>
        <time>2016-01-23T09:22:40Z</time>
      </trkpt>
      <trkpt lat="45.86933" lon="6.58723">
        <ele>1447.88</ele>
        <time>2016-01-23T09:22:46Z</time>
      </trkpt>
      <trkpt lat="45.8693" lon="6.58728">
        <ele>1448.36</ele>
        <time>2016-01-23T09:22:47Z</time>
      </trkpt>
      <trkpt lat="45.86928" lon="6.58732">
        <ele>1448.36</ele>
        <time>2016-01-23T09:22:48Z</time>
      </trkpt>
      <trkpt lat="45.86925" lon="6.58736">
        <ele>1446.44</ele>
        <time>2016-01-23T09:22:49Z</time>
      </trkpt>
      <trkpt lat="45.86917" lon="6.58739">
        <ele>1444.52</ele>
        <time>2016-01-23T09:22:51Z</time>
      </trkpt>
      <trkpt lat="45.86906" lon="6.58742">
        <ele>1440.67</ele>
        <time>2016-01-23T09:22:55Z</time>
      </trkpt>
      <trkpt lat="45.86896" lon="6.58741">
        <ele>1437.31</ele>
        <time>2016-01-23T09:22:58Z</time>
      </trkpt>
      <trkpt lat="45.86881" lon="6.58738">
        <ele>1430.58</ele>
        <time>2016-01-23T09:23:02Z</time>
      </trkpt>
      <trkpt lat="45.86879" lon="6.5874">
        <ele>1428.66</ele>
        <time>2016-01-23T09:23:11Z</time>
      </trkpt>
      <trkpt lat="45.86878" lon="6.58742">
        <ele>1431.54</ele>
        <time>2016-01-23T09:23:14Z</time>
      </trkpt>
      <trkpt lat="45.86878" lon="6.58742">
        <ele>1428.18</ele>
        <time>2016-01-23T09:23:15Z</time>
      </trkpt>
      <trkpt lat="45.86877" lon="6.58744">
        <ele>1428.18</ele>
        <time>2016-01-23T09:23:49Z</time>
      </trkpt>
      <trkpt lat="45.86874" lon="6.58744">
        <ele>1437.79</ele>
        <time>2016-01-23T09:23:53Z</time>
      </trkpt>
      <trkpt lat="45.86875" lon="6.58744">
        <ele>1427.7</ele>
        <time>2016-01-23T09:23:54Z</time>
      </trkpt>
      <trkpt lat="45.86875" lon="6.58743">
        <ele>1427.7</ele>
        <time>2016-01-23T09:24:09Z</time>
      </trkpt>
      <trkpt lat="45.86871" lon="6.58739">
        <ele>1426.25</ele>
        <time>2016-01-23T09:24:13Z</time>
      </trkpt>
      <trkpt lat="45.86869" lon="6.58741">
        <ele>1426.25</ele>
        <time>2016-01-23T09:24:28Z</time>
      </trkpt>
      <trkpt lat="45.86855" lon="6.58739">
        <ele>1419.04</ele>
        <time>2016-01-23T09:24:31Z</time>
      </trkpt>
      <trkpt lat="45.86846" lon="6.58736">
        <ele>1415.2</ele>
        <time>2016-01-23T09:24:32Z</time>
      </trkpt>
      <trkpt lat="45.86836" lon="6.5873">
        <ele>1412.31</ele>
        <time>2016-01-23T09:24:33Z</time>
      </trkpt>
      <trkpt lat="45.86828" lon="6.58721">
        <ele>1410.39</ele>
        <time>2016-01-23T09:24:34Z</time>
      </trkpt>
      <trkpt lat="45.86824" lon="6.58711">
        <ele>1413.28</ele>
        <time>2016-01-23T09:24:35Z</time>
      </trkpt>
      <trkpt lat="45.86822" lon="6.58703">
        <ele>1413.28</ele>
        <time>2016-01-23T09:24:36Z</time>
      </trkpt>
      <trkpt lat="45.86822" lon="6.58698">
        <ele>1413.28</ele>
        <time>2016-01-23T09:24:37Z</time>
      </trkpt>
      <trkpt lat="45.86823" lon="6.58695">
        <ele>1413.28</ele>
        <time>2016-01-23T09:24:38Z</time>
      </trkpt>
      <trkpt lat="45.86825" lon="6.58692">
        <ele>1413.28</ele>
        <time>2016-01-23T09:24:39Z</time>
      </trkpt>
      <trkpt lat="45.86831" lon="6.58686">
        <ele>1413.28</ele>
        <time>2016-01-23T09:24:49Z</time>
      </trkpt>
      <trkpt lat="45.86837" lon="6.58682">
        <ele>1413.28</ele>
        <time>2016-01-23T09:25:03Z</time>
      </trkpt>
      <trkpt lat="45.86841" lon="6.58679">
        <ele>1413.28</ele>
        <time>2016-01-23T09:25:18Z</time>
      </trkpt>
      <trkpt lat="45.86844" lon="6.58677">
        <ele>1413.28</ele>
        <time>2016-01-23T09:25:36Z</time>
      </trkpt>
      <trkpt lat="45.86845" lon="6.58678">
        <ele>1413.28</ele>
        <time>2016-01-23T09:25:40Z</time>
      </trkpt>
      <trkpt lat="45.86847" lon="6.58677">
        <ele>1411.83</ele>
        <time>2016-01-23T09:25:42Z</time>
      </trkpt>
      <trkpt lat="45.86847" lon="6.58674">
        <ele>1411.83</ele>
        <time>2016-01-23T09:25:44Z</time>
      </trkpt>
      <trkpt lat="45.86841" lon="6.58652">
        <ele>1411.83</ele>
        <time>2016-01-23T09:25:53Z</time>
      </trkpt>
      <trkpt lat="45.8684" lon="6.58648">
        <ele>1411.83</ele>
        <time>2016-01-23T09:25:54Z</time>
      </trkpt>
      <trkpt lat="45.86839" lon="6.58643">
        <ele>1411.83</ele>
        <time>2016-01-23T09:25:55Z</time>
      </trkpt>
      <trkpt lat="45.86837" lon="6.58635">
        <ele>1413.28</ele>
        <time>2016-01-23T09:25:57Z</time>
      </trkpt>
      <trkpt lat="45.86833" lon="6.58623">
        <ele>1418.08</ele>
        <time>2016-01-23T09:26:00Z</time>
      </trkpt>
      <trkpt lat="45.86831" lon="6.58613">
        <ele>1420.97</ele>
        <time>2016-01-23T09:26:02Z</time>
      </trkpt>
      <trkpt lat="45.8683" lon="6.58607">
        <ele>1424.33</ele>
        <time>2016-01-23T09:26:03Z</time>
      </trkpt>
      <trkpt lat="45.86829" lon="6.58603">
        <ele>1424.81</ele>
        <time>2016-01-23T09:26:04Z</time>
      </trkpt>
      <trkpt lat="45.86826" lon="6.58594">
        <ele>1428.18</ele>
        <time>2016-01-23T09:26:06Z</time>
      </trkpt>
      <trkpt lat="45.86824" lon="6.58584">
        <ele>1432.5</ele>
        <time>2016-01-23T09:26:08Z</time>
      </trkpt>
      <trkpt lat="45.86822" lon="6.58574">
        <ele>1437.31</ele>
        <time>2016-01-23T09:26:10Z</time>
      </trkpt>
      <trkpt lat="45.86819" lon="6.58567">
        <ele>1440.67</ele>
        <time>2016-01-23T09:26:12Z</time>
      </trkpt>
      <trkpt lat="45.86816" lon="6.58559">
        <ele>1443.56</ele>
        <time>2016-01-23T09:26:14Z</time>
      </trkpt>
      <trkpt lat="45.8681" lon="6.5854">
        <ele>1447.4</ele>
        <time>2016-01-23T09:26:18Z</time>
      </trkpt>
      <trkpt lat="45.86804" lon="6.58527">
        <ele>1450.77</ele>
        <time>2016-01-23T09:26:21Z</time>
      </trkpt>
      <trkpt lat="45.868" lon="6.58515">
        <ele>1455.09</ele>
        <time>2016-01-23T09:26:24Z</time>
      </trkpt>
      <trkpt lat="45.86796" lon="6.58503">
        <ele>1457.98</ele>
        <time>2016-01-23T09:26:27Z</time>
      </trkpt>
      <trkpt lat="45.86793" lon="6.58494">
        <ele>1460.86</ele>
        <time>2016-01-23T09:26:29Z</time>
      </trkpt>
      <trkpt lat="45.86792" lon="6.58489">
        <ele>1461.34</ele>
        <time>2016-01-23T09:26:30Z</time>
      </trkpt>
      <trkpt lat="45.86775" lon="6.5844">
        <ele>1463.74</ele>
        <time>2016-01-23T09:26:41Z</time>
      </trkpt>
      <trkpt lat="45.86769" lon="6.58422">
        <ele>1465.67</ele>
        <time>2016-01-23T09:26:45Z</time>
      </trkpt>
      <trkpt lat="45.86762" lon="6.58398">
        <ele>1469.03</ele>
        <time>2016-01-23T09:26:50Z</time>
      </trkpt>
      <trkpt lat="45.86755" lon="6.58375">
        <ele>1472.88</ele>
        <time>2016-01-23T09:26:55Z</time>
      </trkpt>
      <trkpt lat="45.8675" lon="6.58356">
        <ele>1476.24</ele>
        <time>2016-01-23T09:26:59Z</time>
      </trkpt>
      <trkpt lat="45.86745" lon="6.58338">
        <ele>1479.61</ele>
        <time>2016-01-23T09:27:03Z</time>
      </trkpt>
      <trkpt lat="45.86741" lon="6.58324">
        <ele>1482.97</ele>
        <time>2016-01-23T09:27:06Z</time>
      </trkpt>
      <trkpt lat="45.86734" lon="6.58296">
        <ele>1485.85</ele>
        <time>2016-01-23T09:27:12Z</time>
      </trkpt>
      <trkpt lat="45.86725" lon="6.58265">
        <ele>1489.22</ele>
        <time>2016-01-23T09:27:19Z</time>
      </trkpt>
      <trkpt lat="45.86718" lon="6.58243">
        <ele>1491.62</ele>
        <time>2016-01-23T09:27:24Z</time>
      </trkpt>
      <trkpt lat="45.86712" lon="6.58225">
        <ele>1494.03</ele>
        <time>2016-01-23T09:27:28Z</time>
      </trkpt>
      <trkpt lat="45.86707" lon="6.58207">
        <ele>1497.39</ele>
        <time>2016-01-23T09:27:32Z</time>
      </trkpt>
      <trkpt lat="45.86702" lon="6.58188">
        <ele>1501.24</ele>
        <time>2016-01-23T09:27:36Z</time>
      </trkpt>
      <trkpt lat="45.86696" lon="6.5817">
        <ele>1505.08</ele>
        <time>2016-01-23T09:27:40Z</time>
      </trkpt>
      <trkpt lat="45.86692" lon="6.58154">
        <ele>1508.93</ele>
        <time>2016-01-23T09:27:44Z</time>
      </trkpt>
      <trkpt lat="45.86686" lon="6.58131">
        <ele>1512.29</ele>
        <time>2016-01-23T09:27:50Z</time>
      </trkpt>
      <trkpt lat="45.86676" lon="6.58104">
        <ele>1516.14</ele>
        <time>2016-01-23T09:27:56Z</time>
      </trkpt>
      <trkpt lat="45.86669" lon="6.58081">
        <ele>1519.02</ele>
        <time>2016-01-23T09:28:01Z</time>
      </trkpt>
      <trkpt lat="45.86664" lon="6.58063">
        <ele>1522.39</ele>
        <time>2016-01-23T09:28:05Z</time>
      </trkpt>
      <trkpt lat="45.86658" lon="6.58044">
        <ele>1525.75</ele>
        <time>2016-01-23T09:28:09Z</time>
      </trkpt>
      <trkpt lat="45.86654" lon="6.58031">
        <ele>1528.63</ele>
        <time>2016-01-23T09:28:12Z</time>
      </trkpt>
      <trkpt lat="45.86648" lon="6.58013">
        <ele>1532.48</ele>
        <time>2016-01-23T09:28:16Z</time>
      </trkpt>
      <trkpt lat="45.86644" lon="6.57999">
        <ele>1535.84</ele>
        <time>2016-01-23T09:28:19Z</time>
      </trkpt>
      <trkpt lat="45.8664" lon="6.57986">
        <ele>1539.21</ele>
        <time>2016-01-23T09:28:22Z</time>
      </trkpt>
      <trkpt lat="45.86636" lon="6.57973">
        <ele>1543.05</ele>
        <time>2016-01-23T09:28:25Z</time>
      </trkpt>
      <trkpt lat="45.8663" lon="6.57954">
        <ele>1546.42</ele>
        <time>2016-01-23T09:28:29Z</time>
      </trkpt>
      <trkpt lat="45.86627" lon="6.57941">
        <ele>1549.78</ele>
        <time>2016-01-23T09:28:32Z</time>
      </trkpt>
      <trkpt lat="45.86623" lon="6.57928">
        <ele>1553.15</ele>
        <time>2016-01-23T09:28:35Z</time>
      </trkpt>
      <trkpt lat="45.86619" lon="6.57915">
        <ele>1556.51</ele>
        <time>2016-01-23T09:28:38Z</time>
      </trkpt>
      <trkpt lat="45.86614" lon="6.57901">
        <ele>1560.36</ele>
        <time>2016-01-23T09:28:41Z</time>
      </trkpt>
      <trkpt lat="45.8661" lon="6.57888">
        <ele>1564.2</ele>
        <time>2016-01-23T09:28:44Z</time>
      </trkpt>
      <trkpt lat="45.86606" lon="6.57875">
        <ele>1568.53</ele>
        <time>2016-01-23T09:28:47Z</time>
      </trkpt>
      <trkpt lat="45.86602" lon="6.57862">
        <ele>1572.37</ele>
        <time>2016-01-23T09:28:50Z</time>
      </trkpt>
      <trkpt lat="45.86598" lon="6.57849">
        <ele>1575.74</ele>
        <time>2016-01-23T09:28:53Z</time>
      </trkpt>
      <trkpt lat="45.86594" lon="6.57836">
        <ele>1579.58</ele>
        <time>2016-01-23T09:28:56Z</time>
      </trkpt>
      <trkpt lat="45.8659" lon="6.57823">
        <ele>1583.43</ele>
        <time>2016-01-23T09:28:59Z</time>
      </trkpt>
      <trkpt lat="45.86586" lon="6.57809">
        <ele>1587.27</ele>
        <time>2016-01-23T09:29:02Z</time>
      </trkpt>
      <trkpt lat="45.86582" lon="6.57796">
        <ele>1591.12</ele>
        <time>2016-01-23T09:29:05Z</time>
      </trkpt>
      <trkpt lat="45.86578" lon="6.57782">
        <ele>1595.45</ele>
        <time>2016-01-23T09:29:08Z</time>
      </trkpt>
      <trkpt lat="45.86574" lon="6.57769">
        <ele>1599.77</ele>
        <time>2016-01-23T09:29:11Z</time>
      </trkpt>
      <trkpt lat="45.86572" lon="6.5776">
        <ele>1602.66</ele>
        <time>2016-01-23T09:29:13Z</time>
      </trkpt>
      <trkpt lat="45.86568" lon="6.57747">
        <ele>1607.46</ele>
        <time>2016-01-23T09:29:16Z</time>
      </trkpt>
      <trkpt lat="45.86564" lon="6.57734">
        <ele>1611.79</ele>
        <time>2016-01-23T09:29:19Z</time>
      </trkpt>
      <trkpt lat="45.86561" lon="6.57726">
        <ele>1615.15</ele>
        <time>2016-01-23T09:29:21Z</time>
      </trkpt>
      <trkpt lat="45.86558" lon="6.57718">
        <ele>1618.04</ele>
        <time>2016-01-23T09:29:23Z</time>
      </trkpt>
      <trkpt lat="45.86556" lon="6.57709">
        <ele>1621.88</ele>
        <time>2016-01-23T09:29:25Z</time>
      </trkpt>
      <trkpt lat="45.86554" lon="6.57701">
        <ele>1625.25</ele>
        <time>2016-01-23T09:29:27Z</time>
      </trkpt>
      <trkpt lat="45.86551" lon="6.57692">
        <ele>1628.61</ele>
        <time>2016-01-23T09:29:29Z</time>
      </trkpt>
      <trkpt lat="45.86548" lon="6.57684">
        <ele>1631.98</ele>
        <time>2016-01-23T09:29:31Z</time>
      </trkpt>
      <trkpt lat="45.86546" lon="6.57676">
        <ele>1635.82</ele>
        <time>2016-01-23T09:29:33Z</time>
      </trkpt>
      <trkpt lat="45.86543" lon="6.57668">
        <ele>1639.19</ele>
        <time>2016-01-23T09:29:35Z</time>
      </trkpt>
      <trkpt lat="45.86541" lon="6.5766">
        <ele>1643.03</ele>
        <time>2016-01-23T09:29:37Z</time>
      </trkpt>
      <trkpt lat="45.86538" lon="6.57652">
        <ele>1646.4</ele>
        <time>2016-01-23T09:29:39Z</time>
      </trkpt>
      <trkpt lat="45.86534" lon="6.57638">
        <ele>1649.76</ele>
        <time>2016-01-23T09:29:42Z</time>
      </trkpt>
      <trkpt lat="45.86527" lon="6.57616">
        <ele>1653.6</ele>
        <time>2016-01-23T09:29:47Z</time>
      </trkpt>
      <trkpt lat="45.8652" lon="6.57592">
        <ele>1657.45</ele>
        <time>2016-01-23T09:29:52Z</time>
      </trkpt>
      <trkpt lat="45.86515" lon="6.57574">
        <ele>1661.3</ele>
        <time>2016-01-23T09:29:56Z</time>
      </trkpt>
      <trkpt lat="45.86509" lon="6.57556">
        <ele>1665.62</ele>
        <time>2016-01-23T09:30:00Z</time>
      </trkpt>
      <trkpt lat="45.86505" lon="6.57543">
        <ele>1668.99</ele>
        <time>2016-01-23T09:30:03Z</time>
      </trkpt>
      <trkpt lat="45.86501" lon="6.57529">
        <ele>1671.87</ele>
        <time>2016-01-23T09:30:06Z</time>
      </trkpt>
      <trkpt lat="45.86497" lon="6.57516">
        <ele>1676.2</ele>
        <time>2016-01-23T09:30:09Z</time>
      </trkpt>
      <trkpt lat="45.86491" lon="6.57498">
        <ele>1679.56</ele>
        <time>2016-01-23T09:30:13Z</time>
      </trkpt>
      <trkpt lat="45.86484" lon="6.57475">
        <ele>1683.41</ele>
        <time>2016-01-23T09:30:18Z</time>
      </trkpt>
      <trkpt lat="45.86479" lon="6.57457">
        <ele>1687.25</ele>
        <time>2016-01-23T09:30:22Z</time>
      </trkpt>
      <trkpt lat="45.86474" lon="6.57439">
        <ele>1690.62</ele>
        <time>2016-01-23T09:30:26Z</time>
      </trkpt>
      <trkpt lat="45.86468" lon="6.57421">
        <ele>1694.94</ele>
        <time>2016-01-23T09:30:30Z</time>
      </trkpt>
      <trkpt lat="45.86464" lon="6.57407">
        <ele>1697.83</ele>
        <time>2016-01-23T09:30:33Z</time>
      </trkpt>
      <trkpt lat="45.8646" lon="6.57395">
        <ele>1701.19</ele>
        <time>2016-01-23T09:30:36Z</time>
      </trkpt>
      <trkpt lat="45.86456" lon="6.57381">
        <ele>1704.55</ele>
        <time>2016-01-23T09:30:39Z</time>
      </trkpt>
      <trkpt lat="45.86452" lon="6.57368">
        <ele>1708.4</ele>
        <time>2016-01-23T09:30:42Z</time>
      </trkpt>
      <trkpt lat="45.86448" lon="6.57355">
        <ele>1712.25</ele>
        <time>2016-01-23T09:30:45Z</time>
      </trkpt>
      <trkpt lat="45.86444" lon="6.57342">
        <ele>1716.09</ele>
        <time>2016-01-23T09:30:48Z</time>
      </trkpt>
      <trkpt lat="45.86439" lon="6.57323">
        <ele>1719.46</ele>
        <time>2016-01-23T09:30:52Z</time>
      </trkpt>
      <trkpt lat="45.86433" lon="6.57305">
        <ele>1723.3</ele>
        <time>2016-01-23T09:30:56Z</time>
      </trkpt>
      <trkpt lat="45.86428" lon="6.57287">
        <ele>1727.15</ele>
        <time>2016-01-23T09:31:00Z</time>
      </trkpt>
      <trkpt lat="45.86422" lon="6.57269">
        <ele>1730.99</ele>
        <time>2016-01-23T09:31:04Z</time>
      </trkpt>
      <trkpt lat="45.86418" lon="6.57256">
        <ele>1733.88</ele>
        <time>2016-01-23T09:31:07Z</time>
      </trkpt>
      <trkpt lat="45.86414" lon="6.57242">
        <ele>1737.72</ele>
        <time>2016-01-23T09:31:10Z</time>
      </trkpt>
      <trkpt lat="45.8641" lon="6.57228">
        <ele>1741.08</ele>
        <time>2016-01-23T09:31:13Z</time>
      </trkpt>
      <trkpt lat="45.86406" lon="6.57215">
        <ele>1744.45</ele>
        <time>2016-01-23T09:31:16Z</time>
      </trkpt>
      <trkpt lat="45.86401" lon="6.57202">
        <ele>1748.29</ele>
        <time>2016-01-23T09:31:19Z</time>
      </trkpt>
      <trkpt lat="45.86397" lon="6.57189">
        <ele>1752.14</ele>
        <time>2016-01-23T09:31:22Z</time>
      </trkpt>
      <trkpt lat="45.86393" lon="6.57176">
        <ele>1756.47</ele>
        <time>2016-01-23T09:31:25Z</time>
      </trkpt>
      <trkpt lat="45.86389" lon="6.57162">
        <ele>1760.79</ele>
        <time>2016-01-23T09:31:28Z</time>
      </trkpt>
      <trkpt lat="45.86386" lon="6.57149">
        <ele>1764.64</ele>
        <time>2016-01-23T09:31:31Z</time>
      </trkpt>
      <trkpt lat="45.86379" lon="6.57127">
        <ele>1768</ele>
        <time>2016-01-23T09:31:36Z</time>
      </trkpt>
      <trkpt lat="45.86373" lon="6.57108">
        <ele>1771.37</ele>
        <time>2016-01-23T09:31:40Z</time>
      </trkpt>
      <trkpt lat="45.86367" lon="6.5709">
        <ele>1774.73</ele>
        <time>2016-01-23T09:31:44Z</time>
      </trkpt>
      <trkpt lat="45.86362" lon="6.57072">
        <ele>1778.1</ele>
        <time>2016-01-23T09:31:48Z</time>
      </trkpt>
      <trkpt lat="45.86357" lon="6.57054">
        <ele>1781.94</ele>
        <time>2016-01-23T09:31:52Z</time>
      </trkpt>
      <trkpt lat="45.86353" lon="6.57041">
        <ele>1785.79</ele>
        <time>2016-01-23T09:31:55Z</time>
      </trkpt>
      <trkpt lat="45.86347" lon="6.57023">
        <ele>1789.63</ele>
        <time>2016-01-23T09:31:59Z</time>
      </trkpt>
      <trkpt lat="45.86343" lon="6.57009">
        <ele>1793</ele>
        <time>2016-01-23T09:32:02Z</time>
      </trkpt>
      <trkpt lat="45.86338" lon="6.56995">
        <ele>1796.36</ele>
        <time>2016-01-23T09:32:05Z</time>
      </trkpt>
      <trkpt lat="45.86335" lon="6.56985">
        <ele>1799.73</ele>
        <time>2016-01-23T09:32:07Z</time>
      </trkpt>
      <trkpt lat="45.86332" lon="6.56974">
        <ele>1803.57</ele>
        <time>2016-01-23T09:32:09Z</time>
      </trkpt>
      <trkpt lat="45.86329" lon="6.56964">
        <ele>1807.42</ele>
        <time>2016-01-23T09:32:11Z</time>
      </trkpt>
      <trkpt lat="45.86325" lon="6.56953">
        <ele>1811.74</ele>
        <time>2016-01-23T09:32:13Z</time>
      </trkpt>
      <trkpt lat="45.86322" lon="6.56943">
        <ele>1816.07</ele>
        <time>2016-01-23T09:32:15Z</time>
      </trkpt>
      <trkpt lat="45.86319" lon="6.56933">
        <ele>1820.39</ele>
        <time>2016-01-23T09:32:17Z</time>
      </trkpt>
      <trkpt lat="45.86316" lon="6.56922">
        <ele>1825.68</ele>
        <time>2016-01-23T09:32:19Z</time>
      </trkpt>
      <trkpt lat="45.86313" lon="6.56911">
        <ele>1830.01</ele>
        <time>2016-01-23T09:32:21Z</time>
      </trkpt>
      <trkpt lat="45.86309" lon="6.56901">
        <ele>1834.81</ele>
        <time>2016-01-23T09:32:23Z</time>
      </trkpt>
      <trkpt lat="45.86306" lon="6.5689">
        <ele>1839.62</ele>
        <time>2016-01-23T09:32:25Z</time>
      </trkpt>
      <trkpt lat="45.86303" lon="6.5688">
        <ele>1844.43</ele>
        <time>2016-01-23T09:32:27Z</time>
      </trkpt>
      <trkpt lat="45.86299" lon="6.56869">
        <ele>1847.79</ele>
        <time>2016-01-23T09:32:29Z</time>
      </trkpt>
      <trkpt lat="45.8629" lon="6.5684">
        <ele>1849.23</ele>
        <time>2016-01-23T09:32:35Z</time>
      </trkpt>
      <trkpt lat="45.86287" lon="6.56824">
        <ele>1848.75</ele>
        <time>2016-01-23T09:32:39Z</time>
      </trkpt>
      <trkpt lat="45.86283" lon="6.56813">
        <ele>1847.31</ele>
        <time>2016-01-23T09:32:41Z</time>
      </trkpt>
      <trkpt lat="45.8628" lon="6.5681">
        <ele>1846.35</ele>
        <time>2016-01-23T09:32:43Z</time>
      </trkpt>
      <trkpt lat="45.86281" lon="6.56813">
        <ele>1845.87</ele>
        <time>2016-01-23T09:32:51Z</time>
      </trkpt>
      <trkpt lat="45.86282" lon="6.56813">
        <ele>1845.87</ele>
        <time>2016-01-23T09:32:58Z</time>
      </trkpt>
      <trkpt lat="45.86281" lon="6.56813">
        <ele>1845.87</ele>
        <time>2016-01-23T09:33:09Z</time>
      </trkpt>
      <trkpt lat="45.86278" lon="6.56814">
        <ele>1845.87</ele>
        <time>2016-01-23T09:33:28Z</time>
      </trkpt>
      <trkpt lat="45.86277" lon="6.56814">
        <ele>1845.87</ele>
        <time>2016-01-23T09:33:37Z</time>
      </trkpt>
      <trkpt lat="45.86266" lon="6.56814">
        <ele>1845.87</ele>
        <time>2016-01-23T09:33:50Z</time>
      </trkpt>
      <trkpt lat="45.86255" lon="6.56816">
        <ele>1845.87</ele>
        <time>2016-01-23T09:34:06Z</time>
      </trkpt>
      <trkpt lat="45.8625" lon="6.56811">
        <ele>1845.87</ele>
        <time>2016-01-23T09:34:18Z</time>
      </trkpt>
      <trkpt lat="45.86243" lon="6.56806">
        <ele>1845.87</ele>
        <time>2016-01-23T09:34:34Z</time>
      </trkpt>
      <trkpt lat="45.86242" lon="6.56804">
        <ele>1845.39</ele>
        <time>2016-01-23T09:34:57Z</time>
      </trkpt>
      <trkpt lat="45.86239" lon="6.56797">
        <ele>1845.39</ele>
        <time>2016-01-23T09:35:01Z</time>
      </trkpt>
      <trkpt lat="45.86236" lon="6.56786">
        <ele>1844.43</ele>
        <time>2016-01-23T09:35:04Z</time>
      </trkpt>
      <trkpt lat="45.86246" lon="6.56763">
        <ele>1839.14</ele>
        <time>2016-01-23T09:35:09Z</time>
      </trkpt>
      <trkpt lat="45.86259" lon="6.56752">
        <ele>1834.81</ele>
        <time>2016-01-23T09:35:12Z</time>
      </trkpt>
      <trkpt lat="45.86267" lon="6.56725">
        <ele>1828.08</ele>
        <time>2016-01-23T09:35:16Z</time>
      </trkpt>
      <trkpt lat="45.86271" lon="6.56711">
        <ele>1824.72</ele>
        <time>2016-01-23T09:35:18Z</time>
      </trkpt>
      <trkpt lat="45.8628" lon="6.56701">
        <ele>1821.35</ele>
        <time>2016-01-23T09:35:20Z</time>
      </trkpt>
      <trkpt lat="45.86282" lon="6.56687">
        <ele>1818.47</ele>
        <time>2016-01-23T09:35:22Z</time>
      </trkpt>
      <trkpt lat="45.86283" lon="6.56665">
        <ele>1814.15</ele>
        <time>2016-01-23T09:35:26Z</time>
      </trkpt>
      <trkpt lat="45.86294" lon="6.56656">
        <ele>1810.78</ele>
        <time>2016-01-23T09:35:29Z</time>
      </trkpt>
      <trkpt lat="45.863" lon="6.56642">
        <ele>1808.38</ele>
        <time>2016-01-23T09:35:32Z</time>
      </trkpt>
      <trkpt lat="45.86307" lon="6.56611">
        <ele>1800.69</ele>
        <time>2016-01-23T09:35:37Z</time>
      </trkpt>
      <trkpt lat="45.86307" lon="6.56595">
        <ele>1797.32</ele>
        <time>2016-01-23T09:35:39Z</time>
      </trkpt>
      <trkpt lat="45.86307" lon="6.56586">
        <ele>1794.92</ele>
        <time>2016-01-23T09:35:40Z</time>
      </trkpt>
      <trkpt lat="45.86305" lon="6.5657">
        <ele>1793.48</ele>
        <time>2016-01-23T09:35:42Z</time>
      </trkpt>
      <trkpt lat="45.86305" lon="6.56553">
        <ele>1791.55</ele>
        <time>2016-01-23T09:35:46Z</time>
      </trkpt>
      <trkpt lat="45.86306" lon="6.56553">
        <ele>1791.07</ele>
        <time>2016-01-23T09:35:47Z</time>
      </trkpt>
      <trkpt lat="45.86309" lon="6.56539">
        <ele>1788.19</ele>
        <time>2016-01-23T09:35:51Z</time>
      </trkpt>
      <trkpt lat="45.86311" lon="6.56519">
        <ele>1784.82</ele>
        <time>2016-01-23T09:35:54Z</time>
      </trkpt>
      <trkpt lat="45.8631" lon="6.56515">
        <ele>1785.31</ele>
        <time>2016-01-23T09:36:03Z</time>
      </trkpt>
      <trkpt lat="45.86311" lon="6.56499">
        <ele>1781.94</ele>
        <time>2016-01-23T09:36:07Z</time>
      </trkpt>
      <trkpt lat="45.86311" lon="6.56493">
        <ele>1780.98</ele>
        <time>2016-01-23T09:36:15Z</time>
      </trkpt>
      <trkpt lat="45.8631" lon="6.56491">
        <ele>1780.98</ele>
        <time>2016-01-23T09:36:42Z</time>
      </trkpt>
      <trkpt lat="45.86311" lon="6.56471">
        <ele>1777.13</ele>
        <time>2016-01-23T09:36:47Z</time>
      </trkpt>
      <trkpt lat="45.8631" lon="6.56446">
        <ele>1772.33</ele>
        <time>2016-01-23T09:36:50Z</time>
      </trkpt>
      <trkpt lat="45.86313" lon="6.56409">
        <ele>1760.79</ele>
        <time>2016-01-23T09:36:53Z</time>
      </trkpt>
      <trkpt lat="45.86314" lon="6.56383">
        <ele>1755.5</ele>
        <time>2016-01-23T09:36:55Z</time>
      </trkpt>
      <trkpt lat="45.86317" lon="6.56368">
        <ele>1751.18</ele>
        <time>2016-01-23T09:36:56Z</time>
      </trkpt>
      <trkpt lat="45.86321" lon="6.5634">
        <ele>1747.81</ele>
        <time>2016-01-23T09:36:58Z</time>
      </trkpt>
      <trkpt lat="45.86322" lon="6.56327">
        <ele>1746.85</ele>
        <time>2016-01-23T09:36:59Z</time>
      </trkpt>
      <trkpt lat="45.86324" lon="6.5627">
        <ele>1742.53</ele>
        <time>2016-01-23T09:37:05Z</time>
      </trkpt>
      <trkpt lat="45.86322" lon="6.56234">
        <ele>1744.45</ele>
        <time>2016-01-23T09:37:11Z</time>
      </trkpt>
      <trkpt lat="45.86319" lon="6.56175">
        <ele>1741.08</ele>
        <time>2016-01-23T09:37:21Z</time>
      </trkpt>
      <trkpt lat="45.86304" lon="6.56103">
        <ele>1737.24</ele>
        <time>2016-01-23T09:37:31Z</time>
      </trkpt>
      <trkpt lat="45.86281" lon="6.56032">
        <ele>1735.8</ele>
        <time>2016-01-23T09:37:44Z</time>
      </trkpt>
      <trkpt lat="45.86285" lon="6.56007">
        <ele>1735.32</ele>
        <time>2016-01-23T09:37:52Z</time>
      </trkpt>
      <trkpt lat="45.86285" lon="6.56004">
        <ele>1735.32</ele>
        <time>2016-01-23T09:37:53Z</time>
      </trkpt>
      <trkpt lat="45.86284" lon="6.56002">
        <ele>1734.84</ele>
        <time>2016-01-23T09:37:54Z</time>
      </trkpt>
      <trkpt lat="45.86283" lon="6.55997">
        <ele>1734.84</ele>
        <time>2016-01-23T09:38:04Z</time>
      </trkpt>
      <trkpt lat="45.86284" lon="6.55998">
        <ele>1734.84</ele>
        <time>2016-01-23T09:38:29Z</time>
      </trkpt>
      <trkpt lat="45.86283" lon="6.55997">
        <ele>1734.84</ele>
        <time>2016-01-23T09:38:46Z</time>
      </trkpt>
      <trkpt lat="45.86283" lon="6.55995">
        <ele>1734.84</ele>
        <time>2016-01-23T09:38:47Z</time>
      </trkpt>
      <trkpt lat="45.86283" lon="6.55993">
        <ele>1734.84</ele>
        <time>2016-01-23T09:38:48Z</time>
      </trkpt>
      <trkpt lat="45.86283" lon="6.5599">
        <ele>1734.84</ele>
        <time>2016-01-23T09:38:49Z</time>
      </trkpt>
      <trkpt lat="45.86283" lon="6.55988">
        <ele>1734.36</ele>
        <time>2016-01-23T09:38:50Z</time>
      </trkpt>
      <trkpt lat="45.86282" lon="6.55986">
        <ele>1734.36</ele>
        <time>2016-01-23T09:38:51Z</time>
      </trkpt>
      <trkpt lat="45.8628" lon="6.55984">
        <ele>1734.36</ele>
        <time>2016-01-23T09:38:52Z</time>
      </trkpt>
      <trkpt lat="45.86278" lon="6.55981">
        <ele>1733.88</ele>
        <time>2016-01-23T09:38:53Z</time>
      </trkpt>
      <trkpt lat="45.86276" lon="6.55977">
        <ele>1733.39</ele>
        <time>2016-01-23T09:38:54Z</time>
      </trkpt>
      <trkpt lat="45.8627" lon="6.55969">
        <ele>1731.47</ele>
        <time>2016-01-23T09:38:56Z</time>
      </trkpt>
      <trkpt lat="45.86267" lon="6.55964">
        <ele>1730.99</ele>
        <time>2016-01-23T09:38:57Z</time>
      </trkpt>
      <trkpt lat="45.86264" lon="6.55958">
        <ele>1730.03</ele>
        <time>2016-01-23T09:38:58Z</time>
      </trkpt>
      <trkpt lat="45.8626" lon="6.55952">
        <ele>1729.55</ele>
        <time>2016-01-23T09:38:59Z</time>
      </trkpt>
      <trkpt lat="45.86256" lon="6.55946">
        <ele>1728.59</ele>
        <time>2016-01-23T09:39:00Z</time>
      </trkpt>
      <trkpt lat="45.86252" lon="6.55938">
        <ele>1728.11</ele>
        <time>2016-01-23T09:39:01Z</time>
      </trkpt>
      <trkpt lat="45.8625" lon="6.55931">
        <ele>1727.15</ele>
        <time>2016-01-23T09:39:02Z</time>
      </trkpt>
      <trkpt lat="45.86249" lon="6.55922">
        <ele>1726.67</ele>
        <time>2016-01-23T09:39:03Z</time>
      </trkpt>
      <trkpt lat="45.8625" lon="6.55914">
        <ele>1726.67</ele>
        <time>2016-01-23T09:39:04Z</time>
      </trkpt>
      <trkpt lat="45.86251" lon="6.55908">
        <ele>1726.67</ele>
        <time>2016-01-23T09:39:05Z</time>
      </trkpt>
      <trkpt lat="45.86258" lon="6.5587">
        <ele>1723.3</ele>
        <time>2016-01-23T09:39:10Z</time>
      </trkpt>
      <trkpt lat="45.86261" lon="6.55835">
        <ele>1721.38</ele>
        <time>2016-01-23T09:39:14Z</time>
      </trkpt>
      <trkpt lat="45.86257" lon="6.55788">
        <ele>1718.49</ele>
        <time>2016-01-23T09:39:19Z</time>
      </trkpt>
      <trkpt lat="45.86235" lon="6.55693">
        <ele>1715.61</ele>
        <time>2016-01-23T09:39:30Z</time>
      </trkpt>
      <trkpt lat="45.86235" lon="6.55685">
        <ele>1715.13</ele>
        <time>2016-01-23T09:39:31Z</time>
      </trkpt>
      <trkpt lat="45.86238" lon="6.55604">
        <ele>1713.21</ele>
        <time>2016-01-23T09:39:42Z</time>
      </trkpt>
      <trkpt lat="45.86237" lon="6.55597">
        <ele>1712.73</ele>
        <time>2016-01-23T09:39:43Z</time>
      </trkpt>
      <trkpt lat="45.86235" lon="6.5559">
        <ele>1712.73</ele>
        <time>2016-01-23T09:39:44Z</time>
      </trkpt>
      <trkpt lat="45.86232" lon="6.55584">
        <ele>1711.76</ele>
        <time>2016-01-23T09:39:45Z</time>
      </trkpt>
      <trkpt lat="45.86229" lon="6.55577">
        <ele>1711.76</ele>
        <time>2016-01-23T09:39:46Z</time>
      </trkpt>
      <trkpt lat="45.86226" lon="6.5557">
        <ele>1711.28</ele>
        <time>2016-01-23T09:39:47Z</time>
      </trkpt>
      <trkpt lat="45.86223" lon="6.55563">
        <ele>1711.28</ele>
        <time>2016-01-23T09:39:48Z</time>
      </trkpt>
      <trkpt lat="45.86222" lon="6.55557">
        <ele>1710.32</ele>
        <time>2016-01-23T09:39:49Z</time>
      </trkpt>
      <trkpt lat="45.86222" lon="6.5555">
        <ele>1710.32</ele>
        <time>2016-01-23T09:39:50Z</time>
      </trkpt>
      <trkpt lat="45.86222" lon="6.55542">
        <ele>1709.36</ele>
        <time>2016-01-23T09:39:51Z</time>
      </trkpt>
      <trkpt lat="45.86224" lon="6.55535">
        <ele>1709.36</ele>
        <time>2016-01-23T09:39:52Z</time>
      </trkpt>
      <trkpt lat="45.86227" lon="6.55529">
        <ele>1708.4</ele>
        <time>2016-01-23T09:39:53Z</time>
      </trkpt>
      <trkpt lat="45.8623" lon="6.55523">
        <ele>1708.4</ele>
        <time>2016-01-23T09:39:54Z</time>
      </trkpt>
      <trkpt lat="45.86233" lon="6.55517">
        <ele>1707.92</ele>
        <time>2016-01-23T09:39:55Z</time>
      </trkpt>
      <trkpt lat="45.86238" lon="6.55504">
        <ele>1706.48</ele>
        <time>2016-01-23T09:39:57Z</time>
      </trkpt>
      <trkpt lat="45.8624" lon="6.55496">
        <ele>1706.48</ele>
        <time>2016-01-23T09:39:58Z</time>
      </trkpt>
      <trkpt lat="45.86243" lon="6.55481">
        <ele>1705.52</ele>
        <time>2016-01-23T09:40:00Z</time>
      </trkpt>
      <trkpt lat="45.86245" lon="6.55472">
        <ele>1705.04</ele>
        <time>2016-01-23T09:40:01Z</time>
      </trkpt>
      <trkpt lat="45.86249" lon="6.55439">
        <ele>1703.11</ele>
        <time>2016-01-23T09:40:05Z</time>
      </trkpt>
      <trkpt lat="45.86251" lon="6.55431">
        <ele>1702.63</ele>
        <time>2016-01-23T09:40:06Z</time>
      </trkpt>
      <trkpt lat="45.86254" lon="6.55424">
        <ele>1702.63</ele>
        <time>2016-01-23T09:40:07Z</time>
      </trkpt>
      <trkpt lat="45.86276" lon="6.5538">
        <ele>1699.27</ele>
        <time>2016-01-23T09:40:13Z</time>
      </trkpt>
      <trkpt lat="45.86299" lon="6.55341">
        <ele>1695.42</ele>
        <time>2016-01-23T09:40:18Z</time>
      </trkpt>
      <trkpt lat="45.86304" lon="6.55335">
        <ele>1694.46</ele>
        <time>2016-01-23T09:40:19Z</time>
      </trkpt>
      <trkpt lat="45.86311" lon="6.55331">
        <ele>1693.98</ele>
        <time>2016-01-23T09:40:20Z</time>
      </trkpt>
      <trkpt lat="45.86362" lon="6.55301">
        <ele>1691.1</ele>
        <time>2016-01-23T09:40:28Z</time>
      </trkpt>
      <trkpt lat="45.86388" lon="6.55283">
        <ele>1687.73</ele>
        <time>2016-01-23T09:40:32Z</time>
      </trkpt>
      <trkpt lat="45.86396" lon="6.5528">
        <ele>1686.77</ele>
        <time>2016-01-23T09:40:33Z</time>
      </trkpt>
      <trkpt lat="45.86426" lon="6.55268">
        <ele>1682.93</ele>
        <time>2016-01-23T09:40:37Z</time>
      </trkpt>
      <trkpt lat="45.86449" lon="6.55258">
        <ele>1680.52</ele>
        <time>2016-01-23T09:40:40Z</time>
      </trkpt>
      <trkpt lat="45.86457" lon="6.55258">
        <ele>1680.52</ele>
        <time>2016-01-23T09:40:41Z</time>
      </trkpt>
      <trkpt lat="45.86465" lon="6.55261">
        <ele>1677.64</ele>
        <time>2016-01-23T09:40:42Z</time>
      </trkpt>
      <trkpt lat="45.86473" lon="6.55266">
        <ele>1676.2</ele>
        <time>2016-01-23T09:40:43Z</time>
      </trkpt>
      <trkpt lat="45.86481" lon="6.55273">
        <ele>1674.75</ele>
        <time>2016-01-23T09:40:44Z</time>
      </trkpt>
      <trkpt lat="45.86488" lon="6.55281">
        <ele>1672.83</ele>
        <time>2016-01-23T09:40:45Z</time>
      </trkpt>
      <trkpt lat="45.86495" lon="6.55291">
        <ele>1669.47</ele>
        <time>2016-01-23T09:40:46Z</time>
      </trkpt>
      <trkpt lat="45.86503" lon="6.55301">
        <ele>1667.54</ele>
        <time>2016-01-23T09:40:47Z</time>
      </trkpt>
      <trkpt lat="45.86511" lon="6.5531">
        <ele>1665.62</ele>
        <time>2016-01-23T09:40:48Z</time>
      </trkpt>
      <trkpt lat="45.86526" lon="6.5533">
        <ele>1661.78</ele>
        <time>2016-01-23T09:40:50Z</time>
      </trkpt>
      <trkpt lat="45.86533" lon="6.55341">
        <ele>1659.37</ele>
        <time>2016-01-23T09:40:51Z</time>
      </trkpt>
      <trkpt lat="45.86541" lon="6.55352">
        <ele>1657.45</ele>
        <time>2016-01-23T09:40:52Z</time>
      </trkpt>
      <trkpt lat="45.86549" lon="6.55361">
        <ele>1655.53</ele>
        <time>2016-01-23T09:40:53Z</time>
      </trkpt>
      <trkpt lat="45.86558" lon="6.55368">
        <ele>1654.57</ele>
        <time>2016-01-23T09:40:54Z</time>
      </trkpt>
      <trkpt lat="45.86566" lon="6.55374">
        <ele>1654.09</ele>
        <time>2016-01-23T09:40:55Z</time>
      </trkpt>
      <trkpt lat="45.86573" lon="6.55381">
        <ele>1651.2</ele>
        <time>2016-01-23T09:40:56Z</time>
      </trkpt>
      <trkpt lat="45.86579" lon="6.55391">
        <ele>1649.28</ele>
        <time>2016-01-23T09:40:57Z</time>
      </trkpt>
      <trkpt lat="45.86586" lon="6.55401">
        <ele>1644.95</ele>
        <time>2016-01-23T09:40:58Z</time>
      </trkpt>
      <trkpt lat="45.86592" lon="6.55411">
        <ele>1644.47</ele>
        <time>2016-01-23T09:40:59Z</time>
      </trkpt>
      <trkpt lat="45.86598" lon="6.55417">
        <ele>1643.51</ele>
        <time>2016-01-23T09:41:00Z</time>
      </trkpt>
      <trkpt lat="45.8661" lon="6.55432">
        <ele>1637.74</ele>
        <time>2016-01-23T09:41:02Z</time>
      </trkpt>
      <trkpt lat="45.86622" lon="6.55448">
        <ele>1634.38</ele>
        <time>2016-01-23T09:41:04Z</time>
      </trkpt>
      <trkpt lat="45.86628" lon="6.55454">
        <ele>1634.38</ele>
        <time>2016-01-23T09:41:05Z</time>
      </trkpt>
      <trkpt lat="45.86639" lon="6.55461">
        <ele>1629.57</ele>
        <time>2016-01-23T09:41:07Z</time>
      </trkpt>
      <trkpt lat="45.8665" lon="6.55469">
        <ele>1626.69</ele>
        <time>2016-01-23T09:41:09Z</time>
      </trkpt>
      <trkpt lat="45.86657" lon="6.55474">
        <ele>1623.8</ele>
        <time>2016-01-23T09:41:10Z</time>
      </trkpt>
      <trkpt lat="45.86663" lon="6.55481">
        <ele>1621.88</ele>
        <time>2016-01-23T09:41:11Z</time>
      </trkpt>
      <trkpt lat="45.8667" lon="6.55487">
        <ele>1619.96</ele>
        <time>2016-01-23T09:41:12Z</time>
      </trkpt>
      <trkpt lat="45.86675" lon="6.55491">
        <ele>1619.48</ele>
        <time>2016-01-23T09:41:13Z</time>
      </trkpt>
      <trkpt lat="45.86678" lon="6.55493">
        <ele>1618.52</ele>
        <time>2016-01-23T09:41:14Z</time>
      </trkpt>
      <trkpt lat="45.86688" lon="6.55499">
        <ele>1615.15</ele>
        <time>2016-01-23T09:41:16Z</time>
      </trkpt>
      <trkpt lat="45.86692" lon="6.55504">
        <ele>1612.75</ele>
        <time>2016-01-23T09:41:17Z</time>
      </trkpt>
      <trkpt lat="45.86697" lon="6.55509">
        <ele>1611.79</ele>
        <time>2016-01-23T09:41:18Z</time>
      </trkpt>
      <trkpt lat="45.86702" lon="6.55512">
        <ele>1609.86</ele>
        <time>2016-01-23T09:41:19Z</time>
      </trkpt>
      <trkpt lat="45.86707" lon="6.55514">
        <ele>1607.94</ele>
        <time>2016-01-23T09:41:20Z</time>
      </trkpt>
      <trkpt lat="45.86713" lon="6.55518">
        <ele>1605.06</ele>
        <time>2016-01-23T09:41:21Z</time>
      </trkpt>
      <trkpt lat="45.86719" lon="6.55522">
        <ele>1602.17</ele>
        <time>2016-01-23T09:41:22Z</time>
      </trkpt>
      <trkpt lat="45.86725" lon="6.55524">
        <ele>1600.25</ele>
        <time>2016-01-23T09:41:23Z</time>
      </trkpt>
      <trkpt lat="45.86732" lon="6.55529">
        <ele>1597.85</ele>
        <time>2016-01-23T09:41:24Z</time>
      </trkpt>
      <trkpt lat="45.8674" lon="6.55533">
        <ele>1594.48</ele>
        <time>2016-01-23T09:41:25Z</time>
      </trkpt>
      <trkpt lat="45.86747" lon="6.55533">
        <ele>1593.52</ele>
        <time>2016-01-23T09:41:26Z</time>
      </trkpt>
      <trkpt lat="45.86754" lon="6.55533">
        <ele>1590.16</ele>
        <time>2016-01-23T09:41:27Z</time>
      </trkpt>
      <trkpt lat="45.86762" lon="6.55534">
        <ele>1585.83</ele>
        <time>2016-01-23T09:41:28Z</time>
      </trkpt>
      <trkpt lat="45.8677" lon="6.55533">
        <ele>1584.87</ele>
        <time>2016-01-23T09:41:29Z</time>
      </trkpt>
      <trkpt lat="45.86777" lon="6.55529">
        <ele>1583.43</ele>
        <time>2016-01-23T09:41:30Z</time>
      </trkpt>
      <trkpt lat="45.86783" lon="6.55521">
        <ele>1581.03</ele>
        <time>2016-01-23T09:41:31Z</time>
      </trkpt>
      <trkpt lat="45.86788" lon="6.55514">
        <ele>1580.06</ele>
        <time>2016-01-23T09:41:32Z</time>
      </trkpt>
      <trkpt lat="45.86791" lon="6.55507">
        <ele>1578.14</ele>
        <time>2016-01-23T09:41:33Z</time>
      </trkpt>
      <trkpt lat="45.86798" lon="6.55497">
        <ele>1575.26</ele>
        <time>2016-01-23T09:41:38Z</time>
      </trkpt>
      <trkpt lat="45.868" lon="6.55491">
        <ele>1573.82</ele>
        <time>2016-01-23T09:41:46Z</time>
      </trkpt>
      <trkpt lat="45.86798" lon="6.55486">
        <ele>1573.33</ele>
        <time>2016-01-23T09:42:15Z</time>
      </trkpt>
      <trkpt lat="45.86802" lon="6.55484">
        <ele>1569.49</ele>
        <time>2016-01-23T09:42:16Z</time>
      </trkpt>
      <trkpt lat="45.86809" lon="6.55481">
        <ele>1566.61</ele>
        <time>2016-01-23T09:42:17Z</time>
      </trkpt>
      <trkpt lat="45.86817" lon="6.55479">
        <ele>1563.24</ele>
        <time>2016-01-23T09:42:18Z</time>
      </trkpt>
      <trkpt lat="45.86825" lon="6.55474">
        <ele>1561.8</ele>
        <time>2016-01-23T09:42:19Z</time>
      </trkpt>
      <trkpt lat="45.86832" lon="6.55466">
        <ele>1557.95</ele>
        <time>2016-01-23T09:42:20Z</time>
      </trkpt>
      <trkpt lat="45.86838" lon="6.55455">
        <ele>1553.15</ele>
        <time>2016-01-23T09:42:21Z</time>
      </trkpt>
      <trkpt lat="45.86845" lon="6.55444">
        <ele>1548.34</ele>
        <time>2016-01-23T09:42:22Z</time>
      </trkpt>
      <trkpt lat="45.86853" lon="6.55431">
        <ele>1543.05</ele>
        <time>2016-01-23T09:42:23Z</time>
      </trkpt>
      <trkpt lat="45.86859" lon="6.55416">
        <ele>1542.09</ele>
        <time>2016-01-23T09:42:24Z</time>
      </trkpt>
      <trkpt lat="45.86863" lon="6.55401">
        <ele>1539.21</ele>
        <time>2016-01-23T09:42:25Z</time>
      </trkpt>
      <trkpt lat="45.86865" lon="6.55386">
        <ele>1537.77</ele>
        <time>2016-01-23T09:42:26Z</time>
      </trkpt>
      <trkpt lat="45.86869" lon="6.5537">
        <ele>1533.92</ele>
        <time>2016-01-23T09:42:27Z</time>
      </trkpt>
      <trkpt lat="45.86871" lon="6.55355">
        <ele>1531.04</ele>
        <time>2016-01-23T09:42:28Z</time>
      </trkpt>
      <trkpt lat="45.86873" lon="6.5534">
        <ele>1528.15</ele>
        <time>2016-01-23T09:42:29Z</time>
      </trkpt>
      <trkpt lat="45.86873" lon="6.55324">
        <ele>1526.71</ele>
        <time>2016-01-23T09:42:30Z</time>
      </trkpt>
      <trkpt lat="45.86871" lon="6.55292">
        <ele>1522.87</ele>
        <time>2016-01-23T09:42:32Z</time>
      </trkpt>
      <trkpt lat="45.86867" lon="6.55258">
        <ele>1518.54</ele>
        <time>2016-01-23T09:42:34Z</time>
      </trkpt>
      <trkpt lat="45.86865" lon="6.5524">
        <ele>1515.66</ele>
        <time>2016-01-23T09:42:35Z</time>
      </trkpt>
      <trkpt lat="45.86859" lon="6.55204">
        <ele>1510.85</ele>
        <time>2016-01-23T09:42:37Z</time>
      </trkpt>
      <trkpt lat="45.86854" lon="6.55169">
        <ele>1507.48</ele>
        <time>2016-01-23T09:42:39Z</time>
      </trkpt>
      <trkpt lat="45.86851" lon="6.55137">
        <ele>1507</ele>
        <time>2016-01-23T09:42:41Z</time>
      </trkpt>
      <trkpt lat="45.86826" lon="6.55048">
        <ele>1503.64</ele>
        <time>2016-01-23T09:42:48Z</time>
      </trkpt>
      <trkpt lat="45.86824" lon="6.55037">
        <ele>1503.16</ele>
        <time>2016-01-23T09:42:49Z</time>
      </trkpt>
      <trkpt lat="45.86823" lon="6.55026">
        <ele>1505.56</ele>
        <time>2016-01-23T09:42:50Z</time>
      </trkpt>
      <trkpt lat="45.86823" lon="6.55007">
        <ele>1504.12</ele>
        <time>2016-01-23T09:42:52Z</time>
      </trkpt>
      <trkpt lat="45.86825" lon="6.54999">
        <ele>1504.12</ele>
        <time>2016-01-23T09:42:53Z</time>
      </trkpt>
      <trkpt lat="45.86828" lon="6.54994">
        <ele>1503.64</ele>
        <time>2016-01-23T09:42:54Z</time>
      </trkpt>
      <trkpt lat="45.86831" lon="6.54991">
        <ele>1503.64</ele>
        <time>2016-01-23T09:42:55Z</time>
      </trkpt>
      <trkpt lat="45.86835" lon="6.54989">
        <ele>1503.16</ele>
        <time>2016-01-23T09:42:56Z</time>
      </trkpt>
      <trkpt lat="45.86838" lon="6.54988">
        <ele>1502.68</ele>
        <time>2016-01-23T09:42:57Z</time>
      </trkpt>
      <trkpt lat="45.86842" lon="6.54987">
        <ele>1501.72</ele>
        <time>2016-01-23T09:42:58Z</time>
      </trkpt>
      <trkpt lat="45.8686" lon="6.54986">
        <ele>1500.76</ele>
        <time>2016-01-23T09:43:02Z</time>
      </trkpt>
      <trkpt lat="45.86864" lon="6.54987">
        <ele>1501.24</ele>
        <time>2016-01-23T09:43:03Z</time>
      </trkpt>
      <trkpt lat="45.86868" lon="6.54989">
        <ele>1500.27</ele>
        <time>2016-01-23T09:43:04Z</time>
      </trkpt>
      <trkpt lat="45.86872" lon="6.54991">
        <ele>1500.27</ele>
        <time>2016-01-23T09:43:05Z</time>
      </trkpt>
      <trkpt lat="45.86876" lon="6.54993">
        <ele>1500.76</ele>
        <time>2016-01-23T09:43:06Z</time>
      </trkpt>
      <trkpt lat="45.8688" lon="6.54995">
        <ele>1500.76</ele>
        <time>2016-01-23T09:43:07Z</time>
      </trkpt>
      <trkpt lat="45.86883" lon="6.54996">
        <ele>1499.79</ele>
        <time>2016-01-23T09:43:08Z</time>
      </trkpt>
      <trkpt lat="45.86887" lon="6.54997">
        <ele>1499.79</ele>
        <time>2016-01-23T09:43:09Z</time>
      </trkpt>
      <trkpt lat="45.86891" lon="6.54997">
        <ele>1498.83</ele>
        <time>2016-01-23T09:43:10Z</time>
      </trkpt>
      <trkpt lat="45.86908" lon="6.55">
        <ele>1497.39</ele>
        <time>2016-01-23T09:43:14Z</time>
      </trkpt>
      <trkpt lat="45.86922" lon="6.54999">
        <ele>1496.43</ele>
        <time>2016-01-23T09:43:17Z</time>
      </trkpt>
      <trkpt lat="45.86926" lon="6.54997">
        <ele>1496.43</ele>
        <time>2016-01-23T09:43:18Z</time>
      </trkpt>
      <trkpt lat="45.86959" lon="6.54981">
        <ele>1494.03</ele>
        <time>2016-01-23T09:43:25Z</time>
      </trkpt>
      <trkpt lat="45.86963" lon="6.5498">
        <ele>1494.03</ele>
        <time>2016-01-23T09:43:26Z</time>
      </trkpt>
      <trkpt lat="45.87012" lon="6.54955">
        <ele>1490.66</ele>
        <time>2016-01-23T09:43:38Z</time>
      </trkpt>
      <trkpt lat="45.87053" lon="6.54905">
        <ele>1487.78</ele>
        <time>2016-01-23T09:43:52Z</time>
      </trkpt>
      <trkpt lat="45.87077" lon="6.54881">
        <ele>1481.53</ele>
        <time>2016-01-23T09:43:57Z</time>
      </trkpt>
      <trkpt lat="45.87089" lon="6.54866">
        <ele>1478.16</ele>
        <time>2016-01-23T09:43:59Z</time>
      </trkpt>
      <trkpt lat="45.87094" lon="6.54856">
        <ele>1475.76</ele>
        <time>2016-01-23T09:44:00Z</time>
      </trkpt>
      <trkpt lat="45.87097" lon="6.54845">
        <ele>1473.36</ele>
        <time>2016-01-23T09:44:01Z</time>
      </trkpt>
      <trkpt lat="45.87101" lon="6.54835">
        <ele>1472.4</ele>
        <time>2016-01-23T09:44:02Z</time>
      </trkpt>
      <trkpt lat="45.87107" lon="6.54826">
        <ele>1470.47</ele>
        <time>2016-01-23T09:44:03Z</time>
      </trkpt>
      <trkpt lat="45.87115" lon="6.5482">
        <ele>1466.63</ele>
        <time>2016-01-23T09:44:04Z</time>
      </trkpt>
      <trkpt lat="45.87122" lon="6.54812">
        <ele>1463.74</ele>
        <time>2016-01-23T09:44:05Z</time>
      </trkpt>
      <trkpt lat="45.87128" lon="6.54801">
        <ele>1461.34</ele>
        <time>2016-01-23T09:44:06Z</time>
      </trkpt>
      <trkpt lat="45.87134" lon="6.54791">
        <ele>1458.46</ele>
        <time>2016-01-23T09:44:07Z</time>
      </trkpt>
      <trkpt lat="45.87142" lon="6.54783">
        <ele>1456.53</ele>
        <time>2016-01-23T09:44:08Z</time>
      </trkpt>
      <trkpt lat="45.8715" lon="6.54776">
        <ele>1452.69</ele>
        <time>2016-01-23T09:44:09Z</time>
      </trkpt>
      <trkpt lat="45.87159" lon="6.54767">
        <ele>1449.81</ele>
        <time>2016-01-23T09:44:10Z</time>
      </trkpt>
      <trkpt lat="45.87165" lon="6.54757">
        <ele>1447.88</ele>
        <time>2016-01-23T09:44:11Z</time>
      </trkpt>
      <trkpt lat="45.87171" lon="6.54747">
        <ele>1445.48</ele>
        <time>2016-01-23T09:44:12Z</time>
      </trkpt>
      <trkpt lat="45.87178" lon="6.54736">
        <ele>1443.08</ele>
        <time>2016-01-23T09:44:13Z</time>
      </trkpt>
      <trkpt lat="45.87186" lon="6.54726">
        <ele>1439.23</ele>
        <time>2016-01-23T09:44:14Z</time>
      </trkpt>
      <trkpt lat="45.87193" lon="6.54714">
        <ele>1436.35</ele>
        <time>2016-01-23T09:44:15Z</time>
      </trkpt>
      <trkpt lat="45.87198" lon="6.547">
        <ele>1432.98</ele>
        <time>2016-01-23T09:44:16Z</time>
      </trkpt>
      <trkpt lat="45.87204" lon="6.54685">
        <ele>1430.1</ele>
        <time>2016-01-23T09:44:17Z</time>
      </trkpt>
      <trkpt lat="45.8721" lon="6.54669">
        <ele>1425.29</ele>
        <time>2016-01-23T09:44:18Z</time>
      </trkpt>
      <trkpt lat="45.87217" lon="6.54653">
        <ele>1422.41</ele>
        <time>2016-01-23T09:44:19Z</time>
      </trkpt>
      <trkpt lat="45.87223" lon="6.54638">
        <ele>1417.6</ele>
        <time>2016-01-23T09:44:20Z</time>
      </trkpt>
      <trkpt lat="45.87235" lon="6.54604">
        <ele>1412.79</ele>
        <time>2016-01-23T09:44:22Z</time>
      </trkpt>
      <trkpt lat="45.87238" lon="6.54587">
        <ele>1411.35</ele>
        <time>2016-01-23T09:44:23Z</time>
      </trkpt>
      <trkpt lat="45.8724" lon="6.54569">
        <ele>1405.58</ele>
        <time>2016-01-23T09:44:24Z</time>
      </trkpt>
      <trkpt lat="45.87239" lon="6.54553">
        <ele>1402.22</ele>
        <time>2016-01-23T09:44:25Z</time>
      </trkpt>
      <trkpt lat="45.87237" lon="6.54535">
        <ele>1399.34</ele>
        <time>2016-01-23T09:44:26Z</time>
      </trkpt>
      <trkpt lat="45.87234" lon="6.54518">
        <ele>1396.93</ele>
        <time>2016-01-23T09:44:27Z</time>
      </trkpt>
      <trkpt lat="45.87233" lon="6.545">
        <ele>1392.61</ele>
        <time>2016-01-23T09:44:28Z</time>
      </trkpt>
      <trkpt lat="45.87235" lon="6.54482">
        <ele>1391.17</ele>
        <time>2016-01-23T09:44:29Z</time>
      </trkpt>
      <trkpt lat="45.87239" lon="6.54466">
        <ele>1389.24</ele>
        <time>2016-01-23T09:44:30Z</time>
      </trkpt>
      <trkpt lat="45.87245" lon="6.54451">
        <ele>1385.4</ele>
        <time>2016-01-23T09:44:31Z</time>
      </trkpt>
      <trkpt lat="45.87249" lon="6.54438">
        <ele>1387.32</ele>
        <time>2016-01-23T09:44:32Z</time>
      </trkpt>
      <trkpt lat="45.87255" lon="6.54419">
        <ele>1385.4</ele>
        <time>2016-01-23T09:44:36Z</time>
      </trkpt>
      <trkpt lat="45.87254" lon="6.54421">
        <ele>1386.36</ele>
        <time>2016-01-23T09:44:38Z</time>
      </trkpt>
      <trkpt lat="45.87253" lon="6.54424">
        <ele>1386.36</ele>
        <time>2016-01-23T09:44:45Z</time>
      </trkpt>
      <trkpt lat="45.87255" lon="6.54421">
        <ele>1384.92</ele>
        <time>2016-01-23T09:44:46Z</time>
      </trkpt>
      <trkpt lat="45.87264" lon="6.54411">
        <ele>1380.11</ele>
        <time>2016-01-23T09:44:48Z</time>
      </trkpt>
      <trkpt lat="45.87269" lon="6.54403">
        <ele>1376.75</ele>
        <time>2016-01-23T09:44:49Z</time>
      </trkpt>
      <trkpt lat="45.87276" lon="6.54394">
        <ele>1373.38</ele>
        <time>2016-01-23T09:44:50Z</time>
      </trkpt>
      <trkpt lat="45.87283" lon="6.54384">
        <ele>1369.05</ele>
        <time>2016-01-23T09:44:51Z</time>
      </trkpt>
      <trkpt lat="45.8729" lon="6.54372">
        <ele>1364.25</ele>
        <time>2016-01-23T09:44:52Z</time>
      </trkpt>
      <trkpt lat="45.87299" lon="6.54359">
        <ele>1359.44</ele>
        <time>2016-01-23T09:44:53Z</time>
      </trkpt>
      <trkpt lat="45.87308" lon="6.54345">
        <ele>1355.12</ele>
        <time>2016-01-23T09:44:54Z</time>
      </trkpt>
      <trkpt lat="45.87339" lon="6.54293">
        <ele>1351.27</ele>
        <time>2016-01-23T09:44:58Z</time>
      </trkpt>
      <trkpt lat="45.87351" lon="6.54267">
        <ele>1349.83</ele>
        <time>2016-01-23T09:45:00Z</time>
      </trkpt>
      <trkpt lat="45.87384" lon="6.54182">
        <ele>1346.94</ele>
        <time>2016-01-23T09:45:08Z</time>
      </trkpt>
      <trkpt lat="45.87399" lon="6.54138">
        <ele>1345.5</ele>
        <time>2016-01-23T09:45:13Z</time>
      </trkpt>
      <trkpt lat="45.87423" lon="6.54094">
        <ele>1342.14</ele>
        <time>2016-01-23T09:45:19Z</time>
      </trkpt>
      <trkpt lat="45.87437" lon="6.54074">
        <ele>1340.7</ele>
        <time>2016-01-23T09:45:22Z</time>
      </trkpt>
      <trkpt lat="45.87482" lon="6.54024">
        <ele>1338.29</ele>
        <time>2016-01-23T09:45:34Z</time>
      </trkpt>
      <trkpt lat="45.87507" lon="6.53996">
        <ele>1336.85</ele>
        <time>2016-01-23T09:45:44Z</time>
      </trkpt>
      <trkpt lat="45.8753" lon="6.53968">
        <ele>1333.97</ele>
        <time>2016-01-23T09:45:51Z</time>
      </trkpt>
      <trkpt lat="45.87535" lon="6.53962">
        <ele>1333.97</ele>
        <time>2016-01-23T09:45:52Z</time>
      </trkpt>
      <trkpt lat="45.87561" lon="6.53926">
        <ele>1330.12</ele>
        <time>2016-01-23T09:45:58Z</time>
      </trkpt>
      <trkpt lat="45.87571" lon="6.53913">
        <ele>1329.16</ele>
        <time>2016-01-23T09:46:00Z</time>
      </trkpt>
      <trkpt lat="45.87586" lon="6.53893">
        <ele>1326.76</ele>
        <time>2016-01-23T09:46:03Z</time>
      </trkpt>
      <trkpt lat="45.87607" lon="6.53867">
        <ele>1324.35</ele>
        <time>2016-01-23T09:46:07Z</time>
      </trkpt>
      <trkpt lat="45.87634" lon="6.53835">
        <ele>1320.99</ele>
        <time>2016-01-23T09:46:12Z</time>
      </trkpt>
      <trkpt lat="45.87639" lon="6.53828">
        <ele>1319.55</ele>
        <time>2016-01-23T09:46:13Z</time>
      </trkpt>
      <trkpt lat="45.87656" lon="6.53803">
        <ele>1319.07</ele>
        <time>2016-01-23T09:46:17Z</time>
      </trkpt>
      <trkpt lat="45.87688" lon="6.53732">
        <ele>1316.18</ele>
        <time>2016-01-23T09:46:28Z</time>
      </trkpt>
      <trkpt lat="45.87692" lon="6.53727">
        <ele>1316.18</ele>
        <time>2016-01-23T09:46:29Z</time>
      </trkpt>
      <trkpt lat="45.8771" lon="6.53703">
        <ele>1314.26</ele>
        <time>2016-01-23T09:46:34Z</time>
      </trkpt>
      <trkpt lat="45.87722" lon="6.5367">
        <ele>1310.9</ele>
        <time>2016-01-23T09:46:39Z</time>
      </trkpt>
      <trkpt lat="45.87731" lon="6.53642">
        <ele>1306.57</ele>
        <time>2016-01-23T09:46:42Z</time>
      </trkpt>
      <trkpt lat="45.8775" lon="6.5358">
        <ele>1303.2</ele>
        <time>2016-01-23T09:46:48Z</time>
      </trkpt>
      <trkpt lat="45.87764" lon="6.53531">
        <ele>1299.84</ele>
        <time>2016-01-23T09:46:53Z</time>
      </trkpt>
      <trkpt lat="45.87773" lon="6.535">
        <ele>1296.96</ele>
        <time>2016-01-23T09:46:56Z</time>
      </trkpt>
      <trkpt lat="45.8779" lon="6.53453">
        <ele>1293.59</ele>
        <time>2016-01-23T09:47:00Z</time>
      </trkpt>
      <trkpt lat="45.878" lon="6.53431">
        <ele>1292.63</ele>
        <time>2016-01-23T09:47:02Z</time>
      </trkpt>
      <trkpt lat="45.87822" lon="6.5337">
        <ele>1288.78</ele>
        <time>2016-01-23T09:47:08Z</time>
      </trkpt>
      <trkpt lat="45.87835" lon="6.53327">
        <ele>1285.42</ele>
        <time>2016-01-23T09:47:12Z</time>
      </trkpt>
      <trkpt lat="45.87866" lon="6.53206">
        <ele>1282.06</ele>
        <time>2016-01-23T09:47:25Z</time>
      </trkpt>
      <trkpt lat="45.87873" lon="6.53173">
        <ele>1281.09</ele>
        <time>2016-01-23T09:47:29Z</time>
      </trkpt>
      <trkpt lat="45.87874" lon="6.53145">
        <ele>1278.21</ele>
        <time>2016-01-23T09:47:32Z</time>
      </trkpt>
      <trkpt lat="45.8787" lon="6.53106">
        <ele>1276.29</ele>
        <time>2016-01-23T09:47:36Z</time>
      </trkpt>
      <trkpt lat="45.87866" lon="6.53067">
        <ele>1274.36</ele>
        <time>2016-01-23T09:47:40Z</time>
      </trkpt>
      <trkpt lat="45.87867" lon="6.52993">
        <ele>1270.52</ele>
        <time>2016-01-23T09:47:48Z</time>
      </trkpt>
      <trkpt lat="45.87867" lon="6.52974">
        <ele>1269.08</ele>
        <time>2016-01-23T09:47:50Z</time>
      </trkpt>
      <trkpt lat="45.87864" lon="6.52945">
        <ele>1268.12</ele>
        <time>2016-01-23T09:47:53Z</time>
      </trkpt>
      <trkpt lat="45.87869" lon="6.52903">
        <ele>1265.23</ele>
        <time>2016-01-23T09:47:58Z</time>
      </trkpt>
      <trkpt lat="45.87876" lon="6.52885">
        <ele>1261.39</ele>
        <time>2016-01-23T09:48:00Z</time>
      </trkpt>
      <trkpt lat="45.87881" lon="6.52859">
        <ele>1254.18</ele>
        <time>2016-01-23T09:48:02Z</time>
      </trkpt>
      <trkpt lat="45.8788" lon="6.52831">
        <ele>1250.33</ele>
        <time>2016-01-23T09:48:04Z</time>
      </trkpt>
      <trkpt lat="45.87878" lon="6.52818">
        <ele>1247.93</ele>
        <time>2016-01-23T09:48:05Z</time>
      </trkpt>
      <trkpt lat="45.87872" lon="6.52787">
        <ele>1241.2</ele>
        <time>2016-01-23T09:48:07Z</time>
      </trkpt>
      <trkpt lat="45.87857" lon="6.52735">
        <ele>1234.47</ele>
        <time>2016-01-23T09:48:11Z</time>
      </trkpt>
      <trkpt lat="45.87854" lon="6.52723">
        <ele>1234.47</ele>
        <time>2016-01-23T09:48:12Z</time>
      </trkpt>
      <trkpt lat="45.87838" lon="6.52683">
        <ele>1228.7</ele>
        <time>2016-01-23T09:48:16Z</time>
      </trkpt>
      <trkpt lat="45.87834" lon="6.5264">
        <ele>1224.86</ele>
        <time>2016-01-23T09:48:22Z</time>
      </trkpt>
      <trkpt lat="45.87849" lon="6.52628">
        <ele>1219.57</ele>
        <time>2016-01-23T09:48:24Z</time>
      </trkpt>
      <trkpt lat="45.87856" lon="6.52626">
        <ele>1219.09</ele>
        <time>2016-01-23T09:48:25Z</time>
      </trkpt>
      <trkpt lat="45.8787" lon="6.52624">
        <ele>1219.09</ele>
        <time>2016-01-23T09:48:27Z</time>
      </trkpt>
      <trkpt lat="45.87876" lon="6.52618">
        <ele>1223.42</ele>
        <time>2016-01-23T09:48:34Z</time>
      </trkpt>
      <trkpt lat="45.87875" lon="6.52624">
        <ele>1223.42</ele>
        <time>2016-01-23T09:48:58Z</time>
      </trkpt>
      <trkpt lat="45.8788" lon="6.52622">
        <ele>1223.42</ele>
        <time>2016-01-23T09:49:15Z</time>
      </trkpt>
      <trkpt lat="45.8788" lon="6.52622">
        <ele>1223.42</ele>
        <time>2016-01-23T09:49:16Z</time>
      </trkpt>
      <trkpt lat="45.87882" lon="6.52623">
        <ele>1223.42</ele>
        <time>2016-01-23T09:49:18Z</time>
      </trkpt>
      <trkpt lat="45.87891" lon="6.52618">
        <ele>1223.9</ele>
        <time>2016-01-23T09:49:33Z</time>
      </trkpt>
      <trkpt lat="45.87886" lon="6.52616">
        <ele>1223.9</ele>
        <time>2016-01-23T09:49:48Z</time>
      </trkpt>
      <trkpt lat="45.87882" lon="6.52615">
        <ele>1223.9</ele>
        <time>2016-01-23T09:50:05Z</time>
      </trkpt>
      <trkpt lat="45.87882" lon="6.52617">
        <ele>1223.42</ele>
        <time>2016-01-23T09:50:22Z</time>
      </trkpt>
      <trkpt lat="45.87886" lon="6.52618">
        <ele>1222.45</ele>
        <time>2016-01-23T09:50:58Z</time>
      </trkpt>
      <trkpt lat="45.87886" lon="6.52619">
        <ele>1222.45</ele>
        <time>2016-01-23T09:51:27Z</time>
      </trkpt>
      <trkpt lat="45.87884" lon="6.52617">
        <ele>1221.97</ele>
        <time>2016-01-23T09:51:50Z</time>
      </trkpt>
      <trkpt lat="45.87883" lon="6.5262">
        <ele>1221.97</ele>
        <time>2016-01-23T09:52:08Z</time>
      </trkpt>
      <trkpt lat="45.87881" lon="6.52621">
        <ele>1221.97</ele>
        <time>2016-01-23T09:52:27Z</time>
      </trkpt>
      <trkpt lat="45.87883" lon="6.52619">
        <ele>1221.97</ele>
        <time>2016-01-23T09:52:48Z</time>
      </trkpt>
      <trkpt lat="45.87886" lon="6.52617">
        <ele>1221.97</ele>
        <time>2016-01-23T09:53:08Z</time>
      </trkpt>
      <trkpt lat="45.87885" lon="6.52616">
        <ele>1221.97</ele>
        <time>2016-01-23T09:53:31Z</time>
      </trkpt>
      <trkpt lat="45.87888" lon="6.52616">
        <ele>1221.97</ele>
        <time>2016-01-23T09:54:03Z</time>
      </trkpt>
      <trkpt lat="45.8789" lon="6.52615">
        <ele>1221.97</ele>
        <time>2016-01-23T09:54:32Z</time>
      </trkpt>
      <trkpt lat="45.87888" lon="6.52617">
        <ele>1221.97</ele>
        <time>2016-01-23T09:54:50Z</time>
      </trkpt>
      <trkpt lat="45.87883" lon="6.52622">
        <ele>1221.97</ele>
        <time>2016-01-23T09:55:13Z</time>
      </trkpt>
      <trkpt lat="45.87885" lon="6.5262">
        <ele>1221.97</ele>
        <time>2016-01-23T09:55:34Z</time>
      </trkpt>
      <trkpt lat="45.87882" lon="6.52621">
        <ele>1221.97</ele>
        <time>2016-01-23T09:55:53Z</time>
      </trkpt>
      <trkpt lat="45.87884" lon="6.52619">
        <ele>1221.97</ele>
        <time>2016-01-23T09:56:12Z</time>
      </trkpt>
      <trkpt lat="45.87888" lon="6.52618">
        <ele>1221.97</ele>
        <time>2016-01-23T09:56:39Z</time>
      </trkpt>
      <trkpt lat="45.87887" lon="6.52617">
        <ele>1221.49</ele>
        <time>2016-01-23T09:56:55Z</time>
      </trkpt>
      <trkpt lat="45.87889" lon="6.52617">
        <ele>1221.49</ele>
        <time>2016-01-23T09:57:23Z</time>
      </trkpt>
      <trkpt lat="45.87889" lon="6.52618">
        <ele>1221.49</ele>
        <time>2016-01-23T09:57:39Z</time>
      </trkpt>
      <trkpt lat="45.87887" lon="6.52617">
        <ele>1221.49</ele>
        <time>2016-01-23T09:57:50Z</time>
      </trkpt>
      <trkpt lat="45.8788" lon="6.52607">
        <ele>1220.53</ele>
        <time>2016-01-23T09:58:02Z</time>
      </trkpt>
      <trkpt lat="45.87873" lon="6.52608">
        <ele>1220.05</ele>
        <time>2016-01-23T09:58:17Z</time>
      </trkpt>
      <trkpt lat="45.87865" lon="6.52612">
        <ele>1220.05</ele>
        <time>2016-01-23T09:58:31Z</time>
      </trkpt>
      <trkpt lat="45.87863" lon="6.52613">
        <ele>1220.05</ele>
        <time>2016-01-23T09:58:39Z</time>
      </trkpt>
      <trkpt lat="45.87855" lon="6.52615">
        <ele>1219.09</ele>
        <time>2016-01-23T09:58:50Z</time>
      </trkpt>
      <trkpt lat="45.87846" lon="6.52617">
        <ele>1221.97</ele>
        <time>2016-01-23T09:58:55Z</time>
      </trkpt>
      <trkpt lat="45.87836" lon="6.5262">
        <ele>1225.82</ele>
        <time>2016-01-23T09:59:01Z</time>
      </trkpt>
      <trkpt lat="45.87827" lon="6.52624">
        <ele>1228.7</ele>
        <time>2016-01-23T09:59:06Z</time>
      </trkpt>
      <trkpt lat="45.87817" lon="6.52629">
        <ele>1232.55</ele>
        <time>2016-01-23T09:59:11Z</time>
      </trkpt>
      <trkpt lat="45.87809" lon="6.52634">
        <ele>1235.91</ele>
        <time>2016-01-23T09:59:16Z</time>
      </trkpt>
      <trkpt lat="45.87807" lon="6.52635">
        <ele>1236.39</ele>
        <time>2016-01-23T09:59:17Z</time>
      </trkpt>
      <trkpt lat="45.87801" lon="6.52637">
        <ele>1239.76</ele>
        <time>2016-01-23T09:59:21Z</time>
      </trkpt>
      <trkpt lat="45.87793" lon="6.52642">
        <ele>1243.12</ele>
        <time>2016-01-23T09:59:25Z</time>
      </trkpt>
      <trkpt lat="45.87786" lon="6.52647">
        <ele>1246.01</ele>
        <time>2016-01-23T09:59:29Z</time>
      </trkpt>
      <trkpt lat="45.87779" lon="6.52649">
        <ele>1249.37</ele>
        <time>2016-01-23T09:59:33Z</time>
      </trkpt>
      <trkpt lat="45.87773" lon="6.52652">
        <ele>1252.74</ele>
        <time>2016-01-23T09:59:37Z</time>
      </trkpt>
      <trkpt lat="45.87768" lon="6.52653">
        <ele>1255.62</ele>
        <time>2016-01-23T09:59:41Z</time>
      </trkpt>
      <trkpt lat="45.87766" lon="6.52654">
        <ele>1256.58</ele>
        <time>2016-01-23T09:59:43Z</time>
      </trkpt>
      <trkpt lat="45.87757" lon="6.52657">
        <ele>1259.94</ele>
        <time>2016-01-23T09:59:49Z</time>
      </trkpt>
      <trkpt lat="45.87751" lon="6.52659">
        <ele>1263.31</ele>
        <time>2016-01-23T09:59:54Z</time>
      </trkpt>
      <trkpt lat="45.87749" lon="6.5266">
        <ele>1263.31</ele>
        <time>2016-01-23T09:59:55Z</time>
      </trkpt>
      <trkpt lat="45.87743" lon="6.52663">
        <ele>1266.67</ele>
        <time>2016-01-23T10:00:00Z</time>
      </trkpt>
      <trkpt lat="45.87736" lon="6.52667">
        <ele>1270.04</ele>
        <time>2016-01-23T10:00:05Z</time>
      </trkpt>
      <trkpt lat="45.87728" lon="6.5267">
        <ele>1273.88</ele>
        <time>2016-01-23T10:00:10Z</time>
      </trkpt>
      <trkpt lat="45.87722" lon="6.52672">
        <ele>1276.77</ele>
        <time>2016-01-23T10:00:14Z</time>
      </trkpt>
      <trkpt lat="45.87717" lon="6.52674">
        <ele>1280.13</ele>
        <time>2016-01-23T10:00:18Z</time>
      </trkpt>
      <trkpt lat="45.8771" lon="6.52677">
        <ele>1283.5</ele>
        <time>2016-01-23T10:00:23Z</time>
      </trkpt>
      <trkpt lat="45.87705" lon="6.5268">
        <ele>1287.34</ele>
        <time>2016-01-23T10:00:28Z</time>
      </trkpt>
      <trkpt lat="45.87698" lon="6.52682">
        <ele>1290.23</ele>
        <time>2016-01-23T10:00:32Z</time>
      </trkpt>
      <trkpt lat="45.87692" lon="6.52683">
        <ele>1293.59</ele>
        <time>2016-01-23T10:00:36Z</time>
      </trkpt>
      <trkpt lat="45.87686" lon="6.52685">
        <ele>1297.44</ele>
        <time>2016-01-23T10:00:40Z</time>
      </trkpt>
      <trkpt lat="45.87679" lon="6.52686">
        <ele>1300.8</ele>
        <time>2016-01-23T10:00:45Z</time>
      </trkpt>
      <trkpt lat="45.87672" lon="6.52688">
        <ele>1304.65</ele>
        <time>2016-01-23T10:00:49Z</time>
      </trkpt>
      <trkpt lat="45.87666" lon="6.5269">
        <ele>1308.01</ele>
        <time>2016-01-23T10:00:53Z</time>
      </trkpt>
      <trkpt lat="45.87661" lon="6.52691">
        <ele>1310.9</ele>
        <time>2016-01-23T10:00:57Z</time>
      </trkpt>
      <trkpt lat="45.87652" lon="6.52695">
        <ele>1314.26</ele>
        <time>2016-01-23T10:01:02Z</time>
      </trkpt>
      <trkpt lat="45.87643" lon="6.52698">
        <ele>1317.62</ele>
        <time>2016-01-23T10:01:07Z</time>
      </trkpt>
      <trkpt lat="45.87635" lon="6.52701">
        <ele>1320.99</ele>
        <time>2016-01-23T10:01:12Z</time>
      </trkpt>
      <trkpt lat="45.87628" lon="6.52703">
        <ele>1324.35</ele>
        <time>2016-01-23T10:01:20Z</time>
      </trkpt>
      <trkpt lat="45.8762" lon="6.52705">
        <ele>1327.72</ele>
        <time>2016-01-23T10:01:27Z</time>
      </trkpt>
      <trkpt lat="45.87614" lon="6.52708">
        <ele>1331.08</ele>
        <time>2016-01-23T10:01:32Z</time>
      </trkpt>
      <trkpt lat="45.87608" lon="6.5271">
        <ele>1333.97</ele>
        <time>2016-01-23T10:01:36Z</time>
      </trkpt>
      <trkpt lat="45.87606" lon="6.52711">
        <ele>1334.45</ele>
        <time>2016-01-23T10:01:38Z</time>
      </trkpt>
      <trkpt lat="45.87583" lon="6.52723">
        <ele>1338.29</ele>
        <time>2016-01-23T10:01:50Z</time>
      </trkpt>
      <trkpt lat="45.87568" lon="6.52729">
        <ele>1341.66</ele>
        <time>2016-01-23T10:02:00Z</time>
      </trkpt>
      <trkpt lat="45.87558" lon="6.52734">
        <ele>1345.02</ele>
        <time>2016-01-23T10:02:07Z</time>
      </trkpt>
      <trkpt lat="45.87545" lon="6.52738">
        <ele>1348.39</ele>
        <time>2016-01-23T10:02:15Z</time>
      </trkpt>
      <trkpt lat="45.87537" lon="6.52741">
        <ele>1351.75</ele>
        <time>2016-01-23T10:02:21Z</time>
      </trkpt>
      <trkpt lat="45.87533" lon="6.52743">
        <ele>1352.71</ele>
        <time>2016-01-23T10:02:24Z</time>
      </trkpt>
      <trkpt lat="45.8753" lon="6.52747">
        <ele>1355.12</ele>
        <time>2016-01-23T10:02:26Z</time>
      </trkpt>
      <trkpt lat="45.87527" lon="6.5275">
        <ele>1356.08</ele>
        <time>2016-01-23T10:02:28Z</time>
      </trkpt>
      <trkpt lat="45.87517" lon="6.52752">
        <ele>1359.44</ele>
        <time>2016-01-23T10:02:34Z</time>
      </trkpt>
      <trkpt lat="45.8751" lon="6.52753">
        <ele>1362.81</ele>
        <time>2016-01-23T10:02:39Z</time>
      </trkpt>
      <trkpt lat="45.87502" lon="6.52755">
        <ele>1366.17</ele>
        <time>2016-01-23T10:02:44Z</time>
      </trkpt>
      <trkpt lat="45.87494" lon="6.52757">
        <ele>1369.54</ele>
        <time>2016-01-23T10:02:49Z</time>
      </trkpt>
      <trkpt lat="45.87486" lon="6.52759">
        <ele>1372.9</ele>
        <time>2016-01-23T10:02:54Z</time>
      </trkpt>
      <trkpt lat="45.8748" lon="6.52761">
        <ele>1375.78</ele>
        <time>2016-01-23T10:02:58Z</time>
      </trkpt>
      <trkpt lat="45.87472" lon="6.52764">
        <ele>1378.67</ele>
        <time>2016-01-23T10:03:03Z</time>
      </trkpt>
      <trkpt lat="45.87458" lon="6.52769">
        <ele>1382.03</ele>
        <time>2016-01-23T10:03:11Z</time>
      </trkpt>
      <trkpt lat="45.87451" lon="6.52771">
        <ele>1383.96</ele>
        <time>2016-01-23T10:03:15Z</time>
      </trkpt>
      <trkpt lat="45.87441" lon="6.52774">
        <ele>1387.32</ele>
        <time>2016-01-23T10:03:21Z</time>
      </trkpt>
      <trkpt lat="45.87431" lon="6.52778">
        <ele>1390.2</ele>
        <time>2016-01-23T10:03:27Z</time>
      </trkpt>
      <trkpt lat="45.87423" lon="6.52783">
        <ele>1393.57</ele>
        <time>2016-01-23T10:03:32Z</time>
      </trkpt>
      <trkpt lat="45.87416" lon="6.52787">
        <ele>1396.45</ele>
        <time>2016-01-23T10:03:37Z</time>
      </trkpt>
      <trkpt lat="45.87407" lon="6.52791">
        <ele>1399.82</ele>
        <time>2016-01-23T10:03:42Z</time>
      </trkpt>
      <trkpt lat="45.87399" lon="6.52794">
        <ele>1403.18</ele>
        <time>2016-01-23T10:03:47Z</time>
      </trkpt>
      <trkpt lat="45.87392" lon="6.52797">
        <ele>1406.55</ele>
        <time>2016-01-23T10:03:52Z</time>
      </trkpt>
      <trkpt lat="45.8739" lon="6.52798">
        <ele>1406.55</ele>
        <time>2016-01-23T10:03:53Z</time>
      </trkpt>
      <trkpt lat="45.87384" lon="6.528">
        <ele>1409.91</ele>
        <time>2016-01-23T10:03:57Z</time>
      </trkpt>
      <trkpt lat="45.87375" lon="6.52803">
        <ele>1413.28</ele>
        <time>2016-01-23T10:04:03Z</time>
      </trkpt>
      <trkpt lat="45.87365" lon="6.52807">
        <ele>1416.64</ele>
        <time>2016-01-23T10:04:09Z</time>
      </trkpt>
      <trkpt lat="45.87354" lon="6.52811">
        <ele>1420.49</ele>
        <time>2016-01-23T10:04:15Z</time>
      </trkpt>
      <trkpt lat="45.87346" lon="6.52814">
        <ele>1423.37</ele>
        <time>2016-01-23T10:04:20Z</time>
      </trkpt>
      <trkpt lat="45.87338" lon="6.52816">
        <ele>1426.25</ele>
        <time>2016-01-23T10:04:25Z</time>
      </trkpt>
      <trkpt lat="45.8733" lon="6.52817">
        <ele>1430.1</ele>
        <time>2016-01-23T10:04:31Z</time>
      </trkpt>
      <trkpt lat="45.87314" lon="6.52818">
        <ele>1430.58</ele>
        <time>2016-01-23T10:04:39Z</time>
      </trkpt>
      <trkpt lat="45.87311" lon="6.52817">
        <ele>1430.58</ele>
        <time>2016-01-23T10:04:40Z</time>
      </trkpt>
      <trkpt lat="45.87309" lon="6.52816">
        <ele>1430.58</ele>
        <time>2016-01-23T10:04:41Z</time>
      </trkpt>
      <trkpt lat="45.87305" lon="6.5282">
        <ele>1429.14</ele>
        <time>2016-01-23T10:04:45Z</time>
      </trkpt>
      <trkpt lat="45.87305" lon="6.52822">
        <ele>1429.14</ele>
        <time>2016-01-23T10:04:46Z</time>
      </trkpt>
      <trkpt lat="45.87306" lon="6.52826">
        <ele>1429.14</ele>
        <time>2016-01-23T10:04:48Z</time>
      </trkpt>
      <trkpt lat="45.8731" lon="6.52833">
        <ele>1428.66</ele>
        <time>2016-01-23T10:04:51Z</time>
      </trkpt>
      <trkpt lat="45.87313" lon="6.52835">
        <ele>1428.18</ele>
        <time>2016-01-23T10:04:52Z</time>
      </trkpt>
      <trkpt lat="45.8732" lon="6.52838">
        <ele>1427.7</ele>
        <time>2016-01-23T10:04:53Z</time>
      </trkpt>
      <trkpt lat="45.87331" lon="6.52846">
        <ele>1423.85</ele>
        <time>2016-01-23T10:04:55Z</time>
      </trkpt>
      <trkpt lat="45.87344" lon="6.52853">
        <ele>1422.41</ele>
        <time>2016-01-23T10:04:57Z</time>
      </trkpt>
      <trkpt lat="45.8736" lon="6.5286">
        <ele>1418.08</ele>
        <time>2016-01-23T10:04:59Z</time>
      </trkpt>
      <trkpt lat="45.87391" lon="6.5287">
        <ele>1415.2</ele>
        <time>2016-01-23T10:05:03Z</time>
      </trkpt>
      <trkpt lat="45.87398" lon="6.52871">
        <ele>1414.24</ele>
        <time>2016-01-23T10:05:04Z</time>
      </trkpt>
      <trkpt lat="45.87406" lon="6.52857">
        <ele>1409.91</ele>
        <time>2016-01-23T10:05:07Z</time>
      </trkpt>
      <trkpt lat="45.87401" lon="6.52851">
        <ele>1409.43</ele>
        <time>2016-01-23T10:05:08Z</time>
      </trkpt>
      <trkpt lat="45.87396" lon="6.52846">
        <ele>1408.47</ele>
        <time>2016-01-23T10:05:09Z</time>
      </trkpt>
      <trkpt lat="45.87392" lon="6.52842">
        <ele>1407.99</ele>
        <time>2016-01-23T10:05:10Z</time>
      </trkpt>
      <trkpt lat="45.87368" lon="6.52806">
        <ele>1403.66</ele>
        <time>2016-01-23T10:05:15Z</time>
      </trkpt>
      <trkpt lat="45.87341" lon="6.5275">
        <ele>1399.82</ele>
        <time>2016-01-23T10:05:22Z</time>
      </trkpt>
      <trkpt lat="45.87338" lon="6.52742">
        <ele>1398.86</ele>
        <time>2016-01-23T10:05:23Z</time>
      </trkpt>
      <trkpt lat="45.87335" lon="6.52722">
        <ele>1397.89</ele>
        <time>2016-01-23T10:05:25Z</time>
      </trkpt>
      <trkpt lat="45.87347" lon="6.52703">
        <ele>1395.01</ele>
        <time>2016-01-23T10:05:28Z</time>
      </trkpt>
      <trkpt lat="45.87368" lon="6.527">
        <ele>1390.2</ele>
        <time>2016-01-23T10:05:31Z</time>
      </trkpt>
      <trkpt lat="45.87385" lon="6.5273">
        <ele>1386.84</ele>
        <time>2016-01-23T10:05:35Z</time>
      </trkpt>
      <trkpt lat="45.87394" lon="6.52756">
        <ele>1384.92</ele>
        <time>2016-01-23T10:05:38Z</time>
      </trkpt>
      <trkpt lat="45.87415" lon="6.52772">
        <ele>1380.59</ele>
        <time>2016-01-23T10:05:41Z</time>
      </trkpt>
      <trkpt lat="45.87437" lon="6.52783">
        <ele>1378.19</ele>
        <time>2016-01-23T10:05:44Z</time>
      </trkpt>
      <trkpt lat="45.87461" lon="6.52808">
        <ele>1373.86</ele>
        <time>2016-01-23T10:05:48Z</time>
      </trkpt>
      <trkpt lat="45.87466" lon="6.52816">
        <ele>1372.9</ele>
        <time>2016-01-23T10:05:49Z</time>
      </trkpt>
      <trkpt lat="45.87495" lon="6.52847">
        <ele>1368.57</ele>
        <time>2016-01-23T10:05:54Z</time>
      </trkpt>
      <trkpt lat="45.87514" lon="6.52852">
        <ele>1366.65</ele>
        <time>2016-01-23T10:05:57Z</time>
      </trkpt>
      <trkpt lat="45.87546" lon="6.52882">
        <ele>1361.84</ele>
        <time>2016-01-23T10:06:02Z</time>
      </trkpt>
      <trkpt lat="45.87571" lon="6.52902">
        <ele>1358</ele>
        <time>2016-01-23T10:06:06Z</time>
      </trkpt>
      <trkpt lat="45.87578" lon="6.52904">
        <ele>1356.56</ele>
        <time>2016-01-23T10:06:07Z</time>
      </trkpt>
      <trkpt lat="45.87611" lon="6.52907">
        <ele>1351.75</ele>
        <time>2016-01-23T10:06:11Z</time>
      </trkpt>
      <trkpt lat="45.87625" lon="6.5291">
        <ele>1349.83</ele>
        <time>2016-01-23T10:06:13Z</time>
      </trkpt>
      <trkpt lat="45.87641" lon="6.52912">
        <ele>1349.35</ele>
        <time>2016-01-23T10:06:15Z</time>
      </trkpt>
      <trkpt lat="45.87675" lon="6.52907">
        <ele>1345.98</ele>
        <time>2016-01-23T10:06:21Z</time>
      </trkpt>
      <trkpt lat="45.87678" lon="6.52909">
        <ele>1345.5</ele>
        <time>2016-01-23T10:06:22Z</time>
      </trkpt>
      <trkpt lat="45.87681" lon="6.52914">
        <ele>1345.02</ele>
        <time>2016-01-23T10:06:23Z</time>
      </trkpt>
      <trkpt lat="45.87684" lon="6.52919">
        <ele>1344.54</ele>
        <time>2016-01-23T10:06:24Z</time>
      </trkpt>
      <trkpt lat="45.877" lon="6.52941">
        <ele>1341.18</ele>
        <time>2016-01-23T10:06:28Z</time>
      </trkpt>
      <trkpt lat="45.87708" lon="6.52955">
        <ele>1339.73</ele>
        <time>2016-01-23T10:06:30Z</time>
      </trkpt>
      <trkpt lat="45.87711" lon="6.52962">
        <ele>1339.25</ele>
        <time>2016-01-23T10:06:31Z</time>
      </trkpt>
      <trkpt lat="45.8772" lon="6.52984">
        <ele>1337.81</ele>
        <time>2016-01-23T10:06:34Z</time>
      </trkpt>
      <trkpt lat="45.87723" lon="6.52987">
        <ele>1337.81</ele>
        <time>2016-01-23T10:06:35Z</time>
      </trkpt>
      <trkpt lat="45.87728" lon="6.52978">
        <ele>1333.97</ele>
        <time>2016-01-23T10:06:38Z</time>
      </trkpt>
      <trkpt lat="45.8773" lon="6.52973">
        <ele>1331.08</ele>
        <time>2016-01-23T10:06:39Z</time>
      </trkpt>
      <trkpt lat="45.87739" lon="6.52967">
        <ele>1320.03</ele>
        <time>2016-01-23T10:06:42Z</time>
      </trkpt>
      <trkpt lat="45.87743" lon="6.52962">
        <ele>1315.22</ele>
        <time>2016-01-23T10:06:43Z</time>
      </trkpt>
      <trkpt lat="45.87747" lon="6.5296">
        <ele>1311.38</ele>
        <time>2016-01-23T10:06:44Z</time>
      </trkpt>
      <trkpt lat="45.87753" lon="6.52958">
        <ele>1307.05</ele>
        <time>2016-01-23T10:06:45Z</time>
      </trkpt>
      <trkpt lat="45.8776" lon="6.52954">
        <ele>1304.17</ele>
        <time>2016-01-23T10:06:46Z</time>
      </trkpt>
      <trkpt lat="45.87777" lon="6.52946">
        <ele>1294.55</ele>
        <time>2016-01-23T10:06:49Z</time>
      </trkpt>
      <trkpt lat="45.87787" lon="6.52941">
        <ele>1288.78</ele>
        <time>2016-01-23T10:06:51Z</time>
      </trkpt>
      <trkpt lat="45.87791" lon="6.52939">
        <ele>1285.42</ele>
        <time>2016-01-23T10:06:52Z</time>
      </trkpt>
      <trkpt lat="45.87799" lon="6.52936">
        <ele>1281.57</ele>
        <time>2016-01-23T10:06:53Z</time>
      </trkpt>
      <trkpt lat="45.8781" lon="6.52925">
        <ele>1276.29</ele>
        <time>2016-01-23T10:06:55Z</time>
      </trkpt>
      <trkpt lat="45.87815" lon="6.52917">
        <ele>1272.44</ele>
        <time>2016-01-23T10:06:56Z</time>
      </trkpt>
      <trkpt lat="45.87822" lon="6.5291">
        <ele>1268.6</ele>
        <time>2016-01-23T10:06:57Z</time>
      </trkpt>
      <trkpt lat="45.87837" lon="6.52893">
        <ele>1265.23</ele>
        <time>2016-01-23T10:06:59Z</time>
      </trkpt>
      <trkpt lat="45.87843" lon="6.52881">
        <ele>1259.94</ele>
        <time>2016-01-23T10:07:00Z</time>
      </trkpt>
      <trkpt lat="45.87847" lon="6.5287">
        <ele>1256.58</ele>
        <time>2016-01-23T10:07:01Z</time>
      </trkpt>
      <trkpt lat="45.87851" lon="6.52856">
        <ele>1251.77</ele>
        <time>2016-01-23T10:07:02Z</time>
      </trkpt>
      <trkpt lat="45.87853" lon="6.5284">
        <ele>1246.97</ele>
        <time>2016-01-23T10:07:03Z</time>
      </trkpt>
      <trkpt lat="45.87854" lon="6.52813">
        <ele>1243.12</ele>
        <time>2016-01-23T10:07:05Z</time>
      </trkpt>
      <trkpt lat="45.87852" lon="6.52799">
        <ele>1239.28</ele>
        <time>2016-01-23T10:07:06Z</time>
      </trkpt>
      <trkpt lat="45.87849" lon="6.52773">
        <ele>1234.47</ele>
        <time>2016-01-23T10:07:08Z</time>
      </trkpt>
      <trkpt lat="45.87844" lon="6.52754">
        <ele>1234.47</ele>
        <time>2016-01-23T10:07:10Z</time>
      </trkpt>
      <trkpt lat="45.87836" lon="6.52732">
        <ele>1230.62</ele>
        <time>2016-01-23T10:07:13Z</time>
      </trkpt>
      <trkpt lat="45.8783" lon="6.5272">
        <ele>1230.14</ele>
        <time>2016-01-23T10:07:15Z</time>
      </trkpt>
      <trkpt lat="45.87823" lon="6.5271">
        <ele>1229.18</ele>
        <time>2016-01-23T10:07:17Z</time>
      </trkpt>
      <trkpt lat="45.87823" lon="6.52672">
        <ele>1224.86</ele>
        <time>2016-01-23T10:07:23Z</time>
      </trkpt>
      <trkpt lat="45.87828" lon="6.52656">
        <ele>1221.49</ele>
        <time>2016-01-23T10:07:25Z</time>
      </trkpt>
      <trkpt lat="45.87828" lon="6.5265">
        <ele>1221.49</ele>
        <time>2016-01-23T10:07:26Z</time>
      </trkpt>
      <trkpt lat="45.87826" lon="6.52645">
        <ele>1220.53</ele>
        <time>2016-01-23T10:07:27Z</time>
      </trkpt>
      <trkpt lat="45.87816" lon="6.52632">
        <ele>1220.53</ele>
        <time>2016-01-23T10:07:39Z</time>
      </trkpt>
      <trkpt lat="45.87817" lon="6.5263">
        <ele>1220.53</ele>
        <time>2016-01-23T10:07:50Z</time>
      </trkpt>
      <trkpt lat="45.87818" lon="6.52616">
        <ele>1220.05</ele>
        <time>2016-01-23T10:08:04Z</time>
      </trkpt>
      <trkpt lat="45.87815" lon="6.52628">
        <ele>1220.05</ele>
        <time>2016-01-23T10:08:21Z</time>
      </trkpt>
      <trkpt lat="45.87813" lon="6.52628">
        <ele>1220.05</ele>
        <time>2016-01-23T10:08:43Z</time>
      </trkpt>
      <trkpt lat="45.87813" lon="6.52625">
        <ele>1220.05</ele>
        <time>2016-01-23T10:09:03Z</time>
      </trkpt>
      <trkpt lat="45.87811" lon="6.52626">
        <ele>1220.05</ele>
        <time>2016-01-23T10:09:21Z</time>
      </trkpt>
      <trkpt lat="45.87811" lon="6.52626">
        <ele>1219.57</ele>
        <time>2016-01-23T10:09:39Z</time>
      </trkpt>
      <trkpt lat="45.87807" lon="6.52631">
        <ele>1219.57</ele>
        <time>2016-01-23T10:10:04Z</time>
      </trkpt>
      <trkpt lat="45.87816" lon="6.52622">
        <ele>1219.57</ele>
        <time>2016-01-23T10:10:22Z</time>
      </trkpt>
      <trkpt lat="45.87818" lon="6.52629">
        <ele>1219.09</ele>
        <time>2016-01-23T10:10:44Z</time>
      </trkpt>
      <trkpt lat="45.87817" lon="6.52631">
        <ele>1219.09</ele>
        <time>2016-01-23T10:11:07Z</time>
      </trkpt>
      <trkpt lat="45.87817" lon="6.52625">
        <ele>1219.09</ele>
        <time>2016-01-23T10:11:31Z</time>
      </trkpt>
      <trkpt lat="45.87813" lon="6.52626">
        <ele>1219.09</ele>
        <time>2016-01-23T10:11:52Z</time>
      </trkpt>
      <trkpt lat="45.87809" lon="6.5263">
        <ele>1218.61</ele>
        <time>2016-01-23T10:12:14Z</time>
      </trkpt>
      <trkpt lat="45.87809" lon="6.5263">
        <ele>1218.61</ele>
        <time>2016-01-23T10:12:33Z</time>
      </trkpt>
      <trkpt lat="45.87808" lon="6.52631">
        <ele>1218.61</ele>
        <time>2016-01-23T10:12:54Z</time>
      </trkpt>
      <trkpt lat="45.87807" lon="6.52629">
        <ele>1218.13</ele>
        <time>2016-01-23T10:13:14Z</time>
      </trkpt>
      <trkpt lat="45.87806" lon="6.52627">
        <ele>1217.65</ele>
        <time>2016-01-23T10:13:26Z</time>
      </trkpt>
      <trkpt lat="45.87813" lon="6.52626">
        <ele>1217.65</ele>
        <time>2016-01-23T10:13:39Z</time>
      </trkpt>
      <trkpt lat="45.87812" lon="6.5263">
        <ele>1217.65</ele>
        <time>2016-01-23T10:13:54Z</time>
      </trkpt>
      <trkpt lat="45.87817" lon="6.52626">
        <ele>1217.17</ele>
        <time>2016-01-23T10:14:08Z</time>
      </trkpt>
      <trkpt lat="45.87822" lon="6.52621">
        <ele>1217.17</ele>
        <time>2016-01-23T10:14:33Z</time>
      </trkpt>
      <trkpt lat="45.87822" lon="6.52622">
        <ele>1217.17</ele>
        <time>2016-01-23T10:14:58Z</time>
      </trkpt>
      <trkpt lat="45.87821" lon="6.52622">
        <ele>1217.17</ele>
        <time>2016-01-23T10:15:23Z</time>
      </trkpt>
      <trkpt lat="45.87821" lon="6.52622">
        <ele>1216.69</ele>
        <time>2016-01-23T10:15:46Z</time>
      </trkpt>
      <trkpt lat="45.87821" lon="6.52621">
        <ele>1216.69</ele>
        <time>2016-01-23T10:16:14Z</time>
      </trkpt>
      <trkpt lat="45.8782" lon="6.52622">
        <ele>1217.17</ele>
        <time>2016-01-23T10:16:45Z</time>
      </trkpt>
      <trkpt lat="45.87821" lon="6.52623">
        <ele>1217.17</ele>
        <time>2016-01-23T10:17:10Z</time>
      </trkpt>
      <trkpt lat="45.87822" lon="6.52619">
        <ele>1217.17</ele>
        <time>2016-01-23T10:17:42Z</time>
      </trkpt>
      <trkpt lat="45.87822" lon="6.5262">
        <ele>1217.17</ele>
        <time>2016-01-23T10:18:08Z</time>
      </trkpt>
      <trkpt lat="45.87822" lon="6.5262">
        <ele>1217.17</ele>
        <time>2016-01-23T10:18:42Z</time>
      </trkpt>
      <trkpt lat="45.87821" lon="6.52621">
        <ele>1217.17</ele>
        <time>2016-01-23T10:19:12Z</time>
      </trkpt>
      <trkpt lat="45.87821" lon="6.52624">
        <ele>1217.17</ele>
        <time>2016-01-23T10:19:46Z</time>
      </trkpt>
      <trkpt lat="45.87821" lon="6.52623">
        <ele>1217.17</ele>
        <time>2016-01-23T10:20:21Z</time>
      </trkpt>
      <trkpt lat="45.87823" lon="6.52624">
        <ele>1217.65</ele>
        <time>2016-01-23T10:20:51Z</time>
      </trkpt>
      <trkpt lat="45.87821" lon="6.52623">
        <ele>1217.65</ele>
        <time>2016-01-23T10:21:18Z</time>
      </trkpt>
      <trkpt lat="45.87822" lon="6.52624">
        <ele>1217.65</ele>
        <time>2016-01-23T10:21:42Z</time>
      </trkpt>
      <trkpt lat="45.87822" lon="6.52626">
        <ele>1217.65</ele>
        <time>2016-01-23T10:22:12Z</time>
      </trkpt>
      <trkpt lat="45.87821" lon="6.52626">
        <ele>1217.65</ele>
        <time>2016-01-23T10:22:39Z</time>
      </trkpt>
      <trkpt lat="45.87822" lon="6.52623">
        <ele>1217.65</ele>
        <time>2016-01-23T10:23:01Z</time>
      </trkpt>
      <trkpt lat="45.87821" lon="6.52623">
        <ele>1217.65</ele>
        <time>2016-01-23T10:23:34Z</time>
      </trkpt>
      <trkpt lat="45.87822" lon="6.52623">
        <ele>1217.65</ele>
        <time>2016-01-23T10:23:54Z</time>
      </trkpt>
      <trkpt lat="45.87822" lon="6.52623">
        <ele>1217.65</ele>
        <time>2016-01-23T10:24:22Z</time>
      </trkpt>
      <trkpt lat="45.87823" lon="6.52622">
        <ele>1217.65</ele>
        <time>2016-01-23T10:24:47Z</time>
      </trkpt>
      <trkpt lat="45.87823" lon="6.52621">
        <ele>1217.65</ele>
        <time>2016-01-23T10:25:11Z</time>
      </trkpt>
      <trkpt lat="45.87822" lon="6.52622">
        <ele>1217.65</ele>
        <time>2016-01-23T10:25:36Z</time>
      </trkpt>
      <trkpt lat="45.87822" lon="6.52622">
        <ele>1217.65</ele>
        <time>2016-01-23T10:25:56Z</time>
      </trkpt>
      <trkpt lat="45.87822" lon="6.52623">
        <ele>1217.65</ele>
        <time>2016-01-23T10:26:07Z</time>
      </trkpt>
      <trkpt lat="45.87821" lon="6.52625">
        <ele>1217.65</ele>
        <time>2016-01-23T10:26:18Z</time>
      </trkpt>
      <trkpt lat="45.87819" lon="6.52626">
        <ele>1217.65</ele>
        <time>2016-01-23T10:26:27Z</time>
      </trkpt>
      <trkpt lat="45.8782" lon="6.52625">
        <ele>1217.65</ele>
        <time>2016-01-23T10:26:30Z</time>
      </trkpt>
      <trkpt lat="45.8782" lon="6.52622">
        <ele>1217.65</ele>
        <time>2016-01-23T10:26:33Z</time>
      </trkpt>
      <trkpt lat="45.87828" lon="6.52616">
        <ele>1217.65</ele>
        <time>2016-01-23T10:26:44Z</time>
      </trkpt>
      <trkpt lat="45.8783" lon="6.52615">
        <ele>1217.65</ele>
        <time>2016-01-23T10:26:49Z</time>
      </trkpt>
      <trkpt lat="45.87832" lon="6.52614">
        <ele>1217.65</ele>
        <time>2016-01-23T10:26:51Z</time>
      </trkpt>
      <trkpt lat="45.87838" lon="6.52608">
        <ele>1217.65</ele>
        <time>2016-01-23T10:26:58Z</time>
      </trkpt>
      <trkpt lat="45.87843" lon="6.52605">
        <ele>1217.65</ele>
        <time>2016-01-23T10:27:04Z</time>
      </trkpt>
      <trkpt lat="45.87855" lon="6.52598">
        <ele>1217.65</ele>
        <time>2016-01-23T10:27:15Z</time>
      </trkpt>
      <trkpt lat="45.87856" lon="6.52598">
        <ele>1217.65</ele>
        <time>2016-01-23T10:27:26Z</time>
      </trkpt>
      <trkpt lat="45.87857" lon="6.52599">
        <ele>1219.09</ele>
        <time>2016-01-23T10:27:37Z</time>
      </trkpt>
      <trkpt lat="45.87856" lon="6.52602">
        <ele>1220.05</ele>
        <time>2016-01-23T10:27:47Z</time>
      </trkpt>
      <trkpt lat="45.87858" lon="6.52599">
        <ele>1219.57</ele>
        <time>2016-01-23T10:27:56Z</time>
      </trkpt>
      <trkpt lat="45.87872" lon="6.52598">
        <ele>1219.57</ele>
        <time>2016-01-23T10:28:09Z</time>
      </trkpt>
      <trkpt lat="45.87882" lon="6.52604">
        <ele>1220.05</ele>
        <time>2016-01-23T10:28:22Z</time>
      </trkpt>
      <trkpt lat="45.87881" lon="6.52606">
        <ele>1220.53</ele>
        <time>2016-01-23T10:28:35Z</time>
      </trkpt>
      <trkpt lat="45.87881" lon="6.52607">
        <ele>1220.53</ele>
        <time>2016-01-23T10:28:46Z</time>
      </trkpt>
      <trkpt lat="45.87882" lon="6.52607">
        <ele>1220.53</ele>
        <time>2016-01-23T10:29:09Z</time>
      </trkpt>
      <trkpt lat="45.87882" lon="6.52609">
        <ele>1220.53</ele>
        <time>2016-01-23T10:29:29Z</time>
      </trkpt>
      <trkpt lat="45.8788" lon="6.52606">
        <ele>1220.53</ele>
        <time>2016-01-23T10:29:44Z</time>
      </trkpt>
      <trkpt lat="45.87878" lon="6.52607">
        <ele>1220.53</ele>
        <time>2016-01-23T10:29:52Z</time>
      </trkpt>
      <trkpt lat="45.87866" lon="6.52611">
        <ele>1220.05</ele>
        <time>2016-01-23T10:30:06Z</time>
      </trkpt>
      <trkpt lat="45.87866" lon="6.5261">
        <ele>1219.09</ele>
        <time>2016-01-23T10:30:18Z</time>
      </trkpt>
      <trkpt lat="45.87863" lon="6.5261">
        <ele>1219.09</ele>
        <time>2016-01-23T10:30:36Z</time>
      </trkpt>
      <trkpt lat="45.87858" lon="6.52612">
        <ele>1219.09</ele>
        <time>2016-01-23T10:30:46Z</time>
      </trkpt>
      <trkpt lat="45.87858" lon="6.52611">
        <ele>1219.09</ele>
        <time>2016-01-23T10:30:47Z</time>
      </trkpt>
      <trkpt lat="45.87853" lon="6.52613">
        <ele>1219.09</ele>
        <time>2016-01-23T10:30:50Z</time>
      </trkpt>
      <trkpt lat="45.87841" lon="6.52618">
        <ele>1221.97</ele>
        <time>2016-01-23T10:30:56Z</time>
      </trkpt>
      <trkpt lat="45.87834" lon="6.5262">
        <ele>1225.34</ele>
        <time>2016-01-23T10:31:01Z</time>
      </trkpt>
      <trkpt lat="45.87826" lon="6.52624">
        <ele>1228.7</ele>
        <time>2016-01-23T10:31:06Z</time>
      </trkpt>
      <trkpt lat="45.87818" lon="6.52629">
        <ele>1232.07</ele>
        <time>2016-01-23T10:31:11Z</time>
      </trkpt>
      <trkpt lat="45.8781" lon="6.52631">
        <ele>1235.43</ele>
        <time>2016-01-23T10:31:17Z</time>
      </trkpt>
      <trkpt lat="45.87803" lon="6.52635">
        <ele>1238.8</ele>
        <time>2016-01-23T10:31:22Z</time>
      </trkpt>
      <trkpt lat="45.87795" lon="6.52639">
        <ele>1242.64</ele>
        <time>2016-01-23T10:31:27Z</time>
      </trkpt>
      <trkpt lat="45.87789" lon="6.52642">
        <ele>1245.53</ele>
        <time>2016-01-23T10:31:31Z</time>
      </trkpt>
      <trkpt lat="45.87784" lon="6.52645">
        <ele>1248.89</ele>
        <time>2016-01-23T10:31:35Z</time>
      </trkpt>
      <trkpt lat="45.87778" lon="6.52647">
        <ele>1252.25</ele>
        <time>2016-01-23T10:31:39Z</time>
      </trkpt>
      <trkpt lat="45.87771" lon="6.5265">
        <ele>1255.62</ele>
        <time>2016-01-23T10:31:44Z</time>
      </trkpt>
      <trkpt lat="45.87762" lon="6.52652">
        <ele>1258.98</ele>
        <time>2016-01-23T10:31:50Z</time>
      </trkpt>
      <trkpt lat="45.87753" lon="6.52655">
        <ele>1262.35</ele>
        <time>2016-01-23T10:31:56Z</time>
      </trkpt>
      <trkpt lat="45.87746" lon="6.52656">
        <ele>1265.71</ele>
        <time>2016-01-23T10:32:01Z</time>
      </trkpt>
      <trkpt lat="45.87738" lon="6.5266">
        <ele>1269.08</ele>
        <time>2016-01-23T10:32:06Z</time>
      </trkpt>
      <trkpt lat="45.87731" lon="6.52664">
        <ele>1272.92</ele>
        <time>2016-01-23T10:32:11Z</time>
      </trkpt>
      <trkpt lat="45.87724" lon="6.52668">
        <ele>1275.33</ele>
        <time>2016-01-23T10:32:16Z</time>
      </trkpt>
      <trkpt lat="45.87718" lon="6.5267">
        <ele>1278.69</ele>
        <time>2016-01-23T10:32:21Z</time>
      </trkpt>
      <trkpt lat="45.87712" lon="6.52673">
        <ele>1282.06</ele>
        <time>2016-01-23T10:32:26Z</time>
      </trkpt>
      <trkpt lat="45.87704" lon="6.52675">
        <ele>1285.9</ele>
        <time>2016-01-23T10:32:31Z</time>
      </trkpt>
      <trkpt lat="45.87698" lon="6.52677">
        <ele>1289.27</ele>
        <time>2016-01-23T10:32:35Z</time>
      </trkpt>
      <trkpt lat="45.87693" lon="6.5268">
        <ele>1292.15</ele>
        <time>2016-01-23T10:32:39Z</time>
      </trkpt>
      <trkpt lat="45.87687" lon="6.52682">
        <ele>1295.51</ele>
        <time>2016-01-23T10:32:43Z</time>
      </trkpt>
      <trkpt lat="45.87681" lon="6.52684">
        <ele>1298.88</ele>
        <time>2016-01-23T10:32:47Z</time>
      </trkpt>
      <trkpt lat="45.87675" lon="6.52686">
        <ele>1302.72</ele>
        <time>2016-01-23T10:32:51Z</time>
      </trkpt>
      <trkpt lat="45.8767" lon="6.52689">
        <ele>1306.09</ele>
        <time>2016-01-23T10:32:55Z</time>
      </trkpt>
      <trkpt lat="45.87664" lon="6.52691">
        <ele>1308.97</ele>
        <time>2016-01-23T10:32:59Z</time>
      </trkpt>
      <trkpt lat="45.87656" lon="6.52693">
        <ele>1312.34</ele>
        <time>2016-01-23T10:33:04Z</time>
      </trkpt>
      <trkpt lat="45.87649" lon="6.52695">
        <ele>1315.7</ele>
        <time>2016-01-23T10:33:09Z</time>
      </trkpt>
      <trkpt lat="45.87641" lon="6.52699">
        <ele>1319.07</ele>
        <time>2016-01-23T10:33:14Z</time>
      </trkpt>
      <trkpt lat="45.87633" lon="6.52702">
        <ele>1322.91</ele>
        <time>2016-01-23T10:33:19Z</time>
      </trkpt>
      <trkpt lat="45.87626" lon="6.52704">
        <ele>1325.8</ele>
        <time>2016-01-23T10:33:23Z</time>
      </trkpt>
      <trkpt lat="45.8762" lon="6.52707">
        <ele>1328.68</ele>
        <time>2016-01-23T10:33:27Z</time>
      </trkpt>
      <trkpt lat="45.87613" lon="6.52709">
        <ele>1332.52</ele>
        <time>2016-01-23T10:33:32Z</time>
      </trkpt>
      <trkpt lat="45.87598" lon="6.52714">
        <ele>1335.89</ele>
        <time>2016-01-23T10:33:41Z</time>
      </trkpt>
      <trkpt lat="45.87584" lon="6.52719">
        <ele>1339.25</ele>
        <time>2016-01-23T10:33:50Z</time>
      </trkpt>
      <trkpt lat="45.87571" lon="6.52725">
        <ele>1342.14</ele>
        <time>2016-01-23T10:33:58Z</time>
      </trkpt>
      <trkpt lat="45.8756" lon="6.5273">
        <ele>1345.5</ele>
        <time>2016-01-23T10:34:05Z</time>
      </trkpt>
      <trkpt lat="45.8755" lon="6.52734">
        <ele>1348.87</ele>
        <time>2016-01-23T10:34:11Z</time>
      </trkpt>
      <trkpt lat="45.8754" lon="6.52737">
        <ele>1351.75</ele>
        <time>2016-01-23T10:34:17Z</time>
      </trkpt>
      <trkpt lat="45.87529" lon="6.52741">
        <ele>1355.12</ele>
        <time>2016-01-23T10:34:23Z</time>
      </trkpt>
      <trkpt lat="45.87528" lon="6.52742">
        <ele>1355.12</ele>
        <time>2016-01-23T10:34:24Z</time>
      </trkpt>
      <trkpt lat="45.87521" lon="6.52744">
        <ele>1357.52</ele>
        <time>2016-01-23T10:34:28Z</time>
      </trkpt>
      <trkpt lat="45.87513" lon="6.52747">
        <ele>1360.4</ele>
        <time>2016-01-23T10:34:39Z</time>
      </trkpt>
      <trkpt lat="45.87505" lon="6.5275">
        <ele>1363.77</ele>
        <time>2016-01-23T10:34:46Z</time>
      </trkpt>
      <trkpt lat="45.87496" lon="6.52755">
        <ele>1367.13</ele>
        <time>2016-01-23T10:34:52Z</time>
      </trkpt>
      <trkpt lat="45.87488" lon="6.52758">
        <ele>1370.5</ele>
        <time>2016-01-23T10:34:57Z</time>
      </trkpt>
      <trkpt lat="45.8748" lon="6.52761">
        <ele>1373.86</ele>
        <time>2016-01-23T10:35:02Z</time>
      </trkpt>
      <trkpt lat="45.87474" lon="6.52762">
        <ele>1375.78</ele>
        <time>2016-01-23T10:35:06Z</time>
      </trkpt>
      <trkpt lat="45.87464" lon="6.52766">
        <ele>1378.67</ele>
        <time>2016-01-23T10:35:12Z</time>
      </trkpt>
      <trkpt lat="45.87454" lon="6.52771">
        <ele>1382.51</ele>
        <time>2016-01-23T10:35:19Z</time>
      </trkpt>
      <trkpt lat="45.87444" lon="6.52776">
        <ele>1385.88</ele>
        <time>2016-01-23T10:35:25Z</time>
      </trkpt>
      <trkpt lat="45.87434" lon="6.52779">
        <ele>1389.24</ele>
        <time>2016-01-23T10:35:31Z</time>
      </trkpt>
      <trkpt lat="45.87425" lon="6.52782">
        <ele>1392.61</ele>
        <time>2016-01-23T10:35:37Z</time>
      </trkpt>
      <trkpt lat="45.87416" lon="6.52785">
        <ele>1395.97</ele>
        <time>2016-01-23T10:35:44Z</time>
      </trkpt>
      <trkpt lat="45.87408" lon="6.52788">
        <ele>1398.86</ele>
        <time>2016-01-23T10:35:53Z</time>
      </trkpt>
      <trkpt lat="45.874" lon="6.52791">
        <ele>1402.22</ele>
        <time>2016-01-23T10:35:59Z</time>
      </trkpt>
      <trkpt lat="45.87393" lon="6.52794">
        <ele>1405.1</ele>
        <time>2016-01-23T10:36:04Z</time>
      </trkpt>
      <trkpt lat="45.87386" lon="6.52798">
        <ele>1408.47</ele>
        <time>2016-01-23T10:36:09Z</time>
      </trkpt>
      <trkpt lat="45.87377" lon="6.52801">
        <ele>1412.31</ele>
        <time>2016-01-23T10:36:15Z</time>
      </trkpt>
      <trkpt lat="45.87366" lon="6.52804">
        <ele>1415.68</ele>
        <time>2016-01-23T10:36:21Z</time>
      </trkpt>
      <trkpt lat="45.87357" lon="6.52808">
        <ele>1419.04</ele>
        <time>2016-01-23T10:36:27Z</time>
      </trkpt>
      <trkpt lat="45.87352" lon="6.5281">
        <ele>1420</ele>
        <time>2016-01-23T10:36:30Z</time>
      </trkpt>
      <trkpt lat="45.87343" lon="6.52813">
        <ele>1423.37</ele>
        <time>2016-01-23T10:36:35Z</time>
      </trkpt>
      <trkpt lat="45.87336" lon="6.52816">
        <ele>1426.73</ele>
        <time>2016-01-23T10:36:40Z</time>
      </trkpt>
      <trkpt lat="45.87316" lon="6.52823">
        <ele>1428.18</ele>
        <time>2016-01-23T10:36:51Z</time>
      </trkpt>
      <trkpt lat="45.87305" lon="6.52826">
        <ele>1428.18</ele>
        <time>2016-01-23T10:36:59Z</time>
      </trkpt>
      <trkpt lat="45.87303" lon="6.52828">
        <ele>1428.18</ele>
        <time>2016-01-23T10:37:06Z</time>
      </trkpt>
      <trkpt lat="45.87304" lon="6.5283">
        <ele>1428.18</ele>
        <time>2016-01-23T10:37:07Z</time>
      </trkpt>
      <trkpt lat="45.87304" lon="6.52831">
        <ele>1428.18</ele>
        <time>2016-01-23T10:37:08Z</time>
      </trkpt>
      <trkpt lat="45.87304" lon="6.52833">
        <ele>1428.18</ele>
        <time>2016-01-23T10:37:09Z</time>
      </trkpt>
      <trkpt lat="45.87304" lon="6.52835">
        <ele>1428.18</ele>
        <time>2016-01-23T10:37:10Z</time>
      </trkpt>
      <trkpt lat="45.87303" lon="6.52837">
        <ele>1428.18</ele>
        <time>2016-01-23T10:37:12Z</time>
      </trkpt>
      <trkpt lat="45.87301" lon="6.52837">
        <ele>1428.18</ele>
        <time>2016-01-23T10:37:13Z</time>
      </trkpt>
      <trkpt lat="45.87295" lon="6.52833">
        <ele>1428.18</ele>
        <time>2016-01-23T10:37:20Z</time>
      </trkpt>
      <trkpt lat="45.87292" lon="6.52828">
        <ele>1428.18</ele>
        <time>2016-01-23T10:37:35Z</time>
      </trkpt>
      <trkpt lat="45.87286" lon="6.52828">
        <ele>1428.18</ele>
        <time>2016-01-23T10:37:47Z</time>
      </trkpt>
      <trkpt lat="45.87283" lon="6.52828">
        <ele>1428.18</ele>
        <time>2016-01-23T10:37:50Z</time>
      </trkpt>
      <trkpt lat="45.87279" lon="6.52828">
        <ele>1428.18</ele>
        <time>2016-01-23T10:37:51Z</time>
      </trkpt>
      <trkpt lat="45.87274" lon="6.5283">
        <ele>1429.62</ele>
        <time>2016-01-23T10:37:54Z</time>
      </trkpt>
      <trkpt lat="45.87271" lon="6.52831">
        <ele>1430.58</ele>
        <time>2016-01-23T10:37:55Z</time>
      </trkpt>
      <trkpt lat="45.8727" lon="6.52832">
        <ele>1431.54</ele>
        <time>2016-01-23T10:37:56Z</time>
      </trkpt>
      <trkpt lat="45.87268" lon="6.52833">
        <ele>1432.5</ele>
        <time>2016-01-23T10:37:57Z</time>
      </trkpt>
      <trkpt lat="45.87266" lon="6.52834">
        <ele>1433.94</ele>
        <time>2016-01-23T10:37:58Z</time>
      </trkpt>
      <trkpt lat="45.87264" lon="6.52835">
        <ele>1435.39</ele>
        <time>2016-01-23T10:37:59Z</time>
      </trkpt>
      <trkpt lat="45.87256" lon="6.52838">
        <ele>1440.19</ele>
        <time>2016-01-23T10:38:03Z</time>
      </trkpt>
      <trkpt lat="45.8725" lon="6.52841">
        <ele>1444.04</ele>
        <time>2016-01-23T10:38:06Z</time>
      </trkpt>
      <trkpt lat="45.87246" lon="6.52843">
        <ele>1447.4</ele>
        <time>2016-01-23T10:38:08Z</time>
      </trkpt>
      <trkpt lat="45.87241" lon="6.52846">
        <ele>1451.73</ele>
        <time>2016-01-23T10:38:11Z</time>
      </trkpt>
      <trkpt lat="45.87235" lon="6.52849">
        <ele>1455.09</ele>
        <time>2016-01-23T10:38:14Z</time>
      </trkpt>
      <trkpt lat="45.87228" lon="6.52851">
        <ele>1458.94</ele>
        <time>2016-01-23T10:38:18Z</time>
      </trkpt>
      <trkpt lat="45.87218" lon="6.52856">
        <ele>1462.78</ele>
        <time>2016-01-23T10:38:23Z</time>
      </trkpt>
      <trkpt lat="45.87212" lon="6.52858">
        <ele>1466.15</ele>
        <time>2016-01-23T10:38:26Z</time>
      </trkpt>
      <trkpt lat="45.87204" lon="6.5286">
        <ele>1470.47</ele>
        <time>2016-01-23T10:38:30Z</time>
      </trkpt>
      <trkpt lat="45.87198" lon="6.52863">
        <ele>1473.36</ele>
        <time>2016-01-23T10:38:33Z</time>
      </trkpt>
      <trkpt lat="45.87192" lon="6.52866">
        <ele>1477.2</ele>
        <time>2016-01-23T10:38:36Z</time>
      </trkpt>
      <trkpt lat="45.87186" lon="6.52871">
        <ele>1480.09</ele>
        <time>2016-01-23T10:38:39Z</time>
      </trkpt>
      <trkpt lat="45.87182" lon="6.52872">
        <ele>1483.45</ele>
        <time>2016-01-23T10:38:42Z</time>
      </trkpt>
      <trkpt lat="45.87175" lon="6.52874">
        <ele>1487.3</ele>
        <time>2016-01-23T10:38:45Z</time>
      </trkpt>
      <trkpt lat="45.87165" lon="6.52876">
        <ele>1490.66</ele>
        <time>2016-01-23T10:38:48Z</time>
      </trkpt>
      <trkpt lat="45.87159" lon="6.52877">
        <ele>1494.51</ele>
        <time>2016-01-23T10:38:51Z</time>
      </trkpt>
      <trkpt lat="45.87153" lon="6.5288">
        <ele>1497.87</ele>
        <time>2016-01-23T10:38:54Z</time>
      </trkpt>
      <trkpt lat="45.87147" lon="6.52882">
        <ele>1501.72</ele>
        <time>2016-01-23T10:38:57Z</time>
      </trkpt>
      <trkpt lat="45.87141" lon="6.52884">
        <ele>1505.56</ele>
        <time>2016-01-23T10:39:00Z</time>
      </trkpt>
      <trkpt lat="45.87136" lon="6.52887">
        <ele>1509.89</ele>
        <time>2016-01-23T10:39:03Z</time>
      </trkpt>
      <trkpt lat="45.87129" lon="6.52889">
        <ele>1513.73</ele>
        <time>2016-01-23T10:39:06Z</time>
      </trkpt>
      <trkpt lat="45.8712" lon="6.52892">
        <ele>1516.62</ele>
        <time>2016-01-23T10:39:10Z</time>
      </trkpt>
      <trkpt lat="45.87111" lon="6.52895">
        <ele>1520.46</ele>
        <time>2016-01-23T10:39:14Z</time>
      </trkpt>
      <trkpt lat="45.87102" lon="6.52899">
        <ele>1524.31</ele>
        <time>2016-01-23T10:39:18Z</time>
      </trkpt>
      <trkpt lat="45.87094" lon="6.52903">
        <ele>1527.67</ele>
        <time>2016-01-23T10:39:22Z</time>
      </trkpt>
      <trkpt lat="45.87086" lon="6.52906">
        <ele>1531.52</ele>
        <time>2016-01-23T10:39:26Z</time>
      </trkpt>
      <trkpt lat="45.87078" lon="6.5291">
        <ele>1535.36</ele>
        <time>2016-01-23T10:39:30Z</time>
      </trkpt>
      <trkpt lat="45.87071" lon="6.52912">
        <ele>1538.25</ele>
        <time>2016-01-23T10:39:33Z</time>
      </trkpt>
      <trkpt lat="45.87065" lon="6.52914">
        <ele>1541.61</ele>
        <time>2016-01-23T10:39:36Z</time>
      </trkpt>
      <trkpt lat="45.87059" lon="6.52917">
        <ele>1544.5</ele>
        <time>2016-01-23T10:39:39Z</time>
      </trkpt>
      <trkpt lat="45.87053" lon="6.5292">
        <ele>1548.82</ele>
        <time>2016-01-23T10:39:43Z</time>
      </trkpt>
      <trkpt lat="45.87048" lon="6.52922">
        <ele>1552.19</ele>
        <time>2016-01-23T10:39:46Z</time>
      </trkpt>
      <trkpt lat="45.87039" lon="6.52925">
        <ele>1556.51</ele>
        <time>2016-01-23T10:39:50Z</time>
      </trkpt>
      <trkpt lat="45.87033" lon="6.52927">
        <ele>1559.88</ele>
        <time>2016-01-23T10:39:53Z</time>
      </trkpt>
      <trkpt lat="45.87028" lon="6.5293">
        <ele>1563.24</ele>
        <time>2016-01-23T10:39:56Z</time>
      </trkpt>
      <trkpt lat="45.87022" lon="6.52932">
        <ele>1566.61</ele>
        <time>2016-01-23T10:39:59Z</time>
      </trkpt>
      <trkpt lat="45.87016" lon="6.52934">
        <ele>1569.97</ele>
        <time>2016-01-23T10:40:02Z</time>
      </trkpt>
      <trkpt lat="45.8701" lon="6.52936">
        <ele>1573.33</ele>
        <time>2016-01-23T10:40:05Z</time>
      </trkpt>
      <trkpt lat="45.87004" lon="6.52938">
        <ele>1577.18</ele>
        <time>2016-01-23T10:40:08Z</time>
      </trkpt>
      <trkpt lat="45.86998" lon="6.5294">
        <ele>1580.54</ele>
        <time>2016-01-23T10:40:11Z</time>
      </trkpt>
      <trkpt lat="45.86992" lon="6.52942">
        <ele>1584.39</ele>
        <time>2016-01-23T10:40:14Z</time>
      </trkpt>
      <trkpt lat="45.86987" lon="6.52944">
        <ele>1588.24</ele>
        <time>2016-01-23T10:40:17Z</time>
      </trkpt>
      <trkpt lat="45.86981" lon="6.52946">
        <ele>1592.08</ele>
        <time>2016-01-23T10:40:20Z</time>
      </trkpt>
      <trkpt lat="45.86975" lon="6.52948">
        <ele>1595.93</ele>
        <time>2016-01-23T10:40:23Z</time>
      </trkpt>
      <trkpt lat="45.86973" lon="6.52949">
        <ele>1595.45</ele>
        <time>2016-01-23T10:40:24Z</time>
      </trkpt>
      <trkpt lat="45.86965" lon="6.52953">
        <ele>1598.81</ele>
        <time>2016-01-23T10:40:28Z</time>
      </trkpt>
      <trkpt lat="45.86956" lon="6.52956">
        <ele>1602.17</ele>
        <time>2016-01-23T10:40:32Z</time>
      </trkpt>
      <trkpt lat="45.86945" lon="6.5296">
        <ele>1605.54</ele>
        <time>2016-01-23T10:40:37Z</time>
      </trkpt>
      <trkpt lat="45.86937" lon="6.52963">
        <ele>1608.9</ele>
        <time>2016-01-23T10:40:41Z</time>
      </trkpt>
      <trkpt lat="45.86929" lon="6.52967">
        <ele>1612.27</ele>
        <time>2016-01-23T10:40:45Z</time>
      </trkpt>
      <trkpt lat="45.86921" lon="6.5297">
        <ele>1615.15</ele>
        <time>2016-01-23T10:40:49Z</time>
      </trkpt>
      <trkpt lat="45.86912" lon="6.52973">
        <ele>1619</ele>
        <time>2016-01-23T10:40:53Z</time>
      </trkpt>
      <trkpt lat="45.86904" lon="6.52976">
        <ele>1622.36</ele>
        <time>2016-01-23T10:40:57Z</time>
      </trkpt>
      <trkpt lat="45.86896" lon="6.52979">
        <ele>1626.21</ele>
        <time>2016-01-23T10:41:01Z</time>
      </trkpt>
      <trkpt lat="45.86887" lon="6.52982">
        <ele>1630.05</ele>
        <time>2016-01-23T10:41:05Z</time>
      </trkpt>
      <trkpt lat="45.86879" lon="6.52986">
        <ele>1633.42</ele>
        <time>2016-01-23T10:41:09Z</time>
      </trkpt>
      <trkpt lat="45.86871" lon="6.52989">
        <ele>1637.26</ele>
        <time>2016-01-23T10:41:13Z</time>
      </trkpt>
      <trkpt lat="45.86865" lon="6.52991">
        <ele>1640.63</ele>
        <time>2016-01-23T10:41:16Z</time>
      </trkpt>
      <trkpt lat="45.86857" lon="6.52995">
        <ele>1644.47</ele>
        <time>2016-01-23T10:41:20Z</time>
      </trkpt>
      <trkpt lat="45.86852" lon="6.52997">
        <ele>1647.84</ele>
        <time>2016-01-23T10:41:23Z</time>
      </trkpt>
      <trkpt lat="45.86846" lon="6.52999">
        <ele>1650.72</ele>
        <time>2016-01-23T10:41:26Z</time>
      </trkpt>
      <trkpt lat="45.86838" lon="6.53002">
        <ele>1655.05</ele>
        <time>2016-01-23T10:41:30Z</time>
      </trkpt>
      <trkpt lat="45.86832" lon="6.53005">
        <ele>1657.93</ele>
        <time>2016-01-23T10:41:33Z</time>
      </trkpt>
      <trkpt lat="45.86826" lon="6.53007">
        <ele>1661.78</ele>
        <time>2016-01-23T10:41:36Z</time>
      </trkpt>
      <trkpt lat="45.86815" lon="6.5301">
        <ele>1665.14</ele>
        <time>2016-01-23T10:41:41Z</time>
      </trkpt>
      <trkpt lat="45.86807" lon="6.53013">
        <ele>1668.02</ele>
        <time>2016-01-23T10:41:45Z</time>
      </trkpt>
      <trkpt lat="45.86799" lon="6.53015">
        <ele>1671.39</ele>
        <time>2016-01-23T10:41:49Z</time>
      </trkpt>
      <trkpt lat="45.8679" lon="6.53018">
        <ele>1674.75</ele>
        <time>2016-01-23T10:41:53Z</time>
      </trkpt>
      <trkpt lat="45.86782" lon="6.53022">
        <ele>1678.12</ele>
        <time>2016-01-23T10:41:57Z</time>
      </trkpt>
      <trkpt lat="45.86777" lon="6.53023">
        <ele>1681</ele>
        <time>2016-01-23T10:42:02Z</time>
      </trkpt>
      <trkpt lat="45.86776" lon="6.53027">
        <ele>1680.52</ele>
        <time>2016-01-23T10:42:24Z</time>
      </trkpt>
      <trkpt lat="45.86776" lon="6.53032">
        <ele>1680.52</ele>
        <time>2016-01-23T10:42:56Z</time>
      </trkpt>
      <trkpt lat="45.86767" lon="6.53032">
        <ele>1683.89</ele>
        <time>2016-01-23T10:43:22Z</time>
      </trkpt>
      <trkpt lat="45.86759" lon="6.53034">
        <ele>1686.77</ele>
        <time>2016-01-23T10:43:28Z</time>
      </trkpt>
      <trkpt lat="45.86752" lon="6.53036">
        <ele>1690.14</ele>
        <time>2016-01-23T10:43:34Z</time>
      </trkpt>
      <trkpt lat="45.86745" lon="6.53038">
        <ele>1693.5</ele>
        <time>2016-01-23T10:43:40Z</time>
      </trkpt>
      <trkpt lat="45.86737" lon="6.5304">
        <ele>1696.86</ele>
        <time>2016-01-23T10:43:46Z</time>
      </trkpt>
      <trkpt lat="45.86729" lon="6.53042">
        <ele>1700.71</ele>
        <time>2016-01-23T10:43:52Z</time>
      </trkpt>
      <trkpt lat="45.86721" lon="6.53046">
        <ele>1704.55</ele>
        <time>2016-01-23T10:43:57Z</time>
      </trkpt>
      <trkpt lat="45.86714" lon="6.53049">
        <ele>1708.4</ele>
        <time>2016-01-23T10:44:01Z</time>
      </trkpt>
      <trkpt lat="45.86705" lon="6.53052">
        <ele>1712.25</ele>
        <time>2016-01-23T10:44:05Z</time>
      </trkpt>
      <trkpt lat="45.86699" lon="6.53055">
        <ele>1715.61</ele>
        <time>2016-01-23T10:44:08Z</time>
      </trkpt>
      <trkpt lat="45.86692" lon="6.53056">
        <ele>1718.49</ele>
        <time>2016-01-23T10:44:11Z</time>
      </trkpt>
      <trkpt lat="45.86686" lon="6.53059">
        <ele>1721.38</ele>
        <time>2016-01-23T10:44:14Z</time>
      </trkpt>
      <trkpt lat="45.86679" lon="6.53061">
        <ele>1724.74</ele>
        <time>2016-01-23T10:44:17Z</time>
      </trkpt>
      <trkpt lat="45.86673" lon="6.53063">
        <ele>1728.11</ele>
        <time>2016-01-23T10:44:20Z</time>
      </trkpt>
      <trkpt lat="45.86667" lon="6.53065">
        <ele>1731.47</ele>
        <time>2016-01-23T10:44:23Z</time>
      </trkpt>
      <trkpt lat="45.86661" lon="6.53068">
        <ele>1734.84</ele>
        <time>2016-01-23T10:44:26Z</time>
      </trkpt>
      <trkpt lat="45.86655" lon="6.53071">
        <ele>1738.68</ele>
        <time>2016-01-23T10:44:29Z</time>
      </trkpt>
      <trkpt lat="45.86648" lon="6.53073">
        <ele>1742.53</ele>
        <time>2016-01-23T10:44:33Z</time>
      </trkpt>
      <trkpt lat="45.8664" lon="6.53075">
        <ele>1746.37</ele>
        <time>2016-01-23T10:44:37Z</time>
      </trkpt>
      <trkpt lat="45.86634" lon="6.53077">
        <ele>1749.26</ele>
        <time>2016-01-23T10:44:40Z</time>
      </trkpt>
      <trkpt lat="45.86625" lon="6.5308">
        <ele>1753.1</ele>
        <time>2016-01-23T10:44:44Z</time>
      </trkpt>
      <trkpt lat="45.86618" lon="6.53083">
        <ele>1756.95</ele>
        <time>2016-01-23T10:44:48Z</time>
      </trkpt>
      <trkpt lat="45.86611" lon="6.53084">
        <ele>1760.31</ele>
        <time>2016-01-23T10:44:51Z</time>
      </trkpt>
      <trkpt lat="45.86604" lon="6.53087">
        <ele>1764.16</ele>
        <time>2016-01-23T10:44:55Z</time>
      </trkpt>
      <trkpt lat="45.86598" lon="6.53089">
        <ele>1767.52</ele>
        <time>2016-01-23T10:44:58Z</time>
      </trkpt>
      <trkpt lat="45.86589" lon="6.53092">
        <ele>1771.37</ele>
        <time>2016-01-23T10:45:02Z</time>
      </trkpt>
      <trkpt lat="45.86583" lon="6.53094">
        <ele>1774.73</ele>
        <time>2016-01-23T10:45:05Z</time>
      </trkpt>
      <trkpt lat="45.86577" lon="6.53097">
        <ele>1778.1</ele>
        <time>2016-01-23T10:45:08Z</time>
      </trkpt>
      <trkpt lat="45.86571" lon="6.53099">
        <ele>1781.46</ele>
        <time>2016-01-23T10:45:11Z</time>
      </trkpt>
      <trkpt lat="45.86561" lon="6.53103">
        <ele>1785.31</ele>
        <time>2016-01-23T10:45:16Z</time>
      </trkpt>
      <trkpt lat="45.86551" lon="6.53107">
        <ele>1789.15</ele>
        <time>2016-01-23T10:45:21Z</time>
      </trkpt>
      <trkpt lat="45.8654" lon="6.53111">
        <ele>1792.52</ele>
        <time>2016-01-23T10:45:26Z</time>
      </trkpt>
      <trkpt lat="45.86532" lon="6.53114">
        <ele>1795.88</ele>
        <time>2016-01-23T10:45:30Z</time>
      </trkpt>
      <trkpt lat="45.86523" lon="6.53116">
        <ele>1799.24</ele>
        <time>2016-01-23T10:45:34Z</time>
      </trkpt>
      <trkpt lat="45.86515" lon="6.53119">
        <ele>1802.61</ele>
        <time>2016-01-23T10:45:38Z</time>
      </trkpt>
      <trkpt lat="45.86506" lon="6.53122">
        <ele>1805.97</ele>
        <time>2016-01-23T10:45:42Z</time>
      </trkpt>
      <trkpt lat="45.86498" lon="6.53125">
        <ele>1809.34</ele>
        <time>2016-01-23T10:45:46Z</time>
      </trkpt>
      <trkpt lat="45.8649" lon="6.53128">
        <ele>1813.18</ele>
        <time>2016-01-23T10:45:50Z</time>
      </trkpt>
      <trkpt lat="45.86482" lon="6.53131">
        <ele>1817.03</ele>
        <time>2016-01-23T10:45:54Z</time>
      </trkpt>
      <trkpt lat="45.86473" lon="6.53135">
        <ele>1820.87</ele>
        <time>2016-01-23T10:45:58Z</time>
      </trkpt>
      <trkpt lat="45.86465" lon="6.53139">
        <ele>1824.24</ele>
        <time>2016-01-23T10:46:02Z</time>
      </trkpt>
      <trkpt lat="45.86454" lon="6.53143">
        <ele>1827.6</ele>
        <time>2016-01-23T10:46:07Z</time>
      </trkpt>
      <trkpt lat="45.86444" lon="6.53148">
        <ele>1831.45</ele>
        <time>2016-01-23T10:46:12Z</time>
      </trkpt>
      <trkpt lat="45.86436" lon="6.53152">
        <ele>1834.33</ele>
        <time>2016-01-23T10:46:16Z</time>
      </trkpt>
      <trkpt lat="45.86425" lon="6.53156">
        <ele>1838.18</ele>
        <time>2016-01-23T10:46:21Z</time>
      </trkpt>
      <trkpt lat="45.86416" lon="6.53159">
        <ele>1841.54</ele>
        <time>2016-01-23T10:46:25Z</time>
      </trkpt>
      <trkpt lat="45.86408" lon="6.53162">
        <ele>1844.43</ele>
        <time>2016-01-23T10:46:29Z</time>
      </trkpt>
      <trkpt lat="45.864" lon="6.53166">
        <ele>1847.79</ele>
        <time>2016-01-23T10:46:33Z</time>
      </trkpt>
      <trkpt lat="45.86391" lon="6.53169">
        <ele>1851.16</ele>
        <time>2016-01-23T10:46:37Z</time>
      </trkpt>
      <trkpt lat="45.86383" lon="6.53172">
        <ele>1854.52</ele>
        <time>2016-01-23T10:46:41Z</time>
      </trkpt>
      <trkpt lat="45.86374" lon="6.53175">
        <ele>1858.37</ele>
        <time>2016-01-23T10:46:45Z</time>
      </trkpt>
      <trkpt lat="45.86366" lon="6.53178">
        <ele>1861.73</ele>
        <time>2016-01-23T10:46:49Z</time>
      </trkpt>
      <trkpt lat="45.86357" lon="6.53181">
        <ele>1865.58</ele>
        <time>2016-01-23T10:46:53Z</time>
      </trkpt>
      <trkpt lat="45.86349" lon="6.53184">
        <ele>1869.42</ele>
        <time>2016-01-23T10:46:57Z</time>
      </trkpt>
      <trkpt lat="45.86341" lon="6.53188">
        <ele>1873.27</ele>
        <time>2016-01-23T10:47:01Z</time>
      </trkpt>
      <trkpt lat="45.86333" lon="6.53191">
        <ele>1876.63</ele>
        <time>2016-01-23T10:47:05Z</time>
      </trkpt>
      <trkpt lat="45.86327" lon="6.53193">
        <ele>1880</ele>
        <time>2016-01-23T10:47:08Z</time>
      </trkpt>
      <trkpt lat="45.86321" lon="6.53196">
        <ele>1882.88</ele>
        <time>2016-01-23T10:47:11Z</time>
      </trkpt>
      <trkpt lat="45.86313" lon="6.53199">
        <ele>1886.72</ele>
        <time>2016-01-23T10:47:15Z</time>
      </trkpt>
      <trkpt lat="45.86307" lon="6.53201">
        <ele>1889.61</ele>
        <time>2016-01-23T10:47:18Z</time>
      </trkpt>
      <trkpt lat="45.86301" lon="6.53203">
        <ele>1892.97</ele>
        <time>2016-01-23T10:47:21Z</time>
      </trkpt>
      <trkpt lat="45.86293" lon="6.53207">
        <ele>1896.82</ele>
        <time>2016-01-23T10:47:25Z</time>
      </trkpt>
      <trkpt lat="45.86285" lon="6.5321">
        <ele>1899.7</ele>
        <time>2016-01-23T10:47:29Z</time>
      </trkpt>
      <trkpt lat="45.86276" lon="6.53213">
        <ele>1903.55</ele>
        <time>2016-01-23T10:47:33Z</time>
      </trkpt>
      <trkpt lat="45.86268" lon="6.53216">
        <ele>1906.91</ele>
        <time>2016-01-23T10:47:37Z</time>
      </trkpt>
      <trkpt lat="45.86259" lon="6.53219">
        <ele>1910.28</ele>
        <time>2016-01-23T10:47:41Z</time>
      </trkpt>
      <trkpt lat="45.86251" lon="6.53222">
        <ele>1914.12</ele>
        <time>2016-01-23T10:47:45Z</time>
      </trkpt>
      <trkpt lat="45.86242" lon="6.53225">
        <ele>1917.97</ele>
        <time>2016-01-23T10:47:49Z</time>
      </trkpt>
      <trkpt lat="45.86234" lon="6.53228">
        <ele>1921.33</ele>
        <time>2016-01-23T10:47:53Z</time>
      </trkpt>
      <trkpt lat="45.86226" lon="6.53231">
        <ele>1925.18</ele>
        <time>2016-01-23T10:47:57Z</time>
      </trkpt>
      <trkpt lat="45.8622" lon="6.53234">
        <ele>1928.54</ele>
        <time>2016-01-23T10:48:00Z</time>
      </trkpt>
      <trkpt lat="45.86184" lon="6.53248">
        <ele>1931.91</ele>
        <time>2016-01-23T10:48:16Z</time>
      </trkpt>
      <trkpt lat="45.86163" lon="6.53255">
        <ele>1931.91</ele>
        <time>2016-01-23T10:48:27Z</time>
      </trkpt>
      <trkpt lat="45.86164" lon="6.53257">
        <ele>1931.91</ele>
        <time>2016-01-23T10:48:43Z</time>
      </trkpt>
      <trkpt lat="45.86163" lon="6.53259">
        <ele>1931.43</ele>
        <time>2016-01-23T10:49:05Z</time>
      </trkpt>
      <trkpt lat="45.86159" lon="6.53253">
        <ele>1931.43</ele>
        <time>2016-01-23T10:49:29Z</time>
      </trkpt>
      <trkpt lat="45.86159" lon="6.53251">
        <ele>1931.43</ele>
        <time>2016-01-23T10:49:30Z</time>
      </trkpt>
      <trkpt lat="45.86159" lon="6.53249">
        <ele>1931.43</ele>
        <time>2016-01-23T10:49:31Z</time>
      </trkpt>
      <trkpt lat="45.8616" lon="6.53247">
        <ele>1929.98</ele>
        <time>2016-01-23T10:49:33Z</time>
      </trkpt>
      <trkpt lat="45.8616" lon="6.53245">
        <ele>1929.98</ele>
        <time>2016-01-23T10:49:50Z</time>
      </trkpt>
      <trkpt lat="45.86159" lon="6.53243">
        <ele>1929.98</ele>
        <time>2016-01-23T10:49:51Z</time>
      </trkpt>
      <trkpt lat="45.86158" lon="6.53227">
        <ele>1929.02</ele>
        <time>2016-01-23T10:50:03Z</time>
      </trkpt>
      <trkpt lat="45.86159" lon="6.53207">
        <ele>1928.06</ele>
        <time>2016-01-23T10:50:21Z</time>
      </trkpt>
      <trkpt lat="45.86157" lon="6.53203">
        <ele>1928.06</ele>
        <time>2016-01-23T10:50:25Z</time>
      </trkpt>
      <trkpt lat="45.86155" lon="6.53193">
        <ele>1927.1</ele>
        <time>2016-01-23T10:50:29Z</time>
      </trkpt>
      <trkpt lat="45.86154" lon="6.53188">
        <ele>1927.1</ele>
        <time>2016-01-23T10:50:34Z</time>
      </trkpt>
      <trkpt lat="45.86153" lon="6.53187">
        <ele>1927.1</ele>
        <time>2016-01-23T10:50:35Z</time>
      </trkpt>
      <trkpt lat="45.86153" lon="6.53185">
        <ele>1926.14</ele>
        <time>2016-01-23T10:50:36Z</time>
      </trkpt>
      <trkpt lat="45.86144" lon="6.5315">
        <ele>1923.25</ele>
        <time>2016-01-23T10:50:48Z</time>
      </trkpt>
      <trkpt lat="45.86142" lon="6.53144">
        <ele>1921.81</ele>
        <time>2016-01-23T10:50:49Z</time>
      </trkpt>
      <trkpt lat="45.86139" lon="6.53138">
        <ele>1921.81</ele>
        <time>2016-01-23T10:50:50Z</time>
      </trkpt>
      <trkpt lat="45.86136" lon="6.53132">
        <ele>1921.81</ele>
        <time>2016-01-23T10:50:51Z</time>
      </trkpt>
      <trkpt lat="45.86133" lon="6.53124">
        <ele>1919.41</ele>
        <time>2016-01-23T10:50:52Z</time>
      </trkpt>
      <trkpt lat="45.86131" lon="6.53116">
        <ele>1917.97</ele>
        <time>2016-01-23T10:50:53Z</time>
      </trkpt>
      <trkpt lat="45.86127" lon="6.5311">
        <ele>1917.01</ele>
        <time>2016-01-23T10:50:54Z</time>
      </trkpt>
      <trkpt lat="45.86123" lon="6.53104">
        <ele>1917.01</ele>
        <time>2016-01-23T10:50:55Z</time>
      </trkpt>
      <trkpt lat="45.86119" lon="6.53095">
        <ele>1916.04</ele>
        <time>2016-01-23T10:50:56Z</time>
      </trkpt>
      <trkpt lat="45.86116" lon="6.53086">
        <ele>1913.64</ele>
        <time>2016-01-23T10:50:57Z</time>
      </trkpt>
      <trkpt lat="45.86111" lon="6.53077">
        <ele>1912.2</ele>
        <time>2016-01-23T10:50:58Z</time>
      </trkpt>
      <trkpt lat="45.86107" lon="6.53067">
        <ele>1910.76</ele>
        <time>2016-01-23T10:50:59Z</time>
      </trkpt>
      <trkpt lat="45.86103" lon="6.53056">
        <ele>1909.32</ele>
        <time>2016-01-23T10:51:00Z</time>
      </trkpt>
      <trkpt lat="45.86098" lon="6.53045">
        <ele>1907.39</ele>
        <time>2016-01-23T10:51:01Z</time>
      </trkpt>
      <trkpt lat="45.86092" lon="6.53034">
        <ele>1906.43</ele>
        <time>2016-01-23T10:51:02Z</time>
      </trkpt>
      <trkpt lat="45.86086" lon="6.53023">
        <ele>1905.47</ele>
        <time>2016-01-23T10:51:03Z</time>
      </trkpt>
      <trkpt lat="45.86066" lon="6.52992">
        <ele>1900.66</ele>
        <time>2016-01-23T10:51:06Z</time>
      </trkpt>
      <trkpt lat="45.86045" lon="6.52963">
        <ele>1896.82</ele>
        <time>2016-01-23T10:51:09Z</time>
      </trkpt>
      <trkpt lat="45.86036" lon="6.52951">
        <ele>1893.45</ele>
        <time>2016-01-23T10:51:11Z</time>
      </trkpt>
      <trkpt lat="45.86036" lon="6.52949">
        <ele>1892.49</ele>
        <time>2016-01-23T10:51:13Z</time>
      </trkpt>
      <trkpt lat="45.86038" lon="6.52948">
        <ele>1892.49</ele>
        <time>2016-01-23T10:51:28Z</time>
      </trkpt>
      <trkpt lat="45.86046" lon="6.52951">
        <ele>1891.53</ele>
        <time>2016-01-23T10:51:32Z</time>
      </trkpt>
      <trkpt lat="45.86052" lon="6.52956">
        <ele>1891.05</ele>
        <time>2016-01-23T10:51:34Z</time>
      </trkpt>
      <trkpt lat="45.86075" lon="6.52952">
        <ele>1885.76</ele>
        <time>2016-01-23T10:51:38Z</time>
      </trkpt>
      <trkpt lat="45.86082" lon="6.52955">
        <ele>1883.36</ele>
        <time>2016-01-23T10:51:39Z</time>
      </trkpt>
      <trkpt lat="45.8612" lon="6.52965">
        <ele>1877.11</ele>
        <time>2016-01-23T10:51:43Z</time>
      </trkpt>
      <trkpt lat="45.8613" lon="6.52968">
        <ele>1873.75</ele>
        <time>2016-01-23T10:51:44Z</time>
      </trkpt>
      <trkpt lat="45.86151" lon="6.52967">
        <ele>1870.86</ele>
        <time>2016-01-23T10:51:46Z</time>
      </trkpt>
      <trkpt lat="45.86161" lon="6.5297">
        <ele>1866.54</ele>
        <time>2016-01-23T10:51:47Z</time>
      </trkpt>
      <trkpt lat="45.86177" lon="6.52983">
        <ele>1864.13</ele>
        <time>2016-01-23T10:51:49Z</time>
      </trkpt>
      <trkpt lat="45.862" lon="6.52991">
        <ele>1860.77</ele>
        <time>2016-01-23T10:51:51Z</time>
      </trkpt>
      <trkpt lat="45.86227" lon="6.52997">
        <ele>1854.04</ele>
        <time>2016-01-23T10:51:53Z</time>
      </trkpt>
      <trkpt lat="45.86241" lon="6.53">
        <ele>1848.75</ele>
        <time>2016-01-23T10:51:54Z</time>
      </trkpt>
      <trkpt lat="45.86254" lon="6.53004">
        <ele>1843.47</ele>
        <time>2016-01-23T10:51:55Z</time>
      </trkpt>
      <trkpt lat="45.8627" lon="6.53011">
        <ele>1836.26</ele>
        <time>2016-01-23T10:51:57Z</time>
      </trkpt>
      <trkpt lat="45.86281" lon="6.53013">
        <ele>1833.37</ele>
        <time>2016-01-23T10:51:59Z</time>
      </trkpt>
      <trkpt lat="45.86289" lon="6.5301">
        <ele>1829.05</ele>
        <time>2016-01-23T10:52:01Z</time>
      </trkpt>
      <trkpt lat="45.86291" lon="6.53008">
        <ele>1827.6</ele>
        <time>2016-01-23T10:52:03Z</time>
      </trkpt>
      <trkpt lat="45.86298" lon="6.52997">
        <ele>1823.76</ele>
        <time>2016-01-23T10:52:07Z</time>
      </trkpt>
      <trkpt lat="45.86304" lon="6.52993">
        <ele>1819.43</ele>
        <time>2016-01-23T10:52:10Z</time>
      </trkpt>
      <trkpt lat="45.86309" lon="6.52985">
        <ele>1816.07</ele>
        <time>2016-01-23T10:52:13Z</time>
      </trkpt>
      <trkpt lat="45.8631" lon="6.52983">
        <ele>1814.15</ele>
        <time>2016-01-23T10:52:15Z</time>
      </trkpt>
      <trkpt lat="45.86311" lon="6.5298">
        <ele>1813.66</ele>
        <time>2016-01-23T10:52:33Z</time>
      </trkpt>
      <trkpt lat="45.86312" lon="6.52977">
        <ele>1813.66</ele>
        <time>2016-01-23T10:52:34Z</time>
      </trkpt>
      <trkpt lat="45.86319" lon="6.52967">
        <ele>1807.9</ele>
        <time>2016-01-23T10:52:37Z</time>
      </trkpt>
      <trkpt lat="45.86326" lon="6.52965">
        <ele>1804.53</ele>
        <time>2016-01-23T10:52:40Z</time>
      </trkpt>
      <trkpt lat="45.86329" lon="6.52963">
        <ele>1803.09</ele>
        <time>2016-01-23T10:52:41Z</time>
      </trkpt>
      <trkpt lat="45.86334" lon="6.52943">
        <ele>1795.4</ele>
        <time>2016-01-23T10:52:44Z</time>
      </trkpt>
      <trkpt lat="45.86341" lon="6.52926">
        <ele>1790.11</ele>
        <time>2016-01-23T10:52:46Z</time>
      </trkpt>
      <trkpt lat="45.86349" lon="6.52922">
        <ele>1785.79</ele>
        <time>2016-01-23T10:52:47Z</time>
      </trkpt>
      <trkpt lat="45.8638" lon="6.5291">
        <ele>1777.13</ele>
        <time>2016-01-23T10:52:50Z</time>
      </trkpt>
      <trkpt lat="45.86392" lon="6.52903">
        <ele>1773.77</ele>
        <time>2016-01-23T10:52:51Z</time>
      </trkpt>
      <trkpt lat="45.86403" lon="6.52897">
        <ele>1768</ele>
        <time>2016-01-23T10:52:52Z</time>
      </trkpt>
      <trkpt lat="45.86416" lon="6.52894">
        <ele>1761.27</ele>
        <time>2016-01-23T10:52:55Z</time>
      </trkpt>
      <trkpt lat="45.86417" lon="6.52895">
        <ele>1761.75</ele>
        <time>2016-01-23T10:53:10Z</time>
      </trkpt>
      <trkpt lat="45.86417" lon="6.52895">
        <ele>1761.75</ele>
        <time>2016-01-23T10:53:12Z</time>
      </trkpt>
      <trkpt lat="45.86422" lon="6.52891">
        <ele>1760.79</ele>
        <time>2016-01-23T10:53:16Z</time>
      </trkpt>
      <trkpt lat="45.86435" lon="6.5289">
        <ele>1758.87</ele>
        <time>2016-01-23T10:53:19Z</time>
      </trkpt>
      <trkpt lat="45.86454" lon="6.52889">
        <ele>1755.99</ele>
        <time>2016-01-23T10:53:22Z</time>
      </trkpt>
      <trkpt lat="45.8646" lon="6.52886">
        <ele>1754.06</ele>
        <time>2016-01-23T10:53:23Z</time>
      </trkpt>
      <trkpt lat="45.8647" lon="6.52866">
        <ele>1747.81</ele>
        <time>2016-01-23T10:53:26Z</time>
      </trkpt>
      <trkpt lat="45.86471" lon="6.52859">
        <ele>1743.97</ele>
        <time>2016-01-23T10:53:27Z</time>
      </trkpt>
      <trkpt lat="45.86472" lon="6.52852">
        <ele>1742.05</ele>
        <time>2016-01-23T10:53:29Z</time>
      </trkpt>
      <trkpt lat="45.86478" lon="6.52847">
        <ele>1738.68</ele>
        <time>2016-01-23T10:53:31Z</time>
      </trkpt>
      <trkpt lat="45.86486" lon="6.52846">
        <ele>1736.76</ele>
        <time>2016-01-23T10:53:33Z</time>
      </trkpt>
      <trkpt lat="45.86491" lon="6.52835">
        <ele>1731.47</ele>
        <time>2016-01-23T10:53:35Z</time>
      </trkpt>
      <trkpt lat="45.86493" lon="6.52832">
        <ele>1727.15</ele>
        <time>2016-01-23T10:53:37Z</time>
      </trkpt>
      <trkpt lat="45.86496" lon="6.52829">
        <ele>1726.67</ele>
        <time>2016-01-23T10:53:43Z</time>
      </trkpt>
      <trkpt lat="45.86495" lon="6.52813">
        <ele>1722.82</ele>
        <time>2016-01-23T10:53:48Z</time>
      </trkpt>
      <trkpt lat="45.86496" lon="6.52809">
        <ele>1722.82</ele>
        <time>2016-01-23T10:53:49Z</time>
      </trkpt>
      <trkpt lat="45.86504" lon="6.528">
        <ele>1718.49</ele>
        <time>2016-01-23T10:53:51Z</time>
      </trkpt>
      <trkpt lat="45.86509" lon="6.52799">
        <ele>1716.57</ele>
        <time>2016-01-23T10:53:52Z</time>
      </trkpt>
      <trkpt lat="45.8653" lon="6.52791">
        <ele>1709.36</ele>
        <time>2016-01-23T10:53:55Z</time>
      </trkpt>
      <trkpt lat="45.86535" lon="6.52782">
        <ele>1705.04</ele>
        <time>2016-01-23T10:53:56Z</time>
      </trkpt>
      <trkpt lat="45.86538" lon="6.52773">
        <ele>1701.67</ele>
        <time>2016-01-23T10:53:57Z</time>
      </trkpt>
      <trkpt lat="45.86551" lon="6.52758">
        <ele>1694.46</ele>
        <time>2016-01-23T10:53:59Z</time>
      </trkpt>
      <trkpt lat="45.86559" lon="6.52755">
        <ele>1690.14</ele>
        <time>2016-01-23T10:54:00Z</time>
      </trkpt>
      <trkpt lat="45.86576" lon="6.52748">
        <ele>1684.85</ele>
        <time>2016-01-23T10:54:02Z</time>
      </trkpt>
      <trkpt lat="45.86582" lon="6.5274">
        <ele>1677.64</ele>
        <time>2016-01-23T10:54:03Z</time>
      </trkpt>
      <trkpt lat="45.8659" lon="6.52733">
        <ele>1674.27</ele>
        <time>2016-01-23T10:54:04Z</time>
      </trkpt>
      <trkpt lat="45.86599" lon="6.52726">
        <ele>1669.47</ele>
        <time>2016-01-23T10:54:05Z</time>
      </trkpt>
      <trkpt lat="45.8661" lon="6.52717">
        <ele>1666.1</ele>
        <time>2016-01-23T10:54:06Z</time>
      </trkpt>
      <trkpt lat="45.86616" lon="6.52711">
        <ele>1659.37</ele>
        <time>2016-01-23T10:54:07Z</time>
      </trkpt>
      <trkpt lat="45.86623" lon="6.52704">
        <ele>1652.16</ele>
        <time>2016-01-23T10:54:08Z</time>
      </trkpt>
      <trkpt lat="45.8663" lon="6.52697">
        <ele>1650.72</ele>
        <time>2016-01-23T10:54:10Z</time>
      </trkpt>
      <trkpt lat="45.86638" lon="6.52692">
        <ele>1643.51</ele>
        <time>2016-01-23T10:54:13Z</time>
      </trkpt>
      <trkpt lat="45.86637" lon="6.52693">
        <ele>1642.55</ele>
        <time>2016-01-23T10:54:15Z</time>
      </trkpt>
      <trkpt lat="45.86634" lon="6.52694">
        <ele>1642.55</ele>
        <time>2016-01-23T10:54:17Z</time>
      </trkpt>
      <trkpt lat="45.86615" lon="6.52703">
        <ele>1643.51</ele>
        <time>2016-01-23T10:54:32Z</time>
      </trkpt>
      <trkpt lat="45.86619" lon="6.52698">
        <ele>1641.59</ele>
        <time>2016-01-23T10:54:35Z</time>
      </trkpt>
      <trkpt lat="45.8663" lon="6.52685">
        <ele>1641.11</ele>
        <time>2016-01-23T10:54:39Z</time>
      </trkpt>
      <trkpt lat="45.86645" lon="6.52665">
        <ele>1633.42</ele>
        <time>2016-01-23T10:54:41Z</time>
      </trkpt>
      <trkpt lat="45.86648" lon="6.52657">
        <ele>1628.61</ele>
        <time>2016-01-23T10:54:42Z</time>
      </trkpt>
      <trkpt lat="45.86656" lon="6.52649">
        <ele>1623.8</ele>
        <time>2016-01-23T10:54:44Z</time>
      </trkpt>
      <trkpt lat="45.8666" lon="6.52649">
        <ele>1623.8</ele>
        <time>2016-01-23T10:54:45Z</time>
      </trkpt>
      <trkpt lat="45.86663" lon="6.52646">
        <ele>1620.92</ele>
        <time>2016-01-23T10:54:46Z</time>
      </trkpt>
      <trkpt lat="45.86666" lon="6.52642">
        <ele>1619.96</ele>
        <time>2016-01-23T10:54:48Z</time>
      </trkpt>
      <trkpt lat="45.86668" lon="6.52639">
        <ele>1619</ele>
        <time>2016-01-23T10:54:50Z</time>
      </trkpt>
      <trkpt lat="45.86692" lon="6.52622">
        <ele>1611.79</ele>
        <time>2016-01-23T10:54:54Z</time>
      </trkpt>
      <trkpt lat="45.86701" lon="6.52614">
        <ele>1608.42</ele>
        <time>2016-01-23T10:54:55Z</time>
      </trkpt>
      <trkpt lat="45.86711" lon="6.5261">
        <ele>1604.1</ele>
        <time>2016-01-23T10:54:56Z</time>
      </trkpt>
      <trkpt lat="45.86721" lon="6.5261">
        <ele>1600.73</ele>
        <time>2016-01-23T10:54:57Z</time>
      </trkpt>
      <trkpt lat="45.8673" lon="6.52608">
        <ele>1596.41</ele>
        <time>2016-01-23T10:54:58Z</time>
      </trkpt>
      <trkpt lat="45.86738" lon="6.52602">
        <ele>1594.48</ele>
        <time>2016-01-23T10:54:59Z</time>
      </trkpt>
      <trkpt lat="45.86749" lon="6.52597">
        <ele>1590.64</ele>
        <time>2016-01-23T10:55:00Z</time>
      </trkpt>
      <trkpt lat="45.86763" lon="6.52596">
        <ele>1585.83</ele>
        <time>2016-01-23T10:55:01Z</time>
      </trkpt>
      <trkpt lat="45.86769" lon="6.52594">
        <ele>1581.99</ele>
        <time>2016-01-23T10:55:02Z</time>
      </trkpt>
      <trkpt lat="45.8678" lon="6.52589">
        <ele>1577.66</ele>
        <time>2016-01-23T10:55:03Z</time>
      </trkpt>
      <trkpt lat="45.8679" lon="6.52584">
        <ele>1573.33</ele>
        <time>2016-01-23T10:55:04Z</time>
      </trkpt>
      <trkpt lat="45.86799" lon="6.52579">
        <ele>1570.45</ele>
        <time>2016-01-23T10:55:05Z</time>
      </trkpt>
      <trkpt lat="45.86807" lon="6.52571">
        <ele>1565.16</ele>
        <time>2016-01-23T10:55:06Z</time>
      </trkpt>
      <trkpt lat="45.86812" lon="6.52562">
        <ele>1563.24</ele>
        <time>2016-01-23T10:55:07Z</time>
      </trkpt>
      <trkpt lat="45.86825" lon="6.52539">
        <ele>1557.95</ele>
        <time>2016-01-23T10:55:09Z</time>
      </trkpt>
      <trkpt lat="45.86829" lon="6.52526">
        <ele>1552.67</ele>
        <time>2016-01-23T10:55:10Z</time>
      </trkpt>
      <trkpt lat="45.86832" lon="6.52513">
        <ele>1550.74</ele>
        <time>2016-01-23T10:55:11Z</time>
      </trkpt>
      <trkpt lat="45.86833" lon="6.52499">
        <ele>1548.82</ele>
        <time>2016-01-23T10:55:12Z</time>
      </trkpt>
      <trkpt lat="45.86834" lon="6.52486">
        <ele>1544.98</ele>
        <time>2016-01-23T10:55:13Z</time>
      </trkpt>
      <trkpt lat="45.86833" lon="6.52478">
        <ele>1541.61</ele>
        <time>2016-01-23T10:55:14Z</time>
      </trkpt>
      <trkpt lat="45.86829" lon="6.52479">
        <ele>1540.17</ele>
        <time>2016-01-23T10:55:16Z</time>
      </trkpt>
      <trkpt lat="45.86825" lon="6.52482">
        <ele>1543.05</ele>
        <time>2016-01-23T10:55:20Z</time>
      </trkpt>
      <trkpt lat="45.86824" lon="6.52482">
        <ele>1543.05</ele>
        <time>2016-01-23T10:55:23Z</time>
      </trkpt>
      <trkpt lat="45.86823" lon="6.52479">
        <ele>1543.05</ele>
        <time>2016-01-23T10:55:24Z</time>
      </trkpt>
      <trkpt lat="45.86816" lon="6.52459">
        <ele>1538.25</ele>
        <time>2016-01-23T10:55:28Z</time>
      </trkpt>
      <trkpt lat="45.86812" lon="6.52455">
        <ele>1537.77</ele>
        <time>2016-01-23T10:55:32Z</time>
      </trkpt>
      <trkpt lat="45.86811" lon="6.52451">
        <ele>1536.8</ele>
        <time>2016-01-23T10:55:33Z</time>
      </trkpt>
      <trkpt lat="45.86811" lon="6.52446">
        <ele>1534.88</ele>
        <time>2016-01-23T10:55:34Z</time>
      </trkpt>
      <trkpt lat="45.86814" lon="6.5244">
        <ele>1533.44</ele>
        <time>2016-01-23T10:55:35Z</time>
      </trkpt>
      <trkpt lat="45.86818" lon="6.52434">
        <ele>1532.48</ele>
        <time>2016-01-23T10:55:36Z</time>
      </trkpt>
      <trkpt lat="45.86824" lon="6.52425">
        <ele>1530.56</ele>
        <time>2016-01-23T10:55:37Z</time>
      </trkpt>
      <trkpt lat="45.86831" lon="6.52413">
        <ele>1527.19</ele>
        <time>2016-01-23T10:55:38Z</time>
      </trkpt>
      <trkpt lat="45.86837" lon="6.524">
        <ele>1522.87</ele>
        <time>2016-01-23T10:55:39Z</time>
      </trkpt>
      <trkpt lat="45.86841" lon="6.52387">
        <ele>1518.54</ele>
        <time>2016-01-23T10:55:40Z</time>
      </trkpt>
      <trkpt lat="45.86848" lon="6.52379">
        <ele>1516.62</ele>
        <time>2016-01-23T10:55:41Z</time>
      </trkpt>
      <trkpt lat="45.86857" lon="6.5237">
        <ele>1513.25</ele>
        <time>2016-01-23T10:55:42Z</time>
      </trkpt>
      <trkpt lat="45.86866" lon="6.52362">
        <ele>1507.97</ele>
        <time>2016-01-23T10:55:43Z</time>
      </trkpt>
      <trkpt lat="45.86878" lon="6.52358">
        <ele>1503.64</ele>
        <time>2016-01-23T10:55:44Z</time>
      </trkpt>
      <trkpt lat="45.86891" lon="6.5236">
        <ele>1497.87</ele>
        <time>2016-01-23T10:55:45Z</time>
      </trkpt>
      <trkpt lat="45.86904" lon="6.52365">
        <ele>1492.58</ele>
        <time>2016-01-23T10:55:46Z</time>
      </trkpt>
      <trkpt lat="45.86916" lon="6.52374">
        <ele>1488.26</ele>
        <time>2016-01-23T10:55:47Z</time>
      </trkpt>
      <trkpt lat="45.86928" lon="6.52381">
        <ele>1486.34</ele>
        <time>2016-01-23T10:55:48Z</time>
      </trkpt>
      <trkpt lat="45.86935" lon="6.52385">
        <ele>1485.85</ele>
        <time>2016-01-23T10:55:49Z</time>
      </trkpt>
      <trkpt lat="45.86936" lon="6.52388">
        <ele>1485.85</ele>
        <time>2016-01-23T10:55:50Z</time>
      </trkpt>
      <trkpt lat="45.86936" lon="6.5239">
        <ele>1485.37</ele>
        <time>2016-01-23T10:55:51Z</time>
      </trkpt>
      <trkpt lat="45.86933" lon="6.52397">
        <ele>1485.37</ele>
        <time>2016-01-23T10:55:54Z</time>
      </trkpt>
      <trkpt lat="45.86934" lon="6.52395">
        <ele>1485.37</ele>
        <time>2016-01-23T10:55:55Z</time>
      </trkpt>
      <trkpt lat="45.86935" lon="6.52394">
        <ele>1485.37</ele>
        <time>2016-01-23T10:55:56Z</time>
      </trkpt>
      <trkpt lat="45.86937" lon="6.52395">
        <ele>1485.37</ele>
        <time>2016-01-23T10:55:57Z</time>
      </trkpt>
      <trkpt lat="45.8694" lon="6.52396">
        <ele>1485.37</ele>
        <time>2016-01-23T10:55:58Z</time>
      </trkpt>
      <trkpt lat="45.86944" lon="6.52397">
        <ele>1484.41</ele>
        <time>2016-01-23T10:55:59Z</time>
      </trkpt>
      <trkpt lat="45.86965" lon="6.52406">
        <ele>1478.16</ele>
        <time>2016-01-23T10:56:03Z</time>
      </trkpt>
      <trkpt lat="45.86968" lon="6.5241">
        <ele>1477.2</ele>
        <time>2016-01-23T10:56:04Z</time>
      </trkpt>
      <trkpt lat="45.86973" lon="6.52415">
        <ele>1477.2</ele>
        <time>2016-01-23T10:56:05Z</time>
      </trkpt>
      <trkpt lat="45.86985" lon="6.52429">
        <ele>1474.8</ele>
        <time>2016-01-23T10:56:07Z</time>
      </trkpt>
      <trkpt lat="45.86991" lon="6.5244">
        <ele>1466.15</ele>
        <time>2016-01-23T10:56:08Z</time>
      </trkpt>
      <trkpt lat="45.86994" lon="6.52453">
        <ele>1466.15</ele>
        <time>2016-01-23T10:56:09Z</time>
      </trkpt>
      <trkpt lat="45.86996" lon="6.52466">
        <ele>1466.15</ele>
        <time>2016-01-23T10:56:10Z</time>
      </trkpt>
      <trkpt lat="45.86995" lon="6.5248">
        <ele>1466.15</ele>
        <time>2016-01-23T10:56:11Z</time>
      </trkpt>
      <trkpt lat="45.86996" lon="6.52494">
        <ele>1465.67</ele>
        <time>2016-01-23T10:56:12Z</time>
      </trkpt>
      <trkpt lat="45.86997" lon="6.52507">
        <ele>1464.23</ele>
        <time>2016-01-23T10:56:13Z</time>
      </trkpt>
      <trkpt lat="45.87" lon="6.52519">
        <ele>1462.78</ele>
        <time>2016-01-23T10:56:14Z</time>
      </trkpt>
      <trkpt lat="45.87004" lon="6.52531">
        <ele>1462.3</ele>
        <time>2016-01-23T10:56:15Z</time>
      </trkpt>
      <trkpt lat="45.87008" lon="6.52541">
        <ele>1461.82</ele>
        <time>2016-01-23T10:56:16Z</time>
      </trkpt>
      <trkpt lat="45.87012" lon="6.52552">
        <ele>1461.34</ele>
        <time>2016-01-23T10:56:17Z</time>
      </trkpt>
      <trkpt lat="45.87021" lon="6.52571">
        <ele>1459.9</ele>
        <time>2016-01-23T10:56:19Z</time>
      </trkpt>
      <trkpt lat="45.87032" lon="6.52597">
        <ele>1457.98</ele>
        <time>2016-01-23T10:56:22Z</time>
      </trkpt>
      <trkpt lat="45.87042" lon="6.52628">
        <ele>1454.61</ele>
        <time>2016-01-23T10:56:25Z</time>
      </trkpt>
      <trkpt lat="45.87046" lon="6.52636">
        <ele>1452.69</ele>
        <time>2016-01-23T10:56:26Z</time>
      </trkpt>
      <trkpt lat="45.87049" lon="6.52642">
        <ele>1452.21</ele>
        <time>2016-01-23T10:56:27Z</time>
      </trkpt>
      <trkpt lat="45.87055" lon="6.52643">
        <ele>1452.21</ele>
        <time>2016-01-23T10:56:28Z</time>
      </trkpt>
      <trkpt lat="45.87062" lon="6.52643">
        <ele>1451.73</ele>
        <time>2016-01-23T10:56:29Z</time>
      </trkpt>
      <trkpt lat="45.8708" lon="6.52648">
        <ele>1450.77</ele>
        <time>2016-01-23T10:56:32Z</time>
      </trkpt>
      <trkpt lat="45.87086" lon="6.52652">
        <ele>1450.29</ele>
        <time>2016-01-23T10:56:33Z</time>
      </trkpt>
      <trkpt lat="45.87092" lon="6.52658">
        <ele>1449.32</ele>
        <time>2016-01-23T10:56:34Z</time>
      </trkpt>
      <trkpt lat="45.87097" lon="6.52664">
        <ele>1448.84</ele>
        <time>2016-01-23T10:56:35Z</time>
      </trkpt>
      <trkpt lat="45.87102" lon="6.52672">
        <ele>1448.36</ele>
        <time>2016-01-23T10:56:36Z</time>
      </trkpt>
      <trkpt lat="45.87107" lon="6.52679">
        <ele>1447.4</ele>
        <time>2016-01-23T10:56:37Z</time>
      </trkpt>
      <trkpt lat="45.87111" lon="6.52687">
        <ele>1446.92</ele>
        <time>2016-01-23T10:56:38Z</time>
      </trkpt>
      <trkpt lat="45.87114" lon="6.52695">
        <ele>1446.44</ele>
        <time>2016-01-23T10:56:39Z</time>
      </trkpt>
      <trkpt lat="45.87117" lon="6.52702">
        <ele>1446.44</ele>
        <time>2016-01-23T10:56:40Z</time>
      </trkpt>
      <trkpt lat="45.87124" lon="6.52713">
        <ele>1445.48</ele>
        <time>2016-01-23T10:56:42Z</time>
      </trkpt>
      <trkpt lat="45.87128" lon="6.52717">
        <ele>1445</ele>
        <time>2016-01-23T10:56:43Z</time>
      </trkpt>
      <trkpt lat="45.87134" lon="6.52723">
        <ele>1445</ele>
        <time>2016-01-23T10:56:45Z</time>
      </trkpt>
      <trkpt lat="45.87138" lon="6.52727">
        <ele>1445</ele>
        <time>2016-01-23T10:56:46Z</time>
      </trkpt>
      <trkpt lat="45.87173" lon="6.52753">
        <ele>1441.63</ele>
        <time>2016-01-23T10:56:53Z</time>
      </trkpt>
      <trkpt lat="45.87196" lon="6.52773">
        <ele>1439.71</ele>
        <time>2016-01-23T10:56:57Z</time>
      </trkpt>
      <trkpt lat="45.87202" lon="6.5278">
        <ele>1437.31</ele>
        <time>2016-01-23T10:56:58Z</time>
      </trkpt>
      <trkpt lat="45.87208" lon="6.52787">
        <ele>1436.83</ele>
        <time>2016-01-23T10:56:59Z</time>
      </trkpt>
      <trkpt lat="45.87214" lon="6.52791">
        <ele>1436.83</ele>
        <time>2016-01-23T10:57:00Z</time>
      </trkpt>
      <trkpt lat="45.87221" lon="6.52795">
        <ele>1435.87</ele>
        <time>2016-01-23T10:57:01Z</time>
      </trkpt>
      <trkpt lat="45.87228" lon="6.52797">
        <ele>1434.91</ele>
        <time>2016-01-23T10:57:02Z</time>
      </trkpt>
      <trkpt lat="45.87247" lon="6.52802">
        <ele>1433.46</ele>
        <time>2016-01-23T10:57:05Z</time>
      </trkpt>
      <trkpt lat="45.87264" lon="6.52802">
        <ele>1432.5</ele>
        <time>2016-01-23T10:57:08Z</time>
      </trkpt>
      <trkpt lat="45.87277" lon="6.52799">
        <ele>1430.58</ele>
        <time>2016-01-23T10:57:11Z</time>
      </trkpt>
      <trkpt lat="45.87281" lon="6.52797">
        <ele>1430.58</ele>
        <time>2016-01-23T10:57:12Z</time>
      </trkpt>
      <trkpt lat="45.87294" lon="6.52785">
        <ele>1426.73</ele>
        <time>2016-01-23T10:57:14Z</time>
      </trkpt>
      <trkpt lat="45.87301" lon="6.52777">
        <ele>1421.93</ele>
        <time>2016-01-23T10:57:15Z</time>
      </trkpt>
      <trkpt lat="45.8733" lon="6.52744">
        <ele>1407.99</ele>
        <time>2016-01-23T10:57:19Z</time>
      </trkpt>
      <trkpt lat="45.87333" lon="6.5274">
        <ele>1403.66</ele>
        <time>2016-01-23T10:57:20Z</time>
      </trkpt>
      <trkpt lat="45.8733" lon="6.5274">
        <ele>1403.18</ele>
        <time>2016-01-23T10:57:25Z</time>
      </trkpt>
      <trkpt lat="45.87342" lon="6.52723">
        <ele>1401.26</ele>
        <time>2016-01-23T10:57:29Z</time>
      </trkpt>
      <trkpt lat="45.87358" lon="6.52697">
        <ele>1395.97</ele>
        <time>2016-01-23T10:57:35Z</time>
      </trkpt>
      <trkpt lat="45.87381" lon="6.52702">
        <ele>1391.17</ele>
        <time>2016-01-23T10:57:40Z</time>
      </trkpt>
      <trkpt lat="45.8738" lon="6.52706">
        <ele>1391.17</ele>
        <time>2016-01-23T10:57:50Z</time>
      </trkpt>
      <trkpt lat="45.87382" lon="6.52733">
        <ele>1389.72</ele>
        <time>2016-01-23T10:57:56Z</time>
      </trkpt>
      <trkpt lat="45.87384" lon="6.52748">
        <ele>1389.24</ele>
        <time>2016-01-23T10:57:58Z</time>
      </trkpt>
      <trkpt lat="45.87418" lon="6.52773">
        <ele>1384.92</ele>
        <time>2016-01-23T10:58:05Z</time>
      </trkpt>
      <trkpt lat="45.87423" lon="6.52775">
        <ele>1384.44</ele>
        <time>2016-01-23T10:58:06Z</time>
      </trkpt>
      <trkpt lat="45.87436" lon="6.52778">
        <ele>1382.99</ele>
        <time>2016-01-23T10:58:08Z</time>
      </trkpt>
      <trkpt lat="45.87462" lon="6.52805">
        <ele>1378.19</ele>
        <time>2016-01-23T10:58:13Z</time>
      </trkpt>
      <trkpt lat="45.87473" lon="6.52829">
        <ele>1375.78</ele>
        <time>2016-01-23T10:58:16Z</time>
      </trkpt>
      <trkpt lat="45.87508" lon="6.52852">
        <ele>1370.98</ele>
        <time>2016-01-23T10:58:22Z</time>
      </trkpt>
      <trkpt lat="45.87536" lon="6.5287">
        <ele>1365.21</ele>
        <time>2016-01-23T10:58:26Z</time>
      </trkpt>
      <trkpt lat="45.87541" lon="6.52878">
        <ele>1365.69</ele>
        <time>2016-01-23T10:58:27Z</time>
      </trkpt>
      <trkpt lat="45.87559" lon="6.52899">
        <ele>1362.33</ele>
        <time>2016-01-23T10:58:30Z</time>
      </trkpt>
      <trkpt lat="45.87568" lon="6.52901">
        <ele>1361.36</ele>
        <time>2016-01-23T10:58:31Z</time>
      </trkpt>
      <trkpt lat="45.87601" lon="6.52902">
        <ele>1358.96</ele>
        <time>2016-01-23T10:58:35Z</time>
      </trkpt>
      <trkpt lat="45.87627" lon="6.52906">
        <ele>1354.63</ele>
        <time>2016-01-23T10:58:38Z</time>
      </trkpt>
      <trkpt lat="45.87635" lon="6.52908">
        <ele>1352.71</ele>
        <time>2016-01-23T10:58:39Z</time>
      </trkpt>
      <trkpt lat="45.87671" lon="6.5291">
        <ele>1348.39</ele>
        <time>2016-01-23T10:58:44Z</time>
      </trkpt>
      <trkpt lat="45.87677" lon="6.5291">
        <ele>1346.94</ele>
        <time>2016-01-23T10:58:45Z</time>
      </trkpt>
      <trkpt lat="45.87682" lon="6.5291">
        <ele>1346.94</ele>
        <time>2016-01-23T10:58:46Z</time>
      </trkpt>
      <trkpt lat="45.87685" lon="6.52911">
        <ele>1345.5</ele>
        <time>2016-01-23T10:58:47Z</time>
      </trkpt>
      <trkpt lat="45.87685" lon="6.5291">
        <ele>1344.54</ele>
        <time>2016-01-23T10:58:49Z</time>
      </trkpt>
      <trkpt lat="45.87684" lon="6.52911">
        <ele>1344.54</ele>
        <time>2016-01-23T10:58:55Z</time>
      </trkpt>
      <trkpt lat="45.87689" lon="6.52897">
        <ele>1341.18</ele>
        <time>2016-01-23T10:58:59Z</time>
      </trkpt>
      <trkpt lat="45.87691" lon="6.52893">
        <ele>1341.18</ele>
        <time>2016-01-23T10:59:00Z</time>
      </trkpt>
      <trkpt lat="45.87696" lon="6.52887">
        <ele>1337.81</ele>
        <time>2016-01-23T10:59:01Z</time>
      </trkpt>
      <trkpt lat="45.87702" lon="6.5288">
        <ele>1334.45</ele>
        <time>2016-01-23T10:59:02Z</time>
      </trkpt>
      <trkpt lat="45.87718" lon="6.52862">
        <ele>1323.39</ele>
        <time>2016-01-23T10:59:05Z</time>
      </trkpt>
      <trkpt lat="45.87723" lon="6.52857">
        <ele>1318.1</ele>
        <time>2016-01-23T10:59:06Z</time>
      </trkpt>
      <trkpt lat="45.87727" lon="6.52852">
        <ele>1315.7</ele>
        <time>2016-01-23T10:59:07Z</time>
      </trkpt>
      <trkpt lat="45.87744" lon="6.52856">
        <ele>1308.49</ele>
        <time>2016-01-23T10:59:10Z</time>
      </trkpt>
      <trkpt lat="45.87756" lon="6.52861">
        <ele>1305.13</ele>
        <time>2016-01-23T10:59:12Z</time>
      </trkpt>
      <trkpt lat="45.8777" lon="6.52863">
        <ele>1299.36</ele>
        <time>2016-01-23T10:59:14Z</time>
      </trkpt>
      <trkpt lat="45.87792" lon="6.52869">
        <ele>1290.71</ele>
        <time>2016-01-23T10:59:17Z</time>
      </trkpt>
      <trkpt lat="45.87806" lon="6.52868">
        <ele>1286.86</ele>
        <time>2016-01-23T10:59:19Z</time>
      </trkpt>
      <trkpt lat="45.87813" lon="6.52865">
        <ele>1281.09</ele>
        <time>2016-01-23T10:59:20Z</time>
      </trkpt>
      <trkpt lat="45.87816" lon="6.52861">
        <ele>1276.29</ele>
        <time>2016-01-23T10:59:21Z</time>
      </trkpt>
      <trkpt lat="45.87818" lon="6.52857">
        <ele>1272.92</ele>
        <time>2016-01-23T10:59:22Z</time>
      </trkpt>
      <trkpt lat="45.87821" lon="6.52853">
        <ele>1272.44</ele>
        <time>2016-01-23T10:59:24Z</time>
      </trkpt>
      <trkpt lat="45.87815" lon="6.52851">
        <ele>1271</ele>
        <time>2016-01-23T10:59:31Z</time>
      </trkpt>
      <trkpt lat="45.87815" lon="6.52854">
        <ele>1271.48</ele>
        <time>2016-01-23T10:59:47Z</time>
      </trkpt>
      <trkpt lat="45.87818" lon="6.52849">
        <ele>1270.04</ele>
        <time>2016-01-23T10:59:59Z</time>
      </trkpt>
      <trkpt lat="45.87819" lon="6.52847">
        <ele>1269.56</ele>
        <time>2016-01-23T11:00:24Z</time>
      </trkpt>
      <trkpt lat="45.87827" lon="6.52844">
        <ele>1268.6</ele>
        <time>2016-01-23T11:00:35Z</time>
      </trkpt>
      <trkpt lat="45.87828" lon="6.52844">
        <ele>1268.6</ele>
        <time>2016-01-23T11:00:37Z</time>
      </trkpt>
      <trkpt lat="45.87846" lon="6.52828">
        <ele>1264.27</ele>
        <time>2016-01-23T11:00:42Z</time>
      </trkpt>
      <trkpt lat="45.87855" lon="6.52822">
        <ele>1260.43</ele>
        <time>2016-01-23T11:00:43Z</time>
      </trkpt>
      <trkpt lat="45.87882" lon="6.52801">
        <ele>1249.37</ele>
        <time>2016-01-23T11:00:46Z</time>
      </trkpt>
      <trkpt lat="45.8789" lon="6.52793">
        <ele>1246.01</ele>
        <time>2016-01-23T11:00:47Z</time>
      </trkpt>
      <trkpt lat="45.8789" lon="6.52776">
        <ele>1242.64</ele>
        <time>2016-01-23T11:00:49Z</time>
      </trkpt>
      <trkpt lat="45.87884" lon="6.52766">
        <ele>1242.64</ele>
        <time>2016-01-23T11:00:50Z</time>
      </trkpt>
      <trkpt lat="45.87857" lon="6.52721">
        <ele>1234.47</ele>
        <time>2016-01-23T11:00:54Z</time>
      </trkpt>
      <trkpt lat="45.87849" lon="6.52704">
        <ele>1229.66</ele>
        <time>2016-01-23T11:00:56Z</time>
      </trkpt>
      <trkpt lat="45.87827" lon="6.52685">
        <ele>1228.7</ele>
        <time>2016-01-23T11:01:05Z</time>
      </trkpt>
      <trkpt lat="45.87824" lon="6.52684">
        <ele>1228.22</ele>
        <time>2016-01-23T11:01:15Z</time>
      </trkpt>
      <trkpt lat="45.87827" lon="6.52675">
        <ele>1228.22</ele>
        <time>2016-01-23T11:01:18Z</time>
      </trkpt>
      <trkpt lat="45.87849" lon="6.52651">
        <ele>1226.78</ele>
        <time>2016-01-23T11:01:22Z</time>
      </trkpt>
      <trkpt lat="45.87874" lon="6.52635">
        <ele>1222.45</ele>
        <time>2016-01-23T11:01:26Z</time>
      </trkpt>
      <trkpt lat="45.87879" lon="6.52632">
        <ele>1222.45</ele>
        <time>2016-01-23T11:01:27Z</time>
      </trkpt>
      <trkpt lat="45.87901" lon="6.5262">
        <ele>1221.49</ele>
        <time>2016-01-23T11:01:36Z</time>
      </trkpt>
      <trkpt lat="45.87901" lon="6.52617">
        <ele>1221.49</ele>
        <time>2016-01-23T11:01:47Z</time>
      </trkpt>
      <trkpt lat="45.87899" lon="6.52615">
        <ele>1221.01</ele>
        <time>2016-01-23T11:02:02Z</time>
      </trkpt>
      <trkpt lat="45.87903" lon="6.52609">
        <ele>1221.97</ele>
        <time>2016-01-23T11:02:13Z</time>
      </trkpt>
      <trkpt lat="45.87905" lon="6.52609">
        <ele>1222.93</ele>
        <time>2016-01-23T11:02:18Z</time>
      </trkpt>
      <trkpt lat="45.87902" lon="6.52615">
        <ele>1222.93</ele>
        <time>2016-01-23T11:02:24Z</time>
      </trkpt>
      <trkpt lat="45.87904" lon="6.5262">
        <ele>1222.93</ele>
        <time>2016-01-23T11:02:28Z</time>
      </trkpt>
      <trkpt lat="45.87911" lon="6.52618">
        <ele>1223.42</ele>
        <time>2016-01-23T11:02:42Z</time>
      </trkpt>
      <trkpt lat="45.87913" lon="6.52612">
        <ele>1223.42</ele>
        <time>2016-01-23T11:02:51Z</time>
      </trkpt>
      <trkpt lat="45.87916" lon="6.52611">
        <ele>1222.93</ele>
        <time>2016-01-23T11:03:06Z</time>
      </trkpt>
      <trkpt lat="45.87917" lon="6.5261">
        <ele>1222.93</ele>
        <time>2016-01-23T11:03:22Z</time>
      </trkpt>
      <trkpt lat="45.87917" lon="6.52611">
        <ele>1222.93</ele>
        <time>2016-01-23T11:03:36Z</time>
      </trkpt>
      <trkpt lat="45.87917" lon="6.52611">
        <ele>1223.42</ele>
        <time>2016-01-23T11:03:56Z</time>
      </trkpt>
      <trkpt lat="45.87913" lon="6.52614">
        <ele>1223.42</ele>
        <time>2016-01-23T11:04:15Z</time>
      </trkpt>
      <trkpt lat="45.87913" lon="6.52612">
        <ele>1223.42</ele>
        <time>2016-01-23T11:04:36Z</time>
      </trkpt>
      <trkpt lat="45.87913" lon="6.52611">
        <ele>1223.42</ele>
        <time>2016-01-23T11:05:00Z</time>
      </trkpt>
      <trkpt lat="45.87913" lon="6.5261">
        <ele>1222.93</ele>
        <time>2016-01-23T11:05:19Z</time>
      </trkpt>
      <trkpt lat="45.87915" lon="6.52611">
        <ele>1222.93</ele>
        <time>2016-01-23T11:05:45Z</time>
      </trkpt>
      <trkpt lat="45.87915" lon="6.52611">
        <ele>1222.93</ele>
        <time>2016-01-23T11:06:04Z</time>
      </trkpt>
      <trkpt lat="45.87915" lon="6.52611">
        <ele>1222.93</ele>
        <time>2016-01-23T11:06:28Z</time>
      </trkpt>
      <trkpt lat="45.87916" lon="6.52611">
        <ele>1222.93</ele>
        <time>2016-01-23T11:06:45Z</time>
      </trkpt>
      <trkpt lat="45.87916" lon="6.52612">
        <ele>1222.93</ele>
        <time>2016-01-23T11:07:06Z</time>
      </trkpt>
      <trkpt lat="45.87914" lon="6.52611">
        <ele>1222.45</ele>
        <time>2016-01-23T11:07:29Z</time>
      </trkpt>
      <trkpt lat="45.87917" lon="6.5261">
        <ele>1222.45</ele>
        <time>2016-01-23T11:07:55Z</time>
      </trkpt>
      <trkpt lat="45.87916" lon="6.5261">
        <ele>1222.45</ele>
        <time>2016-01-23T11:08:18Z</time>
      </trkpt>
      <trkpt lat="45.87914" lon="6.52611">
        <ele>1222.45</ele>
        <time>2016-01-23T11:08:43Z</time>
      </trkpt>
      <trkpt lat="45.87913" lon="6.52613">
        <ele>1221.97</ele>
        <time>2016-01-23T11:09:06Z</time>
      </trkpt>
      <trkpt lat="45.87914" lon="6.52613">
        <ele>1221.97</ele>
        <time>2016-01-23T11:09:29Z</time>
      </trkpt>
      <trkpt lat="45.87916" lon="6.5261">
        <ele>1221.97</ele>
        <time>2016-01-23T11:09:58Z</time>
      </trkpt>
      <trkpt lat="45.87916" lon="6.52609">
        <ele>1221.97</ele>
        <time>2016-01-23T11:10:14Z</time>
      </trkpt>
      <trkpt lat="45.87913" lon="6.5261">
        <ele>1221.49</ele>
        <time>2016-01-23T11:10:42Z</time>
      </trkpt>
      <trkpt lat="45.87907" lon="6.52614">
        <ele>1221.49</ele>
        <time>2016-01-23T11:11:08Z</time>
      </trkpt>
      <trkpt lat="45.87906" lon="6.52617">
        <ele>1221.97</ele>
        <time>2016-01-23T11:11:34Z</time>
      </trkpt>
      <trkpt lat="45.87907" lon="6.52616">
        <ele>1221.49</ele>
        <time>2016-01-23T11:11:50Z</time>
      </trkpt>
      <trkpt lat="45.87909" lon="6.52615">
        <ele>1221.49</ele>
        <time>2016-01-23T11:12:20Z</time>
      </trkpt>
      <trkpt lat="45.87914" lon="6.52611">
        <ele>1221.49</ele>
        <time>2016-01-23T11:12:33Z</time>
      </trkpt>
      <trkpt lat="45.87915" lon="6.5261">
        <ele>1221.49</ele>
        <time>2016-01-23T11:12:55Z</time>
      </trkpt>
      <trkpt lat="45.87914" lon="6.52609">
        <ele>1221.49</ele>
        <time>2016-01-23T11:13:12Z</time>
      </trkpt>
      <trkpt lat="45.87914" lon="6.52609">
        <ele>1220.05</ele>
        <time>2016-01-23T11:13:21Z</time>
      </trkpt>
      <trkpt lat="45.87913" lon="6.52609">
        <ele>1220.05</ele>
        <time>2016-01-23T11:13:47Z</time>
      </trkpt>
      <trkpt lat="45.87914" lon="6.52609">
        <ele>1219.57</ele>
        <time>2016-01-23T11:14:22Z</time>
      </trkpt>
      <trkpt lat="45.87913" lon="6.52611">
        <ele>1219.57</ele>
        <time>2016-01-23T11:14:50Z</time>
      </trkpt>
      <trkpt lat="45.87913" lon="6.5261">
        <ele>1219.09</ele>
        <time>2016-01-23T11:15:33Z</time>
      </trkpt>
      <trkpt lat="45.87915" lon="6.52612">
        <ele>1219.09</ele>
        <time>2016-01-23T11:16:15Z</time>
      </trkpt>
      <trkpt lat="45.87916" lon="6.52609">
        <ele>1218.61</ele>
        <time>2016-01-23T11:16:52Z</time>
      </trkpt>
      <trkpt lat="45.87914" lon="6.52613">
        <ele>1218.13</ele>
        <time>2016-01-23T11:17:25Z</time>
      </trkpt>
      <trkpt lat="45.87912" lon="6.52613">
        <ele>1218.13</ele>
        <time>2016-01-23T11:18:03Z</time>
      </trkpt>
      <trkpt lat="45.87913" lon="6.52611">
        <ele>1218.13</ele>
        <time>2016-01-23T11:18:45Z</time>
      </trkpt>
      <trkpt lat="45.87916" lon="6.52615">
        <ele>1217.65</ele>
        <time>2016-01-23T11:19:30Z</time>
      </trkpt>
      <trkpt lat="45.87915" lon="6.52615">
        <ele>1217.17</ele>
        <time>2016-01-23T11:20:03Z</time>
      </trkpt>
      <trkpt lat="45.87914" lon="6.52613">
        <ele>1217.17</ele>
        <time>2016-01-23T11:20:34Z</time>
      </trkpt>
      <trkpt lat="45.87914" lon="6.52613">
        <ele>1217.17</ele>
        <time>2016-01-23T11:21:12Z</time>
      </trkpt>
      <trkpt lat="45.87915" lon="6.52611">
        <ele>1217.17</ele>
        <time>2016-01-23T11:21:53Z</time>
      </trkpt>
      <trkpt lat="45.87914" lon="6.52612">
        <ele>1216.69</ele>
        <time>2016-01-23T11:22:37Z</time>
      </trkpt>
      <trkpt lat="45.87912" lon="6.52616">
        <ele>1216.69</ele>
        <time>2016-01-23T11:23:14Z</time>
      </trkpt>
      <trkpt lat="45.87911" lon="6.52615">
        <ele>1216.69</ele>
        <time>2016-01-23T11:23:50Z</time>
      </trkpt>
      <trkpt lat="45.87913" lon="6.52613">
        <ele>1216.69</ele>
        <time>2016-01-23T11:24:25Z</time>
      </trkpt>
      <trkpt lat="45.87911" lon="6.52617">
        <ele>1216.69</ele>
        <time>2016-01-23T11:25:00Z</time>
      </trkpt>
      <trkpt lat="45.8791" lon="6.52615">
        <ele>1216.69</ele>
        <time>2016-01-23T11:25:34Z</time>
      </trkpt>
      <trkpt lat="45.87914" lon="6.52611">
        <ele>1216.21</ele>
        <time>2016-01-23T11:26:12Z</time>
      </trkpt>
      <trkpt lat="45.87914" lon="6.52609">
        <ele>1216.21</ele>
        <time>2016-01-23T11:26:48Z</time>
      </trkpt>
      <trkpt lat="45.87915" lon="6.52607">
        <ele>1216.21</ele>
        <time>2016-01-23T11:27:20Z</time>
      </trkpt>
      <trkpt lat="45.87914" lon="6.52614">
        <ele>1216.21</ele>
        <time>2016-01-23T11:27:50Z</time>
      </trkpt>
      <trkpt lat="45.87914" lon="6.52616">
        <ele>1215.72</ele>
        <time>2016-01-23T11:28:29Z</time>
      </trkpt>
      <trkpt lat="45.87912" lon="6.52615">
        <ele>1215.72</ele>
        <time>2016-01-23T11:29:09Z</time>
      </trkpt>
      <trkpt lat="45.87913" lon="6.52616">
        <ele>1215.72</ele>
        <time>2016-01-23T11:29:49Z</time>
      </trkpt>
      <trkpt lat="45.87913" lon="6.52618">
        <ele>1217.17</ele>
        <time>2016-01-23T11:30:23Z</time>
      </trkpt>
      <trkpt lat="45.87916" lon="6.52619">
        <ele>1216.69</ele>
        <time>2016-01-23T11:31:00Z</time>
      </trkpt>
      <trkpt lat="45.87921" lon="6.5261">
        <ele>1217.17</ele>
        <time>2016-01-23T11:31:35Z</time>
      </trkpt>
      <trkpt lat="45.87916" lon="6.52613">
        <ele>1216.69</ele>
        <time>2016-01-23T11:32:12Z</time>
      </trkpt>
      <trkpt lat="45.87916" lon="6.52612">
        <ele>1218.13</ele>
        <time>2016-01-23T11:32:37Z</time>
      </trkpt>
      <trkpt lat="45.87918" lon="6.52611">
        <ele>1218.13</ele>
        <time>2016-01-23T11:33:09Z</time>
      </trkpt>
      <trkpt lat="45.87918" lon="6.52612">
        <ele>1218.13</ele>
        <time>2016-01-23T11:33:35Z</time>
      </trkpt>
      <trkpt lat="45.87916" lon="6.52613">
        <ele>1218.13</ele>
        <time>2016-01-23T11:34:05Z</time>
      </trkpt>
      <trkpt lat="45.87915" lon="6.52617">
        <ele>1217.65</ele>
        <time>2016-01-23T11:34:23Z</time>
      </trkpt>
      <trkpt lat="45.87913" lon="6.52623">
        <ele>1217.65</ele>
        <time>2016-01-23T11:34:58Z</time>
      </trkpt>
      <trkpt lat="45.87914" lon="6.52616">
        <ele>1217.65</ele>
        <time>2016-01-23T11:35:35Z</time>
      </trkpt>
      <trkpt lat="45.87915" lon="6.52611">
        <ele>1217.65</ele>
        <time>2016-01-23T11:36:10Z</time>
      </trkpt>
      <trkpt lat="45.87915" lon="6.52611">
        <ele>1217.65</ele>
        <time>2016-01-23T11:36:42Z</time>
      </trkpt>
      <trkpt lat="45.87915" lon="6.5261">
        <ele>1217.65</ele>
        <time>2016-01-23T11:37:12Z</time>
      </trkpt>
      <trkpt lat="45.87916" lon="6.5261">
        <ele>1217.65</ele>
        <time>2016-01-23T11:37:18Z</time>
      </trkpt>
      <trkpt lat="45.87913" lon="6.52614">
        <ele>1217.65</ele>
        <time>2016-01-23T11:37:27Z</time>
      </trkpt>
      <trkpt lat="45.8791" lon="6.52619">
        <ele>1217.65</ele>
        <time>2016-01-23T11:37:46Z</time>
      </trkpt>
      <trkpt lat="45.87909" lon="6.52622">
        <ele>1218.13</ele>
        <time>2016-01-23T11:38:01Z</time>
      </trkpt>
      <trkpt lat="45.8791" lon="6.52623">
        <ele>1218.13</ele>
        <time>2016-01-23T11:38:09Z</time>
      </trkpt>
      <trkpt lat="45.87909" lon="6.52626">
        <ele>1218.13</ele>
        <time>2016-01-23T11:38:11Z</time>
      </trkpt>
      <trkpt lat="45.87896" lon="6.52625">
        <ele>1215.72</ele>
        <time>2016-01-23T11:38:16Z</time>
      </trkpt>
      <trkpt lat="45.8788" lon="6.52611">
        <ele>1213.8</ele>
        <time>2016-01-23T11:38:24Z</time>
      </trkpt>
      <trkpt lat="45.87875" lon="6.52611">
        <ele>1213.8</ele>
        <time>2016-01-23T11:38:35Z</time>
      </trkpt>
      <trkpt lat="45.87872" lon="6.5261">
        <ele>1213.8</ele>
        <time>2016-01-23T11:38:44Z</time>
      </trkpt>
      <trkpt lat="45.87868" lon="6.52611">
        <ele>1213.8</ele>
        <time>2016-01-23T11:38:56Z</time>
      </trkpt>
      <trkpt lat="45.87856" lon="6.52612">
        <ele>1213.32</ele>
        <time>2016-01-23T11:39:08Z</time>
      </trkpt>
      <trkpt lat="45.87845" lon="6.52616">
        <ele>1216.21</ele>
        <time>2016-01-23T11:39:13Z</time>
      </trkpt>
      <trkpt lat="45.87835" lon="6.52619">
        <ele>1219.57</ele>
        <time>2016-01-23T11:39:18Z</time>
      </trkpt>
      <trkpt lat="45.87826" lon="6.52622">
        <ele>1222.93</ele>
        <time>2016-01-23T11:39:23Z</time>
      </trkpt>
      <trkpt lat="45.87817" lon="6.52625">
        <ele>1226.3</ele>
        <time>2016-01-23T11:39:28Z</time>
      </trkpt>
      <trkpt lat="45.87809" lon="6.52627">
        <ele>1230.14</ele>
        <time>2016-01-23T11:39:33Z</time>
      </trkpt>
      <trkpt lat="45.87803" lon="6.5263">
        <ele>1233.03</ele>
        <time>2016-01-23T11:39:37Z</time>
      </trkpt>
      <trkpt lat="45.87795" lon="6.52632">
        <ele>1236.87</ele>
        <time>2016-01-23T11:39:42Z</time>
      </trkpt>
      <trkpt lat="45.87789" lon="6.52634">
        <ele>1240.24</ele>
        <time>2016-01-23T11:39:46Z</time>
      </trkpt>
      <trkpt lat="45.87783" lon="6.52635">
        <ele>1243.12</ele>
        <time>2016-01-23T11:39:50Z</time>
      </trkpt>
      <trkpt lat="45.87777" lon="6.52637">
        <ele>1246.49</ele>
        <time>2016-01-23T11:39:54Z</time>
      </trkpt>
      <trkpt lat="45.8777" lon="6.5264">
        <ele>1249.85</ele>
        <time>2016-01-23T11:39:59Z</time>
      </trkpt>
      <trkpt lat="45.87761" lon="6.52643">
        <ele>1253.22</ele>
        <time>2016-01-23T11:40:05Z</time>
      </trkpt>
      <trkpt lat="45.87753" lon="6.52645">
        <ele>1256.58</ele>
        <time>2016-01-23T11:40:10Z</time>
      </trkpt>
      <trkpt lat="45.87745" lon="6.52649">
        <ele>1259.46</ele>
        <time>2016-01-23T11:40:15Z</time>
      </trkpt>
      <trkpt lat="45.87736" lon="6.52652">
        <ele>1262.83</ele>
        <time>2016-01-23T11:40:20Z</time>
      </trkpt>
      <trkpt lat="45.87728" lon="6.52655">
        <ele>1266.67</ele>
        <time>2016-01-23T11:40:25Z</time>
      </trkpt>
      <trkpt lat="45.87721" lon="6.52658">
        <ele>1270.04</ele>
        <time>2016-01-23T11:40:30Z</time>
      </trkpt>
      <trkpt lat="45.87715" lon="6.52661">
        <ele>1273.4</ele>
        <time>2016-01-23T11:40:36Z</time>
      </trkpt>
      <trkpt lat="45.87708" lon="6.52663">
        <ele>1277.25</ele>
        <time>2016-01-23T11:40:41Z</time>
      </trkpt>
      <trkpt lat="45.87702" lon="6.52665">
        <ele>1280.13</ele>
        <time>2016-01-23T11:40:45Z</time>
      </trkpt>
      <trkpt lat="45.87697" lon="6.52667">
        <ele>1283.5</ele>
        <time>2016-01-23T11:40:49Z</time>
      </trkpt>
      <trkpt lat="45.87691" lon="6.5267">
        <ele>1286.86</ele>
        <time>2016-01-23T11:40:53Z</time>
      </trkpt>
      <trkpt lat="45.87684" lon="6.52671">
        <ele>1290.23</ele>
        <time>2016-01-23T11:40:57Z</time>
      </trkpt>
      <trkpt lat="45.87678" lon="6.52673">
        <ele>1293.59</ele>
        <time>2016-01-23T11:41:01Z</time>
      </trkpt>
      <trkpt lat="45.87673" lon="6.52675">
        <ele>1296.96</ele>
        <time>2016-01-23T11:41:05Z</time>
      </trkpt>
      <trkpt lat="45.87667" lon="6.52676">
        <ele>1300.32</ele>
        <time>2016-01-23T11:41:09Z</time>
      </trkpt>
      <trkpt lat="45.87662" lon="6.52679">
        <ele>1303.69</ele>
        <time>2016-01-23T11:41:13Z</time>
      </trkpt>
      <trkpt lat="45.87654" lon="6.5268">
        <ele>1307.05</ele>
        <time>2016-01-23T11:41:18Z</time>
      </trkpt>
      <trkpt lat="45.87646" lon="6.52684">
        <ele>1309.93</ele>
        <time>2016-01-23T11:41:23Z</time>
      </trkpt>
      <trkpt lat="45.87638" lon="6.52687">
        <ele>1313.78</ele>
        <time>2016-01-23T11:41:28Z</time>
      </trkpt>
      <trkpt lat="45.87632" lon="6.52691">
        <ele>1316.66</ele>
        <time>2016-01-23T11:41:32Z</time>
      </trkpt>
      <trkpt lat="45.87623" lon="6.52694">
        <ele>1320.03</ele>
        <time>2016-01-23T11:41:37Z</time>
      </trkpt>
      <trkpt lat="45.87617" lon="6.52698">
        <ele>1323.39</ele>
        <time>2016-01-23T11:41:41Z</time>
      </trkpt>
      <trkpt lat="45.87611" lon="6.52701">
        <ele>1326.76</ele>
        <time>2016-01-23T11:41:45Z</time>
      </trkpt>
      <trkpt lat="45.87599" lon="6.52706">
        <ele>1330.12</ele>
        <time>2016-01-23T11:41:52Z</time>
      </trkpt>
      <trkpt lat="45.87579" lon="6.52714">
        <ele>1333.49</ele>
        <time>2016-01-23T11:42:03Z</time>
      </trkpt>
      <trkpt lat="45.87566" lon="6.52719">
        <ele>1336.85</ele>
        <time>2016-01-23T11:42:11Z</time>
      </trkpt>
      <trkpt lat="45.87554" lon="6.52724">
        <ele>1340.22</ele>
        <time>2016-01-23T11:42:18Z</time>
      </trkpt>
      <trkpt lat="45.87543" lon="6.52728">
        <ele>1343.1</ele>
        <time>2016-01-23T11:42:24Z</time>
      </trkpt>
      <trkpt lat="45.87533" lon="6.52732">
        <ele>1345.98</ele>
        <time>2016-01-23T11:42:30Z</time>
      </trkpt>
      <trkpt lat="45.87527" lon="6.52734">
        <ele>1347.91</ele>
        <time>2016-01-23T11:42:34Z</time>
      </trkpt>
      <trkpt lat="45.87519" lon="6.52737">
        <ele>1351.27</ele>
        <time>2016-01-23T11:42:40Z</time>
      </trkpt>
      <trkpt lat="45.87518" lon="6.52737">
        <ele>1351.27</ele>
        <time>2016-01-23T11:42:41Z</time>
      </trkpt>
      <trkpt lat="45.8751" lon="6.5274">
        <ele>1355.12</ele>
        <time>2016-01-23T11:42:46Z</time>
      </trkpt>
      <trkpt lat="45.87502" lon="6.52743">
        <ele>1358</ele>
        <time>2016-01-23T11:42:51Z</time>
      </trkpt>
      <trkpt lat="45.87493" lon="6.52746">
        <ele>1361.36</ele>
        <time>2016-01-23T11:42:56Z</time>
      </trkpt>
      <trkpt lat="45.87487" lon="6.52748">
        <ele>1363.29</ele>
        <time>2016-01-23T11:43:00Z</time>
      </trkpt>
      <trkpt lat="45.87479" lon="6.52752">
        <ele>1367.13</ele>
        <time>2016-01-23T11:43:05Z</time>
      </trkpt>
      <trkpt lat="45.87477" lon="6.52752">
        <ele>1367.13</ele>
        <time>2016-01-23T11:43:06Z</time>
      </trkpt>
      <trkpt lat="45.87471" lon="6.52755">
        <ele>1370.5</ele>
        <time>2016-01-23T11:43:10Z</time>
      </trkpt>
      <trkpt lat="45.87461" lon="6.52759">
        <ele>1373.38</ele>
        <time>2016-01-23T11:43:16Z</time>
      </trkpt>
      <trkpt lat="45.8745" lon="6.52763">
        <ele>1376.75</ele>
        <time>2016-01-23T11:43:23Z</time>
      </trkpt>
      <trkpt lat="45.87441" lon="6.52767">
        <ele>1379.15</ele>
        <time>2016-01-23T11:43:29Z</time>
      </trkpt>
      <trkpt lat="45.87432" lon="6.5277">
        <ele>1382.51</ele>
        <time>2016-01-23T11:43:35Z</time>
      </trkpt>
      <trkpt lat="45.87424" lon="6.52773">
        <ele>1385.88</ele>
        <time>2016-01-23T11:43:40Z</time>
      </trkpt>
      <trkpt lat="45.87415" lon="6.52777">
        <ele>1389.24</ele>
        <time>2016-01-23T11:43:45Z</time>
      </trkpt>
      <trkpt lat="45.87407" lon="6.52779">
        <ele>1392.13</ele>
        <time>2016-01-23T11:43:50Z</time>
      </trkpt>
      <trkpt lat="45.87399" lon="6.52782">
        <ele>1395.49</ele>
        <time>2016-01-23T11:43:55Z</time>
      </trkpt>
      <trkpt lat="45.87391" lon="6.52786">
        <ele>1398.86</ele>
        <time>2016-01-23T11:44:00Z</time>
      </trkpt>
      <trkpt lat="45.87384" lon="6.52789">
        <ele>1402.22</ele>
        <time>2016-01-23T11:44:05Z</time>
      </trkpt>
      <trkpt lat="45.87376" lon="6.52793">
        <ele>1405.58</ele>
        <time>2016-01-23T11:44:10Z</time>
      </trkpt>
      <trkpt lat="45.87366" lon="6.52797">
        <ele>1408.47</ele>
        <time>2016-01-23T11:44:16Z</time>
      </trkpt>
      <trkpt lat="45.87356" lon="6.52801">
        <ele>1411.83</ele>
        <time>2016-01-23T11:44:22Z</time>
      </trkpt>
      <trkpt lat="45.87346" lon="6.52804">
        <ele>1415.68</ele>
        <time>2016-01-23T11:44:28Z</time>
      </trkpt>
      <trkpt lat="45.87336" lon="6.52809">
        <ele>1419.52</ele>
        <time>2016-01-23T11:44:34Z</time>
      </trkpt>
      <trkpt lat="45.87335" lon="6.52809">
        <ele>1419.52</ele>
        <time>2016-01-23T11:44:35Z</time>
      </trkpt>
      <trkpt lat="45.87329" lon="6.52812">
        <ele>1422.41</ele>
        <time>2016-01-23T11:44:39Z</time>
      </trkpt>
      <trkpt lat="45.87308" lon="6.52821">
        <ele>1424.81</ele>
        <time>2016-01-23T11:44:50Z</time>
      </trkpt>
      <trkpt lat="45.87305" lon="6.52824">
        <ele>1424.81</ele>
        <time>2016-01-23T11:44:51Z</time>
      </trkpt>
      <trkpt lat="45.87303" lon="6.52828">
        <ele>1423.37</ele>
        <time>2016-01-23T11:44:52Z</time>
      </trkpt>
      <trkpt lat="45.873" lon="6.52831">
        <ele>1423.37</ele>
        <time>2016-01-23T11:44:53Z</time>
      </trkpt>
      <trkpt lat="45.87298" lon="6.52835">
        <ele>1423.37</ele>
        <time>2016-01-23T11:44:55Z</time>
      </trkpt>
      <trkpt lat="45.87294" lon="6.5283">
        <ele>1423.37</ele>
        <time>2016-01-23T11:45:05Z</time>
      </trkpt>
      <trkpt lat="45.87294" lon="6.52828">
        <ele>1423.37</ele>
        <time>2016-01-23T11:45:18Z</time>
      </trkpt>
      <trkpt lat="45.87295" lon="6.52825">
        <ele>1423.85</ele>
        <time>2016-01-23T11:45:31Z</time>
      </trkpt>
      <trkpt lat="45.87286" lon="6.52827">
        <ele>1423.85</ele>
        <time>2016-01-23T11:45:44Z</time>
      </trkpt>
      <trkpt lat="45.87283" lon="6.52828">
        <ele>1423.85</ele>
        <time>2016-01-23T11:45:45Z</time>
      </trkpt>
      <trkpt lat="45.87279" lon="6.52829">
        <ele>1423.85</ele>
        <time>2016-01-23T11:45:46Z</time>
      </trkpt>
      <trkpt lat="45.87277" lon="6.5283">
        <ele>1423.85</ele>
        <time>2016-01-23T11:45:47Z</time>
      </trkpt>
      <trkpt lat="45.87276" lon="6.5283">
        <ele>1423.85</ele>
        <time>2016-01-23T11:45:48Z</time>
      </trkpt>
      <trkpt lat="45.87273" lon="6.52831">
        <ele>1423.85</ele>
        <time>2016-01-23T11:45:49Z</time>
      </trkpt>
      <trkpt lat="45.87265" lon="6.52833">
        <ele>1427.7</ele>
        <time>2016-01-23T11:45:52Z</time>
      </trkpt>
      <trkpt lat="45.87259" lon="6.52837">
        <ele>1431.54</ele>
        <time>2016-01-23T11:45:55Z</time>
      </trkpt>
      <trkpt lat="45.87254" lon="6.5284">
        <ele>1435.39</ele>
        <time>2016-01-23T11:45:58Z</time>
      </trkpt>
      <trkpt lat="45.87248" lon="6.52843">
        <ele>1440.19</ele>
        <time>2016-01-23T11:46:01Z</time>
      </trkpt>
      <trkpt lat="45.87242" lon="6.52845">
        <ele>1444.52</ele>
        <time>2016-01-23T11:46:04Z</time>
      </trkpt>
      <trkpt lat="45.87237" lon="6.52847">
        <ele>1448.36</ele>
        <time>2016-01-23T11:46:07Z</time>
      </trkpt>
      <trkpt lat="45.87231" lon="6.52849">
        <ele>1451.73</ele>
        <time>2016-01-23T11:46:10Z</time>
      </trkpt>
      <trkpt lat="45.87223" lon="6.52852">
        <ele>1455.57</ele>
        <time>2016-01-23T11:46:14Z</time>
      </trkpt>
      <trkpt lat="45.87218" lon="6.52855">
        <ele>1458.46</ele>
        <time>2016-01-23T11:46:17Z</time>
      </trkpt>
      <trkpt lat="45.87211" lon="6.52857">
        <ele>1461.82</ele>
        <time>2016-01-23T11:46:20Z</time>
      </trkpt>
      <trkpt lat="45.87205" lon="6.52859">
        <ele>1464.71</ele>
        <time>2016-01-23T11:46:23Z</time>
      </trkpt>
      <trkpt lat="45.87199" lon="6.52862">
        <ele>1468.07</ele>
        <time>2016-01-23T11:46:26Z</time>
      </trkpt>
      <trkpt lat="45.87193" lon="6.52863">
        <ele>1471.44</ele>
        <time>2016-01-23T11:46:29Z</time>
      </trkpt>
      <trkpt lat="45.87186" lon="6.52866">
        <ele>1474.8</ele>
        <time>2016-01-23T11:46:32Z</time>
      </trkpt>
      <trkpt lat="45.8718" lon="6.52868">
        <ele>1478.65</ele>
        <time>2016-01-23T11:46:35Z</time>
      </trkpt>
      <trkpt lat="45.87174" lon="6.5287">
        <ele>1482.01</ele>
        <time>2016-01-23T11:46:38Z</time>
      </trkpt>
      <trkpt lat="45.87167" lon="6.52872">
        <ele>1485.85</ele>
        <time>2016-01-23T11:46:41Z</time>
      </trkpt>
      <trkpt lat="45.87161" lon="6.52875">
        <ele>1489.7</ele>
        <time>2016-01-23T11:46:44Z</time>
      </trkpt>
      <trkpt lat="45.87155" lon="6.52877">
        <ele>1493.06</ele>
        <time>2016-01-23T11:46:47Z</time>
      </trkpt>
      <trkpt lat="45.87149" lon="6.5288">
        <ele>1496.91</ele>
        <time>2016-01-23T11:46:50Z</time>
      </trkpt>
      <trkpt lat="45.87143" lon="6.52883">
        <ele>1500.27</ele>
        <time>2016-01-23T11:46:53Z</time>
      </trkpt>
      <trkpt lat="45.87137" lon="6.52885">
        <ele>1504.12</ele>
        <time>2016-01-23T11:46:56Z</time>
      </trkpt>
      <trkpt lat="45.87132" lon="6.52888">
        <ele>1507.97</ele>
        <time>2016-01-23T11:46:59Z</time>
      </trkpt>
      <trkpt lat="45.87124" lon="6.52891">
        <ele>1511.33</ele>
        <time>2016-01-23T11:47:03Z</time>
      </trkpt>
      <trkpt lat="45.87115" lon="6.52894">
        <ele>1515.18</ele>
        <time>2016-01-23T11:47:07Z</time>
      </trkpt>
      <trkpt lat="45.87106" lon="6.52897">
        <ele>1518.54</ele>
        <time>2016-01-23T11:47:11Z</time>
      </trkpt>
      <trkpt lat="45.87099" lon="6.52901">
        <ele>1521.9</ele>
        <time>2016-01-23T11:47:15Z</time>
      </trkpt>
      <trkpt lat="45.8709" lon="6.52903">
        <ele>1525.27</ele>
        <time>2016-01-23T11:47:20Z</time>
      </trkpt>
      <trkpt lat="45.87083" lon="6.52906">
        <ele>1529.11</ele>
        <time>2016-01-23T11:47:25Z</time>
      </trkpt>
      <trkpt lat="45.87077" lon="6.52908">
        <ele>1532.48</ele>
        <time>2016-01-23T11:47:29Z</time>
      </trkpt>
      <trkpt lat="45.8707" lon="6.52909">
        <ele>1535.36</ele>
        <time>2016-01-23T11:47:33Z</time>
      </trkpt>
      <trkpt lat="45.87064" lon="6.52911">
        <ele>1539.21</ele>
        <time>2016-01-23T11:47:37Z</time>
      </trkpt>
      <trkpt lat="45.87058" lon="6.52914">
        <ele>1542.57</ele>
        <time>2016-01-23T11:47:41Z</time>
      </trkpt>
      <trkpt lat="45.8705" lon="6.52915">
        <ele>1545.94</ele>
        <time>2016-01-23T11:47:45Z</time>
      </trkpt>
      <trkpt lat="45.87044" lon="6.52917">
        <ele>1549.3</ele>
        <time>2016-01-23T11:47:49Z</time>
      </trkpt>
      <trkpt lat="45.87038" lon="6.5292">
        <ele>1552.67</ele>
        <time>2016-01-23T11:47:53Z</time>
      </trkpt>
      <trkpt lat="45.87032" lon="6.52923">
        <ele>1556.51</ele>
        <time>2016-01-23T11:47:57Z</time>
      </trkpt>
      <trkpt lat="45.87025" lon="6.52927">
        <ele>1560.36</ele>
        <time>2016-01-23T11:48:01Z</time>
      </trkpt>
      <trkpt lat="45.8702" lon="6.52929">
        <ele>1564.2</ele>
        <time>2016-01-23T11:48:04Z</time>
      </trkpt>
      <trkpt lat="45.87014" lon="6.52932">
        <ele>1567.57</ele>
        <time>2016-01-23T11:48:07Z</time>
      </trkpt>
      <trkpt lat="45.87007" lon="6.52934">
        <ele>1571.41</ele>
        <time>2016-01-23T11:48:10Z</time>
      </trkpt>
      <trkpt lat="45.87001" lon="6.52935">
        <ele>1574.78</ele>
        <time>2016-01-23T11:48:13Z</time>
      </trkpt>
      <trkpt lat="45.86994" lon="6.52937">
        <ele>1578.62</ele>
        <time>2016-01-23T11:48:16Z</time>
      </trkpt>
      <trkpt lat="45.86988" lon="6.52938">
        <ele>1581.99</ele>
        <time>2016-01-23T11:48:19Z</time>
      </trkpt>
      <trkpt lat="45.86982" lon="6.5294">
        <ele>1585.83</ele>
        <time>2016-01-23T11:48:22Z</time>
      </trkpt>
      <trkpt lat="45.86977" lon="6.52942">
        <ele>1589.68</ele>
        <time>2016-01-23T11:48:25Z</time>
      </trkpt>
      <trkpt lat="45.86968" lon="6.52945">
        <ele>1593.04</ele>
        <time>2016-01-23T11:48:29Z</time>
      </trkpt>
      <trkpt lat="45.8696" lon="6.52948">
        <ele>1595.45</ele>
        <time>2016-01-23T11:48:33Z</time>
      </trkpt>
      <trkpt lat="45.86951" lon="6.52952">
        <ele>1598.33</ele>
        <time>2016-01-23T11:48:37Z</time>
      </trkpt>
      <trkpt lat="45.86943" lon="6.52955">
        <ele>1601.21</ele>
        <time>2016-01-23T11:48:41Z</time>
      </trkpt>
      <trkpt lat="45.86932" lon="6.52958">
        <ele>1605.54</ele>
        <time>2016-01-23T11:48:46Z</time>
      </trkpt>
      <trkpt lat="45.86923" lon="6.5296">
        <ele>1608.9</ele>
        <time>2016-01-23T11:48:50Z</time>
      </trkpt>
      <trkpt lat="45.86915" lon="6.52963">
        <ele>1612.27</ele>
        <time>2016-01-23T11:48:54Z</time>
      </trkpt>
      <trkpt lat="45.86906" lon="6.52966">
        <ele>1615.63</ele>
        <time>2016-01-23T11:48:58Z</time>
      </trkpt>
      <trkpt lat="45.86898" lon="6.52969">
        <ele>1619.48</ele>
        <time>2016-01-23T11:49:02Z</time>
      </trkpt>
      <trkpt lat="45.8689" lon="6.52973">
        <ele>1622.84</ele>
        <time>2016-01-23T11:49:06Z</time>
      </trkpt>
      <trkpt lat="45.86883" lon="6.52977">
        <ele>1627.17</ele>
        <time>2016-01-23T11:49:10Z</time>
      </trkpt>
      <trkpt lat="45.86874" lon="6.5298">
        <ele>1631.01</ele>
        <time>2016-01-23T11:49:14Z</time>
      </trkpt>
      <trkpt lat="45.86866" lon="6.52983">
        <ele>1634.86</ele>
        <time>2016-01-23T11:49:18Z</time>
      </trkpt>
      <trkpt lat="45.86858" lon="6.52986">
        <ele>1638.7</ele>
        <time>2016-01-23T11:49:22Z</time>
      </trkpt>
      <trkpt lat="45.86852" lon="6.52988">
        <ele>1642.07</ele>
        <time>2016-01-23T11:49:25Z</time>
      </trkpt>
      <trkpt lat="45.86844" lon="6.52992">
        <ele>1646.4</ele>
        <time>2016-01-23T11:49:29Z</time>
      </trkpt>
      <trkpt lat="45.86838" lon="6.52994">
        <ele>1649.28</ele>
        <time>2016-01-23T11:49:32Z</time>
      </trkpt>
      <trkpt lat="45.86832" lon="6.52997">
        <ele>1652.16</ele>
        <time>2016-01-23T11:49:35Z</time>
      </trkpt>
      <trkpt lat="45.86826" lon="6.52999">
        <ele>1655.53</ele>
        <time>2016-01-23T11:49:38Z</time>
      </trkpt>
      <trkpt lat="45.86818" lon="6.53002">
        <ele>1658.89</ele>
        <time>2016-01-23T11:49:42Z</time>
      </trkpt>
      <trkpt lat="45.86807" lon="6.53004">
        <ele>1662.26</ele>
        <time>2016-01-23T11:49:47Z</time>
      </trkpt>
      <trkpt lat="45.86798" lon="6.53005">
        <ele>1665.62</ele>
        <time>2016-01-23T11:49:52Z</time>
      </trkpt>
      <trkpt lat="45.86788" lon="6.5301">
        <ele>1669.47</ele>
        <time>2016-01-23T11:49:57Z</time>
      </trkpt>
      <trkpt lat="45.86779" lon="6.53013">
        <ele>1672.35</ele>
        <time>2016-01-23T11:50:01Z</time>
      </trkpt>
      <trkpt lat="45.86772" lon="6.53018">
        <ele>1675.72</ele>
        <time>2016-01-23T11:50:05Z</time>
      </trkpt>
      <trkpt lat="45.86765" lon="6.53022">
        <ele>1679.56</ele>
        <time>2016-01-23T11:50:09Z</time>
      </trkpt>
      <trkpt lat="45.86757" lon="6.53026">
        <ele>1682.93</ele>
        <time>2016-01-23T11:50:13Z</time>
      </trkpt>
      <trkpt lat="45.86749" lon="6.53029">
        <ele>1686.77</ele>
        <time>2016-01-23T11:50:17Z</time>
      </trkpt>
      <trkpt lat="45.86741" lon="6.53032">
        <ele>1690.62</ele>
        <time>2016-01-23T11:50:21Z</time>
      </trkpt>
      <trkpt lat="45.86734" lon="6.53034">
        <ele>1693.98</ele>
        <time>2016-01-23T11:50:24Z</time>
      </trkpt>
      <trkpt lat="45.86725" lon="6.53037">
        <ele>1697.83</ele>
        <time>2016-01-23T11:50:28Z</time>
      </trkpt>
      <trkpt lat="45.86717" lon="6.5304">
        <ele>1701.67</ele>
        <time>2016-01-23T11:50:32Z</time>
      </trkpt>
      <trkpt lat="45.86709" lon="6.53043">
        <ele>1705.52</ele>
        <time>2016-01-23T11:50:36Z</time>
      </trkpt>
      <trkpt lat="45.86703" lon="6.53046">
        <ele>1708.88</ele>
        <time>2016-01-23T11:50:39Z</time>
      </trkpt>
      <trkpt lat="45.86697" lon="6.53049">
        <ele>1712.25</ele>
        <time>2016-01-23T11:50:42Z</time>
      </trkpt>
      <trkpt lat="45.86689" lon="6.53054">
        <ele>1716.57</ele>
        <time>2016-01-23T11:50:46Z</time>
      </trkpt>
      <trkpt lat="45.86683" lon="6.53057">
        <ele>1719.46</ele>
        <time>2016-01-23T11:50:49Z</time>
      </trkpt>
      <trkpt lat="45.86677" lon="6.53059">
        <ele>1722.82</ele>
        <time>2016-01-23T11:50:52Z</time>
      </trkpt>
      <trkpt lat="45.86671" lon="6.53061">
        <ele>1726.18</ele>
        <time>2016-01-23T11:50:55Z</time>
      </trkpt>
      <trkpt lat="45.86665" lon="6.53063">
        <ele>1729.07</ele>
        <time>2016-01-23T11:50:58Z</time>
      </trkpt>
      <trkpt lat="45.86659" lon="6.53066">
        <ele>1732.91</ele>
        <time>2016-01-23T11:51:01Z</time>
      </trkpt>
      <trkpt lat="45.86653" lon="6.53068">
        <ele>1736.28</ele>
        <time>2016-01-23T11:51:04Z</time>
      </trkpt>
      <trkpt lat="45.86645" lon="6.53071">
        <ele>1740.12</ele>
        <time>2016-01-23T11:51:08Z</time>
      </trkpt>
      <trkpt lat="45.86637" lon="6.53074">
        <ele>1743.49</ele>
        <time>2016-01-23T11:51:12Z</time>
      </trkpt>
      <trkpt lat="45.86631" lon="6.53076">
        <ele>1746.37</ele>
        <time>2016-01-23T11:51:15Z</time>
      </trkpt>
      <trkpt lat="45.86622" lon="6.53079">
        <ele>1750.7</ele>
        <time>2016-01-23T11:51:19Z</time>
      </trkpt>
      <trkpt lat="45.86616" lon="6.53081">
        <ele>1754.06</ele>
        <time>2016-01-23T11:51:22Z</time>
      </trkpt>
      <trkpt lat="45.86609" lon="6.53085">
        <ele>1757.91</ele>
        <time>2016-01-23T11:51:26Z</time>
      </trkpt>
      <trkpt lat="45.86603" lon="6.53087">
        <ele>1760.79</ele>
        <time>2016-01-23T11:51:29Z</time>
      </trkpt>
      <trkpt lat="45.86595" lon="6.5309">
        <ele>1764.64</ele>
        <time>2016-01-23T11:51:33Z</time>
      </trkpt>
      <trkpt lat="45.86589" lon="6.53093">
        <ele>1768</ele>
        <time>2016-01-23T11:51:36Z</time>
      </trkpt>
      <trkpt lat="45.86584" lon="6.53095">
        <ele>1770.89</ele>
        <time>2016-01-23T11:51:39Z</time>
      </trkpt>
      <trkpt lat="45.86578" lon="6.53098">
        <ele>1774.25</ele>
        <time>2016-01-23T11:51:42Z</time>
      </trkpt>
      <trkpt lat="45.86572" lon="6.531">
        <ele>1777.61</ele>
        <time>2016-01-23T11:51:45Z</time>
      </trkpt>
      <trkpt lat="45.86564" lon="6.53104">
        <ele>1780.5</ele>
        <time>2016-01-23T11:51:49Z</time>
      </trkpt>
      <trkpt lat="45.86553" lon="6.53108">
        <ele>1784.34</ele>
        <time>2016-01-23T11:51:54Z</time>
      </trkpt>
      <trkpt lat="45.86544" lon="6.53112">
        <ele>1787.23</ele>
        <time>2016-01-23T11:51:58Z</time>
      </trkpt>
      <trkpt lat="45.86535" lon="6.53116">
        <ele>1790.11</ele>
        <time>2016-01-23T11:52:02Z</time>
      </trkpt>
      <trkpt lat="45.86526" lon="6.53119">
        <ele>1793.96</ele>
        <time>2016-01-23T11:52:06Z</time>
      </trkpt>
      <trkpt lat="45.86517" lon="6.53121">
        <ele>1797.32</ele>
        <time>2016-01-23T11:52:10Z</time>
      </trkpt>
      <trkpt lat="45.86509" lon="6.53124">
        <ele>1800.69</ele>
        <time>2016-01-23T11:52:14Z</time>
      </trkpt>
      <trkpt lat="45.86503" lon="6.53127">
        <ele>1803.57</ele>
        <time>2016-01-23T11:52:17Z</time>
      </trkpt>
      <trkpt lat="45.86494" lon="6.53129">
        <ele>1807.42</ele>
        <time>2016-01-23T11:52:21Z</time>
      </trkpt>
      <trkpt lat="45.86485" lon="6.53132">
        <ele>1810.78</ele>
        <time>2016-01-23T11:52:25Z</time>
      </trkpt>
      <trkpt lat="45.86477" lon="6.53137">
        <ele>1814.63</ele>
        <time>2016-01-23T11:52:29Z</time>
      </trkpt>
      <trkpt lat="45.86469" lon="6.53141">
        <ele>1818.47</ele>
        <time>2016-01-23T11:52:33Z</time>
      </trkpt>
      <trkpt lat="45.86458" lon="6.53146">
        <ele>1821.84</ele>
        <time>2016-01-23T11:52:38Z</time>
      </trkpt>
      <trkpt lat="45.86448" lon="6.53151">
        <ele>1825.2</ele>
        <time>2016-01-23T11:52:43Z</time>
      </trkpt>
      <trkpt lat="45.8644" lon="6.53154">
        <ele>1828.08</ele>
        <time>2016-01-23T11:52:47Z</time>
      </trkpt>
      <trkpt lat="45.86429" lon="6.53158">
        <ele>1831.93</ele>
        <time>2016-01-23T11:52:52Z</time>
      </trkpt>
      <trkpt lat="45.86419" lon="6.53162">
        <ele>1835.29</ele>
        <time>2016-01-23T11:52:57Z</time>
      </trkpt>
      <trkpt lat="45.86409" lon="6.53165">
        <ele>1838.66</ele>
        <time>2016-01-23T11:53:01Z</time>
      </trkpt>
      <trkpt lat="45.86401" lon="6.53169">
        <ele>1842.02</ele>
        <time>2016-01-23T11:53:05Z</time>
      </trkpt>
      <trkpt lat="45.86393" lon="6.53172">
        <ele>1845.39</ele>
        <time>2016-01-23T11:53:09Z</time>
      </trkpt>
      <trkpt lat="45.86385" lon="6.53176">
        <ele>1848.75</ele>
        <time>2016-01-23T11:53:13Z</time>
      </trkpt>
      <trkpt lat="45.86376" lon="6.53179">
        <ele>1852.6</ele>
        <time>2016-01-23T11:53:17Z</time>
      </trkpt>
      <trkpt lat="45.86368" lon="6.53183">
        <ele>1855.48</ele>
        <time>2016-01-23T11:53:21Z</time>
      </trkpt>
      <trkpt lat="45.86361" lon="6.53185">
        <ele>1858.85</ele>
        <time>2016-01-23T11:53:24Z</time>
      </trkpt>
      <trkpt lat="45.86355" lon="6.53188">
        <ele>1861.73</ele>
        <time>2016-01-23T11:53:27Z</time>
      </trkpt>
      <trkpt lat="45.86347" lon="6.53192">
        <ele>1865.58</ele>
        <time>2016-01-23T11:53:31Z</time>
      </trkpt>
      <trkpt lat="45.86338" lon="6.53195">
        <ele>1869.42</ele>
        <time>2016-01-23T11:53:35Z</time>
      </trkpt>
      <trkpt lat="45.8633" lon="6.53198">
        <ele>1873.27</ele>
        <time>2016-01-23T11:53:39Z</time>
      </trkpt>
      <trkpt lat="45.86322" lon="6.53201">
        <ele>1877.11</ele>
        <time>2016-01-23T11:53:43Z</time>
      </trkpt>
      <trkpt lat="45.86313" lon="6.53204">
        <ele>1881.44</ele>
        <time>2016-01-23T11:53:47Z</time>
      </trkpt>
      <trkpt lat="45.86305" lon="6.53207">
        <ele>1885.28</ele>
        <time>2016-01-23T11:53:51Z</time>
      </trkpt>
      <trkpt lat="45.86299" lon="6.53209">
        <ele>1888.17</ele>
        <time>2016-01-23T11:53:54Z</time>
      </trkpt>
      <trkpt lat="45.86293" lon="6.53212">
        <ele>1891.53</ele>
        <time>2016-01-23T11:53:57Z</time>
      </trkpt>
      <trkpt lat="45.86284" lon="6.53214">
        <ele>1894.9</ele>
        <time>2016-01-23T11:54:01Z</time>
      </trkpt>
      <trkpt lat="45.86282" lon="6.53215">
        <ele>1894.9</ele>
        <time>2016-01-23T11:54:02Z</time>
      </trkpt>
      <trkpt lat="45.86276" lon="6.53218">
        <ele>1898.26</ele>
        <time>2016-01-23T11:54:05Z</time>
      </trkpt>
      <trkpt lat="45.86269" lon="6.53222">
        <ele>1901.63</ele>
        <time>2016-01-23T11:54:09Z</time>
      </trkpt>
      <trkpt lat="45.86262" lon="6.53225">
        <ele>1905.47</ele>
        <time>2016-01-23T11:54:13Z</time>
      </trkpt>
      <trkpt lat="45.86254" lon="6.53228">
        <ele>1908.83</ele>
        <time>2016-01-23T11:54:17Z</time>
      </trkpt>
      <trkpt lat="45.86247" lon="6.5323">
        <ele>1912.68</ele>
        <time>2016-01-23T11:54:21Z</time>
      </trkpt>
      <trkpt lat="45.86238" lon="6.53233">
        <ele>1916.53</ele>
        <time>2016-01-23T11:54:25Z</time>
      </trkpt>
      <trkpt lat="45.8623" lon="6.53236">
        <ele>1919.89</ele>
        <time>2016-01-23T11:54:29Z</time>
      </trkpt>
      <trkpt lat="45.86222" lon="6.53239">
        <ele>1923.74</ele>
        <time>2016-01-23T11:54:33Z</time>
      </trkpt>
      <trkpt lat="45.86214" lon="6.53243">
        <ele>1927.58</ele>
        <time>2016-01-23T11:54:38Z</time>
      </trkpt>
      <trkpt lat="45.86211" lon="6.53244">
        <ele>1927.58</ele>
        <time>2016-01-23T11:54:39Z</time>
      </trkpt>
      <trkpt lat="45.86173" lon="6.53258">
        <ele>1928.54</ele>
        <time>2016-01-23T11:54:56Z</time>
      </trkpt>
      <trkpt lat="45.86163" lon="6.5326">
        <ele>1927.1</ele>
        <time>2016-01-23T11:55:00Z</time>
      </trkpt>
      <trkpt lat="45.86164" lon="6.53261">
        <ele>1927.1</ele>
        <time>2016-01-23T11:55:04Z</time>
      </trkpt>
      <trkpt lat="45.86163" lon="6.53261">
        <ele>1927.58</ele>
        <time>2016-01-23T11:55:13Z</time>
      </trkpt>
      <trkpt lat="45.86164" lon="6.5326">
        <ele>1928.54</ele>
        <time>2016-01-23T11:55:27Z</time>
      </trkpt>
      <trkpt lat="45.86164" lon="6.5326">
        <ele>1928.06</ele>
        <time>2016-01-23T11:55:56Z</time>
      </trkpt>
      <trkpt lat="45.86163" lon="6.53259">
        <ele>1928.06</ele>
        <time>2016-01-23T11:56:12Z</time>
      </trkpt>
      <trkpt lat="45.86163" lon="6.53256">
        <ele>1928.06</ele>
        <time>2016-01-23T11:56:14Z</time>
      </trkpt>
      <trkpt lat="45.86159" lon="6.53238">
        <ele>1926.14</ele>
        <time>2016-01-23T11:56:20Z</time>
      </trkpt>
      <trkpt lat="45.86161" lon="6.53222">
        <ele>1925.66</ele>
        <time>2016-01-23T11:56:23Z</time>
      </trkpt>
      <trkpt lat="45.86162" lon="6.53217">
        <ele>1925.66</ele>
        <time>2016-01-23T11:56:24Z</time>
      </trkpt>
      <trkpt lat="45.86164" lon="6.53212">
        <ele>1925.18</ele>
        <time>2016-01-23T11:56:25Z</time>
      </trkpt>
      <trkpt lat="45.86165" lon="6.53209">
        <ele>1925.18</ele>
        <time>2016-01-23T11:56:26Z</time>
      </trkpt>
      <trkpt lat="45.86171" lon="6.53196">
        <ele>1923.25</ele>
        <time>2016-01-23T11:56:36Z</time>
      </trkpt>
      <trkpt lat="45.86171" lon="6.53196">
        <ele>1923.25</ele>
        <time>2016-01-23T11:56:46Z</time>
      </trkpt>
      <trkpt lat="45.86161" lon="6.53195">
        <ele>1923.25</ele>
        <time>2016-01-23T11:56:58Z</time>
      </trkpt>
      <trkpt lat="45.86157" lon="6.53194">
        <ele>1923.25</ele>
        <time>2016-01-23T11:57:01Z</time>
      </trkpt>
      <trkpt lat="45.86155" lon="6.53193">
        <ele>1923.25</ele>
        <time>2016-01-23T11:57:02Z</time>
      </trkpt>
      <trkpt lat="45.86153" lon="6.53194">
        <ele>1923.25</ele>
        <time>2016-01-23T11:57:03Z</time>
      </trkpt>
      <trkpt lat="45.8615" lon="6.53192">
        <ele>1922.77</ele>
        <time>2016-01-23T11:57:05Z</time>
      </trkpt>
      <trkpt lat="45.86148" lon="6.5319">
        <ele>1922.77</ele>
        <time>2016-01-23T11:57:06Z</time>
      </trkpt>
      <trkpt lat="45.86145" lon="6.53183">
        <ele>1921.81</ele>
        <time>2016-01-23T11:57:08Z</time>
      </trkpt>
      <trkpt lat="45.86143" lon="6.53183">
        <ele>1921.33</ele>
        <time>2016-01-23T11:57:09Z</time>
      </trkpt>
      <trkpt lat="45.86141" lon="6.53182">
        <ele>1921.33</ele>
        <time>2016-01-23T11:57:10Z</time>
      </trkpt>
      <trkpt lat="45.86132" lon="6.53174">
        <ele>1920.37</ele>
        <time>2016-01-23T11:57:14Z</time>
      </trkpt>
      <trkpt lat="45.86132" lon="6.53171">
        <ele>1920.37</ele>
        <time>2016-01-23T11:57:15Z</time>
      </trkpt>
      <trkpt lat="45.86133" lon="6.53168">
        <ele>1919.41</ele>
        <time>2016-01-23T11:57:16Z</time>
      </trkpt>
      <trkpt lat="45.86133" lon="6.5316">
        <ele>1918.45</ele>
        <time>2016-01-23T11:57:18Z</time>
      </trkpt>
      <trkpt lat="45.86133" lon="6.53158">
        <ele>1917.49</ele>
        <time>2016-01-23T11:57:19Z</time>
      </trkpt>
      <trkpt lat="45.86133" lon="6.53157">
        <ele>1917.49</ele>
        <time>2016-01-23T11:57:20Z</time>
      </trkpt>
      <trkpt lat="45.86132" lon="6.53153">
        <ele>1917.01</ele>
        <time>2016-01-23T11:57:22Z</time>
      </trkpt>
      <trkpt lat="45.8613" lon="6.53151">
        <ele>1917.01</ele>
        <time>2016-01-23T11:57:23Z</time>
      </trkpt>
      <trkpt lat="45.86127" lon="6.53147">
        <ele>1916.04</ele>
        <time>2016-01-23T11:57:24Z</time>
      </trkpt>
      <trkpt lat="45.86125" lon="6.53142">
        <ele>1915.08</ele>
        <time>2016-01-23T11:57:25Z</time>
      </trkpt>
      <trkpt lat="45.86124" lon="6.53138">
        <ele>1914.6</ele>
        <time>2016-01-23T11:57:26Z</time>
      </trkpt>
      <trkpt lat="45.86122" lon="6.53134">
        <ele>1913.64</ele>
        <time>2016-01-23T11:57:36Z</time>
      </trkpt>
      <trkpt lat="45.86122" lon="6.53133">
        <ele>1913.64</ele>
        <time>2016-01-23T11:57:37Z</time>
      </trkpt>
      <trkpt lat="45.8612" lon="6.53131">
        <ele>1913.16</ele>
        <time>2016-01-23T11:57:40Z</time>
      </trkpt>
      <trkpt lat="45.86119" lon="6.5313">
        <ele>1912.2</ele>
        <time>2016-01-23T11:57:41Z</time>
      </trkpt>
      <trkpt lat="45.86118" lon="6.53128">
        <ele>1911.72</ele>
        <time>2016-01-23T11:57:54Z</time>
      </trkpt>
      <trkpt lat="45.86117" lon="6.53127">
        <ele>1911.72</ele>
        <time>2016-01-23T11:57:58Z</time>
      </trkpt>
      <trkpt lat="45.86114" lon="6.53125">
        <ele>1911.72</ele>
        <time>2016-01-23T11:57:59Z</time>
      </trkpt>
      <trkpt lat="45.86111" lon="6.53122">
        <ele>1911.24</ele>
        <time>2016-01-23T11:58:00Z</time>
      </trkpt>
      <trkpt lat="45.86108" lon="6.53117">
        <ele>1910.76</ele>
        <time>2016-01-23T11:58:01Z</time>
      </trkpt>
      <trkpt lat="45.86105" lon="6.53111">
        <ele>1909.8</ele>
        <time>2016-01-23T11:58:02Z</time>
      </trkpt>
      <trkpt lat="45.86096" lon="6.53094">
        <ele>1906.43</ele>
        <time>2016-01-23T11:58:04Z</time>
      </trkpt>
      <trkpt lat="45.8609" lon="6.53085">
        <ele>1904.03</ele>
        <time>2016-01-23T11:58:05Z</time>
      </trkpt>
      <trkpt lat="45.86085" lon="6.53077">
        <ele>1902.11</ele>
        <time>2016-01-23T11:58:06Z</time>
      </trkpt>
      <trkpt lat="45.86082" lon="6.53069">
        <ele>1900.66</ele>
        <time>2016-01-23T11:58:07Z</time>
      </trkpt>
      <trkpt lat="45.86075" lon="6.53056">
        <ele>1898.74</ele>
        <time>2016-01-23T11:58:09Z</time>
      </trkpt>
      <trkpt lat="45.86073" lon="6.53048">
        <ele>1896.82</ele>
        <time>2016-01-23T11:58:10Z</time>
      </trkpt>
      <trkpt lat="45.86071" lon="6.5304">
        <ele>1896.34</ele>
        <time>2016-01-23T11:58:11Z</time>
      </trkpt>
      <trkpt lat="45.86068" lon="6.53033">
        <ele>1894.9</ele>
        <time>2016-01-23T11:58:14Z</time>
      </trkpt>
      <trkpt lat="45.86066" lon="6.53032">
        <ele>1894.42</ele>
        <time>2016-01-23T11:58:30Z</time>
      </trkpt>
      <trkpt lat="45.86049" lon="6.53004">
        <ele>1892.97</ele>
        <time>2016-01-23T11:58:41Z</time>
      </trkpt>
      <trkpt lat="45.86036" lon="6.52984">
        <ele>1891.53</ele>
        <time>2016-01-23T11:58:45Z</time>
      </trkpt>
      <trkpt lat="45.86033" lon="6.52978">
        <ele>1891.53</ele>
        <time>2016-01-23T11:58:47Z</time>
      </trkpt>
      <trkpt lat="45.86033" lon="6.52975">
        <ele>1891.53</ele>
        <time>2016-01-23T11:58:48Z</time>
      </trkpt>
      <trkpt lat="45.86032" lon="6.5297">
        <ele>1890.57</ele>
        <time>2016-01-23T11:58:49Z</time>
      </trkpt>
      <trkpt lat="45.86031" lon="6.52965">
        <ele>1890.57</ele>
        <time>2016-01-23T11:58:50Z</time>
      </trkpt>
      <trkpt lat="45.86029" lon="6.5296">
        <ele>1890.57</ele>
        <time>2016-01-23T11:58:51Z</time>
      </trkpt>
      <trkpt lat="45.86026" lon="6.52956">
        <ele>1890.09</ele>
        <time>2016-01-23T11:58:52Z</time>
      </trkpt>
      <trkpt lat="45.86022" lon="6.52946">
        <ele>1889.61</ele>
        <time>2016-01-23T11:59:00Z</time>
      </trkpt>
      <trkpt lat="45.86024" lon="6.52941">
        <ele>1889.13</ele>
        <time>2016-01-23T11:59:04Z</time>
      </trkpt>
      <trkpt lat="45.86024" lon="6.5294">
        <ele>1888.65</ele>
        <time>2016-01-23T11:59:18Z</time>
      </trkpt>
      <trkpt lat="45.86024" lon="6.52939">
        <ele>1888.65</ele>
        <time>2016-01-23T11:59:19Z</time>
      </trkpt>
      <trkpt lat="45.86024" lon="6.52937">
        <ele>1888.65</ele>
        <time>2016-01-23T11:59:20Z</time>
      </trkpt>
      <trkpt lat="45.86023" lon="6.52935">
        <ele>1888.65</ele>
        <time>2016-01-23T11:59:21Z</time>
      </trkpt>
      <trkpt lat="45.86022" lon="6.52934">
        <ele>1888.65</ele>
        <time>2016-01-23T11:59:22Z</time>
      </trkpt>
      <trkpt lat="45.86021" lon="6.52932">
        <ele>1888.65</ele>
        <time>2016-01-23T11:59:23Z</time>
      </trkpt>
      <trkpt lat="45.86015" lon="6.52922">
        <ele>1888.17</ele>
        <time>2016-01-23T11:59:30Z</time>
      </trkpt>
      <trkpt lat="45.86014" lon="6.52922">
        <ele>1888.17</ele>
        <time>2016-01-23T11:59:31Z</time>
      </trkpt>
      <trkpt lat="45.86013" lon="6.52921">
        <ele>1887.69</ele>
        <time>2016-01-23T11:59:32Z</time>
      </trkpt>
      <trkpt lat="45.86012" lon="6.5292">
        <ele>1887.69</ele>
        <time>2016-01-23T11:59:33Z</time>
      </trkpt>
      <trkpt lat="45.8601" lon="6.5292">
        <ele>1887.69</ele>
        <time>2016-01-23T11:59:34Z</time>
      </trkpt>
      <trkpt lat="45.86009" lon="6.52918">
        <ele>1887.69</ele>
        <time>2016-01-23T11:59:35Z</time>
      </trkpt>
      <trkpt lat="45.86006" lon="6.52918">
        <ele>1887.69</ele>
        <time>2016-01-23T11:59:36Z</time>
      </trkpt>
      <trkpt lat="45.86004" lon="6.52918">
        <ele>1887.69</ele>
        <time>2016-01-23T11:59:37Z</time>
      </trkpt>
      <trkpt lat="45.86002" lon="6.52919">
        <ele>1887.69</ele>
        <time>2016-01-23T11:59:38Z</time>
      </trkpt>
      <trkpt lat="45.85999" lon="6.52919">
        <ele>1887.69</ele>
        <time>2016-01-23T11:59:39Z</time>
      </trkpt>
      <trkpt lat="45.85997" lon="6.52919">
        <ele>1887.69</ele>
        <time>2016-01-23T11:59:40Z</time>
      </trkpt>
      <trkpt lat="45.85995" lon="6.52918">
        <ele>1887.69</ele>
        <time>2016-01-23T11:59:41Z</time>
      </trkpt>
      <trkpt lat="45.85993" lon="6.52918">
        <ele>1887.69</ele>
        <time>2016-01-23T11:59:42Z</time>
      </trkpt>
      <trkpt lat="45.85991" lon="6.52918">
        <ele>1887.69</ele>
        <time>2016-01-23T11:59:43Z</time>
      </trkpt>
      <trkpt lat="45.8599" lon="6.52917">
        <ele>1887.69</ele>
        <time>2016-01-23T11:59:44Z</time>
      </trkpt>
      <trkpt lat="45.85989" lon="6.52915">
        <ele>1887.69</ele>
        <time>2016-01-23T11:59:45Z</time>
      </trkpt>
      <trkpt lat="45.85987" lon="6.52914">
        <ele>1887.69</ele>
        <time>2016-01-23T11:59:46Z</time>
      </trkpt>
      <trkpt lat="45.85987" lon="6.52913">
        <ele>1887.21</ele>
        <time>2016-01-23T11:59:47Z</time>
      </trkpt>
      <trkpt lat="45.85986" lon="6.52909">
        <ele>1887.21</ele>
        <time>2016-01-23T12:00:00Z</time>
      </trkpt>
      <trkpt lat="45.85986" lon="6.52905">
        <ele>1887.21</ele>
        <time>2016-01-23T12:00:03Z</time>
      </trkpt>
      <trkpt lat="45.85986" lon="6.52901">
        <ele>1886.72</ele>
        <time>2016-01-23T12:00:04Z</time>
      </trkpt>
      <trkpt lat="45.85985" lon="6.52896">
        <ele>1886.24</ele>
        <time>2016-01-23T12:00:05Z</time>
      </trkpt>
      <trkpt lat="45.85984" lon="6.5289">
        <ele>1886.24</ele>
        <time>2016-01-23T12:00:06Z</time>
      </trkpt>
      <trkpt lat="45.85981" lon="6.52884">
        <ele>1885.76</ele>
        <time>2016-01-23T12:00:07Z</time>
      </trkpt>
      <trkpt lat="45.85977" lon="6.52878">
        <ele>1883.84</ele>
        <time>2016-01-23T12:00:08Z</time>
      </trkpt>
      <trkpt lat="45.85972" lon="6.52872">
        <ele>1883.84</ele>
        <time>2016-01-23T12:00:09Z</time>
      </trkpt>
      <trkpt lat="45.85954" lon="6.52849">
        <ele>1880</ele>
        <time>2016-01-23T12:00:12Z</time>
      </trkpt>
      <trkpt lat="45.85946" lon="6.52841">
        <ele>1877.11</ele>
        <time>2016-01-23T12:00:13Z</time>
      </trkpt>
      <trkpt lat="45.8594" lon="6.5283">
        <ele>1873.75</ele>
        <time>2016-01-23T12:00:14Z</time>
      </trkpt>
      <trkpt lat="45.85934" lon="6.52818">
        <ele>1871.82</ele>
        <time>2016-01-23T12:00:15Z</time>
      </trkpt>
      <trkpt lat="45.85926" lon="6.52805">
        <ele>1868.94</ele>
        <time>2016-01-23T12:00:16Z</time>
      </trkpt>
      <trkpt lat="45.85913" lon="6.52782">
        <ele>1867.5</ele>
        <time>2016-01-23T12:00:18Z</time>
      </trkpt>
      <trkpt lat="45.859" lon="6.52758">
        <ele>1865.58</ele>
        <time>2016-01-23T12:00:20Z</time>
      </trkpt>
      <trkpt lat="45.85871" lon="6.5271">
        <ele>1864.13</ele>
        <time>2016-01-23T12:00:25Z</time>
      </trkpt>
      <trkpt lat="45.85867" lon="6.52705">
        <ele>1864.13</ele>
        <time>2016-01-23T12:00:26Z</time>
      </trkpt>
      <trkpt lat="45.85865" lon="6.52702">
        <ele>1863.65</ele>
        <time>2016-01-23T12:00:27Z</time>
      </trkpt>
      <trkpt lat="45.85863" lon="6.527">
        <ele>1864.13</ele>
        <time>2016-01-23T12:00:34Z</time>
      </trkpt>
      <trkpt lat="45.85862" lon="6.527">
        <ele>1864.13</ele>
        <time>2016-01-23T12:00:35Z</time>
      </trkpt>
      <trkpt lat="45.85862" lon="6.52697">
        <ele>1864.13</ele>
        <time>2016-01-23T12:00:36Z</time>
      </trkpt>
      <trkpt lat="45.85861" lon="6.52694">
        <ele>1863.65</ele>
        <time>2016-01-23T12:00:37Z</time>
      </trkpt>
      <trkpt lat="45.8586" lon="6.52691">
        <ele>1863.65</ele>
        <time>2016-01-23T12:00:38Z</time>
      </trkpt>
      <trkpt lat="45.85859" lon="6.52688">
        <ele>1863.17</ele>
        <time>2016-01-23T12:00:39Z</time>
      </trkpt>
      <trkpt lat="45.85858" lon="6.52686">
        <ele>1863.17</ele>
        <time>2016-01-23T12:00:40Z</time>
      </trkpt>
      <trkpt lat="45.85848" lon="6.52669">
        <ele>1863.17</ele>
        <time>2016-01-23T12:00:45Z</time>
      </trkpt>
      <trkpt lat="45.85844" lon="6.52662">
        <ele>1862.69</ele>
        <time>2016-01-23T12:00:46Z</time>
      </trkpt>
      <trkpt lat="45.85842" lon="6.52644">
        <ele>1858.85</ele>
        <time>2016-01-23T12:00:48Z</time>
      </trkpt>
      <trkpt lat="45.85845" lon="6.52637">
        <ele>1855.48</ele>
        <time>2016-01-23T12:00:49Z</time>
      </trkpt>
      <trkpt lat="45.85862" lon="6.52615">
        <ele>1849.23</ele>
        <time>2016-01-23T12:00:52Z</time>
      </trkpt>
      <trkpt lat="45.85872" lon="6.52608">
        <ele>1842.02</ele>
        <time>2016-01-23T12:00:53Z</time>
      </trkpt>
      <trkpt lat="45.85897" lon="6.52588">
        <ele>1831.93</ele>
        <time>2016-01-23T12:00:55Z</time>
      </trkpt>
      <trkpt lat="45.85911" lon="6.52579">
        <ele>1826.16</ele>
        <time>2016-01-23T12:00:56Z</time>
      </trkpt>
      <trkpt lat="45.85924" lon="6.52571">
        <ele>1821.84</ele>
        <time>2016-01-23T12:00:57Z</time>
      </trkpt>
      <trkpt lat="45.85937" lon="6.52562">
        <ele>1822.8</ele>
        <time>2016-01-23T12:00:58Z</time>
      </trkpt>
      <trkpt lat="45.85955" lon="6.52552">
        <ele>1823.76</ele>
        <time>2016-01-23T12:01:00Z</time>
      </trkpt>
      <trkpt lat="45.85975" lon="6.52542">
        <ele>1825.2</ele>
        <time>2016-01-23T12:01:03Z</time>
      </trkpt>
      <trkpt lat="45.85978" lon="6.52542">
        <ele>1824.24</ele>
        <time>2016-01-23T12:01:05Z</time>
      </trkpt>
      <trkpt lat="45.85978" lon="6.52543">
        <ele>1824.24</ele>
        <time>2016-01-23T12:01:11Z</time>
      </trkpt>
      <trkpt lat="45.85996" lon="6.52528">
        <ele>1824.24</ele>
        <time>2016-01-23T12:01:21Z</time>
      </trkpt>
      <trkpt lat="45.86016" lon="6.52521">
        <ele>1819.91</ele>
        <time>2016-01-23T12:01:24Z</time>
      </trkpt>
      <trkpt lat="45.86034" lon="6.52528">
        <ele>1817.03</ele>
        <time>2016-01-23T12:01:26Z</time>
      </trkpt>
      <trkpt lat="45.86064" lon="6.5255">
        <ele>1817.03</ele>
        <time>2016-01-23T12:01:31Z</time>
      </trkpt>
      <trkpt lat="45.86081" lon="6.52579">
        <ele>1810.78</ele>
        <time>2016-01-23T12:01:34Z</time>
      </trkpt>
      <trkpt lat="45.86082" lon="6.52604">
        <ele>1810.3</ele>
        <time>2016-01-23T12:01:36Z</time>
      </trkpt>
      <trkpt lat="45.86086" lon="6.52641">
        <ele>1807.9</ele>
        <time>2016-01-23T12:01:39Z</time>
      </trkpt>
      <trkpt lat="45.86096" lon="6.52674">
        <ele>1805.01</ele>
        <time>2016-01-23T12:01:42Z</time>
      </trkpt>
      <trkpt lat="45.86111" lon="6.52705">
        <ele>1806.45</ele>
        <time>2016-01-23T12:01:46Z</time>
      </trkpt>
      <trkpt lat="45.8613" lon="6.52727">
        <ele>1805.01</ele>
        <time>2016-01-23T12:01:50Z</time>
      </trkpt>
      <trkpt lat="45.86151" lon="6.52748">
        <ele>1803.09</ele>
        <time>2016-01-23T12:01:54Z</time>
      </trkpt>
      <trkpt lat="45.86165" lon="6.52767">
        <ele>1802.13</ele>
        <time>2016-01-23T12:01:57Z</time>
      </trkpt>
      <trkpt lat="45.86187" lon="6.52775">
        <ele>1797.8</ele>
        <time>2016-01-23T12:02:01Z</time>
      </trkpt>
      <trkpt lat="45.862" lon="6.52787">
        <ele>1796.84</ele>
        <time>2016-01-23T12:02:03Z</time>
      </trkpt>
      <trkpt lat="45.86209" lon="6.52805">
        <ele>1796.84</ele>
        <time>2016-01-23T12:02:05Z</time>
      </trkpt>
      <trkpt lat="45.86225" lon="6.52834">
        <ele>1794.44</ele>
        <time>2016-01-23T12:02:09Z</time>
      </trkpt>
      <trkpt lat="45.86238" lon="6.5284">
        <ele>1792.03</ele>
        <time>2016-01-23T12:02:13Z</time>
      </trkpt>
      <trkpt lat="45.86238" lon="6.5284">
        <ele>1791.55</ele>
        <time>2016-01-23T12:02:20Z</time>
      </trkpt>
      <trkpt lat="45.86265" lon="6.52846">
        <ele>1788.67</ele>
        <time>2016-01-23T12:02:26Z</time>
      </trkpt>
      <trkpt lat="45.86282" lon="6.52853">
        <ele>1785.31</ele>
        <time>2016-01-23T12:02:28Z</time>
      </trkpt>
      <trkpt lat="45.86311" lon="6.52868">
        <ele>1778.1</ele>
        <time>2016-01-23T12:02:31Z</time>
      </trkpt>
      <trkpt lat="45.8632" lon="6.52872">
        <ele>1774.73</ele>
        <time>2016-01-23T12:02:32Z</time>
      </trkpt>
      <trkpt lat="45.86348" lon="6.52884">
        <ele>1768</ele>
        <time>2016-01-23T12:02:35Z</time>
      </trkpt>
      <trkpt lat="45.86361" lon="6.52893">
        <ele>1766.08</ele>
        <time>2016-01-23T12:02:37Z</time>
      </trkpt>
      <trkpt lat="45.86365" lon="6.52896">
        <ele>1765.12</ele>
        <time>2016-01-23T12:02:39Z</time>
      </trkpt>
      <trkpt lat="45.86373" lon="6.52895">
        <ele>1762.71</ele>
        <time>2016-01-23T12:02:47Z</time>
      </trkpt>
      <trkpt lat="45.86373" lon="6.52894">
        <ele>1762.23</ele>
        <time>2016-01-23T12:02:49Z</time>
      </trkpt>
      <trkpt lat="45.86374" lon="6.52892">
        <ele>1762.23</ele>
        <time>2016-01-23T12:02:53Z</time>
      </trkpt>
      <trkpt lat="45.86383" lon="6.52894">
        <ele>1761.27</ele>
        <time>2016-01-23T12:02:57Z</time>
      </trkpt>
      <trkpt lat="45.86391" lon="6.52894">
        <ele>1759.35</ele>
        <time>2016-01-23T12:03:00Z</time>
      </trkpt>
      <trkpt lat="45.86416" lon="6.52887">
        <ele>1756.47</ele>
        <time>2016-01-23T12:03:07Z</time>
      </trkpt>
      <trkpt lat="45.86422" lon="6.52883">
        <ele>1754.06</ele>
        <time>2016-01-23T12:03:14Z</time>
      </trkpt>
      <trkpt lat="45.86426" lon="6.52877">
        <ele>1753.1</ele>
        <time>2016-01-23T12:03:17Z</time>
      </trkpt>
      <trkpt lat="45.86442" lon="6.52874">
        <ele>1747.81</ele>
        <time>2016-01-23T12:03:20Z</time>
      </trkpt>
      <trkpt lat="45.86455" lon="6.5287">
        <ele>1747.33</ele>
        <time>2016-01-23T12:03:22Z</time>
      </trkpt>
      <trkpt lat="45.86463" lon="6.52857">
        <ele>1742.05</ele>
        <time>2016-01-23T12:03:24Z</time>
      </trkpt>
      <trkpt lat="45.86464" lon="6.52853">
        <ele>1738.2</ele>
        <time>2016-01-23T12:03:25Z</time>
      </trkpt>
      <trkpt lat="45.86464" lon="6.5285">
        <ele>1737.72</ele>
        <time>2016-01-23T12:03:29Z</time>
      </trkpt>
      <trkpt lat="45.86472" lon="6.52842">
        <ele>1733.39</ele>
        <time>2016-01-23T12:03:33Z</time>
      </trkpt>
      <trkpt lat="45.86474" lon="6.52839">
        <ele>1733.39</ele>
        <time>2016-01-23T12:03:34Z</time>
      </trkpt>
      <trkpt lat="45.86476" lon="6.52835">
        <ele>1730.03</ele>
        <time>2016-01-23T12:03:36Z</time>
      </trkpt>
      <trkpt lat="45.86477" lon="6.52835">
        <ele>1730.03</ele>
        <time>2016-01-23T12:03:37Z</time>
      </trkpt>
      <trkpt lat="45.86477" lon="6.52832">
        <ele>1729.55</ele>
        <time>2016-01-23T12:03:40Z</time>
      </trkpt>
      <trkpt lat="45.86487" lon="6.52825">
        <ele>1724.74</ele>
        <time>2016-01-23T12:03:43Z</time>
      </trkpt>
      <trkpt lat="45.86497" lon="6.52814">
        <ele>1719.46</ele>
        <time>2016-01-23T12:03:46Z</time>
      </trkpt>
      <trkpt lat="45.86506" lon="6.52808">
        <ele>1714.65</ele>
        <time>2016-01-23T12:03:48Z</time>
      </trkpt>
      <trkpt lat="45.86516" lon="6.52798">
        <ele>1709.84</ele>
        <time>2016-01-23T12:03:50Z</time>
      </trkpt>
      <trkpt lat="45.86522" lon="6.52793">
        <ele>1703.59</ele>
        <time>2016-01-23T12:03:51Z</time>
      </trkpt>
      <trkpt lat="45.86533" lon="6.52786">
        <ele>1699.75</ele>
        <time>2016-01-23T12:03:53Z</time>
      </trkpt>
      <trkpt lat="45.86542" lon="6.52771">
        <ele>1691.1</ele>
        <time>2016-01-23T12:03:55Z</time>
      </trkpt>
      <trkpt lat="45.86553" lon="6.52763">
        <ele>1685.81</ele>
        <time>2016-01-23T12:03:57Z</time>
      </trkpt>
      <trkpt lat="45.86557" lon="6.52758">
        <ele>1682.44</ele>
        <time>2016-01-23T12:03:58Z</time>
      </trkpt>
      <trkpt lat="45.86559" lon="6.52755">
        <ele>1678.6</ele>
        <time>2016-01-23T12:03:59Z</time>
      </trkpt>
      <trkpt lat="45.8656" lon="6.52755">
        <ele>1677.64</ele>
        <time>2016-01-23T12:04:02Z</time>
      </trkpt>
      <trkpt lat="45.86566" lon="6.52748">
        <ele>1672.83</ele>
        <time>2016-01-23T12:04:05Z</time>
      </trkpt>
      <trkpt lat="45.86574" lon="6.5274">
        <ele>1668.02</ele>
        <time>2016-01-23T12:04:07Z</time>
      </trkpt>
      <trkpt lat="45.86576" lon="6.52735">
        <ele>1664.66</ele>
        <time>2016-01-23T12:04:08Z</time>
      </trkpt>
      <trkpt lat="45.86583" lon="6.52724">
        <ele>1660.33</ele>
        <time>2016-01-23T12:04:10Z</time>
      </trkpt>
      <trkpt lat="45.86587" lon="6.52721">
        <ele>1656.97</ele>
        <time>2016-01-23T12:04:11Z</time>
      </trkpt>
      <trkpt lat="45.86592" lon="6.52717">
        <ele>1653.12</ele>
        <time>2016-01-23T12:04:13Z</time>
      </trkpt>
      <trkpt lat="45.86596" lon="6.52712">
        <ele>1650.24</ele>
        <time>2016-01-23T12:04:17Z</time>
      </trkpt>
      <trkpt lat="45.86606" lon="6.52705">
        <ele>1644.95</ele>
        <time>2016-01-23T12:04:21Z</time>
      </trkpt>
      <trkpt lat="45.86618" lon="6.52701">
        <ele>1639.19</ele>
        <time>2016-01-23T12:04:27Z</time>
      </trkpt>
      <trkpt lat="45.86622" lon="6.52702">
        <ele>1638.22</ele>
        <time>2016-01-23T12:04:28Z</time>
      </trkpt>
      <trkpt lat="45.86629" lon="6.52705">
        <ele>1637.26</ele>
        <time>2016-01-23T12:04:30Z</time>
      </trkpt>
      <trkpt lat="45.86633" lon="6.52706">
        <ele>1636.78</ele>
        <time>2016-01-23T12:04:31Z</time>
      </trkpt>
      <trkpt lat="45.86642" lon="6.52703">
        <ele>1631.98</ele>
        <time>2016-01-23T12:04:34Z</time>
      </trkpt>
      <trkpt lat="45.86644" lon="6.527">
        <ele>1631.98</ele>
        <time>2016-01-23T12:04:35Z</time>
      </trkpt>
      <trkpt lat="45.86659" lon="6.52698">
        <ele>1627.17</ele>
        <time>2016-01-23T12:04:38Z</time>
      </trkpt>
      <trkpt lat="45.86667" lon="6.52693">
        <ele>1623.32</ele>
        <time>2016-01-23T12:04:40Z</time>
      </trkpt>
      <trkpt lat="45.8667" lon="6.52689">
        <ele>1620.44</ele>
        <time>2016-01-23T12:04:42Z</time>
      </trkpt>
      <trkpt lat="45.86671" lon="6.52687">
        <ele>1619</ele>
        <time>2016-01-23T12:05:05Z</time>
      </trkpt>
      <trkpt lat="45.8667" lon="6.52687">
        <ele>1619</ele>
        <time>2016-01-23T12:05:15Z</time>
      </trkpt>
      <trkpt lat="45.8668" lon="6.52678">
        <ele>1618.04</ele>
        <time>2016-01-23T12:05:19Z</time>
      </trkpt>
      <trkpt lat="45.86682" lon="6.52673">
        <ele>1617.56</ele>
        <time>2016-01-23T12:05:20Z</time>
      </trkpt>
      <trkpt lat="45.86679" lon="6.52665">
        <ele>1616.11</ele>
        <time>2016-01-23T12:05:22Z</time>
      </trkpt>
      <trkpt lat="45.86671" lon="6.52658">
        <ele>1616.11</ele>
        <time>2016-01-23T12:05:35Z</time>
      </trkpt>
      <trkpt lat="45.86667" lon="6.52662">
        <ele>1616.11</ele>
        <time>2016-01-23T12:05:42Z</time>
      </trkpt>
      <trkpt lat="45.86657" lon="6.52671">
        <ele>1617.56</ele>
        <time>2016-01-23T12:05:46Z</time>
      </trkpt>
      <trkpt lat="45.86652" lon="6.52677">
        <ele>1620.92</ele>
        <time>2016-01-23T12:05:48Z</time>
      </trkpt>
      <trkpt lat="45.86647" lon="6.52682">
        <ele>1624.77</ele>
        <time>2016-01-23T12:05:50Z</time>
      </trkpt>
      <trkpt lat="45.86645" lon="6.52685">
        <ele>1624.77</ele>
        <time>2016-01-23T12:05:51Z</time>
      </trkpt>
      <trkpt lat="45.8664" lon="6.5269">
        <ele>1628.13</ele>
        <time>2016-01-23T12:05:53Z</time>
      </trkpt>
      <trkpt lat="45.86635" lon="6.52696">
        <ele>1632.46</ele>
        <time>2016-01-23T12:05:55Z</time>
      </trkpt>
      <trkpt lat="45.8663" lon="6.52702">
        <ele>1635.82</ele>
        <time>2016-01-23T12:05:57Z</time>
      </trkpt>
      <trkpt lat="45.86626" lon="6.52708">
        <ele>1638.7</ele>
        <time>2016-01-23T12:05:59Z</time>
      </trkpt>
      <trkpt lat="45.86621" lon="6.52715">
        <ele>1642.07</ele>
        <time>2016-01-23T12:06:01Z</time>
      </trkpt>
      <trkpt lat="45.86616" lon="6.52721">
        <ele>1645.43</ele>
        <time>2016-01-23T12:06:03Z</time>
      </trkpt>
      <trkpt lat="45.86612" lon="6.52727">
        <ele>1648.8</ele>
        <time>2016-01-23T12:06:05Z</time>
      </trkpt>
      <trkpt lat="45.86608" lon="6.52732">
        <ele>1652.16</ele>
        <time>2016-01-23T12:06:07Z</time>
      </trkpt>
      <trkpt lat="45.86603" lon="6.52738">
        <ele>1655.53</ele>
        <time>2016-01-23T12:06:09Z</time>
      </trkpt>
      <trkpt lat="45.86595" lon="6.52747">
        <ele>1659.37</ele>
        <time>2016-01-23T12:06:12Z</time>
      </trkpt>
      <trkpt lat="45.86588" lon="6.52756">
        <ele>1663.7</ele>
        <time>2016-01-23T12:06:15Z</time>
      </trkpt>
      <trkpt lat="45.86583" lon="6.52762">
        <ele>1667.06</ele>
        <time>2016-01-23T12:06:17Z</time>
      </trkpt>
      <trkpt lat="45.86578" lon="6.52768">
        <ele>1670.43</ele>
        <time>2016-01-23T12:06:19Z</time>
      </trkpt>
      <trkpt lat="45.86573" lon="6.52773">
        <ele>1673.79</ele>
        <time>2016-01-23T12:06:21Z</time>
      </trkpt>
      <trkpt lat="45.86569" lon="6.52779">
        <ele>1677.16</ele>
        <time>2016-01-23T12:06:23Z</time>
      </trkpt>
      <trkpt lat="45.86564" lon="6.52784">
        <ele>1680.52</ele>
        <time>2016-01-23T12:06:25Z</time>
      </trkpt>
      <trkpt lat="45.8656" lon="6.5279">
        <ele>1683.89</ele>
        <time>2016-01-23T12:06:27Z</time>
      </trkpt>
      <trkpt lat="45.86555" lon="6.52795">
        <ele>1687.25</ele>
        <time>2016-01-23T12:06:29Z</time>
      </trkpt>
      <trkpt lat="45.86549" lon="6.52801">
        <ele>1691.1</ele>
        <time>2016-01-23T12:06:31Z</time>
      </trkpt>
      <trkpt lat="45.86544" lon="6.52807">
        <ele>1694.94</ele>
        <time>2016-01-23T12:06:33Z</time>
      </trkpt>
      <trkpt lat="45.8654" lon="6.52813">
        <ele>1697.83</ele>
        <time>2016-01-23T12:06:35Z</time>
      </trkpt>
      <trkpt lat="45.86535" lon="6.52818">
        <ele>1701.19</ele>
        <time>2016-01-23T12:06:37Z</time>
      </trkpt>
      <trkpt lat="45.8653" lon="6.52824">
        <ele>1705.04</ele>
        <time>2016-01-23T12:06:39Z</time>
      </trkpt>
      <trkpt lat="45.86523" lon="6.52832">
        <ele>1709.36</ele>
        <time>2016-01-23T12:06:42Z</time>
      </trkpt>
      <trkpt lat="45.86518" lon="6.52837">
        <ele>1713.21</ele>
        <time>2016-01-23T12:06:44Z</time>
      </trkpt>
      <trkpt lat="45.86513" lon="6.52842">
        <ele>1716.57</ele>
        <time>2016-01-23T12:06:46Z</time>
      </trkpt>
      <trkpt lat="45.86508" lon="6.52848">
        <ele>1720.42</ele>
        <time>2016-01-23T12:06:48Z</time>
      </trkpt>
      <trkpt lat="45.86503" lon="6.52853">
        <ele>1723.3</ele>
        <time>2016-01-23T12:06:50Z</time>
      </trkpt>
      <trkpt lat="45.86498" lon="6.52859">
        <ele>1726.67</ele>
        <time>2016-01-23T12:06:52Z</time>
      </trkpt>
      <trkpt lat="45.86493" lon="6.52865">
        <ele>1730.03</ele>
        <time>2016-01-23T12:06:54Z</time>
      </trkpt>
      <trkpt lat="45.86487" lon="6.52871">
        <ele>1733.39</ele>
        <time>2016-01-23T12:06:56Z</time>
      </trkpt>
      <trkpt lat="45.86482" lon="6.52877">
        <ele>1737.24</ele>
        <time>2016-01-23T12:06:58Z</time>
      </trkpt>
      <trkpt lat="45.86477" lon="6.52882">
        <ele>1740.12</ele>
        <time>2016-01-23T12:07:00Z</time>
      </trkpt>
      <trkpt lat="45.86472" lon="6.52888">
        <ele>1743.97</ele>
        <time>2016-01-23T12:07:02Z</time>
      </trkpt>
      <trkpt lat="45.86467" lon="6.52893">
        <ele>1746.85</ele>
        <time>2016-01-23T12:07:04Z</time>
      </trkpt>
      <trkpt lat="45.86458" lon="6.52903">
        <ele>1750.22</ele>
        <time>2016-01-23T12:07:07Z</time>
      </trkpt>
      <trkpt lat="45.86453" lon="6.5291">
        <ele>1750.7</ele>
        <time>2016-01-23T12:07:09Z</time>
      </trkpt>
      <trkpt lat="45.86442" lon="6.52922">
        <ele>1754.06</ele>
        <time>2016-01-23T12:07:13Z</time>
      </trkpt>
      <trkpt lat="45.86431" lon="6.52934">
        <ele>1757.43</ele>
        <time>2016-01-23T12:07:17Z</time>
      </trkpt>
      <trkpt lat="45.86423" lon="6.52943">
        <ele>1760.79</ele>
        <time>2016-01-23T12:07:20Z</time>
      </trkpt>
      <trkpt lat="45.86415" lon="6.52952">
        <ele>1764.64</ele>
        <time>2016-01-23T12:07:23Z</time>
      </trkpt>
      <trkpt lat="45.86407" lon="6.52961">
        <ele>1767.52</ele>
        <time>2016-01-23T12:07:26Z</time>
      </trkpt>
      <trkpt lat="45.86399" lon="6.5297">
        <ele>1770.89</ele>
        <time>2016-01-23T12:07:29Z</time>
      </trkpt>
      <trkpt lat="45.8639" lon="6.5298">
        <ele>1773.77</ele>
        <time>2016-01-23T12:07:32Z</time>
      </trkpt>
      <trkpt lat="45.86382" lon="6.52989">
        <ele>1777.61</ele>
        <time>2016-01-23T12:07:35Z</time>
      </trkpt>
      <trkpt lat="45.86377" lon="6.52994">
        <ele>1780.98</ele>
        <time>2016-01-23T12:07:37Z</time>
      </trkpt>
      <trkpt lat="45.86372" lon="6.52999">
        <ele>1784.34</ele>
        <time>2016-01-23T12:07:39Z</time>
      </trkpt>
      <trkpt lat="45.86367" lon="6.53005">
        <ele>1788.19</ele>
        <time>2016-01-23T12:07:41Z</time>
      </trkpt>
      <trkpt lat="45.86362" lon="6.5301">
        <ele>1791.55</ele>
        <time>2016-01-23T12:07:43Z</time>
      </trkpt>
      <trkpt lat="45.86358" lon="6.53015">
        <ele>1795.88</ele>
        <time>2016-01-23T12:07:45Z</time>
      </trkpt>
      <trkpt lat="45.8635" lon="6.53023">
        <ele>1800.69</ele>
        <time>2016-01-23T12:07:48Z</time>
      </trkpt>
      <trkpt lat="45.86346" lon="6.53029">
        <ele>1805.49</ele>
        <time>2016-01-23T12:07:50Z</time>
      </trkpt>
      <trkpt lat="45.86341" lon="6.53035">
        <ele>1808.86</ele>
        <time>2016-01-23T12:07:52Z</time>
      </trkpt>
      <trkpt lat="45.86336" lon="6.5304">
        <ele>1812.7</ele>
        <time>2016-01-23T12:07:54Z</time>
      </trkpt>
      <trkpt lat="45.86331" lon="6.53046">
        <ele>1817.03</ele>
        <time>2016-01-23T12:07:56Z</time>
      </trkpt>
      <trkpt lat="45.86323" lon="6.53055">
        <ele>1821.35</ele>
        <time>2016-01-23T12:07:59Z</time>
      </trkpt>
      <trkpt lat="45.86315" lon="6.53065">
        <ele>1825.2</ele>
        <time>2016-01-23T12:08:02Z</time>
      </trkpt>
      <trkpt lat="45.86308" lon="6.53074">
        <ele>1829.05</ele>
        <time>2016-01-23T12:08:05Z</time>
      </trkpt>
      <trkpt lat="45.863" lon="6.53082">
        <ele>1832.89</ele>
        <time>2016-01-23T12:08:08Z</time>
      </trkpt>
      <trkpt lat="45.86295" lon="6.53088">
        <ele>1836.26</ele>
        <time>2016-01-23T12:08:10Z</time>
      </trkpt>
      <trkpt lat="45.86287" lon="6.53097">
        <ele>1841.06</ele>
        <time>2016-01-23T12:08:13Z</time>
      </trkpt>
      <trkpt lat="45.86283" lon="6.53102">
        <ele>1844.91</ele>
        <time>2016-01-23T12:08:15Z</time>
      </trkpt>
      <trkpt lat="45.86278" lon="6.53108">
        <ele>1848.27</ele>
        <time>2016-01-23T12:08:17Z</time>
      </trkpt>
      <trkpt lat="45.86273" lon="6.53114">
        <ele>1852.12</ele>
        <time>2016-01-23T12:08:19Z</time>
      </trkpt>
      <trkpt lat="45.86267" lon="6.5312">
        <ele>1856.44</ele>
        <time>2016-01-23T12:08:21Z</time>
      </trkpt>
      <trkpt lat="45.86264" lon="6.53124">
        <ele>1859.81</ele>
        <time>2016-01-23T12:08:23Z</time>
      </trkpt>
      <trkpt lat="45.86259" lon="6.5313">
        <ele>1863.65</ele>
        <time>2016-01-23T12:08:25Z</time>
      </trkpt>
      <trkpt lat="45.86253" lon="6.53135">
        <ele>1867.5</ele>
        <time>2016-01-23T12:08:27Z</time>
      </trkpt>
      <trkpt lat="45.86247" lon="6.53142">
        <ele>1871.82</ele>
        <time>2016-01-23T12:08:29Z</time>
      </trkpt>
      <trkpt lat="45.86241" lon="6.53149">
        <ele>1876.63</ele>
        <time>2016-01-23T12:08:32Z</time>
      </trkpt>
      <trkpt lat="45.86236" lon="6.53154">
        <ele>1880.96</ele>
        <time>2016-01-23T12:08:34Z</time>
      </trkpt>
      <trkpt lat="45.86232" lon="6.53159">
        <ele>1884.8</ele>
        <time>2016-01-23T12:08:36Z</time>
      </trkpt>
      <trkpt lat="45.86227" lon="6.53165">
        <ele>1889.13</ele>
        <time>2016-01-23T12:08:38Z</time>
      </trkpt>
      <trkpt lat="45.86222" lon="6.5317">
        <ele>1892.97</ele>
        <time>2016-01-23T12:08:40Z</time>
      </trkpt>
      <trkpt lat="45.86218" lon="6.53176">
        <ele>1896.82</ele>
        <time>2016-01-23T12:08:42Z</time>
      </trkpt>
      <trkpt lat="45.86213" lon="6.53181">
        <ele>1900.66</ele>
        <time>2016-01-23T12:08:44Z</time>
      </trkpt>
      <trkpt lat="45.86208" lon="6.53187">
        <ele>1904.51</ele>
        <time>2016-01-23T12:08:46Z</time>
      </trkpt>
      <trkpt lat="45.86204" lon="6.53192">
        <ele>1907.87</ele>
        <time>2016-01-23T12:08:48Z</time>
      </trkpt>
      <trkpt lat="45.86199" lon="6.53198">
        <ele>1911.72</ele>
        <time>2016-01-23T12:08:50Z</time>
      </trkpt>
      <trkpt lat="45.86194" lon="6.53203">
        <ele>1916.04</ele>
        <time>2016-01-23T12:08:52Z</time>
      </trkpt>
      <trkpt lat="45.86188" lon="6.5321">
        <ele>1919.89</ele>
        <time>2016-01-23T12:08:54Z</time>
      </trkpt>
      <trkpt lat="45.86181" lon="6.53218">
        <ele>1923.25</ele>
        <time>2016-01-23T12:08:57Z</time>
      </trkpt>
      <trkpt lat="45.86178" lon="6.53223">
        <ele>1923.74</ele>
        <time>2016-01-23T12:08:58Z</time>
      </trkpt>
      <trkpt lat="45.86174" lon="6.53228">
        <ele>1924.22</ele>
        <time>2016-01-23T12:08:59Z</time>
      </trkpt>
      <trkpt lat="45.86171" lon="6.53231">
        <ele>1924.22</ele>
        <time>2016-01-23T12:09:00Z</time>
      </trkpt>
      <trkpt lat="45.86168" lon="6.53232">
        <ele>1924.22</ele>
        <time>2016-01-23T12:09:01Z</time>
      </trkpt>
      <trkpt lat="45.86166" lon="6.53232">
        <ele>1924.22</ele>
        <time>2016-01-23T12:09:02Z</time>
      </trkpt>
      <trkpt lat="45.86165" lon="6.53231">
        <ele>1924.22</ele>
        <time>2016-01-23T12:09:03Z</time>
      </trkpt>
      <trkpt lat="45.86163" lon="6.5323">
        <ele>1924.22</ele>
        <time>2016-01-23T12:09:04Z</time>
      </trkpt>
      <trkpt lat="45.86155" lon="6.53223">
        <ele>1922.29</ele>
        <time>2016-01-23T12:09:09Z</time>
      </trkpt>
      <trkpt lat="45.86151" lon="6.53219">
        <ele>1921.33</ele>
        <time>2016-01-23T12:09:18Z</time>
      </trkpt>
      <trkpt lat="45.86153" lon="6.53217">
        <ele>1921.33</ele>
        <time>2016-01-23T12:09:43Z</time>
      </trkpt>
      <trkpt lat="45.86152" lon="6.53215">
        <ele>1920.85</ele>
        <time>2016-01-23T12:09:58Z</time>
      </trkpt>
      <trkpt lat="45.86151" lon="6.53215">
        <ele>1920.85</ele>
        <time>2016-01-23T12:10:17Z</time>
      </trkpt>
      <trkpt lat="45.8615" lon="6.53209">
        <ele>1920.37</ele>
        <time>2016-01-23T12:10:29Z</time>
      </trkpt>
      <trkpt lat="45.86149" lon="6.53207">
        <ele>1920.37</ele>
        <time>2016-01-23T12:10:30Z</time>
      </trkpt>
      <trkpt lat="45.86144" lon="6.53183">
        <ele>1919.89</ele>
        <time>2016-01-23T12:10:36Z</time>
      </trkpt>
      <trkpt lat="45.86141" lon="6.53178">
        <ele>1918.45</ele>
        <time>2016-01-23T12:10:37Z</time>
      </trkpt>
      <trkpt lat="45.86138" lon="6.53173">
        <ele>1917.97</ele>
        <time>2016-01-23T12:10:38Z</time>
      </trkpt>
      <trkpt lat="45.86136" lon="6.53167">
        <ele>1917.49</ele>
        <time>2016-01-23T12:10:39Z</time>
      </trkpt>
      <trkpt lat="45.86134" lon="6.5316">
        <ele>1917.49</ele>
        <time>2016-01-23T12:10:40Z</time>
      </trkpt>
      <trkpt lat="45.86131" lon="6.53153">
        <ele>1917.49</ele>
        <time>2016-01-23T12:10:41Z</time>
      </trkpt>
      <trkpt lat="45.86127" lon="6.53148">
        <ele>1915.56</ele>
        <time>2016-01-23T12:10:42Z</time>
      </trkpt>
      <trkpt lat="45.86122" lon="6.53143">
        <ele>1914.6</ele>
        <time>2016-01-23T12:10:43Z</time>
      </trkpt>
      <trkpt lat="45.86118" lon="6.53136">
        <ele>1912.68</ele>
        <time>2016-01-23T12:10:44Z</time>
      </trkpt>
      <trkpt lat="45.86115" lon="6.53127">
        <ele>1912.68</ele>
        <time>2016-01-23T12:10:45Z</time>
      </trkpt>
      <trkpt lat="45.8611" lon="6.53119">
        <ele>1911.24</ele>
        <time>2016-01-23T12:10:46Z</time>
      </trkpt>
      <trkpt lat="45.86106" lon="6.53112">
        <ele>1908.35</ele>
        <time>2016-01-23T12:10:47Z</time>
      </trkpt>
      <trkpt lat="45.86102" lon="6.53104">
        <ele>1908.35</ele>
        <time>2016-01-23T12:10:48Z</time>
      </trkpt>
      <trkpt lat="45.86093" lon="6.53086">
        <ele>1904.99</ele>
        <time>2016-01-23T12:10:50Z</time>
      </trkpt>
      <trkpt lat="45.8609" lon="6.53082">
        <ele>1901.14</ele>
        <time>2016-01-23T12:10:51Z</time>
      </trkpt>
      <trkpt lat="45.86089" lon="6.53081">
        <ele>1898.74</ele>
        <time>2016-01-23T12:10:53Z</time>
      </trkpt>
      <trkpt lat="45.86088" lon="6.53083">
        <ele>1899.7</ele>
        <time>2016-01-23T12:11:07Z</time>
      </trkpt>
      <trkpt lat="45.86087" lon="6.53081">
        <ele>1899.7</ele>
        <time>2016-01-23T12:11:08Z</time>
      </trkpt>
      <trkpt lat="45.86074" lon="6.53053">
        <ele>1896.82</ele>
        <time>2016-01-23T12:11:13Z</time>
      </trkpt>
      <trkpt lat="45.8607" lon="6.53045">
        <ele>1896.82</ele>
        <time>2016-01-23T12:11:14Z</time>
      </trkpt>
      <trkpt lat="45.86048" lon="6.53008">
        <ele>1894.9</ele>
        <time>2016-01-23T12:11:18Z</time>
      </trkpt>
      <trkpt lat="45.86042" lon="6.53">
        <ele>1892.01</ele>
        <time>2016-01-23T12:11:19Z</time>
      </trkpt>
      <trkpt lat="45.86035" lon="6.52992">
        <ele>1892.01</ele>
        <time>2016-01-23T12:11:20Z</time>
      </trkpt>
      <trkpt lat="45.86022" lon="6.52976">
        <ele>1890.57</ele>
        <time>2016-01-23T12:11:22Z</time>
      </trkpt>
      <trkpt lat="45.86017" lon="6.52968">
        <ele>1890.57</ele>
        <time>2016-01-23T12:11:23Z</time>
      </trkpt>
      <trkpt lat="45.86008" lon="6.52951">
        <ele>1890.09</ele>
        <time>2016-01-23T12:11:25Z</time>
      </trkpt>
      <trkpt lat="45.85994" lon="6.5293">
        <ele>1888.65</ele>
        <time>2016-01-23T12:11:28Z</time>
      </trkpt>
      <trkpt lat="45.8599" lon="6.52923">
        <ele>1888.65</ele>
        <time>2016-01-23T12:11:29Z</time>
      </trkpt>
      <trkpt lat="45.85986" lon="6.52912">
        <ele>1885.76</ele>
        <time>2016-01-23T12:11:31Z</time>
      </trkpt>
      <trkpt lat="45.85985" lon="6.5291">
        <ele>1885.28</ele>
        <time>2016-01-23T12:11:33Z</time>
      </trkpt>
      <trkpt lat="45.85986" lon="6.5291">
        <ele>1885.28</ele>
        <time>2016-01-23T12:11:45Z</time>
      </trkpt>
      <trkpt lat="45.85984" lon="6.5291">
        <ele>1885.28</ele>
        <time>2016-01-23T12:12:11Z</time>
      </trkpt>
      <trkpt lat="45.85984" lon="6.52909">
        <ele>1885.28</ele>
        <time>2016-01-23T12:12:35Z</time>
      </trkpt>
      <trkpt lat="45.85984" lon="6.52906">
        <ele>1885.28</ele>
        <time>2016-01-23T12:12:37Z</time>
      </trkpt>
      <trkpt lat="45.85984" lon="6.52902">
        <ele>1884.32</ele>
        <time>2016-01-23T12:12:50Z</time>
      </trkpt>
      <trkpt lat="45.85985" lon="6.529">
        <ele>1884.32</ele>
        <time>2016-01-23T12:13:06Z</time>
      </trkpt>
      <trkpt lat="45.85985" lon="6.52898">
        <ele>1884.32</ele>
        <time>2016-01-23T12:13:07Z</time>
      </trkpt>
      <trkpt lat="45.85985" lon="6.52895">
        <ele>1884.32</ele>
        <time>2016-01-23T12:13:08Z</time>
      </trkpt>
      <trkpt lat="45.85986" lon="6.52894">
        <ele>1883.36</ele>
        <time>2016-01-23T12:13:19Z</time>
      </trkpt>
      <trkpt lat="45.85986" lon="6.52896">
        <ele>1883.36</ele>
        <time>2016-01-23T12:13:42Z</time>
      </trkpt>
      <trkpt lat="45.85984" lon="6.52894">
        <ele>1883.36</ele>
        <time>2016-01-23T12:13:58Z</time>
      </trkpt>
      <trkpt lat="45.85959" lon="6.52858">
        <ele>1881.44</ele>
        <time>2016-01-23T12:14:05Z</time>
      </trkpt>
      <trkpt lat="45.85938" lon="6.52826">
        <ele>1877.11</ele>
        <time>2016-01-23T12:14:08Z</time>
      </trkpt>
      <trkpt lat="45.85922" lon="6.52799">
        <ele>1872.79</ele>
        <time>2016-01-23T12:14:10Z</time>
      </trkpt>
      <trkpt lat="45.85908" lon="6.52774">
        <ele>1868.46</ele>
        <time>2016-01-23T12:14:12Z</time>
      </trkpt>
      <trkpt lat="45.85895" lon="6.5275">
        <ele>1861.73</ele>
        <time>2016-01-23T12:14:14Z</time>
      </trkpt>
      <trkpt lat="45.85869" lon="6.52702">
        <ele>1862.69</ele>
        <time>2016-01-23T12:14:19Z</time>
      </trkpt>
      <trkpt lat="45.85846" lon="6.52664">
        <ele>1860.77</ele>
        <time>2016-01-23T12:14:24Z</time>
      </trkpt>
      <trkpt lat="45.85843" lon="6.52642">
        <ele>1855</ele>
        <time>2016-01-23T12:14:26Z</time>
      </trkpt>
      <trkpt lat="45.85846" lon="6.52632">
        <ele>1851.64</ele>
        <time>2016-01-23T12:14:27Z</time>
      </trkpt>
      <trkpt lat="45.85866" lon="6.52612">
        <ele>1840.58</ele>
        <time>2016-01-23T12:14:29Z</time>
      </trkpt>
      <trkpt lat="45.85885" lon="6.5259">
        <ele>1829.53</ele>
        <time>2016-01-23T12:14:31Z</time>
      </trkpt>
      <trkpt lat="45.859" lon="6.52578">
        <ele>1819.43</ele>
        <time>2016-01-23T12:14:32Z</time>
      </trkpt>
      <trkpt lat="45.85954" lon="6.52548">
        <ele>1817.51</ele>
        <time>2016-01-23T12:14:36Z</time>
      </trkpt>
      <trkpt lat="45.85965" lon="6.52543">
        <ele>1816.07</ele>
        <time>2016-01-23T12:14:37Z</time>
      </trkpt>
      <trkpt lat="45.85975" lon="6.52536">
        <ele>1819.91</ele>
        <time>2016-01-23T12:14:38Z</time>
      </trkpt>
      <trkpt lat="45.85989" lon="6.52526">
        <ele>1823.76</ele>
        <time>2016-01-23T12:14:40Z</time>
      </trkpt>
      <trkpt lat="45.8599" lon="6.52528">
        <ele>1823.76</ele>
        <time>2016-01-23T12:14:45Z</time>
      </trkpt>
      <trkpt lat="45.8602" lon="6.5252">
        <ele>1819.43</ele>
        <time>2016-01-23T12:14:52Z</time>
      </trkpt>
      <trkpt lat="45.86037" lon="6.52529">
        <ele>1816.07</ele>
        <time>2016-01-23T12:14:54Z</time>
      </trkpt>
      <trkpt lat="45.8606" lon="6.52545">
        <ele>1816.07</ele>
        <time>2016-01-23T12:14:58Z</time>
      </trkpt>
      <trkpt lat="45.86079" lon="6.52565">
        <ele>1811.74</ele>
        <time>2016-01-23T12:15:01Z</time>
      </trkpt>
      <trkpt lat="45.86084" lon="6.52578">
        <ele>1808.38</ele>
        <time>2016-01-23T12:15:02Z</time>
      </trkpt>
      <trkpt lat="45.86085" lon="6.5259">
        <ele>1807.9</ele>
        <time>2016-01-23T12:15:03Z</time>
      </trkpt>
      <trkpt lat="45.86086" lon="6.52615">
        <ele>1807.42</ele>
        <time>2016-01-23T12:15:05Z</time>
      </trkpt>
      <trkpt lat="45.86095" lon="6.52656">
        <ele>1802.13</ele>
        <time>2016-01-23T12:15:08Z</time>
      </trkpt>
      <trkpt lat="45.86108" lon="6.52687">
        <ele>1804.05</ele>
        <time>2016-01-23T12:15:11Z</time>
      </trkpt>
      <trkpt lat="45.8612" lon="6.5271">
        <ele>1804.53</ele>
        <time>2016-01-23T12:15:14Z</time>
      </trkpt>
      <trkpt lat="45.8616" lon="6.52753">
        <ele>1801.65</ele>
        <time>2016-01-23T12:15:22Z</time>
      </trkpt>
      <trkpt lat="45.86193" lon="6.52779">
        <ele>1797.32</ele>
        <time>2016-01-23T12:15:27Z</time>
      </trkpt>
      <trkpt lat="45.862" lon="6.52786">
        <ele>1795.88</ele>
        <time>2016-01-23T12:15:28Z</time>
      </trkpt>
      <trkpt lat="45.86211" lon="6.52804">
        <ele>1794.44</ele>
        <time>2016-01-23T12:15:30Z</time>
      </trkpt>
      <trkpt lat="45.86216" lon="6.52813">
        <ele>1794.44</ele>
        <time>2016-01-23T12:15:31Z</time>
      </trkpt>
      <trkpt lat="45.86239" lon="6.52838">
        <ele>1792.52</ele>
        <time>2016-01-23T12:15:35Z</time>
      </trkpt>
      <trkpt lat="45.8627" lon="6.52847">
        <ele>1785.79</ele>
        <time>2016-01-23T12:15:38Z</time>
      </trkpt>
      <trkpt lat="45.86304" lon="6.52863">
        <ele>1777.61</ele>
        <time>2016-01-23T12:15:41Z</time>
      </trkpt>
      <trkpt lat="45.86327" lon="6.52876">
        <ele>1772.33</ele>
        <time>2016-01-23T12:15:43Z</time>
      </trkpt>
      <trkpt lat="45.86349" lon="6.52886">
        <ele>1768</ele>
        <time>2016-01-23T12:15:45Z</time>
      </trkpt>
      <trkpt lat="45.8636" lon="6.5289">
        <ele>1768</ele>
        <time>2016-01-23T12:15:46Z</time>
      </trkpt>
      <trkpt lat="45.86398" lon="6.52892">
        <ele>1757.91</ele>
        <time>2016-01-23T12:15:49Z</time>
      </trkpt>
      <trkpt lat="45.86416" lon="6.52884">
        <ele>1754.54</ele>
        <time>2016-01-23T12:15:51Z</time>
      </trkpt>
      <trkpt lat="45.8642" lon="6.52882">
        <ele>1754.54</ele>
        <time>2016-01-23T12:15:52Z</time>
      </trkpt>
      <trkpt lat="45.86412" lon="6.52879">
        <ele>1754.54</ele>
        <time>2016-01-23T12:15:59Z</time>
      </trkpt>
      <trkpt lat="45.8641" lon="6.52879">
        <ele>1754.54</ele>
        <time>2016-01-23T12:16:22Z</time>
      </trkpt>
      <trkpt lat="45.86434" lon="6.52876">
        <ele>1749.26</ele>
        <time>2016-01-23T12:16:29Z</time>
      </trkpt>
      <trkpt lat="45.86448" lon="6.52877">
        <ele>1746.37</ele>
        <time>2016-01-23T12:16:31Z</time>
      </trkpt>
      <trkpt lat="45.86462" lon="6.52862">
        <ele>1740.6</ele>
        <time>2016-01-23T12:16:35Z</time>
      </trkpt>
      <trkpt lat="45.86466" lon="6.5285">
        <ele>1737.24</ele>
        <time>2016-01-23T12:16:38Z</time>
      </trkpt>
      <trkpt lat="45.8647" lon="6.52843">
        <ele>1733.39</ele>
        <time>2016-01-23T12:16:41Z</time>
      </trkpt>
      <trkpt lat="45.86467" lon="6.5284">
        <ele>1733.39</ele>
        <time>2016-01-23T12:16:50Z</time>
      </trkpt>
      <trkpt lat="45.86474" lon="6.52839">
        <ele>1730.51</ele>
        <time>2016-01-23T12:16:59Z</time>
      </trkpt>
      <trkpt lat="45.86484" lon="6.52829">
        <ele>1727.15</ele>
        <time>2016-01-23T12:17:03Z</time>
      </trkpt>
      <trkpt lat="45.86488" lon="6.5281">
        <ele>1721.86</ele>
        <time>2016-01-23T12:17:05Z</time>
      </trkpt>
      <trkpt lat="45.86494" lon="6.52803">
        <ele>1717.05</ele>
        <time>2016-01-23T12:17:06Z</time>
      </trkpt>
      <trkpt lat="45.86502" lon="6.528">
        <ele>1713.69</ele>
        <time>2016-01-23T12:17:07Z</time>
      </trkpt>
      <trkpt lat="45.86521" lon="6.52785">
        <ele>1703.59</ele>
        <time>2016-01-23T12:17:10Z</time>
      </trkpt>
      <trkpt lat="45.86523" lon="6.52775">
        <ele>1700.23</ele>
        <time>2016-01-23T12:17:11Z</time>
      </trkpt>
      <trkpt lat="45.86529" lon="6.52766">
        <ele>1693.02</ele>
        <time>2016-01-23T12:17:12Z</time>
      </trkpt>
      <trkpt lat="45.86537" lon="6.5276">
        <ele>1686.77</ele>
        <time>2016-01-23T12:17:13Z</time>
      </trkpt>
      <trkpt lat="45.86553" lon="6.52758">
        <ele>1682.44</ele>
        <time>2016-01-23T12:17:15Z</time>
      </trkpt>
      <trkpt lat="45.86563" lon="6.52743">
        <ele>1676.2</ele>
        <time>2016-01-23T12:17:17Z</time>
      </trkpt>
      <trkpt lat="45.86567" lon="6.52735">
        <ele>1670.43</ele>
        <time>2016-01-23T12:17:18Z</time>
      </trkpt>
      <trkpt lat="45.86574" lon="6.52729">
        <ele>1665.14</ele>
        <time>2016-01-23T12:17:19Z</time>
      </trkpt>
      <trkpt lat="45.8659" lon="6.52723">
        <ele>1660.81</ele>
        <time>2016-01-23T12:17:21Z</time>
      </trkpt>
      <trkpt lat="45.86595" lon="6.52715">
        <ele>1656.49</ele>
        <time>2016-01-23T12:17:22Z</time>
      </trkpt>
      <trkpt lat="45.86612" lon="6.52697">
        <ele>1642.07</ele>
        <time>2016-01-23T12:17:25Z</time>
      </trkpt>
      <trkpt lat="45.86629" lon="6.52701">
        <ele>1637.26</ele>
        <time>2016-01-23T12:17:27Z</time>
      </trkpt>
      <trkpt lat="45.86636" lon="6.52703">
        <ele>1634.38</ele>
        <time>2016-01-23T12:17:28Z</time>
      </trkpt>
      <trkpt lat="45.86653" lon="6.527">
        <ele>1630.53</ele>
        <time>2016-01-23T12:17:30Z</time>
      </trkpt>
      <trkpt lat="45.8666" lon="6.52699">
        <ele>1626.21</ele>
        <time>2016-01-23T12:17:31Z</time>
      </trkpt>
      <trkpt lat="45.86678" lon="6.52695">
        <ele>1620.92</ele>
        <time>2016-01-23T12:17:33Z</time>
      </trkpt>
      <trkpt lat="45.86684" lon="6.5269">
        <ele>1618.52</ele>
        <time>2016-01-23T12:17:34Z</time>
      </trkpt>
      <trkpt lat="45.86686" lon="6.52685">
        <ele>1616.11</ele>
        <time>2016-01-23T12:17:35Z</time>
      </trkpt>
      <trkpt lat="45.86686" lon="6.52682">
        <ele>1615.63</ele>
        <time>2016-01-23T12:17:36Z</time>
      </trkpt>
      <trkpt lat="45.86685" lon="6.5268">
        <ele>1616.11</ele>
        <time>2016-01-23T12:17:45Z</time>
      </trkpt>
      <trkpt lat="45.86685" lon="6.52678">
        <ele>1615.63</ele>
        <time>2016-01-23T12:17:46Z</time>
      </trkpt>
      <trkpt lat="45.86684" lon="6.52677">
        <ele>1615.63</ele>
        <time>2016-01-23T12:17:47Z</time>
      </trkpt>
      <trkpt lat="45.86683" lon="6.52675">
        <ele>1616.11</ele>
        <time>2016-01-23T12:17:48Z</time>
      </trkpt>
      <trkpt lat="45.86681" lon="6.52673">
        <ele>1616.11</ele>
        <time>2016-01-23T12:17:50Z</time>
      </trkpt>
      <trkpt lat="45.86672" lon="6.52661">
        <ele>1616.11</ele>
        <time>2016-01-23T12:18:02Z</time>
      </trkpt>
      <trkpt lat="45.86667" lon="6.52664">
        <ele>1615.63</ele>
        <time>2016-01-23T12:18:09Z</time>
      </trkpt>
      <trkpt lat="45.86659" lon="6.52673">
        <ele>1619</ele>
        <time>2016-01-23T12:18:13Z</time>
      </trkpt>
      <trkpt lat="45.86651" lon="6.52681">
        <ele>1621.88</ele>
        <time>2016-01-23T12:18:16Z</time>
      </trkpt>
      <trkpt lat="45.86646" lon="6.52687">
        <ele>1626.69</ele>
        <time>2016-01-23T12:18:18Z</time>
      </trkpt>
      <trkpt lat="45.86641" lon="6.52692">
        <ele>1630.53</ele>
        <time>2016-01-23T12:18:20Z</time>
      </trkpt>
      <trkpt lat="45.86636" lon="6.52697">
        <ele>1633.9</ele>
        <time>2016-01-23T12:18:22Z</time>
      </trkpt>
      <trkpt lat="45.86631" lon="6.52704">
        <ele>1637.26</ele>
        <time>2016-01-23T12:18:24Z</time>
      </trkpt>
      <trkpt lat="45.86623" lon="6.52713">
        <ele>1642.07</ele>
        <time>2016-01-23T12:18:27Z</time>
      </trkpt>
      <trkpt lat="45.86618" lon="6.5272">
        <ele>1644.95</ele>
        <time>2016-01-23T12:18:29Z</time>
      </trkpt>
      <trkpt lat="45.86613" lon="6.52726">
        <ele>1648.32</ele>
        <time>2016-01-23T12:18:31Z</time>
      </trkpt>
      <trkpt lat="45.86608" lon="6.52732">
        <ele>1651.68</ele>
        <time>2016-01-23T12:18:33Z</time>
      </trkpt>
      <trkpt lat="45.86605" lon="6.52737">
        <ele>1654.57</ele>
        <time>2016-01-23T12:18:35Z</time>
      </trkpt>
      <trkpt lat="45.86599" lon="6.52743">
        <ele>1657.93</ele>
        <time>2016-01-23T12:18:37Z</time>
      </trkpt>
      <trkpt lat="45.86592" lon="6.52751">
        <ele>1662.26</ele>
        <time>2016-01-23T12:18:40Z</time>
      </trkpt>
      <trkpt lat="45.86585" lon="6.52761">
        <ele>1666.58</ele>
        <time>2016-01-23T12:18:43Z</time>
      </trkpt>
      <trkpt lat="45.8658" lon="6.52767">
        <ele>1669.95</ele>
        <time>2016-01-23T12:18:45Z</time>
      </trkpt>
      <trkpt lat="45.86575" lon="6.52772">
        <ele>1673.31</ele>
        <time>2016-01-23T12:18:47Z</time>
      </trkpt>
      <trkpt lat="45.8657" lon="6.52777">
        <ele>1676.68</ele>
        <time>2016-01-23T12:18:49Z</time>
      </trkpt>
      <trkpt lat="45.86566" lon="6.52783">
        <ele>1680.04</ele>
        <time>2016-01-23T12:18:51Z</time>
      </trkpt>
      <trkpt lat="45.86561" lon="6.52788">
        <ele>1683.41</ele>
        <time>2016-01-23T12:18:53Z</time>
      </trkpt>
      <trkpt lat="45.86556" lon="6.52793">
        <ele>1687.25</ele>
        <time>2016-01-23T12:18:55Z</time>
      </trkpt>
      <trkpt lat="45.86551" lon="6.52798">
        <ele>1690.62</ele>
        <time>2016-01-23T12:18:57Z</time>
      </trkpt>
      <trkpt lat="45.86546" lon="6.52805">
        <ele>1693.98</ele>
        <time>2016-01-23T12:18:59Z</time>
      </trkpt>
      <trkpt lat="45.86541" lon="6.52811">
        <ele>1697.34</ele>
        <time>2016-01-23T12:19:01Z</time>
      </trkpt>
      <trkpt lat="45.86536" lon="6.52815">
        <ele>1700.71</ele>
        <time>2016-01-23T12:19:03Z</time>
      </trkpt>
      <trkpt lat="45.86531" lon="6.52821">
        <ele>1704.55</ele>
        <time>2016-01-23T12:19:05Z</time>
      </trkpt>
      <trkpt lat="45.86526" lon="6.52827">
        <ele>1707.92</ele>
        <time>2016-01-23T12:19:07Z</time>
      </trkpt>
      <trkpt lat="45.86522" lon="6.52832">
        <ele>1711.76</ele>
        <time>2016-01-23T12:19:09Z</time>
      </trkpt>
      <trkpt lat="45.86517" lon="6.52837">
        <ele>1714.65</ele>
        <time>2016-01-23T12:19:11Z</time>
      </trkpt>
      <trkpt lat="45.86512" lon="6.52843">
        <ele>1718.01</ele>
        <time>2016-01-23T12:19:13Z</time>
      </trkpt>
      <trkpt lat="45.86507" lon="6.52848">
        <ele>1721.38</ele>
        <time>2016-01-23T12:19:15Z</time>
      </trkpt>
      <trkpt lat="45.86503" lon="6.52854">
        <ele>1725.22</ele>
        <time>2016-01-23T12:19:17Z</time>
      </trkpt>
      <trkpt lat="45.86498" lon="6.5286">
        <ele>1728.59</ele>
        <time>2016-01-23T12:19:19Z</time>
      </trkpt>
      <trkpt lat="45.86492" lon="6.52866">
        <ele>1731.95</ele>
        <time>2016-01-23T12:19:21Z</time>
      </trkpt>
      <trkpt lat="45.86487" lon="6.52871">
        <ele>1735.8</ele>
        <time>2016-01-23T12:19:23Z</time>
      </trkpt>
      <trkpt lat="45.86482" lon="6.52878">
        <ele>1738.68</ele>
        <time>2016-01-23T12:19:25Z</time>
      </trkpt>
      <trkpt lat="45.86477" lon="6.52884">
        <ele>1742.05</ele>
        <time>2016-01-23T12:19:27Z</time>
      </trkpt>
      <trkpt lat="45.86471" lon="6.5289">
        <ele>1745.89</ele>
        <time>2016-01-23T12:19:29Z</time>
      </trkpt>
      <trkpt lat="45.86462" lon="6.52899">
        <ele>1749.74</ele>
        <time>2016-01-23T12:19:32Z</time>
      </trkpt>
      <trkpt lat="45.86459" lon="6.52903">
        <ele>1749.74</ele>
        <time>2016-01-23T12:19:33Z</time>
      </trkpt>
      <trkpt lat="45.86445" lon="6.52918">
        <ele>1753.58</ele>
        <time>2016-01-23T12:19:38Z</time>
      </trkpt>
      <trkpt lat="45.86435" lon="6.52931">
        <ele>1757.43</ele>
        <time>2016-01-23T12:19:42Z</time>
      </trkpt>
      <trkpt lat="45.86427" lon="6.52939">
        <ele>1760.79</ele>
        <time>2016-01-23T12:19:45Z</time>
      </trkpt>
      <trkpt lat="45.86424" lon="6.52942">
        <ele>1760.79</ele>
        <time>2016-01-23T12:19:46Z</time>
      </trkpt>
      <trkpt lat="45.86417" lon="6.52951">
        <ele>1765.6</ele>
        <time>2016-01-23T12:19:49Z</time>
      </trkpt>
      <trkpt lat="45.86406" lon="6.52963">
        <ele>1769.44</ele>
        <time>2016-01-23T12:19:53Z</time>
      </trkpt>
      <trkpt lat="45.86395" lon="6.52974">
        <ele>1773.29</ele>
        <time>2016-01-23T12:19:57Z</time>
      </trkpt>
      <trkpt lat="45.86387" lon="6.52984">
        <ele>1776.65</ele>
        <time>2016-01-23T12:20:00Z</time>
      </trkpt>
      <trkpt lat="45.86379" lon="6.52992">
        <ele>1780.5</ele>
        <time>2016-01-23T12:20:03Z</time>
      </trkpt>
      <trkpt lat="45.86374" lon="6.52998">
        <ele>1784.82</ele>
        <time>2016-01-23T12:20:05Z</time>
      </trkpt>
      <trkpt lat="45.86369" lon="6.53004">
        <ele>1788.19</ele>
        <time>2016-01-23T12:20:07Z</time>
      </trkpt>
      <trkpt lat="45.86364" lon="6.53009">
        <ele>1792.03</ele>
        <time>2016-01-23T12:20:09Z</time>
      </trkpt>
      <trkpt lat="45.86359" lon="6.53015">
        <ele>1795.88</ele>
        <time>2016-01-23T12:20:11Z</time>
      </trkpt>
      <trkpt lat="45.86354" lon="6.5302">
        <ele>1799.24</ele>
        <time>2016-01-23T12:20:13Z</time>
      </trkpt>
      <trkpt lat="45.86349" lon="6.53026">
        <ele>1802.61</ele>
        <time>2016-01-23T12:20:15Z</time>
      </trkpt>
      <trkpt lat="45.86344" lon="6.53031">
        <ele>1806.94</ele>
        <time>2016-01-23T12:20:17Z</time>
      </trkpt>
      <trkpt lat="45.8634" lon="6.53036">
        <ele>1810.78</ele>
        <time>2016-01-23T12:20:19Z</time>
      </trkpt>
      <trkpt lat="45.86335" lon="6.53042">
        <ele>1814.15</ele>
        <time>2016-01-23T12:20:21Z</time>
      </trkpt>
      <trkpt lat="45.8633" lon="6.53048">
        <ele>1817.99</ele>
        <time>2016-01-23T12:20:23Z</time>
      </trkpt>
      <trkpt lat="45.86323" lon="6.53056">
        <ele>1822.8</ele>
        <time>2016-01-23T12:20:26Z</time>
      </trkpt>
      <trkpt lat="45.86315" lon="6.53066">
        <ele>1826.64</ele>
        <time>2016-01-23T12:20:29Z</time>
      </trkpt>
      <trkpt lat="45.86306" lon="6.53074">
        <ele>1829.53</ele>
        <time>2016-01-23T12:20:32Z</time>
      </trkpt>
      <trkpt lat="45.86299" lon="6.53083">
        <ele>1833.85</ele>
        <time>2016-01-23T12:20:35Z</time>
      </trkpt>
      <trkpt lat="45.86292" lon="6.53091">
        <ele>1838.66</ele>
        <time>2016-01-23T12:20:38Z</time>
      </trkpt>
      <trkpt lat="45.86286" lon="6.53097">
        <ele>1841.54</ele>
        <time>2016-01-23T12:20:40Z</time>
      </trkpt>
      <trkpt lat="45.86282" lon="6.53103">
        <ele>1845.87</ele>
        <time>2016-01-23T12:20:42Z</time>
      </trkpt>
      <trkpt lat="45.86277" lon="6.53108">
        <ele>1849.23</ele>
        <time>2016-01-23T12:20:44Z</time>
      </trkpt>
      <trkpt lat="45.86272" lon="6.53114">
        <ele>1853.08</ele>
        <time>2016-01-23T12:20:46Z</time>
      </trkpt>
      <trkpt lat="45.86266" lon="6.5312">
        <ele>1857.4</ele>
        <time>2016-01-23T12:20:49Z</time>
      </trkpt>
      <trkpt lat="45.8626" lon="6.53127">
        <ele>1862.69</ele>
        <time>2016-01-23T12:20:51Z</time>
      </trkpt>
      <trkpt lat="45.86255" lon="6.53133">
        <ele>1866.06</ele>
        <time>2016-01-23T12:20:53Z</time>
      </trkpt>
      <trkpt lat="45.86249" lon="6.5314">
        <ele>1870.86</ele>
        <time>2016-01-23T12:20:56Z</time>
      </trkpt>
      <trkpt lat="45.86245" lon="6.53145">
        <ele>1873.75</ele>
        <time>2016-01-23T12:20:57Z</time>
      </trkpt>
      <trkpt lat="45.8624" lon="6.5315">
        <ele>1877.59</ele>
        <time>2016-01-23T12:20:59Z</time>
      </trkpt>
      <trkpt lat="45.86235" lon="6.53156">
        <ele>1881.44</ele>
        <time>2016-01-23T12:21:01Z</time>
      </trkpt>
      <trkpt lat="45.86229" lon="6.53162">
        <ele>1886.24</ele>
        <time>2016-01-23T12:21:04Z</time>
      </trkpt>
      <trkpt lat="45.86223" lon="6.53169">
        <ele>1891.05</ele>
        <time>2016-01-23T12:21:06Z</time>
      </trkpt>
      <trkpt lat="45.86219" lon="6.53175">
        <ele>1895.38</ele>
        <time>2016-01-23T12:21:08Z</time>
      </trkpt>
      <trkpt lat="45.86214" lon="6.5318">
        <ele>1899.22</ele>
        <time>2016-01-23T12:21:10Z</time>
      </trkpt>
      <trkpt lat="45.86209" lon="6.53186">
        <ele>1903.07</ele>
        <time>2016-01-23T12:21:12Z</time>
      </trkpt>
      <trkpt lat="45.86204" lon="6.53191">
        <ele>1906.43</ele>
        <time>2016-01-23T12:21:14Z</time>
      </trkpt>
      <trkpt lat="45.86199" lon="6.53196">
        <ele>1910.28</ele>
        <time>2016-01-23T12:21:16Z</time>
      </trkpt>
      <trkpt lat="45.86195" lon="6.53202">
        <ele>1914.12</ele>
        <time>2016-01-23T12:21:18Z</time>
      </trkpt>
      <trkpt lat="45.86189" lon="6.53208">
        <ele>1918.45</ele>
        <time>2016-01-23T12:21:20Z</time>
      </trkpt>
      <trkpt lat="45.86182" lon="6.53216">
        <ele>1922.77</ele>
        <time>2016-01-23T12:21:23Z</time>
      </trkpt>
      <trkpt lat="45.86177" lon="6.53223">
        <ele>1923.74</ele>
        <time>2016-01-23T12:21:25Z</time>
      </trkpt>
      <trkpt lat="45.86174" lon="6.53229">
        <ele>1924.7</ele>
        <time>2016-01-23T12:21:26Z</time>
      </trkpt>
      <trkpt lat="45.86173" lon="6.53233">
        <ele>1924.7</ele>
        <time>2016-01-23T12:21:27Z</time>
      </trkpt>
      <trkpt lat="45.86173" lon="6.53235">
        <ele>1922.29</ele>
        <time>2016-01-23T12:21:36Z</time>
      </trkpt>
      <trkpt lat="45.86176" lon="6.53236">
        <ele>1922.29</ele>
        <time>2016-01-23T12:21:43Z</time>
      </trkpt>
      <trkpt lat="45.86177" lon="6.53237">
        <ele>1921.81</ele>
        <time>2016-01-23T12:21:44Z</time>
      </trkpt>
      <trkpt lat="45.86179" lon="6.53235">
        <ele>1921.81</ele>
        <time>2016-01-23T12:21:47Z</time>
      </trkpt>
      <trkpt lat="45.8618" lon="6.53233">
        <ele>1921.33</ele>
        <time>2016-01-23T12:21:48Z</time>
      </trkpt>
      <trkpt lat="45.8618" lon="6.53231">
        <ele>1921.33</ele>
        <time>2016-01-23T12:21:49Z</time>
      </trkpt>
      <trkpt lat="45.86181" lon="6.53229">
        <ele>1921.33</ele>
        <time>2016-01-23T12:21:50Z</time>
      </trkpt>
      <trkpt lat="45.86181" lon="6.53227">
        <ele>1921.33</ele>
        <time>2016-01-23T12:21:51Z</time>
      </trkpt>
      <trkpt lat="45.86182" lon="6.53226">
        <ele>1920.85</ele>
        <time>2016-01-23T12:22:01Z</time>
      </trkpt>
      <trkpt lat="45.8618" lon="6.53228">
        <ele>1920.37</ele>
        <time>2016-01-23T12:22:20Z</time>
      </trkpt>
      <trkpt lat="45.86179" lon="6.53226">
        <ele>1920.37</ele>
        <time>2016-01-23T12:22:39Z</time>
      </trkpt>
      <trkpt lat="45.8618" lon="6.53228">
        <ele>1920.37</ele>
        <time>2016-01-23T12:23:00Z</time>
      </trkpt>
      <trkpt lat="45.86185" lon="6.53228">
        <ele>1920.37</ele>
        <time>2016-01-23T12:23:13Z</time>
      </trkpt>
      <trkpt lat="45.86184" lon="6.5323">
        <ele>1920.37</ele>
        <time>2016-01-23T12:23:24Z</time>
      </trkpt>
      <trkpt lat="45.86183" lon="6.53227">
        <ele>1920.37</ele>
        <time>2016-01-23T12:23:38Z</time>
      </trkpt>
      <trkpt lat="45.86183" lon="6.53225">
        <ele>1920.37</ele>
        <time>2016-01-23T12:23:55Z</time>
      </trkpt>
      <trkpt lat="45.86184" lon="6.53227">
        <ele>1920.37</ele>
        <time>2016-01-23T12:24:09Z</time>
      </trkpt>
      <trkpt lat="45.86183" lon="6.53226">
        <ele>1920.37</ele>
        <time>2016-01-23T12:24:34Z</time>
      </trkpt>
      <trkpt lat="45.86181" lon="6.53224">
        <ele>1920.37</ele>
        <time>2016-01-23T12:24:47Z</time>
      </trkpt>
      <trkpt lat="45.86181" lon="6.53225">
        <ele>1920.37</ele>
        <time>2016-01-23T12:25:01Z</time>
      </trkpt>
      <trkpt lat="45.86182" lon="6.53223">
        <ele>1920.37</ele>
        <time>2016-01-23T12:25:11Z</time>
      </trkpt>
      <trkpt lat="45.86183" lon="6.53221">
        <ele>1920.37</ele>
        <time>2016-01-23T12:25:12Z</time>
      </trkpt>
      <trkpt lat="45.86184" lon="6.5322">
        <ele>1920.37</ele>
        <time>2016-01-23T12:25:13Z</time>
      </trkpt>
      <trkpt lat="45.86185" lon="6.5322">
        <ele>1919.89</ele>
        <time>2016-01-23T12:25:21Z</time>
      </trkpt>
      <trkpt lat="45.86187" lon="6.53221">
        <ele>1920.37</ele>
        <time>2016-01-23T12:25:23Z</time>
      </trkpt>
      <trkpt lat="45.86187" lon="6.53224">
        <ele>1920.37</ele>
        <time>2016-01-23T12:25:35Z</time>
      </trkpt>
      <trkpt lat="45.86189" lon="6.53223">
        <ele>1919.89</ele>
        <time>2016-01-23T12:25:47Z</time>
      </trkpt>
      <trkpt lat="45.86191" lon="6.53218">
        <ele>1919.41</ele>
        <time>2016-01-23T12:26:02Z</time>
      </trkpt>
      <trkpt lat="45.86192" lon="6.53219">
        <ele>1919.41</ele>
        <time>2016-01-23T12:26:20Z</time>
      </trkpt>
      <trkpt lat="45.86194" lon="6.53219">
        <ele>1918.93</ele>
        <time>2016-01-23T12:26:21Z</time>
      </trkpt>
      <trkpt lat="45.86196" lon="6.5322">
        <ele>1917.97</ele>
        <time>2016-01-23T12:26:22Z</time>
      </trkpt>
      <trkpt lat="45.86199" lon="6.53221">
        <ele>1917.49</ele>
        <time>2016-01-23T12:26:23Z</time>
      </trkpt>
      <trkpt lat="45.86201" lon="6.53223">
        <ele>1916.53</ele>
        <time>2016-01-23T12:26:25Z</time>
      </trkpt>
      <trkpt lat="45.8622" lon="6.5323">
        <ele>1913.16</ele>
        <time>2016-01-23T12:26:33Z</time>
      </trkpt>
      <trkpt lat="45.86241" lon="6.53234">
        <ele>1909.8</ele>
        <time>2016-01-23T12:26:35Z</time>
      </trkpt>
      <trkpt lat="45.86253" lon="6.53238">
        <ele>1907.87</ele>
        <time>2016-01-23T12:26:36Z</time>
      </trkpt>
      <trkpt lat="45.86266" lon="6.53243">
        <ele>1903.07</ele>
        <time>2016-01-23T12:26:37Z</time>
      </trkpt>
      <trkpt lat="45.86278" lon="6.53245">
        <ele>1900.18</ele>
        <time>2016-01-23T12:26:38Z</time>
      </trkpt>
      <trkpt lat="45.86291" lon="6.53245">
        <ele>1895.38</ele>
        <time>2016-01-23T12:26:39Z</time>
      </trkpt>
      <trkpt lat="45.86304" lon="6.53248">
        <ele>1891.05</ele>
        <time>2016-01-23T12:26:40Z</time>
      </trkpt>
      <trkpt lat="45.86318" lon="6.53251">
        <ele>1883.36</ele>
        <time>2016-01-23T12:26:41Z</time>
      </trkpt>
      <trkpt lat="45.86333" lon="6.5325">
        <ele>1877.59</ele>
        <time>2016-01-23T12:26:42Z</time>
      </trkpt>
      <trkpt lat="45.86348" lon="6.53249">
        <ele>1873.75</ele>
        <time>2016-01-23T12:26:43Z</time>
      </trkpt>
      <trkpt lat="45.86365" lon="6.53248">
        <ele>1861.73</ele>
        <time>2016-01-23T12:26:44Z</time>
      </trkpt>
      <trkpt lat="45.8638" lon="6.53245">
        <ele>1854.04</ele>
        <time>2016-01-23T12:26:45Z</time>
      </trkpt>
      <trkpt lat="45.86394" lon="6.53241">
        <ele>1847.79</ele>
        <time>2016-01-23T12:26:46Z</time>
      </trkpt>
      <trkpt lat="45.86408" lon="6.5324">
        <ele>1844.91</ele>
        <time>2016-01-23T12:26:47Z</time>
      </trkpt>
      <trkpt lat="45.86418" lon="6.5324">
        <ele>1847.79</ele>
        <time>2016-01-23T12:26:48Z</time>
      </trkpt>
      <trkpt lat="45.86425" lon="6.53239">
        <ele>1843.95</ele>
        <time>2016-01-23T12:26:50Z</time>
      </trkpt>
      <trkpt lat="45.86422" lon="6.53236">
        <ele>1844.91</ele>
        <time>2016-01-23T12:27:01Z</time>
      </trkpt>
      <trkpt lat="45.86421" lon="6.53238">
        <ele>1842.02</ele>
        <time>2016-01-23T12:27:14Z</time>
      </trkpt>
      <trkpt lat="45.86421" lon="6.53239">
        <ele>1846.83</ele>
        <time>2016-01-23T12:27:16Z</time>
      </trkpt>
      <trkpt lat="45.86422" lon="6.53238">
        <ele>1844.91</ele>
        <time>2016-01-23T12:27:18Z</time>
      </trkpt>
      <trkpt lat="45.8643" lon="6.53236">
        <ele>1843.47</ele>
        <time>2016-01-23T12:27:21Z</time>
      </trkpt>
      <trkpt lat="45.86435" lon="6.53237">
        <ele>1843.47</ele>
        <time>2016-01-23T12:27:22Z</time>
      </trkpt>
      <trkpt lat="45.8644" lon="6.53236">
        <ele>1842.5</ele>
        <time>2016-01-23T12:27:23Z</time>
      </trkpt>
      <trkpt lat="45.86444" lon="6.53235">
        <ele>1841.06</ele>
        <time>2016-01-23T12:27:24Z</time>
      </trkpt>
      <trkpt lat="45.86447" lon="6.53233">
        <ele>1838.66</ele>
        <time>2016-01-23T12:27:25Z</time>
      </trkpt>
      <trkpt lat="45.86449" lon="6.5323">
        <ele>1837.7</ele>
        <time>2016-01-23T12:27:26Z</time>
      </trkpt>
      <trkpt lat="45.86452" lon="6.53228">
        <ele>1837.22</ele>
        <time>2016-01-23T12:27:27Z</time>
      </trkpt>
      <trkpt lat="45.86456" lon="6.53228">
        <ele>1835.77</ele>
        <time>2016-01-23T12:27:28Z</time>
      </trkpt>
      <trkpt lat="45.86461" lon="6.5323">
        <ele>1835.29</ele>
        <time>2016-01-23T12:27:29Z</time>
      </trkpt>
      <trkpt lat="45.86466" lon="6.5323">
        <ele>1835.29</ele>
        <time>2016-01-23T12:27:30Z</time>
      </trkpt>
      <trkpt lat="45.86481" lon="6.53228">
        <ele>1830.01</ele>
        <time>2016-01-23T12:27:32Z</time>
      </trkpt>
      <trkpt lat="45.8649" lon="6.53229">
        <ele>1827.6</ele>
        <time>2016-01-23T12:27:33Z</time>
      </trkpt>
      <trkpt lat="45.865" lon="6.53231">
        <ele>1825.2</ele>
        <time>2016-01-23T12:27:34Z</time>
      </trkpt>
      <trkpt lat="45.86512" lon="6.53232">
        <ele>1821.35</ele>
        <time>2016-01-23T12:27:35Z</time>
      </trkpt>
      <trkpt lat="45.86525" lon="6.53233">
        <ele>1816.55</ele>
        <time>2016-01-23T12:27:36Z</time>
      </trkpt>
      <trkpt lat="45.86539" lon="6.53234">
        <ele>1813.66</ele>
        <time>2016-01-23T12:27:37Z</time>
      </trkpt>
      <trkpt lat="45.86553" lon="6.53236">
        <ele>1809.82</ele>
        <time>2016-01-23T12:27:38Z</time>
      </trkpt>
      <trkpt lat="45.86568" lon="6.53239">
        <ele>1805.97</ele>
        <time>2016-01-23T12:27:39Z</time>
      </trkpt>
      <trkpt lat="45.86583" lon="6.53241">
        <ele>1802.61</ele>
        <time>2016-01-23T12:27:40Z</time>
      </trkpt>
      <trkpt lat="45.86597" lon="6.53245">
        <ele>1795.4</ele>
        <time>2016-01-23T12:27:41Z</time>
      </trkpt>
      <trkpt lat="45.8661" lon="6.53251">
        <ele>1793.96</ele>
        <time>2016-01-23T12:27:42Z</time>
      </trkpt>
      <trkpt lat="45.86623" lon="6.5326">
        <ele>1790.59</ele>
        <time>2016-01-23T12:27:43Z</time>
      </trkpt>
      <trkpt lat="45.86649" lon="6.53278">
        <ele>1784.82</ele>
        <time>2016-01-23T12:27:45Z</time>
      </trkpt>
      <trkpt lat="45.86663" lon="6.53288">
        <ele>1781.46</ele>
        <time>2016-01-23T12:27:46Z</time>
      </trkpt>
      <trkpt lat="45.86677" lon="6.53298">
        <ele>1777.13</ele>
        <time>2016-01-23T12:27:47Z</time>
      </trkpt>
      <trkpt lat="45.86691" lon="6.53309">
        <ele>1773.77</ele>
        <time>2016-01-23T12:27:48Z</time>
      </trkpt>
      <trkpt lat="45.86706" lon="6.5332">
        <ele>1768.48</ele>
        <time>2016-01-23T12:27:49Z</time>
      </trkpt>
      <trkpt lat="45.86721" lon="6.53332">
        <ele>1764.16</ele>
        <time>2016-01-23T12:27:50Z</time>
      </trkpt>
      <trkpt lat="45.86737" lon="6.53344">
        <ele>1760.31</ele>
        <time>2016-01-23T12:27:51Z</time>
      </trkpt>
      <trkpt lat="45.86752" lon="6.53356">
        <ele>1756.95</ele>
        <time>2016-01-23T12:27:52Z</time>
      </trkpt>
      <trkpt lat="45.86767" lon="6.53368">
        <ele>1752.14</ele>
        <time>2016-01-23T12:27:53Z</time>
      </trkpt>
      <trkpt lat="45.86781" lon="6.5338">
        <ele>1752.62</ele>
        <time>2016-01-23T12:27:54Z</time>
      </trkpt>
      <trkpt lat="45.86793" lon="6.53391">
        <ele>1756.95</ele>
        <time>2016-01-23T12:27:55Z</time>
      </trkpt>
      <trkpt lat="45.86808" lon="6.53403">
        <ele>1758.39</ele>
        <time>2016-01-23T12:27:57Z</time>
      </trkpt>
      <trkpt lat="45.86808" lon="6.53403">
        <ele>1758.87</ele>
        <time>2016-01-23T12:28:04Z</time>
      </trkpt>
      <trkpt lat="45.86808" lon="6.53403">
        <ele>1755.99</ele>
        <time>2016-01-23T12:28:07Z</time>
      </trkpt>
      <trkpt lat="45.86808" lon="6.53403">
        <ele>1758.87</ele>
        <time>2016-01-23T12:28:09Z</time>
      </trkpt>
      <trkpt lat="45.86808" lon="6.53402">
        <ele>1755.02</ele>
        <time>2016-01-23T12:28:12Z</time>
      </trkpt>
      <trkpt lat="45.86809" lon="6.53403">
        <ele>1758.87</ele>
        <time>2016-01-23T12:28:14Z</time>
      </trkpt>
      <trkpt lat="45.86808" lon="6.53402">
        <ele>1763.2</ele>
        <time>2016-01-23T12:28:15Z</time>
      </trkpt>
      <trkpt lat="45.86808" lon="6.53402">
        <ele>1757.91</ele>
        <time>2016-01-23T12:28:16Z</time>
      </trkpt>
      <trkpt lat="45.86807" lon="6.534">
        <ele>1757.91</ele>
        <time>2016-01-23T12:28:19Z</time>
      </trkpt>
      <trkpt lat="45.8681" lon="6.53396">
        <ele>1757.43</ele>
        <time>2016-01-23T12:28:29Z</time>
      </trkpt>
      <trkpt lat="45.86824" lon="6.53396">
        <ele>1755.99</ele>
        <time>2016-01-23T12:28:34Z</time>
      </trkpt>
      <trkpt lat="45.86846" lon="6.53409">
        <ele>1754.06</ele>
        <time>2016-01-23T12:28:39Z</time>
      </trkpt>
      <trkpt lat="45.86866" lon="6.53433">
        <ele>1752.62</ele>
        <time>2016-01-23T12:28:47Z</time>
      </trkpt>
      <trkpt lat="45.86886" lon="6.53454">
        <ele>1749.74</ele>
        <time>2016-01-23T12:28:52Z</time>
      </trkpt>
      <trkpt lat="45.86912" lon="6.53474">
        <ele>1744.93</ele>
        <time>2016-01-23T12:28:56Z</time>
      </trkpt>
      <trkpt lat="45.8692" lon="6.53481">
        <ele>1743.01</ele>
        <time>2016-01-23T12:28:57Z</time>
      </trkpt>
      <trkpt lat="45.86948" lon="6.53488">
        <ele>1735.8</ele>
        <time>2016-01-23T12:29:00Z</time>
      </trkpt>
      <trkpt lat="45.86967" lon="6.5349">
        <ele>1728.11</ele>
        <time>2016-01-23T12:29:02Z</time>
      </trkpt>
      <trkpt lat="45.86996" lon="6.53503">
        <ele>1720.42</ele>
        <time>2016-01-23T12:29:05Z</time>
      </trkpt>
      <trkpt lat="45.87007" lon="6.535">
        <ele>1714.65</ele>
        <time>2016-01-23T12:29:07Z</time>
      </trkpt>
      <trkpt lat="45.8701" lon="6.53497">
        <ele>1712.73</ele>
        <time>2016-01-23T12:29:17Z</time>
      </trkpt>
      <trkpt lat="45.8701" lon="6.53495">
        <ele>1712.73</ele>
        <time>2016-01-23T12:29:27Z</time>
      </trkpt>
      <trkpt lat="45.8702" lon="6.53502">
        <ele>1710.8</ele>
        <time>2016-01-23T12:29:32Z</time>
      </trkpt>
      <trkpt lat="45.87025" lon="6.53513">
        <ele>1708.88</ele>
        <time>2016-01-23T12:29:35Z</time>
      </trkpt>
      <trkpt lat="45.87044" lon="6.53521">
        <ele>1703.11</ele>
        <time>2016-01-23T12:29:39Z</time>
      </trkpt>
      <trkpt lat="45.87052" lon="6.5352">
        <ele>1699.75</ele>
        <time>2016-01-23T12:29:40Z</time>
      </trkpt>
      <trkpt lat="45.87059" lon="6.53525">
        <ele>1694.46</ele>
        <time>2016-01-23T12:29:41Z</time>
      </trkpt>
      <trkpt lat="45.87067" lon="6.53534">
        <ele>1691.58</ele>
        <time>2016-01-23T12:29:42Z</time>
      </trkpt>
      <trkpt lat="45.87075" lon="6.53541">
        <ele>1688.69</ele>
        <time>2016-01-23T12:29:43Z</time>
      </trkpt>
      <trkpt lat="45.871" lon="6.53569">
        <ele>1670.91</ele>
        <time>2016-01-23T12:29:46Z</time>
      </trkpt>
      <trkpt lat="45.87109" lon="6.53603">
        <ele>1665.14</ele>
        <time>2016-01-23T12:29:49Z</time>
      </trkpt>
      <trkpt lat="45.87112" lon="6.5361">
        <ele>1661.3</ele>
        <time>2016-01-23T12:29:50Z</time>
      </trkpt>
      <trkpt lat="45.87114" lon="6.53617">
        <ele>1658.41</ele>
        <time>2016-01-23T12:29:51Z</time>
      </trkpt>
      <trkpt lat="45.87115" lon="6.5363">
        <ele>1656.49</ele>
        <time>2016-01-23T12:29:53Z</time>
      </trkpt>
      <trkpt lat="45.87115" lon="6.53638">
        <ele>1652.16</ele>
        <time>2016-01-23T12:29:56Z</time>
      </trkpt>
      <trkpt lat="45.87116" lon="6.53639">
        <ele>1653.6</ele>
        <time>2016-01-23T12:30:01Z</time>
      </trkpt>
      <trkpt lat="45.87117" lon="6.53638">
        <ele>1653.12</ele>
        <time>2016-01-23T12:30:04Z</time>
      </trkpt>
      <trkpt lat="45.87131" lon="6.53664">
        <ele>1645.91</ele>
        <time>2016-01-23T12:30:09Z</time>
      </trkpt>
      <trkpt lat="45.87136" lon="6.53667">
        <ele>1643.03</ele>
        <time>2016-01-23T12:30:10Z</time>
      </trkpt>
      <trkpt lat="45.87143" lon="6.53665">
        <ele>1639.67</ele>
        <time>2016-01-23T12:30:12Z</time>
      </trkpt>
      <trkpt lat="45.87148" lon="6.53662">
        <ele>1637.26</ele>
        <time>2016-01-23T12:30:14Z</time>
      </trkpt>
      <trkpt lat="45.87156" lon="6.53659">
        <ele>1635.34</ele>
        <time>2016-01-23T12:30:16Z</time>
      </trkpt>
      <trkpt lat="45.87172" lon="6.53657">
        <ele>1630.05</ele>
        <time>2016-01-23T12:30:18Z</time>
      </trkpt>
      <trkpt lat="45.87182" lon="6.53655">
        <ele>1625.73</ele>
        <time>2016-01-23T12:30:19Z</time>
      </trkpt>
      <trkpt lat="45.87187" lon="6.53653">
        <ele>1621.88</ele>
        <time>2016-01-23T12:30:20Z</time>
      </trkpt>
      <trkpt lat="45.87189" lon="6.53654">
        <ele>1619</ele>
        <time>2016-01-23T12:30:22Z</time>
      </trkpt>
      <trkpt lat="45.87188" lon="6.53653">
        <ele>1619</ele>
        <time>2016-01-23T12:30:23Z</time>
      </trkpt>
      <trkpt lat="45.87201" lon="6.5365">
        <ele>1617.07</ele>
        <time>2016-01-23T12:30:27Z</time>
      </trkpt>
      <trkpt lat="45.87232" lon="6.53654">
        <ele>1603.62</ele>
        <time>2016-01-23T12:30:30Z</time>
      </trkpt>
      <trkpt lat="45.87242" lon="6.53652">
        <ele>1600.25</ele>
        <time>2016-01-23T12:30:31Z</time>
      </trkpt>
      <trkpt lat="45.87246" lon="6.53647">
        <ele>1597.37</ele>
        <time>2016-01-23T12:30:34Z</time>
      </trkpt>
      <trkpt lat="45.87251" lon="6.5364">
        <ele>1597.37</ele>
        <time>2016-01-23T12:30:38Z</time>
      </trkpt>
      <trkpt lat="45.87258" lon="6.53615">
        <ele>1593.52</ele>
        <time>2016-01-23T12:30:43Z</time>
      </trkpt>
      <trkpt lat="45.8726" lon="6.53609">
        <ele>1593.52</ele>
        <time>2016-01-23T12:30:44Z</time>
      </trkpt>
      <trkpt lat="45.87259" lon="6.53602">
        <ele>1591.12</ele>
        <time>2016-01-23T12:30:53Z</time>
      </trkpt>
      <trkpt lat="45.87257" lon="6.53595">
        <ele>1591.12</ele>
        <time>2016-01-23T12:31:21Z</time>
      </trkpt>
      <trkpt lat="45.87257" lon="6.53595">
        <ele>1591.12</ele>
        <time>2016-01-23T12:31:27Z</time>
      </trkpt>
      <trkpt lat="45.87272" lon="6.53571">
        <ele>1587.27</ele>
        <time>2016-01-23T12:31:32Z</time>
      </trkpt>
      <trkpt lat="45.87279" lon="6.5356">
        <ele>1582.95</ele>
        <time>2016-01-23T12:31:33Z</time>
      </trkpt>
      <trkpt lat="45.87288" lon="6.53547">
        <ele>1578.62</ele>
        <time>2016-01-23T12:31:34Z</time>
      </trkpt>
      <trkpt lat="45.87298" lon="6.53533">
        <ele>1574.3</ele>
        <time>2016-01-23T12:31:35Z</time>
      </trkpt>
      <trkpt lat="45.87309" lon="6.53518">
        <ele>1569.01</ele>
        <time>2016-01-23T12:31:36Z</time>
      </trkpt>
      <trkpt lat="45.87321" lon="6.53501">
        <ele>1563.24</ele>
        <time>2016-01-23T12:31:37Z</time>
      </trkpt>
      <trkpt lat="45.87333" lon="6.53484">
        <ele>1554.11</ele>
        <time>2016-01-23T12:31:38Z</time>
      </trkpt>
      <trkpt lat="45.87345" lon="6.53467">
        <ele>1550.74</ele>
        <time>2016-01-23T12:31:39Z</time>
      </trkpt>
      <trkpt lat="45.87364" lon="6.53435">
        <ele>1555.55</ele>
        <time>2016-01-23T12:31:41Z</time>
      </trkpt>
      <trkpt lat="45.87378" lon="6.53412">
        <ele>1552.19</ele>
        <time>2016-01-23T12:31:44Z</time>
      </trkpt>
      <trkpt lat="45.87391" lon="6.53389">
        <ele>1548.82</ele>
        <time>2016-01-23T12:31:47Z</time>
      </trkpt>
      <trkpt lat="45.87394" lon="6.53371">
        <ele>1545.94</ele>
        <time>2016-01-23T12:31:49Z</time>
      </trkpt>
      <trkpt lat="45.87398" lon="6.53333">
        <ele>1540.65</ele>
        <time>2016-01-23T12:31:53Z</time>
      </trkpt>
      <trkpt lat="45.87407" lon="6.5331">
        <ele>1536.8</ele>
        <time>2016-01-23T12:31:56Z</time>
      </trkpt>
      <trkpt lat="45.87411" lon="6.53294">
        <ele>1533.44</ele>
        <time>2016-01-23T12:31:58Z</time>
      </trkpt>
      <trkpt lat="45.87422" lon="6.53272">
        <ele>1528.63</ele>
        <time>2016-01-23T12:32:01Z</time>
      </trkpt>
      <trkpt lat="45.87437" lon="6.53276">
        <ele>1522.39</ele>
        <time>2016-01-23T12:32:03Z</time>
      </trkpt>
      <trkpt lat="45.87443" lon="6.53301">
        <ele>1519.5</ele>
        <time>2016-01-23T12:32:05Z</time>
      </trkpt>
      <trkpt lat="45.87458" lon="6.53348">
        <ele>1514.69</ele>
        <time>2016-01-23T12:32:10Z</time>
      </trkpt>
      <trkpt lat="45.87459" lon="6.53346">
        <ele>1514.69</ele>
        <time>2016-01-23T12:32:11Z</time>
      </trkpt>
      <trkpt lat="45.87459" lon="6.53333">
        <ele>1514.21</ele>
        <time>2016-01-23T12:32:14Z</time>
      </trkpt>
      <trkpt lat="45.87465" lon="6.53286">
        <ele>1510.37</ele>
        <time>2016-01-23T12:32:20Z</time>
      </trkpt>
      <trkpt lat="45.87469" lon="6.53261">
        <ele>1507</ele>
        <time>2016-01-23T12:32:23Z</time>
      </trkpt>
      <trkpt lat="45.8747" lon="6.53247">
        <ele>1504.6</ele>
        <time>2016-01-23T12:32:27Z</time>
      </trkpt>
      <trkpt lat="45.8747" lon="6.53246">
        <ele>1505.08</ele>
        <time>2016-01-23T12:32:29Z</time>
      </trkpt>
      <trkpt lat="45.8747" lon="6.53242">
        <ele>1504.6</ele>
        <time>2016-01-23T12:32:35Z</time>
      </trkpt>
      <trkpt lat="45.8747" lon="6.53237">
        <ele>1503.64</ele>
        <time>2016-01-23T12:32:47Z</time>
      </trkpt>
      <trkpt lat="45.87468" lon="6.53236">
        <ele>1503.64</ele>
        <time>2016-01-23T12:32:53Z</time>
      </trkpt>
      <trkpt lat="45.87466" lon="6.53229">
        <ele>1503.16</ele>
        <time>2016-01-23T12:32:56Z</time>
      </trkpt>
      <trkpt lat="45.87466" lon="6.53225">
        <ele>1502.68</ele>
        <time>2016-01-23T12:33:03Z</time>
      </trkpt>
      <trkpt lat="45.87478" lon="6.53235">
        <ele>1498.35</ele>
        <time>2016-01-23T12:33:08Z</time>
      </trkpt>
      <trkpt lat="45.87484" lon="6.53231">
        <ele>1494.51</ele>
        <time>2016-01-23T12:33:11Z</time>
      </trkpt>
      <trkpt lat="45.87489" lon="6.5322">
        <ele>1490.66</ele>
        <time>2016-01-23T12:33:14Z</time>
      </trkpt>
      <trkpt lat="45.87494" lon="6.53218">
        <ele>1486.82</ele>
        <time>2016-01-23T12:33:16Z</time>
      </trkpt>
      <trkpt lat="45.87496" lon="6.53216">
        <ele>1485.37</ele>
        <time>2016-01-23T12:33:19Z</time>
      </trkpt>
      <trkpt lat="45.87496" lon="6.53215">
        <ele>1485.37</ele>
        <time>2016-01-23T12:33:23Z</time>
      </trkpt>
      <trkpt lat="45.87496" lon="6.53198">
        <ele>1481.53</ele>
        <time>2016-01-23T12:33:27Z</time>
      </trkpt>
      <trkpt lat="45.87497" lon="6.53193">
        <ele>1481.05</ele>
        <time>2016-01-23T12:33:28Z</time>
      </trkpt>
      <trkpt lat="45.87499" lon="6.53173">
        <ele>1474.32</ele>
        <time>2016-01-23T12:33:31Z</time>
      </trkpt>
      <trkpt lat="45.87499" lon="6.53175">
        <ele>1473.36</ele>
        <time>2016-01-23T12:33:33Z</time>
      </trkpt>
      <trkpt lat="45.87498" lon="6.53166">
        <ele>1471.44</ele>
        <time>2016-01-23T12:33:40Z</time>
      </trkpt>
      <trkpt lat="45.87496" lon="6.53167">
        <ele>1470.95</ele>
        <time>2016-01-23T12:34:05Z</time>
      </trkpt>
      <trkpt lat="45.87496" lon="6.53165">
        <ele>1470.95</ele>
        <time>2016-01-23T12:34:25Z</time>
      </trkpt>
      <trkpt lat="45.87494" lon="6.53147">
        <ele>1468.55</ele>
        <time>2016-01-23T12:34:43Z</time>
      </trkpt>
      <trkpt lat="45.87491" lon="6.53139">
        <ele>1466.63</ele>
        <time>2016-01-23T12:34:46Z</time>
      </trkpt>
      <trkpt lat="45.87495" lon="6.53135">
        <ele>1463.26</ele>
        <time>2016-01-23T12:34:49Z</time>
      </trkpt>
      <trkpt lat="45.87499" lon="6.53128">
        <ele>1459.9</ele>
        <time>2016-01-23T12:34:53Z</time>
      </trkpt>
      <trkpt lat="45.87498" lon="6.53128">
        <ele>1457.98</ele>
        <time>2016-01-23T12:35:04Z</time>
      </trkpt>
      <trkpt lat="45.87499" lon="6.53113">
        <ele>1453.65</ele>
        <time>2016-01-23T12:35:08Z</time>
      </trkpt>
      <trkpt lat="45.87498" lon="6.53112">
        <ele>1453.17</ele>
        <time>2016-01-23T12:35:10Z</time>
      </trkpt>
      <trkpt lat="45.87498" lon="6.5311">
        <ele>1452.69</ele>
        <time>2016-01-23T12:35:23Z</time>
      </trkpt>
      <trkpt lat="45.87504" lon="6.53103">
        <ele>1448.36</ele>
        <time>2016-01-23T12:35:27Z</time>
      </trkpt>
      <trkpt lat="45.87506" lon="6.53105">
        <ele>1446.92</ele>
        <time>2016-01-23T12:35:29Z</time>
      </trkpt>
      <trkpt lat="45.87506" lon="6.53103">
        <ele>1444.52</ele>
        <time>2016-01-23T12:35:35Z</time>
      </trkpt>
      <trkpt lat="45.87512" lon="6.53104">
        <ele>1442.6</ele>
        <time>2016-01-23T12:35:40Z</time>
      </trkpt>
      <trkpt lat="45.87515" lon="6.531">
        <ele>1438.75</ele>
        <time>2016-01-23T12:35:48Z</time>
      </trkpt>
      <trkpt lat="45.87516" lon="6.531">
        <ele>1438.27</ele>
        <time>2016-01-23T12:35:59Z</time>
      </trkpt>
      <trkpt lat="45.87526" lon="6.53095">
        <ele>1434.91</ele>
        <time>2016-01-23T12:36:05Z</time>
      </trkpt>
      <trkpt lat="45.87527" lon="6.53094">
        <ele>1432.5</ele>
        <time>2016-01-23T12:36:07Z</time>
      </trkpt>
      <trkpt lat="45.87528" lon="6.53094">
        <ele>1432.02</ele>
        <time>2016-01-23T12:36:08Z</time>
      </trkpt>
      <trkpt lat="45.87537" lon="6.53101">
        <ele>1428.18</ele>
        <time>2016-01-23T12:36:13Z</time>
      </trkpt>
      <trkpt lat="45.87543" lon="6.53099">
        <ele>1425.29</ele>
        <time>2016-01-23T12:36:15Z</time>
      </trkpt>
      <trkpt lat="45.87552" lon="6.53105">
        <ele>1421.45</ele>
        <time>2016-01-23T12:36:18Z</time>
      </trkpt>
      <trkpt lat="45.87556" lon="6.53103">
        <ele>1419.04</ele>
        <time>2016-01-23T12:36:25Z</time>
      </trkpt>
      <trkpt lat="45.87557" lon="6.53102">
        <ele>1419.04</ele>
        <time>2016-01-23T12:36:26Z</time>
      </trkpt>
      <trkpt lat="45.87566" lon="6.53104">
        <ele>1415.2</ele>
        <time>2016-01-23T12:36:30Z</time>
      </trkpt>
      <trkpt lat="45.8757" lon="6.53107">
        <ele>1413.76</ele>
        <time>2016-01-23T12:36:32Z</time>
      </trkpt>
      <trkpt lat="45.87574" lon="6.53101">
        <ele>1410.39</ele>
        <time>2016-01-23T12:36:34Z</time>
      </trkpt>
      <trkpt lat="45.8758" lon="6.53097">
        <ele>1406.55</ele>
        <time>2016-01-23T12:36:36Z</time>
      </trkpt>
      <trkpt lat="45.87598" lon="6.53097">
        <ele>1402.7</ele>
        <time>2016-01-23T12:36:39Z</time>
      </trkpt>
      <trkpt lat="45.87601" lon="6.53093">
        <ele>1399.34</ele>
        <time>2016-01-23T12:36:40Z</time>
      </trkpt>
      <trkpt lat="45.87601" lon="6.53091">
        <ele>1397.89</ele>
        <time>2016-01-23T12:36:42Z</time>
      </trkpt>
      <trkpt lat="45.87598" lon="6.53087">
        <ele>1397.41</ele>
        <time>2016-01-23T12:37:02Z</time>
      </trkpt>
      <trkpt lat="45.87596" lon="6.53087">
        <ele>1396.93</ele>
        <time>2016-01-23T12:37:27Z</time>
      </trkpt>
      <trkpt lat="45.87597" lon="6.53084">
        <ele>1396.93</ele>
        <time>2016-01-23T12:37:30Z</time>
      </trkpt>
      <trkpt lat="45.87611" lon="6.53073">
        <ele>1394.05</ele>
        <time>2016-01-23T12:37:34Z</time>
      </trkpt>
      <trkpt lat="45.87614" lon="6.53059">
        <ele>1389.24</ele>
        <time>2016-01-23T12:37:36Z</time>
      </trkpt>
      <trkpt lat="45.8762" lon="6.53046">
        <ele>1383.96</ele>
        <time>2016-01-23T12:37:38Z</time>
      </trkpt>
      <trkpt lat="45.87625" lon="6.53043">
        <ele>1382.51</ele>
        <time>2016-01-23T12:37:39Z</time>
      </trkpt>
      <trkpt lat="45.87631" lon="6.53033">
        <ele>1377.71</ele>
        <time>2016-01-23T12:37:41Z</time>
      </trkpt>
      <trkpt lat="45.87635" lon="6.53023">
        <ele>1373.86</ele>
        <time>2016-01-23T12:37:43Z</time>
      </trkpt>
      <trkpt lat="45.87643" lon="6.53006">
        <ele>1369.05</ele>
        <time>2016-01-23T12:37:45Z</time>
      </trkpt>
      <trkpt lat="45.87649" lon="6.52997">
        <ele>1365.21</ele>
        <time>2016-01-23T12:37:46Z</time>
      </trkpt>
      <trkpt lat="45.87659" lon="6.52975">
        <ele>1358.96</ele>
        <time>2016-01-23T12:37:48Z</time>
      </trkpt>
      <trkpt lat="45.87661" lon="6.52963">
        <ele>1352.71</ele>
        <time>2016-01-23T12:37:49Z</time>
      </trkpt>
      <trkpt lat="45.87666" lon="6.5295">
        <ele>1349.83</ele>
        <time>2016-01-23T12:37:50Z</time>
      </trkpt>
      <trkpt lat="45.8767" lon="6.52938">
        <ele>1346.46</ele>
        <time>2016-01-23T12:37:51Z</time>
      </trkpt>
      <trkpt lat="45.87674" lon="6.52929">
        <ele>1342.62</ele>
        <time>2016-01-23T12:37:52Z</time>
      </trkpt>
      <trkpt lat="45.8768" lon="6.52924">
        <ele>1339.73</ele>
        <time>2016-01-23T12:37:53Z</time>
      </trkpt>
      <trkpt lat="45.87686" lon="6.52921">
        <ele>1338.29</ele>
        <time>2016-01-23T12:37:54Z</time>
      </trkpt>
      <trkpt lat="45.8769" lon="6.52919">
        <ele>1337.33</ele>
        <time>2016-01-23T12:37:55Z</time>
      </trkpt>
      <trkpt lat="45.87691" lon="6.5292">
        <ele>1336.85</ele>
        <time>2016-01-23T12:37:56Z</time>
      </trkpt>
      <trkpt lat="45.87692" lon="6.52924">
        <ele>1336.85</ele>
        <time>2016-01-23T12:38:00Z</time>
      </trkpt>
      <trkpt lat="45.87693" lon="6.52925">
        <ele>1336.37</ele>
        <time>2016-01-23T12:38:01Z</time>
      </trkpt>
      <trkpt lat="45.87711" lon="6.52963">
        <ele>1335.89</ele>
        <time>2016-01-23T12:38:09Z</time>
      </trkpt>
      <trkpt lat="45.87713" lon="6.52966">
        <ele>1334.45</ele>
        <time>2016-01-23T12:38:10Z</time>
      </trkpt>
      <trkpt lat="45.87714" lon="6.52968">
        <ele>1333.49</ele>
        <time>2016-01-23T12:38:12Z</time>
      </trkpt>
      <trkpt lat="45.87716" lon="6.52966">
        <ele>1333.49</ele>
        <time>2016-01-23T12:38:24Z</time>
      </trkpt>
      <trkpt lat="45.87728" lon="6.52965">
        <ele>1330.6</ele>
        <time>2016-01-23T12:38:27Z</time>
      </trkpt>
      <trkpt lat="45.87744" lon="6.52964">
        <ele>1323.87</ele>
        <time>2016-01-23T12:38:29Z</time>
      </trkpt>
      <trkpt lat="45.87753" lon="6.52961">
        <ele>1319.55</ele>
        <time>2016-01-23T12:38:30Z</time>
      </trkpt>
      <trkpt lat="45.87764" lon="6.5296">
        <ele>1313.3</ele>
        <time>2016-01-23T12:38:31Z</time>
      </trkpt>
      <trkpt lat="45.87773" lon="6.52957">
        <ele>1309.93</ele>
        <time>2016-01-23T12:38:32Z</time>
      </trkpt>
      <trkpt lat="45.87781" lon="6.52951">
        <ele>1304.17</ele>
        <time>2016-01-23T12:38:33Z</time>
      </trkpt>
      <trkpt lat="45.8779" lon="6.52945">
        <ele>1298.88</ele>
        <time>2016-01-23T12:38:34Z</time>
      </trkpt>
      <trkpt lat="45.87801" lon="6.52942">
        <ele>1292.15</ele>
        <time>2016-01-23T12:38:35Z</time>
      </trkpt>
      <trkpt lat="45.87817" lon="6.52928">
        <ele>1285.42</ele>
        <time>2016-01-23T12:38:37Z</time>
      </trkpt>
      <trkpt lat="45.87824" lon="6.52917">
        <ele>1281.57</ele>
        <time>2016-01-23T12:38:38Z</time>
      </trkpt>
      <trkpt lat="45.87843" lon="6.52881">
        <ele>1265.71</ele>
        <time>2016-01-23T12:38:41Z</time>
      </trkpt>
      <trkpt lat="45.87847" lon="6.52869">
        <ele>1259.94</ele>
        <time>2016-01-23T12:38:42Z</time>
      </trkpt>
      <trkpt lat="45.87853" lon="6.52859">
        <ele>1256.1</ele>
        <time>2016-01-23T12:38:43Z</time>
      </trkpt>
      <trkpt lat="45.87868" lon="6.52837">
        <ele>1251.29</ele>
        <time>2016-01-23T12:38:45Z</time>
      </trkpt>
      <trkpt lat="45.87871" lon="6.52821">
        <ele>1247.45</ele>
        <time>2016-01-23T12:38:46Z</time>
      </trkpt>
      <trkpt lat="45.8787" lon="6.52806">
        <ele>1241.68</ele>
        <time>2016-01-23T12:38:47Z</time>
      </trkpt>
      <trkpt lat="45.87868" lon="6.52793">
        <ele>1239.76</ele>
        <time>2016-01-23T12:38:48Z</time>
      </trkpt>
      <trkpt lat="45.8786" lon="6.52768">
        <ele>1234.47</ele>
        <time>2016-01-23T12:38:50Z</time>
      </trkpt>
      <trkpt lat="45.8785" lon="6.52745">
        <ele>1229.18</ele>
        <time>2016-01-23T12:38:52Z</time>
      </trkpt>
      <trkpt lat="45.87842" lon="6.52723">
        <ele>1226.3</ele>
        <time>2016-01-23T12:38:54Z</time>
      </trkpt>
      <trkpt lat="45.87837" lon="6.52708">
        <ele>1224.86</ele>
        <time>2016-01-23T12:38:56Z</time>
      </trkpt>
      <trkpt lat="45.87832" lon="6.52698">
        <ele>1223.9</ele>
        <time>2016-01-23T12:38:58Z</time>
      </trkpt>
      <trkpt lat="45.8782" lon="6.52682">
        <ele>1223.42</ele>
        <time>2016-01-23T12:39:02Z</time>
      </trkpt>
      <trkpt lat="45.87827" lon="6.52656">
        <ele>1220.05</ele>
        <time>2016-01-23T12:39:06Z</time>
      </trkpt>
      <trkpt lat="45.87841" lon="6.52645">
        <ele>1216.21</ele>
        <time>2016-01-23T12:39:08Z</time>
      </trkpt>
      <trkpt lat="45.87882" lon="6.52624">
        <ele>1214.76</ele>
        <time>2016-01-23T12:39:16Z</time>
      </trkpt>
      <trkpt lat="45.8788" lon="6.52627">
        <ele>1214.76</ele>
        <time>2016-01-23T12:39:29Z</time>
      </trkpt>
      <trkpt lat="45.87878" lon="6.5262">
        <ele>1214.76</ele>
        <time>2016-01-23T12:39:33Z</time>
      </trkpt>
      <trkpt lat="45.87878" lon="6.52613">
        <ele>1214.76</ele>
        <time>2016-01-23T12:39:35Z</time>
      </trkpt>
      <trkpt lat="45.87868" lon="6.5261">
        <ele>1213.32</ele>
        <time>2016-01-23T12:39:44Z</time>
      </trkpt>
      <trkpt lat="45.87865" lon="6.5261">
        <ele>1212.84</ele>
        <time>2016-01-23T12:39:55Z</time>
      </trkpt>
      <trkpt lat="45.87865" lon="6.5261">
        <ele>1212.84</ele>
        <time>2016-01-23T12:40:07Z</time>
      </trkpt>
      <trkpt lat="45.87864" lon="6.52609">
        <ele>1212.84</ele>
        <time>2016-01-23T12:40:09Z</time>
      </trkpt>
      <trkpt lat="45.87853" lon="6.52612">
        <ele>1212.84</ele>
        <time>2016-01-23T12:40:21Z</time>
      </trkpt>
      <trkpt lat="45.87843" lon="6.52619">
        <ele>1215.72</ele>
        <time>2016-01-23T12:40:27Z</time>
      </trkpt>
      <trkpt lat="45.87841" lon="6.5262">
        <ele>1216.69</ele>
        <time>2016-01-23T12:40:28Z</time>
      </trkpt>
      <trkpt lat="45.87832" lon="6.52625">
        <ele>1220.53</ele>
        <time>2016-01-23T12:40:34Z</time>
      </trkpt>
      <trkpt lat="45.8783" lon="6.52626">
        <ele>1221.49</ele>
        <time>2016-01-23T12:40:35Z</time>
      </trkpt>
      <trkpt lat="45.8782" lon="6.52629">
        <ele>1225.34</ele>
        <time>2016-01-23T12:40:41Z</time>
      </trkpt>
      <trkpt lat="45.87812" lon="6.52631">
        <ele>1228.7</ele>
        <time>2016-01-23T12:40:46Z</time>
      </trkpt>
      <trkpt lat="45.87805" lon="6.52634">
        <ele>1232.07</ele>
        <time>2016-01-23T12:40:50Z</time>
      </trkpt>
      <trkpt lat="45.87797" lon="6.52637">
        <ele>1235.43</ele>
        <time>2016-01-23T12:40:55Z</time>
      </trkpt>
      <trkpt lat="45.8779" lon="6.5264">
        <ele>1238.8</ele>
        <time>2016-01-23T12:40:59Z</time>
      </trkpt>
      <trkpt lat="45.87783" lon="6.52643">
        <ele>1242.64</ele>
        <time>2016-01-23T12:41:04Z</time>
      </trkpt>
      <trkpt lat="45.87778" lon="6.52645">
        <ele>1245.53</ele>
        <time>2016-01-23T12:41:08Z</time>
      </trkpt>
      <trkpt lat="45.8777" lon="6.52648">
        <ele>1249.37</ele>
        <time>2016-01-23T12:41:13Z</time>
      </trkpt>
      <trkpt lat="45.87761" lon="6.52652">
        <ele>1252.74</ele>
        <time>2016-01-23T12:41:19Z</time>
      </trkpt>
      <trkpt lat="45.87753" lon="6.52655">
        <ele>1256.1</ele>
        <time>2016-01-23T12:41:24Z</time>
      </trkpt>
      <trkpt lat="45.87749" lon="6.52656">
        <ele>1257.54</ele>
        <time>2016-01-23T12:41:27Z</time>
      </trkpt>
      <trkpt lat="45.87742" lon="6.52659">
        <ele>1260.43</ele>
        <time>2016-01-23T12:41:31Z</time>
      </trkpt>
      <trkpt lat="45.87734" lon="6.52661">
        <ele>1263.79</ele>
        <time>2016-01-23T12:41:36Z</time>
      </trkpt>
      <trkpt lat="45.87727" lon="6.52664">
        <ele>1267.64</ele>
        <time>2016-01-23T12:41:41Z</time>
      </trkpt>
      <trkpt lat="45.87719" lon="6.52667">
        <ele>1271</ele>
        <time>2016-01-23T12:41:46Z</time>
      </trkpt>
      <trkpt lat="45.87713" lon="6.52669">
        <ele>1273.88</ele>
        <time>2016-01-23T12:41:50Z</time>
      </trkpt>
      <trkpt lat="45.87707" lon="6.52671">
        <ele>1277.25</ele>
        <time>2016-01-23T12:41:54Z</time>
      </trkpt>
      <trkpt lat="45.877" lon="6.52674">
        <ele>1280.13</ele>
        <time>2016-01-23T12:41:58Z</time>
      </trkpt>
      <trkpt lat="45.87695" lon="6.52678">
        <ele>1283.5</ele>
        <time>2016-01-23T12:42:02Z</time>
      </trkpt>
      <trkpt lat="45.87688" lon="6.52681">
        <ele>1286.86</ele>
        <time>2016-01-23T12:42:06Z</time>
      </trkpt>
      <trkpt lat="45.87682" lon="6.52683">
        <ele>1290.23</ele>
        <time>2016-01-23T12:42:10Z</time>
      </trkpt>
      <trkpt lat="45.87676" lon="6.52685">
        <ele>1293.59</ele>
        <time>2016-01-23T12:42:14Z</time>
      </trkpt>
      <trkpt lat="45.8767" lon="6.52687">
        <ele>1297.44</ele>
        <time>2016-01-23T12:42:18Z</time>
      </trkpt>
      <trkpt lat="45.87664" lon="6.52689">
        <ele>1300.8</ele>
        <time>2016-01-23T12:42:22Z</time>
      </trkpt>
      <trkpt lat="45.87656" lon="6.52692">
        <ele>1304.17</ele>
        <time>2016-01-23T12:42:27Z</time>
      </trkpt>
      <trkpt lat="45.87647" lon="6.52694">
        <ele>1307.53</ele>
        <time>2016-01-23T12:42:32Z</time>
      </trkpt>
      <trkpt lat="45.87639" lon="6.52698">
        <ele>1310.9</ele>
        <time>2016-01-23T12:42:37Z</time>
      </trkpt>
      <trkpt lat="45.87631" lon="6.52701">
        <ele>1314.26</ele>
        <time>2016-01-23T12:42:42Z</time>
      </trkpt>
      <trkpt lat="45.87623" lon="6.52704">
        <ele>1318.1</ele>
        <time>2016-01-23T12:42:47Z</time>
      </trkpt>
      <trkpt lat="45.87617" lon="6.52706">
        <ele>1320.99</ele>
        <time>2016-01-23T12:42:51Z</time>
      </trkpt>
      <trkpt lat="45.87611" lon="6.52708">
        <ele>1324.35</ele>
        <time>2016-01-23T12:42:55Z</time>
      </trkpt>
      <trkpt lat="45.87601" lon="6.52711">
        <ele>1327.72</ele>
        <time>2016-01-23T12:43:01Z</time>
      </trkpt>
      <trkpt lat="45.87581" lon="6.52719">
        <ele>1331.56</ele>
        <time>2016-01-23T12:43:13Z</time>
      </trkpt>
      <trkpt lat="45.87565" lon="6.52725">
        <ele>1335.41</ele>
        <time>2016-01-23T12:43:22Z</time>
      </trkpt>
      <trkpt lat="45.87555" lon="6.5273">
        <ele>1338.77</ele>
        <time>2016-01-23T12:43:29Z</time>
      </trkpt>
      <trkpt lat="45.87545" lon="6.52734">
        <ele>1342.14</ele>
        <time>2016-01-23T12:43:36Z</time>
      </trkpt>
      <trkpt lat="45.87534" lon="6.52738">
        <ele>1345.5</ele>
        <time>2016-01-23T12:43:43Z</time>
      </trkpt>
      <trkpt lat="45.87525" lon="6.52742">
        <ele>1348.39</ele>
        <time>2016-01-23T12:43:49Z</time>
      </trkpt>
      <trkpt lat="45.87515" lon="6.52745">
        <ele>1351.75</ele>
        <time>2016-01-23T12:43:55Z</time>
      </trkpt>
      <trkpt lat="45.87505" lon="6.52748">
        <ele>1355.6</ele>
        <time>2016-01-23T12:44:01Z</time>
      </trkpt>
      <trkpt lat="45.87498" lon="6.52752">
        <ele>1358.48</ele>
        <time>2016-01-23T12:44:06Z</time>
      </trkpt>
      <trkpt lat="45.8749" lon="6.52756">
        <ele>1361.84</ele>
        <time>2016-01-23T12:44:11Z</time>
      </trkpt>
      <trkpt lat="45.87482" lon="6.52759">
        <ele>1365.21</ele>
        <time>2016-01-23T12:44:16Z</time>
      </trkpt>
      <trkpt lat="45.87474" lon="6.52761">
        <ele>1368.57</ele>
        <time>2016-01-23T12:44:21Z</time>
      </trkpt>
      <trkpt lat="45.87469" lon="6.52763">
        <ele>1370.02</ele>
        <time>2016-01-23T12:44:24Z</time>
      </trkpt>
      <trkpt lat="45.87464" lon="6.52764">
        <ele>1371.46</ele>
        <time>2016-01-23T12:44:27Z</time>
      </trkpt>
      <trkpt lat="45.87452" lon="6.52767">
        <ele>1375.3</ele>
        <time>2016-01-23T12:44:34Z</time>
      </trkpt>
      <trkpt lat="45.8745" lon="6.52768">
        <ele>1375.3</ele>
        <time>2016-01-23T12:44:35Z</time>
      </trkpt>
      <trkpt lat="45.87441" lon="6.52772">
        <ele>1378.67</ele>
        <time>2016-01-23T12:44:41Z</time>
      </trkpt>
      <trkpt lat="45.87432" lon="6.52775">
        <ele>1382.03</ele>
        <time>2016-01-23T12:44:47Z</time>
      </trkpt>
      <trkpt lat="45.87421" lon="6.52778">
        <ele>1385.4</ele>
        <time>2016-01-23T12:44:53Z</time>
      </trkpt>
      <trkpt lat="45.87412" lon="6.52782">
        <ele>1388.76</ele>
        <time>2016-01-23T12:44:59Z</time>
      </trkpt>
      <trkpt lat="45.87404" lon="6.52786">
        <ele>1391.65</ele>
        <time>2016-01-23T12:45:04Z</time>
      </trkpt>
      <trkpt lat="45.87397" lon="6.5279">
        <ele>1395.01</ele>
        <time>2016-01-23T12:45:09Z</time>
      </trkpt>
      <trkpt lat="45.87389" lon="6.52793">
        <ele>1398.37</ele>
        <time>2016-01-23T12:45:14Z</time>
      </trkpt>
      <trkpt lat="45.87382" lon="6.52796">
        <ele>1401.74</ele>
        <time>2016-01-23T12:45:19Z</time>
      </trkpt>
      <trkpt lat="45.87372" lon="6.528">
        <ele>1405.1</ele>
        <time>2016-01-23T12:45:25Z</time>
      </trkpt>
      <trkpt lat="45.87362" lon="6.52804">
        <ele>1408.47</ele>
        <time>2016-01-23T12:45:31Z</time>
      </trkpt>
      <trkpt lat="45.87352" lon="6.52808">
        <ele>1411.83</ele>
        <time>2016-01-23T12:45:37Z</time>
      </trkpt>
      <trkpt lat="45.87344" lon="6.52811">
        <ele>1414.72</ele>
        <time>2016-01-23T12:45:42Z</time>
      </trkpt>
      <trkpt lat="45.87335" lon="6.52814">
        <ele>1418.08</ele>
        <time>2016-01-23T12:45:47Z</time>
      </trkpt>
      <trkpt lat="45.87327" lon="6.52818">
        <ele>1420.97</ele>
        <time>2016-01-23T12:45:53Z</time>
      </trkpt>
      <trkpt lat="45.87311" lon="6.52824">
        <ele>1420</ele>
        <time>2016-01-23T12:46:00Z</time>
      </trkpt>
      <trkpt lat="45.87308" lon="6.52827">
        <ele>1420.49</ele>
        <time>2016-01-23T12:46:01Z</time>
      </trkpt>
      <trkpt lat="45.87305" lon="6.5283">
        <ele>1420</ele>
        <time>2016-01-23T12:46:02Z</time>
      </trkpt>
      <trkpt lat="45.87302" lon="6.52833">
        <ele>1420</ele>
        <time>2016-01-23T12:46:03Z</time>
      </trkpt>
      <trkpt lat="45.873" lon="6.52836">
        <ele>1420</ele>
        <time>2016-01-23T12:46:04Z</time>
      </trkpt>
      <trkpt lat="45.87298" lon="6.52837">
        <ele>1420</ele>
        <time>2016-01-23T12:46:13Z</time>
      </trkpt>
      <trkpt lat="45.87298" lon="6.52841">
        <ele>1420</ele>
        <time>2016-01-23T12:46:27Z</time>
      </trkpt>
      <trkpt lat="45.87295" lon="6.52841">
        <ele>1420.97</ele>
        <time>2016-01-23T12:46:41Z</time>
      </trkpt>
      <trkpt lat="45.87293" lon="6.5284">
        <ele>1420.97</ele>
        <time>2016-01-23T12:47:01Z</time>
      </trkpt>
      <trkpt lat="45.87293" lon="6.52838">
        <ele>1420.97</ele>
        <time>2016-01-23T12:47:17Z</time>
      </trkpt>
      <trkpt lat="45.87294" lon="6.52832">
        <ele>1421.45</ele>
        <time>2016-01-23T12:47:32Z</time>
      </trkpt>
      <trkpt lat="45.87293" lon="6.52828">
        <ele>1421.45</ele>
        <time>2016-01-23T12:47:53Z</time>
      </trkpt>
      <trkpt lat="45.87291" lon="6.52823">
        <ele>1421.45</ele>
        <time>2016-01-23T12:48:03Z</time>
      </trkpt>
      <trkpt lat="45.8729" lon="6.5282">
        <ele>1421.45</ele>
        <time>2016-01-23T12:48:18Z</time>
      </trkpt>
      <trkpt lat="45.87284" lon="6.52823">
        <ele>1420.49</ele>
        <time>2016-01-23T12:48:25Z</time>
      </trkpt>
      <trkpt lat="45.87283" lon="6.52824">
        <ele>1420.49</ele>
        <time>2016-01-23T12:48:26Z</time>
      </trkpt>
      <trkpt lat="45.8728" lon="6.52826">
        <ele>1420.49</ele>
        <time>2016-01-23T12:48:27Z</time>
      </trkpt>
      <trkpt lat="45.87277" lon="6.52827">
        <ele>1420.49</ele>
        <time>2016-01-23T12:48:28Z</time>
      </trkpt>
      <trkpt lat="45.87275" lon="6.52827">
        <ele>1420.49</ele>
        <time>2016-01-23T12:48:29Z</time>
      </trkpt>
      <trkpt lat="45.87273" lon="6.52828">
        <ele>1420.49</ele>
        <time>2016-01-23T12:48:30Z</time>
      </trkpt>
      <trkpt lat="45.8727" lon="6.52829">
        <ele>1421.93</ele>
        <time>2016-01-23T12:48:31Z</time>
      </trkpt>
      <trkpt lat="45.87269" lon="6.5283">
        <ele>1423.37</ele>
        <time>2016-01-23T12:48:32Z</time>
      </trkpt>
      <trkpt lat="45.87267" lon="6.52831">
        <ele>1424.33</ele>
        <time>2016-01-23T12:48:33Z</time>
      </trkpt>
      <trkpt lat="45.87265" lon="6.52832">
        <ele>1425.77</ele>
        <time>2016-01-23T12:48:34Z</time>
      </trkpt>
      <trkpt lat="45.87259" lon="6.52836">
        <ele>1429.14</ele>
        <time>2016-01-23T12:48:37Z</time>
      </trkpt>
      <trkpt lat="45.87254" lon="6.52839">
        <ele>1432.98</ele>
        <time>2016-01-23T12:48:40Z</time>
      </trkpt>
      <trkpt lat="45.8725" lon="6.52841">
        <ele>1436.35</ele>
        <time>2016-01-23T12:48:42Z</time>
      </trkpt>
      <trkpt lat="45.87243" lon="6.52843">
        <ele>1440.19</ele>
        <time>2016-01-23T12:48:45Z</time>
      </trkpt>
      <trkpt lat="45.87237" lon="6.52845">
        <ele>1444.52</ele>
        <time>2016-01-23T12:48:48Z</time>
      </trkpt>
      <trkpt lat="45.87231" lon="6.52846">
        <ele>1448.84</ele>
        <time>2016-01-23T12:48:51Z</time>
      </trkpt>
      <trkpt lat="45.87223" lon="6.52849">
        <ele>1452.21</ele>
        <time>2016-01-23T12:48:55Z</time>
      </trkpt>
      <trkpt lat="45.87215" lon="6.52852">
        <ele>1456.05</ele>
        <time>2016-01-23T12:48:59Z</time>
      </trkpt>
      <trkpt lat="45.87209" lon="6.52855">
        <ele>1458.94</ele>
        <time>2016-01-23T12:49:02Z</time>
      </trkpt>
      <trkpt lat="45.87201" lon="6.52858">
        <ele>1462.78</ele>
        <time>2016-01-23T12:49:06Z</time>
      </trkpt>
      <trkpt lat="45.87196" lon="6.5286">
        <ele>1466.15</ele>
        <time>2016-01-23T12:49:09Z</time>
      </trkpt>
      <trkpt lat="45.8719" lon="6.52864">
        <ele>1469.51</ele>
        <time>2016-01-23T12:49:12Z</time>
      </trkpt>
      <trkpt lat="45.87185" lon="6.52866">
        <ele>1472.4</ele>
        <time>2016-01-23T12:49:16Z</time>
      </trkpt>
      <trkpt lat="45.87179" lon="6.5287">
        <ele>1475.76</ele>
        <time>2016-01-23T12:49:26Z</time>
      </trkpt>
      <trkpt lat="45.87173" lon="6.52873">
        <ele>1479.13</ele>
        <time>2016-01-23T12:49:31Z</time>
      </trkpt>
      <trkpt lat="45.87167" lon="6.52876">
        <ele>1482.97</ele>
        <time>2016-01-23T12:49:35Z</time>
      </trkpt>
      <trkpt lat="45.87161" lon="6.52879">
        <ele>1486.82</ele>
        <time>2016-01-23T12:49:38Z</time>
      </trkpt>
      <trkpt lat="45.87155" lon="6.52881">
        <ele>1490.66</ele>
        <time>2016-01-23T12:49:41Z</time>
      </trkpt>
      <trkpt lat="45.87149" lon="6.52882">
        <ele>1494.99</ele>
        <time>2016-01-23T12:49:44Z</time>
      </trkpt>
      <trkpt lat="45.87143" lon="6.52884">
        <ele>1499.31</ele>
        <time>2016-01-23T12:49:47Z</time>
      </trkpt>
      <trkpt lat="45.87137" lon="6.52885">
        <ele>1502.68</ele>
        <time>2016-01-23T12:49:50Z</time>
      </trkpt>
      <trkpt lat="45.87131" lon="6.52886">
        <ele>1507</ele>
        <time>2016-01-23T12:49:53Z</time>
      </trkpt>
      <trkpt lat="45.87123" lon="6.52889">
        <ele>1509.89</ele>
        <time>2016-01-23T12:49:57Z</time>
      </trkpt>
      <trkpt lat="45.87114" lon="6.52893">
        <ele>1512.77</ele>
        <time>2016-01-23T12:50:01Z</time>
      </trkpt>
      <trkpt lat="45.87106" lon="6.52897">
        <ele>1516.14</ele>
        <time>2016-01-23T12:50:05Z</time>
      </trkpt>
      <trkpt lat="45.87097" lon="6.52901">
        <ele>1519.98</ele>
        <time>2016-01-23T12:50:09Z</time>
      </trkpt>
      <trkpt lat="45.87089" lon="6.52904">
        <ele>1523.35</ele>
        <time>2016-01-23T12:50:13Z</time>
      </trkpt>
      <trkpt lat="45.87081" lon="6.52908">
        <ele>1527.19</ele>
        <time>2016-01-23T12:50:17Z</time>
      </trkpt>
      <trkpt lat="45.87073" lon="6.52911">
        <ele>1531.04</ele>
        <time>2016-01-23T12:50:21Z</time>
      </trkpt>
      <trkpt lat="45.87067" lon="6.52913">
        <ele>1533.92</ele>
        <time>2016-01-23T12:50:24Z</time>
      </trkpt>
      <trkpt lat="45.87059" lon="6.52916">
        <ele>1538.25</ele>
        <time>2016-01-23T12:50:28Z</time>
      </trkpt>
      <trkpt lat="45.87052" lon="6.52919">
        <ele>1541.61</ele>
        <time>2016-01-23T12:50:31Z</time>
      </trkpt>
      <trkpt lat="45.87046" lon="6.52922">
        <ele>1544.5</ele>
        <time>2016-01-23T12:50:34Z</time>
      </trkpt>
      <trkpt lat="45.87041" lon="6.52924">
        <ele>1547.86</ele>
        <time>2016-01-23T12:50:37Z</time>
      </trkpt>
      <trkpt lat="45.87035" lon="6.52927">
        <ele>1551.22</ele>
        <time>2016-01-23T12:50:40Z</time>
      </trkpt>
      <trkpt lat="45.87029" lon="6.52929">
        <ele>1554.59</ele>
        <time>2016-01-23T12:50:43Z</time>
      </trkpt>
      <trkpt lat="45.87023" lon="6.52932">
        <ele>1557.95</ele>
        <time>2016-01-23T12:50:46Z</time>
      </trkpt>
      <trkpt lat="45.87018" lon="6.52934">
        <ele>1561.8</ele>
        <time>2016-01-23T12:50:49Z</time>
      </trkpt>
      <trkpt lat="45.87012" lon="6.52936">
        <ele>1565.16</ele>
        <time>2016-01-23T12:50:52Z</time>
      </trkpt>
      <trkpt lat="45.87006" lon="6.52938">
        <ele>1569.01</ele>
        <time>2016-01-23T12:50:55Z</time>
      </trkpt>
      <trkpt lat="45.86999" lon="6.52941">
        <ele>1572.37</ele>
        <time>2016-01-23T12:50:58Z</time>
      </trkpt>
      <trkpt lat="45.86993" lon="6.52943">
        <ele>1576.22</ele>
        <time>2016-01-23T12:51:01Z</time>
      </trkpt>
      <trkpt lat="45.86988" lon="6.52945">
        <ele>1580.54</ele>
        <time>2016-01-23T12:51:04Z</time>
      </trkpt>
      <trkpt lat="45.86982" lon="6.52946">
        <ele>1584.39</ele>
        <time>2016-01-23T12:51:07Z</time>
      </trkpt>
      <trkpt lat="45.86977" lon="6.52948">
        <ele>1587.75</ele>
        <time>2016-01-23T12:51:10Z</time>
      </trkpt>
      <trkpt lat="45.86966" lon="6.52952">
        <ele>1591.12</ele>
        <time>2016-01-23T12:51:15Z</time>
      </trkpt>
      <trkpt lat="45.86956" lon="6.52956">
        <ele>1594.48</ele>
        <time>2016-01-23T12:51:20Z</time>
      </trkpt>
      <trkpt lat="45.86945" lon="6.52961">
        <ele>1598.33</ele>
        <time>2016-01-23T12:51:25Z</time>
      </trkpt>
      <trkpt lat="45.86936" lon="6.52965">
        <ele>1601.21</ele>
        <time>2016-01-23T12:51:29Z</time>
      </trkpt>
      <trkpt lat="45.86928" lon="6.52968">
        <ele>1604.58</ele>
        <time>2016-01-23T12:51:33Z</time>
      </trkpt>
      <trkpt lat="45.86919" lon="6.52972">
        <ele>1607.94</ele>
        <time>2016-01-23T12:51:37Z</time>
      </trkpt>
      <trkpt lat="45.8691" lon="6.52975">
        <ele>1610.83</ele>
        <time>2016-01-23T12:51:41Z</time>
      </trkpt>
      <trkpt lat="45.86902" lon="6.52978">
        <ele>1614.67</ele>
        <time>2016-01-23T12:51:45Z</time>
      </trkpt>
      <trkpt lat="45.86893" lon="6.52981">
        <ele>1618.04</ele>
        <time>2016-01-23T12:51:49Z</time>
      </trkpt>
      <trkpt lat="45.86885" lon="6.52984">
        <ele>1621.88</ele>
        <time>2016-01-23T12:51:53Z</time>
      </trkpt>
      <trkpt lat="45.86877" lon="6.52987">
        <ele>1625.73</ele>
        <time>2016-01-23T12:51:57Z</time>
      </trkpt>
      <trkpt lat="45.86869" lon="6.5299">
        <ele>1629.57</ele>
        <time>2016-01-23T12:52:01Z</time>
      </trkpt>
      <trkpt lat="45.86863" lon="6.52993">
        <ele>1632.94</ele>
        <time>2016-01-23T12:52:04Z</time>
      </trkpt>
      <trkpt lat="45.86856" lon="6.52996">
        <ele>1637.26</ele>
        <time>2016-01-23T12:52:08Z</time>
      </trkpt>
      <trkpt lat="45.8685" lon="6.52999">
        <ele>1640.15</ele>
        <time>2016-01-23T12:52:11Z</time>
      </trkpt>
      <trkpt lat="45.86844" lon="6.53002">
        <ele>1643.51</ele>
        <time>2016-01-23T12:52:14Z</time>
      </trkpt>
      <trkpt lat="45.86839" lon="6.53004">
        <ele>1646.88</ele>
        <time>2016-01-23T12:52:17Z</time>
      </trkpt>
      <trkpt lat="45.86833" lon="6.53006">
        <ele>1650.24</ele>
        <time>2016-01-23T12:52:20Z</time>
      </trkpt>
      <trkpt lat="45.86827" lon="6.53008">
        <ele>1653.6</ele>
        <time>2016-01-23T12:52:23Z</time>
      </trkpt>
      <trkpt lat="45.86817" lon="6.53012">
        <ele>1656.97</ele>
        <time>2016-01-23T12:52:28Z</time>
      </trkpt>
      <trkpt lat="45.86806" lon="6.53016">
        <ele>1660.81</ele>
        <time>2016-01-23T12:52:33Z</time>
      </trkpt>
      <trkpt lat="45.86795" lon="6.5302">
        <ele>1664.18</ele>
        <time>2016-01-23T12:52:38Z</time>
      </trkpt>
      <trkpt lat="45.86787" lon="6.53023">
        <ele>1667.54</ele>
        <time>2016-01-23T12:52:42Z</time>
      </trkpt>
      <trkpt lat="45.86778" lon="6.53027">
        <ele>1670.91</ele>
        <time>2016-01-23T12:52:46Z</time>
      </trkpt>
      <trkpt lat="45.8677" lon="6.53031">
        <ele>1674.27</ele>
        <time>2016-01-23T12:52:50Z</time>
      </trkpt>
      <trkpt lat="45.86763" lon="6.53035">
        <ele>1677.64</ele>
        <time>2016-01-23T12:52:54Z</time>
      </trkpt>
      <trkpt lat="45.86755" lon="6.53039">
        <ele>1681</ele>
        <time>2016-01-23T12:52:58Z</time>
      </trkpt>
      <trkpt lat="45.86746" lon="6.53042">
        <ele>1684.85</ele>
        <time>2016-01-23T12:53:02Z</time>
      </trkpt>
      <trkpt lat="45.86738" lon="6.53045">
        <ele>1688.21</ele>
        <time>2016-01-23T12:53:06Z</time>
      </trkpt>
      <trkpt lat="45.86732" lon="6.53046">
        <ele>1691.1</ele>
        <time>2016-01-23T12:53:09Z</time>
      </trkpt>
      <trkpt lat="45.86723" lon="6.53049">
        <ele>1695.42</ele>
        <time>2016-01-23T12:53:13Z</time>
      </trkpt>
      <trkpt lat="45.86715" lon="6.53052">
        <ele>1699.27</ele>
        <time>2016-01-23T12:53:17Z</time>
      </trkpt>
      <trkpt lat="45.86709" lon="6.53054">
        <ele>1702.63</ele>
        <time>2016-01-23T12:53:20Z</time>
      </trkpt>
      <trkpt lat="45.86703" lon="6.53056">
        <ele>1705.52</ele>
        <time>2016-01-23T12:53:23Z</time>
      </trkpt>
      <trkpt lat="45.86696" lon="6.53058">
        <ele>1708.88</ele>
        <time>2016-01-23T12:53:26Z</time>
      </trkpt>
      <trkpt lat="45.8669" lon="6.5306">
        <ele>1712.25</ele>
        <time>2016-01-23T12:53:29Z</time>
      </trkpt>
      <trkpt lat="45.86684" lon="6.53062">
        <ele>1715.61</ele>
        <time>2016-01-23T12:53:32Z</time>
      </trkpt>
      <trkpt lat="45.86678" lon="6.53065">
        <ele>1718.49</ele>
        <time>2016-01-23T12:53:35Z</time>
      </trkpt>
      <trkpt lat="45.86679" lon="6.53061">
        <ele>1719.94</ele>
        <time>2016-01-23T12:53:54Z</time>
      </trkpt>
      <trkpt lat="45.86672" lon="6.53065">
        <ele>1723.3</ele>
        <time>2016-01-23T12:54:13Z</time>
      </trkpt>
      <trkpt lat="45.86666" lon="6.53067">
        <ele>1726.67</ele>
        <time>2016-01-23T12:54:17Z</time>
      </trkpt>
      <trkpt lat="45.86661" lon="6.53069">
        <ele>1730.03</ele>
        <time>2016-01-23T12:54:20Z</time>
      </trkpt>
      <trkpt lat="45.86655" lon="6.5307">
        <ele>1733.39</ele>
        <time>2016-01-23T12:54:23Z</time>
      </trkpt>
      <trkpt lat="45.86646" lon="6.53073">
        <ele>1737.24</ele>
        <time>2016-01-23T12:54:27Z</time>
      </trkpt>
      <trkpt lat="45.86637" lon="6.53077">
        <ele>1740.6</ele>
        <time>2016-01-23T12:54:31Z</time>
      </trkpt>
      <trkpt lat="45.86631" lon="6.53079">
        <ele>1743.97</ele>
        <time>2016-01-23T12:54:34Z</time>
      </trkpt>
      <trkpt lat="45.86623" lon="6.53084">
        <ele>1747.33</ele>
        <time>2016-01-23T12:54:38Z</time>
      </trkpt>
      <trkpt lat="45.86617" lon="6.53087">
        <ele>1750.7</ele>
        <time>2016-01-23T12:54:41Z</time>
      </trkpt>
      <trkpt lat="45.86611" lon="6.5309">
        <ele>1753.58</ele>
        <time>2016-01-23T12:54:44Z</time>
      </trkpt>
      <trkpt lat="45.86605" lon="6.53092">
        <ele>1756.95</ele>
        <time>2016-01-23T12:54:47Z</time>
      </trkpt>
      <trkpt lat="45.86599" lon="6.53095">
        <ele>1759.83</ele>
        <time>2016-01-23T12:54:50Z</time>
      </trkpt>
      <trkpt lat="45.86593" lon="6.53097">
        <ele>1763.2</ele>
        <time>2016-01-23T12:54:53Z</time>
      </trkpt>
      <trkpt lat="45.86587" lon="6.53098">
        <ele>1766.56</ele>
        <time>2016-01-23T12:54:56Z</time>
      </trkpt>
      <trkpt lat="45.86581" lon="6.53098">
        <ele>1769.92</ele>
        <time>2016-01-23T12:54:59Z</time>
      </trkpt>
      <trkpt lat="45.86575" lon="6.531">
        <ele>1773.29</ele>
        <time>2016-01-23T12:55:02Z</time>
      </trkpt>
      <trkpt lat="45.86565" lon="6.53105">
        <ele>1777.13</ele>
        <time>2016-01-23T12:55:07Z</time>
      </trkpt>
      <trkpt lat="45.86554" lon="6.53109">
        <ele>1780.5</ele>
        <time>2016-01-23T12:55:12Z</time>
      </trkpt>
      <trkpt lat="45.86547" lon="6.53112">
        <ele>1783.38</ele>
        <time>2016-01-23T12:55:16Z</time>
      </trkpt>
      <trkpt lat="45.86538" lon="6.53115">
        <ele>1786.75</ele>
        <time>2016-01-23T12:55:20Z</time>
      </trkpt>
      <trkpt lat="45.8653" lon="6.53118">
        <ele>1790.11</ele>
        <time>2016-01-23T12:55:24Z</time>
      </trkpt>
      <trkpt lat="45.86521" lon="6.53121">
        <ele>1793.48</ele>
        <time>2016-01-23T12:55:28Z</time>
      </trkpt>
      <trkpt lat="45.86513" lon="6.53125">
        <ele>1796.84</ele>
        <time>2016-01-23T12:55:32Z</time>
      </trkpt>
      <trkpt lat="45.86505" lon="6.53128">
        <ele>1800.69</ele>
        <time>2016-01-23T12:55:36Z</time>
      </trkpt>
      <trkpt lat="45.86496" lon="6.53132">
        <ele>1804.05</ele>
        <time>2016-01-23T12:55:40Z</time>
      </trkpt>
      <trkpt lat="45.86488" lon="6.53135">
        <ele>1807.9</ele>
        <time>2016-01-23T12:55:44Z</time>
      </trkpt>
      <trkpt lat="45.86479" lon="6.53138">
        <ele>1811.74</ele>
        <time>2016-01-23T12:55:48Z</time>
      </trkpt>
      <trkpt lat="45.86471" lon="6.53141">
        <ele>1816.07</ele>
        <time>2016-01-23T12:55:52Z</time>
      </trkpt>
      <trkpt lat="45.86461" lon="6.53146">
        <ele>1818.95</ele>
        <time>2016-01-23T12:55:57Z</time>
      </trkpt>
      <trkpt lat="45.86458" lon="6.53146">
        <ele>1819.43</ele>
        <time>2016-01-23T12:55:58Z</time>
      </trkpt>
      <trkpt lat="45.86448" lon="6.53151">
        <ele>1823.28</ele>
        <time>2016-01-23T12:56:03Z</time>
      </trkpt>
      <trkpt lat="45.86437" lon="6.53155">
        <ele>1826.64</ele>
        <time>2016-01-23T12:56:08Z</time>
      </trkpt>
      <trkpt lat="45.86429" lon="6.53158">
        <ele>1829.53</ele>
        <time>2016-01-23T12:56:12Z</time>
      </trkpt>
      <trkpt lat="45.86418" lon="6.53163">
        <ele>1833.37</ele>
        <time>2016-01-23T12:56:17Z</time>
      </trkpt>
      <trkpt lat="45.8641" lon="6.53167">
        <ele>1836.74</ele>
        <time>2016-01-23T12:56:21Z</time>
      </trkpt>
      <trkpt lat="45.86401" lon="6.5317">
        <ele>1839.62</ele>
        <time>2016-01-23T12:56:25Z</time>
      </trkpt>
      <trkpt lat="45.86393" lon="6.53173">
        <ele>1842.98</ele>
        <time>2016-01-23T12:56:29Z</time>
      </trkpt>
      <trkpt lat="45.86384" lon="6.53177">
        <ele>1846.35</ele>
        <time>2016-01-23T12:56:33Z</time>
      </trkpt>
      <trkpt lat="45.86376" lon="6.53179">
        <ele>1850.19</ele>
        <time>2016-01-23T12:56:37Z</time>
      </trkpt>
      <trkpt lat="45.86368" lon="6.53182">
        <ele>1853.56</ele>
        <time>2016-01-23T12:56:41Z</time>
      </trkpt>
      <trkpt lat="45.8636" lon="6.53186">
        <ele>1857.4</ele>
        <time>2016-01-23T12:56:45Z</time>
      </trkpt>
      <trkpt lat="45.86352" lon="6.53189">
        <ele>1861.25</ele>
        <time>2016-01-23T12:56:49Z</time>
      </trkpt>
      <trkpt lat="45.86343" lon="6.53191">
        <ele>1865.09</ele>
        <time>2016-01-23T12:56:53Z</time>
      </trkpt>
      <trkpt lat="45.86337" lon="6.53193">
        <ele>1867.98</ele>
        <time>2016-01-23T12:56:56Z</time>
      </trkpt>
      <trkpt lat="45.86331" lon="6.53196">
        <ele>1870.86</ele>
        <time>2016-01-23T12:56:59Z</time>
      </trkpt>
      <trkpt lat="45.86325" lon="6.53198">
        <ele>1874.23</ele>
        <time>2016-01-23T12:57:02Z</time>
      </trkpt>
      <trkpt lat="45.86319" lon="6.532">
        <ele>1877.59</ele>
        <time>2016-01-23T12:57:05Z</time>
      </trkpt>
      <trkpt lat="45.8631" lon="6.53203">
        <ele>1881.44</ele>
        <time>2016-01-23T12:57:09Z</time>
      </trkpt>
      <trkpt lat="45.86304" lon="6.53207">
        <ele>1884.8</ele>
        <time>2016-01-23T12:57:12Z</time>
      </trkpt>
      <trkpt lat="45.86298" lon="6.5321">
        <ele>1888.17</ele>
        <time>2016-01-23T12:57:15Z</time>
      </trkpt>
      <trkpt lat="45.86289" lon="6.53213">
        <ele>1891.05</ele>
        <time>2016-01-23T12:57:19Z</time>
      </trkpt>
      <trkpt lat="45.86281" lon="6.53216">
        <ele>1894.42</ele>
        <time>2016-01-23T12:57:23Z</time>
      </trkpt>
      <trkpt lat="45.86272" lon="6.5322">
        <ele>1897.78</ele>
        <time>2016-01-23T12:57:27Z</time>
      </trkpt>
      <trkpt lat="45.86263" lon="6.53223">
        <ele>1901.63</ele>
        <time>2016-01-23T12:57:31Z</time>
      </trkpt>
      <trkpt lat="45.86255" lon="6.53226">
        <ele>1904.99</ele>
        <time>2016-01-23T12:57:35Z</time>
      </trkpt>
      <trkpt lat="45.86246" lon="6.53229">
        <ele>1908.35</ele>
        <time>2016-01-23T12:57:39Z</time>
      </trkpt>
      <trkpt lat="45.86238" lon="6.53232">
        <ele>1912.2</ele>
        <time>2016-01-23T12:57:43Z</time>
      </trkpt>
      <trkpt lat="45.86232" lon="6.53235">
        <ele>1915.08</ele>
        <time>2016-01-23T12:57:46Z</time>
      </trkpt>
      <trkpt lat="45.86223" lon="6.53238">
        <ele>1919.41</ele>
        <time>2016-01-23T12:57:50Z</time>
      </trkpt>
      <trkpt lat="45.86216" lon="6.53242">
        <ele>1922.77</ele>
        <time>2016-01-23T12:57:54Z</time>
      </trkpt>
      <trkpt lat="45.86212" lon="6.53244">
        <ele>1923.25</ele>
        <time>2016-01-23T12:57:56Z</time>
      </trkpt>
      <trkpt lat="45.86172" lon="6.53258">
        <ele>1924.7</ele>
        <time>2016-01-23T12:58:13Z</time>
      </trkpt>
      <trkpt lat="45.86163" lon="6.53265">
        <ele>1923.74</ele>
        <time>2016-01-23T12:58:16Z</time>
      </trkpt>
      <trkpt lat="45.86162" lon="6.53269">
        <ele>1923.74</ele>
        <time>2016-01-23T12:58:17Z</time>
      </trkpt>
      <trkpt lat="45.86162" lon="6.53271">
        <ele>1923.25</ele>
        <time>2016-01-23T12:58:18Z</time>
      </trkpt>
      <trkpt lat="45.86164" lon="6.5327">
        <ele>1923.25</ele>
        <time>2016-01-23T12:58:27Z</time>
      </trkpt>
      <trkpt lat="45.86165" lon="6.53271">
        <ele>1923.25</ele>
        <time>2016-01-23T12:58:43Z</time>
      </trkpt>
      <trkpt lat="45.86169" lon="6.53281">
        <ele>1924.22</ele>
        <time>2016-01-23T12:58:56Z</time>
      </trkpt>
      <trkpt lat="45.8617" lon="6.53282">
        <ele>1924.22</ele>
        <time>2016-01-23T12:58:57Z</time>
      </trkpt>
      <trkpt lat="45.86172" lon="6.53289">
        <ele>1924.22</ele>
        <time>2016-01-23T12:59:09Z</time>
      </trkpt>
      <trkpt lat="45.86172" lon="6.53285">
        <ele>1924.22</ele>
        <time>2016-01-23T12:59:33Z</time>
      </trkpt>
      <trkpt lat="45.86173" lon="6.53291">
        <ele>1924.22</ele>
        <time>2016-01-23T12:59:45Z</time>
      </trkpt>
      <trkpt lat="45.86176" lon="6.5335">
        <ele>1914.12</ele>
        <time>2016-01-23T12:59:51Z</time>
      </trkpt>
      <trkpt lat="45.86177" lon="6.53369">
        <ele>1909.32</ele>
        <time>2016-01-23T12:59:52Z</time>
      </trkpt>
      <trkpt lat="45.86177" lon="6.53388">
        <ele>1906.43</ele>
        <time>2016-01-23T12:59:53Z</time>
      </trkpt>
      <trkpt lat="45.86177" lon="6.53409">
        <ele>1901.63</ele>
        <time>2016-01-23T12:59:54Z</time>
      </trkpt>
      <trkpt lat="45.86177" lon="6.53431">
        <ele>1897.78</ele>
        <time>2016-01-23T12:59:55Z</time>
      </trkpt>
      <trkpt lat="45.86178" lon="6.53453">
        <ele>1894.42</ele>
        <time>2016-01-23T12:59:56Z</time>
      </trkpt>
      <trkpt lat="45.8618" lon="6.53493">
        <ele>1890.09</ele>
        <time>2016-01-23T12:59:58Z</time>
      </trkpt>
      <trkpt lat="45.86182" lon="6.53507">
        <ele>1888.65</ele>
        <time>2016-01-23T12:59:59Z</time>
      </trkpt>
      <trkpt lat="45.86184" lon="6.53515">
        <ele>1888.65</ele>
        <time>2016-01-23T13:00:00Z</time>
      </trkpt>
      <trkpt lat="45.86186" lon="6.5352">
        <ele>1887.21</ele>
        <time>2016-01-23T13:00:03Z</time>
      </trkpt>
      <trkpt lat="45.86189" lon="6.5352">
        <ele>1888.17</ele>
        <time>2016-01-23T13:00:23Z</time>
      </trkpt>
      <trkpt lat="45.86199" lon="6.53579">
        <ele>1882.4</ele>
        <time>2016-01-23T13:00:31Z</time>
      </trkpt>
      <trkpt lat="45.86205" lon="6.53607">
        <ele>1878.55</ele>
        <time>2016-01-23T13:00:33Z</time>
      </trkpt>
      <trkpt lat="45.86212" lon="6.53638">
        <ele>1874.23</ele>
        <time>2016-01-23T13:00:35Z</time>
      </trkpt>
      <trkpt lat="45.86219" lon="6.53669">
        <ele>1870.38</ele>
        <time>2016-01-23T13:00:37Z</time>
      </trkpt>
      <trkpt lat="45.86224" lon="6.53699">
        <ele>1868.94</ele>
        <time>2016-01-23T13:00:39Z</time>
      </trkpt>
      <trkpt lat="45.86226" lon="6.53727">
        <ele>1867.02</ele>
        <time>2016-01-23T13:00:41Z</time>
      </trkpt>
      <trkpt lat="45.86226" lon="6.53741">
        <ele>1867.02</ele>
        <time>2016-01-23T13:00:42Z</time>
      </trkpt>
      <trkpt lat="45.86221" lon="6.53778">
        <ele>1865.58</ele>
        <time>2016-01-23T13:00:45Z</time>
      </trkpt>
      <trkpt lat="45.86215" lon="6.53828">
        <ele>1861.25</ele>
        <time>2016-01-23T13:00:49Z</time>
      </trkpt>
      <trkpt lat="45.86208" lon="6.53877">
        <ele>1858.37</ele>
        <time>2016-01-23T13:00:53Z</time>
      </trkpt>
      <trkpt lat="45.86204" lon="6.53915">
        <ele>1854.52</ele>
        <time>2016-01-23T13:00:56Z</time>
      </trkpt>
      <trkpt lat="45.86205" lon="6.53928">
        <ele>1854.52</ele>
        <time>2016-01-23T13:00:57Z</time>
      </trkpt>
      <trkpt lat="45.86207" lon="6.5394">
        <ele>1853.56</ele>
        <time>2016-01-23T13:00:58Z</time>
      </trkpt>
      <trkpt lat="45.8621" lon="6.53952">
        <ele>1852.12</ele>
        <time>2016-01-23T13:00:59Z</time>
      </trkpt>
      <trkpt lat="45.86215" lon="6.53964">
        <ele>1851.16</ele>
        <time>2016-01-23T13:01:00Z</time>
      </trkpt>
      <trkpt lat="45.8622" lon="6.53976">
        <ele>1850.19</ele>
        <time>2016-01-23T13:01:01Z</time>
      </trkpt>
      <trkpt lat="45.8623" lon="6.54001">
        <ele>1846.35</ele>
        <time>2016-01-23T13:01:03Z</time>
      </trkpt>
      <trkpt lat="45.86232" lon="6.54015">
        <ele>1845.39</ele>
        <time>2016-01-23T13:01:04Z</time>
      </trkpt>
      <trkpt lat="45.86239" lon="6.54055">
        <ele>1842.02</ele>
        <time>2016-01-23T13:01:07Z</time>
      </trkpt>
      <trkpt lat="45.86251" lon="6.54105">
        <ele>1838.66</ele>
        <time>2016-01-23T13:01:11Z</time>
      </trkpt>
      <trkpt lat="45.86267" lon="6.54152">
        <ele>1834.81</ele>
        <time>2016-01-23T13:01:15Z</time>
      </trkpt>
      <trkpt lat="45.8628" lon="6.5419">
        <ele>1830.49</ele>
        <time>2016-01-23T13:01:18Z</time>
      </trkpt>
      <trkpt lat="45.86282" lon="6.54204">
        <ele>1827.6</ele>
        <time>2016-01-23T13:01:19Z</time>
      </trkpt>
      <trkpt lat="45.86283" lon="6.54218">
        <ele>1827.12</ele>
        <time>2016-01-23T13:01:20Z</time>
      </trkpt>
      <trkpt lat="45.86283" lon="6.54233">
        <ele>1827.12</ele>
        <time>2016-01-23T13:01:21Z</time>
      </trkpt>
      <trkpt lat="45.86282" lon="6.54276">
        <ele>1823.76</ele>
        <time>2016-01-23T13:01:24Z</time>
      </trkpt>
      <trkpt lat="45.86281" lon="6.54316">
        <ele>1820.39</ele>
        <time>2016-01-23T13:01:27Z</time>
      </trkpt>
      <trkpt lat="45.86281" lon="6.54347">
        <ele>1816.55</ele>
        <time>2016-01-23T13:01:29Z</time>
      </trkpt>
      <trkpt lat="45.86281" lon="6.54381">
        <ele>1812.22</ele>
        <time>2016-01-23T13:01:31Z</time>
      </trkpt>
      <trkpt lat="45.86284" lon="6.5443">
        <ele>1808.86</ele>
        <time>2016-01-23T13:01:34Z</time>
      </trkpt>
      <trkpt lat="45.8629" lon="6.54501">
        <ele>1808.38</ele>
        <time>2016-01-23T13:01:41Z</time>
      </trkpt>
      <trkpt lat="45.86291" lon="6.54507">
        <ele>1808.86</ele>
        <time>2016-01-23T13:01:49Z</time>
      </trkpt>
      <trkpt lat="45.86293" lon="6.5451">
        <ele>1808.86</ele>
        <time>2016-01-23T13:02:08Z</time>
      </trkpt>
      <trkpt lat="45.86293" lon="6.54518">
        <ele>1808.86</ele>
        <time>2016-01-23T13:02:19Z</time>
      </trkpt>
      <trkpt lat="45.86293" lon="6.54525">
        <ele>1808.86</ele>
        <time>2016-01-23T13:02:32Z</time>
      </trkpt>
      <trkpt lat="45.86293" lon="6.54527">
        <ele>1808.86</ele>
        <time>2016-01-23T13:02:35Z</time>
      </trkpt>
      <trkpt lat="45.86292" lon="6.54531">
        <ele>1808.86</ele>
        <time>2016-01-23T13:02:36Z</time>
      </trkpt>
      <trkpt lat="45.86292" lon="6.54535">
        <ele>1808.86</ele>
        <time>2016-01-23T13:02:37Z</time>
      </trkpt>
      <trkpt lat="45.86291" lon="6.54542">
        <ele>1810.3</ele>
        <time>2016-01-23T13:02:39Z</time>
      </trkpt>
      <trkpt lat="45.86287" lon="6.54578">
        <ele>1814.15</ele>
        <time>2016-01-23T13:02:49Z</time>
      </trkpt>
      <trkpt lat="45.86283" lon="6.5462">
        <ele>1817.51</ele>
        <time>2016-01-23T13:03:01Z</time>
      </trkpt>
      <trkpt lat="45.86278" lon="6.54661">
        <ele>1820.39</ele>
        <time>2016-01-23T13:03:12Z</time>
      </trkpt>
      <trkpt lat="45.86273" lon="6.54719">
        <ele>1820.87</ele>
        <time>2016-01-23T13:03:28Z</time>
      </trkpt>
      <trkpt lat="45.86269" lon="6.54781">
        <ele>1821.35</ele>
        <time>2016-01-23T13:03:45Z</time>
      </trkpt>
      <trkpt lat="45.86264" lon="6.54837">
        <ele>1821.84</ele>
        <time>2016-01-23T13:04:02Z</time>
      </trkpt>
      <trkpt lat="45.8626" lon="6.54896">
        <ele>1822.32</ele>
        <time>2016-01-23T13:04:18Z</time>
      </trkpt>
      <trkpt lat="45.86256" lon="6.54942">
        <ele>1825.68</ele>
        <time>2016-01-23T13:04:32Z</time>
      </trkpt>
      <trkpt lat="45.86254" lon="6.54959">
        <ele>1828.56</ele>
        <time>2016-01-23T13:04:37Z</time>
      </trkpt>
      <trkpt lat="45.86253" lon="6.54963">
        <ele>1828.56</ele>
        <time>2016-01-23T13:04:38Z</time>
      </trkpt>
      <trkpt lat="45.86251" lon="6.54987">
        <ele>1832.41</ele>
        <time>2016-01-23T13:04:45Z</time>
      </trkpt>
      <trkpt lat="45.86241" lon="6.55017">
        <ele>1830.97</ele>
        <time>2016-01-23T13:04:54Z</time>
      </trkpt>
      <trkpt lat="45.86241" lon="6.55018">
        <ele>1830.49</ele>
        <time>2016-01-23T13:05:07Z</time>
      </trkpt>
      <trkpt lat="45.8624" lon="6.55017">
        <ele>1830.49</ele>
        <time>2016-01-23T13:05:20Z</time>
      </trkpt>
      <trkpt lat="45.86238" lon="6.55019">
        <ele>1830.01</ele>
        <time>2016-01-23T13:05:23Z</time>
      </trkpt>
      <trkpt lat="45.86236" lon="6.55024">
        <ele>1830.01</ele>
        <time>2016-01-23T13:05:26Z</time>
      </trkpt>
      <trkpt lat="45.86217" lon="6.55059">
        <ele>1826.64</ele>
        <time>2016-01-23T13:05:34Z</time>
      </trkpt>
      <trkpt lat="45.86204" lon="6.55084">
        <ele>1823.76</ele>
        <time>2016-01-23T13:05:37Z</time>
      </trkpt>
      <trkpt lat="45.86184" lon="6.55113">
        <ele>1818.47</ele>
        <time>2016-01-23T13:05:40Z</time>
      </trkpt>
      <trkpt lat="45.86168" lon="6.55131">
        <ele>1814.63</ele>
        <time>2016-01-23T13:05:42Z</time>
      </trkpt>
      <trkpt lat="45.86151" lon="6.55151">
        <ele>1811.26</ele>
        <time>2016-01-23T13:05:44Z</time>
      </trkpt>
      <trkpt lat="45.86144" lon="6.55162">
        <ele>1811.26</ele>
        <time>2016-01-23T13:05:45Z</time>
      </trkpt>
      <trkpt lat="45.86138" lon="6.55173">
        <ele>1810.3</ele>
        <time>2016-01-23T13:05:46Z</time>
      </trkpt>
      <trkpt lat="45.86133" lon="6.55184">
        <ele>1809.34</ele>
        <time>2016-01-23T13:05:47Z</time>
      </trkpt>
      <trkpt lat="45.86129" lon="6.55195">
        <ele>1809.34</ele>
        <time>2016-01-23T13:05:48Z</time>
      </trkpt>
      <trkpt lat="45.86113" lon="6.55239">
        <ele>1806.45</ele>
        <time>2016-01-23T13:05:52Z</time>
      </trkpt>
      <trkpt lat="45.861" lon="6.55273">
        <ele>1802.61</ele>
        <time>2016-01-23T13:05:55Z</time>
      </trkpt>
      <trkpt lat="45.86089" lon="6.55311">
        <ele>1798.76</ele>
        <time>2016-01-23T13:05:58Z</time>
      </trkpt>
      <trkpt lat="45.86083" lon="6.55338">
        <ele>1795.4</ele>
        <time>2016-01-23T13:06:00Z</time>
      </trkpt>
      <trkpt lat="45.86078" lon="6.55382">
        <ele>1791.55</ele>
        <time>2016-01-23T13:06:03Z</time>
      </trkpt>
      <trkpt lat="45.86077" lon="6.55424">
        <ele>1787.71</ele>
        <time>2016-01-23T13:06:06Z</time>
      </trkpt>
      <trkpt lat="45.86078" lon="6.55438">
        <ele>1786.27</ele>
        <time>2016-01-23T13:06:07Z</time>
      </trkpt>
      <trkpt lat="45.8608" lon="6.5545">
        <ele>1786.27</ele>
        <time>2016-01-23T13:06:08Z</time>
      </trkpt>
      <trkpt lat="45.86083" lon="6.55463">
        <ele>1785.79</ele>
        <time>2016-01-23T13:06:09Z</time>
      </trkpt>
      <trkpt lat="45.86091" lon="6.55502">
        <ele>1781.94</ele>
        <time>2016-01-23T13:06:12Z</time>
      </trkpt>
      <trkpt lat="45.86098" lon="6.55546">
        <ele>1777.61</ele>
        <time>2016-01-23T13:06:15Z</time>
      </trkpt>
      <trkpt lat="45.86099" lon="6.55561">
        <ele>1775.21</ele>
        <time>2016-01-23T13:06:16Z</time>
      </trkpt>
      <trkpt lat="45.861" lon="6.55577">
        <ele>1774.73</ele>
        <time>2016-01-23T13:06:17Z</time>
      </trkpt>
      <trkpt lat="45.86103" lon="6.55592">
        <ele>1771.85</ele>
        <time>2016-01-23T13:06:18Z</time>
      </trkpt>
      <trkpt lat="45.86108" lon="6.55606">
        <ele>1769.92</ele>
        <time>2016-01-23T13:06:19Z</time>
      </trkpt>
      <trkpt lat="45.86115" lon="6.55619">
        <ele>1768</ele>
        <time>2016-01-23T13:06:20Z</time>
      </trkpt>
      <trkpt lat="45.86122" lon="6.55631">
        <ele>1766.08</ele>
        <time>2016-01-23T13:06:21Z</time>
      </trkpt>
      <trkpt lat="45.8613" lon="6.55643">
        <ele>1765.12</ele>
        <time>2016-01-23T13:06:22Z</time>
      </trkpt>
      <trkpt lat="45.86145" lon="6.55668">
        <ele>1761.75</ele>
        <time>2016-01-23T13:06:24Z</time>
      </trkpt>
      <trkpt lat="45.8616" lon="6.55693">
        <ele>1759.35</ele>
        <time>2016-01-23T13:06:26Z</time>
      </trkpt>
      <trkpt lat="45.86167" lon="6.55707">
        <ele>1757.43</ele>
        <time>2016-01-23T13:06:27Z</time>
      </trkpt>
      <trkpt lat="45.86178" lon="6.55737">
        <ele>1753.58</ele>
        <time>2016-01-23T13:06:29Z</time>
      </trkpt>
      <trkpt lat="45.86182" lon="6.55752">
        <ele>1751.66</ele>
        <time>2016-01-23T13:06:30Z</time>
      </trkpt>
      <trkpt lat="45.86191" lon="6.55796">
        <ele>1749.26</ele>
        <time>2016-01-23T13:06:33Z</time>
      </trkpt>
      <trkpt lat="45.86194" lon="6.55807">
        <ele>1749.26</ele>
        <time>2016-01-23T13:06:34Z</time>
      </trkpt>
      <trkpt lat="45.86205" lon="6.55837">
        <ele>1746.37</ele>
        <time>2016-01-23T13:06:37Z</time>
      </trkpt>
      <trkpt lat="45.86209" lon="6.55849">
        <ele>1743.49</ele>
        <time>2016-01-23T13:06:38Z</time>
      </trkpt>
      <trkpt lat="45.86212" lon="6.55861">
        <ele>1742.05</ele>
        <time>2016-01-23T13:06:39Z</time>
      </trkpt>
      <trkpt lat="45.86216" lon="6.55886">
        <ele>1741.08</ele>
        <time>2016-01-23T13:06:41Z</time>
      </trkpt>
      <trkpt lat="45.86223" lon="6.55914">
        <ele>1737.72</ele>
        <time>2016-01-23T13:06:43Z</time>
      </trkpt>
      <trkpt lat="45.86232" lon="6.5594">
        <ele>1734.36</ele>
        <time>2016-01-23T13:06:45Z</time>
      </trkpt>
      <trkpt lat="45.86239" lon="6.55952">
        <ele>1734.36</ele>
        <time>2016-01-23T13:06:46Z</time>
      </trkpt>
      <trkpt lat="45.86246" lon="6.55961">
        <ele>1732.43</ele>
        <time>2016-01-23T13:06:47Z</time>
      </trkpt>
      <trkpt lat="45.86255" lon="6.5597">
        <ele>1732.43</ele>
        <time>2016-01-23T13:06:48Z</time>
      </trkpt>
      <trkpt lat="45.86261" lon="6.55976">
        <ele>1731.95</ele>
        <time>2016-01-23T13:06:49Z</time>
      </trkpt>
      <trkpt lat="45.86268" lon="6.55982">
        <ele>1730.99</ele>
        <time>2016-01-23T13:06:50Z</time>
      </trkpt>
      <trkpt lat="45.86274" lon="6.5599">
        <ele>1730.99</ele>
        <time>2016-01-23T13:06:51Z</time>
      </trkpt>
      <trkpt lat="45.86279" lon="6.55997">
        <ele>1730.99</ele>
        <time>2016-01-23T13:06:52Z</time>
      </trkpt>
      <trkpt lat="45.86287" lon="6.5601">
        <ele>1730.51</ele>
        <time>2016-01-23T13:06:54Z</time>
      </trkpt>
      <trkpt lat="45.8629" lon="6.56013">
        <ele>1730.03</ele>
        <time>2016-01-23T13:06:55Z</time>
      </trkpt>
      <trkpt lat="45.8629" lon="6.56013">
        <ele>1730.03</ele>
        <time>2016-01-23T13:07:01Z</time>
      </trkpt>
      <trkpt lat="45.86289" lon="6.56007">
        <ele>1730.03</ele>
        <time>2016-01-23T13:07:03Z</time>
      </trkpt>
      <trkpt lat="45.86291" lon="6.56003">
        <ele>1730.03</ele>
        <time>2016-01-23T13:07:05Z</time>
      </trkpt>
      <trkpt lat="45.86323" lon="6.56005">
        <ele>1728.59</ele>
        <time>2016-01-23T13:07:19Z</time>
      </trkpt>
      <trkpt lat="45.86345" lon="6.56025">
        <ele>1726.67</ele>
        <time>2016-01-23T13:07:24Z</time>
      </trkpt>
      <trkpt lat="45.86368" lon="6.56038">
        <ele>1723.78</ele>
        <time>2016-01-23T13:07:28Z</time>
      </trkpt>
      <trkpt lat="45.86399" lon="6.56043">
        <ele>1719.46</ele>
        <time>2016-01-23T13:07:32Z</time>
      </trkpt>
      <trkpt lat="45.86427" lon="6.56067">
        <ele>1715.61</ele>
        <time>2016-01-23T13:07:36Z</time>
      </trkpt>
      <trkpt lat="45.86433" lon="6.56086">
        <ele>1713.69</ele>
        <time>2016-01-23T13:07:38Z</time>
      </trkpt>
      <trkpt lat="45.8644" lon="6.56128">
        <ele>1711.76</ele>
        <time>2016-01-23T13:07:45Z</time>
      </trkpt>
      <trkpt lat="45.86445" lon="6.56219">
        <ele>1709.36</ele>
        <time>2016-01-23T13:08:00Z</time>
      </trkpt>
      <trkpt lat="45.86447" lon="6.56227">
        <ele>1709.36</ele>
        <time>2016-01-23T13:08:03Z</time>
      </trkpt>
      <trkpt lat="45.86447" lon="6.56236">
        <ele>1708.88</ele>
        <time>2016-01-23T13:08:15Z</time>
      </trkpt>
      <trkpt lat="45.86446" lon="6.5624">
        <ele>1708.88</ele>
        <time>2016-01-23T13:08:33Z</time>
      </trkpt>
      <trkpt lat="45.86444" lon="6.56244">
        <ele>1708.88</ele>
        <time>2016-01-23T13:08:44Z</time>
      </trkpt>
      <trkpt lat="45.8644" lon="6.56249">
        <ele>1708.4</ele>
        <time>2016-01-23T13:08:58Z</time>
      </trkpt>
      <trkpt lat="45.86435" lon="6.56264">
        <ele>1709.84</ele>
        <time>2016-01-23T13:09:03Z</time>
      </trkpt>
      <trkpt lat="45.86433" lon="6.56273">
        <ele>1711.28</ele>
        <time>2016-01-23T13:09:06Z</time>
      </trkpt>
      <trkpt lat="45.86428" lon="6.56288">
        <ele>1715.13</ele>
        <time>2016-01-23T13:09:11Z</time>
      </trkpt>
      <trkpt lat="45.86425" lon="6.56297">
        <ele>1718.01</ele>
        <time>2016-01-23T13:09:14Z</time>
      </trkpt>
      <trkpt lat="45.86419" lon="6.56313">
        <ele>1722.34</ele>
        <time>2016-01-23T13:09:19Z</time>
      </trkpt>
      <trkpt lat="45.86415" lon="6.56326">
        <ele>1725.7</ele>
        <time>2016-01-23T13:09:23Z</time>
      </trkpt>
      <trkpt lat="45.8641" lon="6.56341">
        <ele>1729.07</ele>
        <time>2016-01-23T13:09:28Z</time>
      </trkpt>
      <trkpt lat="45.86405" lon="6.56357">
        <ele>1732.43</ele>
        <time>2016-01-23T13:09:33Z</time>
      </trkpt>
      <trkpt lat="45.86402" lon="6.56366">
        <ele>1734.36</ele>
        <time>2016-01-23T13:09:36Z</time>
      </trkpt>
      <trkpt lat="45.86396" lon="6.56381">
        <ele>1737.24</ele>
        <time>2016-01-23T13:09:41Z</time>
      </trkpt>
      <trkpt lat="45.8639" lon="6.56401">
        <ele>1741.08</ele>
        <time>2016-01-23T13:09:47Z</time>
      </trkpt>
      <trkpt lat="45.86385" lon="6.56416">
        <ele>1743.97</ele>
        <time>2016-01-23T13:09:52Z</time>
      </trkpt>
      <trkpt lat="45.8638" lon="6.56432">
        <ele>1747.81</ele>
        <time>2016-01-23T13:09:57Z</time>
      </trkpt>
      <trkpt lat="45.86376" lon="6.56445">
        <ele>1751.18</ele>
        <time>2016-01-23T13:10:01Z</time>
      </trkpt>
      <trkpt lat="45.86372" lon="6.56457">
        <ele>1755.02</ele>
        <time>2016-01-23T13:10:05Z</time>
      </trkpt>
      <trkpt lat="45.86368" lon="6.56468">
        <ele>1758.39</ele>
        <time>2016-01-23T13:10:09Z</time>
      </trkpt>
      <trkpt lat="45.86365" lon="6.56478">
        <ele>1761.75</ele>
        <time>2016-01-23T13:10:12Z</time>
      </trkpt>
      <trkpt lat="45.86359" lon="6.56493">
        <ele>1765.12</ele>
        <time>2016-01-23T13:10:17Z</time>
      </trkpt>
      <trkpt lat="45.86355" lon="6.56508">
        <ele>1768.48</ele>
        <time>2016-01-23T13:10:22Z</time>
      </trkpt>
      <trkpt lat="45.8635" lon="6.56521">
        <ele>1770.89</ele>
        <time>2016-01-23T13:10:26Z</time>
      </trkpt>
      <trkpt lat="45.86346" lon="6.56533">
        <ele>1774.25</ele>
        <time>2016-01-23T13:10:30Z</time>
      </trkpt>
      <trkpt lat="45.86341" lon="6.56548">
        <ele>1777.61</ele>
        <time>2016-01-23T13:10:35Z</time>
      </trkpt>
      <trkpt lat="45.86338" lon="6.56561">
        <ele>1780.98</ele>
        <time>2016-01-23T13:10:39Z</time>
      </trkpt>
      <trkpt lat="45.86333" lon="6.56574">
        <ele>1783.86</ele>
        <time>2016-01-23T13:10:43Z</time>
      </trkpt>
      <trkpt lat="45.86327" lon="6.56593">
        <ele>1788.19</ele>
        <time>2016-01-23T13:10:49Z</time>
      </trkpt>
      <trkpt lat="45.86323" lon="6.56605">
        <ele>1792.03</ele>
        <time>2016-01-23T13:10:53Z</time>
      </trkpt>
      <trkpt lat="45.86319" lon="6.56617">
        <ele>1795.4</ele>
        <time>2016-01-23T13:10:57Z</time>
      </trkpt>
      <trkpt lat="45.86314" lon="6.56631">
        <ele>1799.24</ele>
        <time>2016-01-23T13:11:02Z</time>
      </trkpt>
      <trkpt lat="45.86309" lon="6.56647">
        <ele>1802.61</ele>
        <time>2016-01-23T13:11:07Z</time>
      </trkpt>
      <trkpt lat="45.86304" lon="6.56659">
        <ele>1805.49</ele>
        <time>2016-01-23T13:11:11Z</time>
      </trkpt>
      <trkpt lat="45.86299" lon="6.56675">
        <ele>1808.86</ele>
        <time>2016-01-23T13:11:16Z</time>
      </trkpt>
      <trkpt lat="45.86294" lon="6.56691">
        <ele>1812.22</ele>
        <time>2016-01-23T13:11:21Z</time>
      </trkpt>
      <trkpt lat="45.86289" lon="6.56707">
        <ele>1816.07</ele>
        <time>2016-01-23T13:11:26Z</time>
      </trkpt>
      <trkpt lat="45.86285" lon="6.56719">
        <ele>1819.91</ele>
        <time>2016-01-23T13:11:30Z</time>
      </trkpt>
      <trkpt lat="45.86281" lon="6.56731">
        <ele>1823.28</ele>
        <time>2016-01-23T13:11:34Z</time>
      </trkpt>
      <trkpt lat="45.86277" lon="6.56742">
        <ele>1826.64</ele>
        <time>2016-01-23T13:11:38Z</time>
      </trkpt>
      <trkpt lat="45.86274" lon="6.56752">
        <ele>1830.01</ele>
        <time>2016-01-23T13:11:41Z</time>
      </trkpt>
      <trkpt lat="45.86271" lon="6.56764">
        <ele>1833.37</ele>
        <time>2016-01-23T13:11:45Z</time>
      </trkpt>
      <trkpt lat="45.86268" lon="6.56773">
        <ele>1836.26</ele>
        <time>2016-01-23T13:11:48Z</time>
      </trkpt>
      <trkpt lat="45.86264" lon="6.56785">
        <ele>1839.62</ele>
        <time>2016-01-23T13:11:52Z</time>
      </trkpt>
      <trkpt lat="45.86261" lon="6.56794">
        <ele>1841.06</ele>
        <time>2016-01-23T13:11:55Z</time>
      </trkpt>
      <trkpt lat="45.86267" lon="6.56825">
        <ele>1841.06</ele>
        <time>2016-01-23T13:12:04Z</time>
      </trkpt>
      <trkpt lat="45.8627" lon="6.56831">
        <ele>1841.06</ele>
        <time>2016-01-23T13:12:15Z</time>
      </trkpt>
      <trkpt lat="45.86273" lon="6.56844">
        <ele>1841.06</ele>
        <time>2016-01-23T13:12:22Z</time>
      </trkpt>
      <trkpt lat="45.86273" lon="6.56854">
        <ele>1839.62</ele>
        <time>2016-01-23T13:12:25Z</time>
      </trkpt>
      <trkpt lat="45.86272" lon="6.56871">
        <ele>1838.66</ele>
        <time>2016-01-23T13:12:36Z</time>
      </trkpt>
      <trkpt lat="45.86271" lon="6.5687">
        <ele>1838.66</ele>
        <time>2016-01-23T13:12:54Z</time>
      </trkpt>
      <trkpt lat="45.86271" lon="6.56871">
        <ele>1838.66</ele>
        <time>2016-01-23T13:13:01Z</time>
      </trkpt>
      <trkpt lat="45.86238" lon="6.569">
        <ele>1834.81</ele>
        <time>2016-01-23T13:13:10Z</time>
      </trkpt>
      <trkpt lat="45.86231" lon="6.56907">
        <ele>1833.85</ele>
        <time>2016-01-23T13:13:11Z</time>
      </trkpt>
      <trkpt lat="45.86205" lon="6.56942">
        <ele>1828.56</ele>
        <time>2016-01-23T13:13:15Z</time>
      </trkpt>
      <trkpt lat="45.86184" lon="6.56978">
        <ele>1823.76</ele>
        <time>2016-01-23T13:13:19Z</time>
      </trkpt>
      <trkpt lat="45.86179" lon="6.56984">
        <ele>1822.8</ele>
        <time>2016-01-23T13:13:20Z</time>
      </trkpt>
      <trkpt lat="45.86171" lon="6.57015">
        <ele>1817.51</ele>
        <time>2016-01-23T13:13:25Z</time>
      </trkpt>
      <trkpt lat="45.86175" lon="6.57023">
        <ele>1815.59</ele>
        <time>2016-01-23T13:13:27Z</time>
      </trkpt>
      <trkpt lat="45.86181" lon="6.57031">
        <ele>1812.22</ele>
        <time>2016-01-23T13:13:37Z</time>
      </trkpt>
      <trkpt lat="45.86183" lon="6.5703">
        <ele>1811.74</ele>
        <time>2016-01-23T13:14:04Z</time>
      </trkpt>
      <trkpt lat="45.86184" lon="6.5703">
        <ele>1811.26</ele>
        <time>2016-01-23T13:14:14Z</time>
      </trkpt>
      <trkpt lat="45.86182" lon="6.57031">
        <ele>1811.26</ele>
        <time>2016-01-23T13:14:32Z</time>
      </trkpt>
      <trkpt lat="45.8618" lon="6.57031">
        <ele>1811.26</ele>
        <time>2016-01-23T13:14:58Z</time>
      </trkpt>
      <trkpt lat="45.86179" lon="6.57032">
        <ele>1811.26</ele>
        <time>2016-01-23T13:15:32Z</time>
      </trkpt>
      <trkpt lat="45.86179" lon="6.57032">
        <ele>1811.26</ele>
        <time>2016-01-23T13:15:59Z</time>
      </trkpt>
      <trkpt lat="45.86179" lon="6.57033">
        <ele>1811.26</ele>
        <time>2016-01-23T13:16:17Z</time>
      </trkpt>
      <trkpt lat="45.86179" lon="6.57033">
        <ele>1811.26</ele>
        <time>2016-01-23T13:16:44Z</time>
      </trkpt>
      <trkpt lat="45.8618" lon="6.57034">
        <ele>1811.26</ele>
        <time>2016-01-23T13:17:26Z</time>
      </trkpt>
      <trkpt lat="45.86181" lon="6.57032">
        <ele>1811.26</ele>
        <time>2016-01-23T13:17:45Z</time>
      </trkpt>
      <trkpt lat="45.86181" lon="6.57032">
        <ele>1811.26</ele>
        <time>2016-01-23T13:17:59Z</time>
      </trkpt>
      <trkpt lat="45.86181" lon="6.57032">
        <ele>1811.26</ele>
        <time>2016-01-23T13:18:27Z</time>
      </trkpt>
      <trkpt lat="45.86182" lon="6.57031">
        <ele>1811.26</ele>
        <time>2016-01-23T13:18:56Z</time>
      </trkpt>
      <trkpt lat="45.86182" lon="6.57031">
        <ele>1811.26</ele>
        <time>2016-01-23T13:19:25Z</time>
      </trkpt>
      <trkpt lat="45.86182" lon="6.57031">
        <ele>1811.26</ele>
        <time>2016-01-23T13:19:27Z</time>
      </trkpt>
      <trkpt lat="45.86182" lon="6.5704">
        <ele>1809.82</ele>
        <time>2016-01-23T13:19:35Z</time>
      </trkpt>
      <trkpt lat="45.86179" lon="6.57059">
        <ele>1807.42</ele>
        <time>2016-01-23T13:19:50Z</time>
      </trkpt>
      <trkpt lat="45.86173" lon="6.57093">
        <ele>1805.01</ele>
        <time>2016-01-23T13:19:59Z</time>
      </trkpt>
      <trkpt lat="45.86175" lon="6.57123">
        <ele>1801.17</ele>
        <time>2016-01-23T13:20:05Z</time>
      </trkpt>
      <trkpt lat="45.86174" lon="6.57131">
        <ele>1800.21</ele>
        <time>2016-01-23T13:20:07Z</time>
      </trkpt>
      <trkpt lat="45.86173" lon="6.57135">
        <ele>1799.73</ele>
        <time>2016-01-23T13:20:09Z</time>
      </trkpt>
      <trkpt lat="45.86174" lon="6.57136">
        <ele>1799.24</ele>
        <time>2016-01-23T13:20:11Z</time>
      </trkpt>
      <trkpt lat="45.86175" lon="6.57158">
        <ele>1795.88</ele>
        <time>2016-01-23T13:20:17Z</time>
      </trkpt>
      <trkpt lat="45.86175" lon="6.57162">
        <ele>1794.92</ele>
        <time>2016-01-23T13:20:19Z</time>
      </trkpt>
      <trkpt lat="45.86174" lon="6.57177">
        <ele>1792.52</ele>
        <time>2016-01-23T13:20:26Z</time>
      </trkpt>
      <trkpt lat="45.86172" lon="6.5719">
        <ele>1789.63</ele>
        <time>2016-01-23T13:20:38Z</time>
      </trkpt>
      <trkpt lat="45.86171" lon="6.5719">
        <ele>1789.63</ele>
        <time>2016-01-23T13:20:44Z</time>
      </trkpt>
      <trkpt lat="45.86175" lon="6.57212">
        <ele>1788.19</ele>
        <time>2016-01-23T13:20:48Z</time>
      </trkpt>
      <trkpt lat="45.86175" lon="6.57224">
        <ele>1786.75</ele>
        <time>2016-01-23T13:20:49Z</time>
      </trkpt>
      <trkpt lat="45.86174" lon="6.57263">
        <ele>1780.02</ele>
        <time>2016-01-23T13:20:52Z</time>
      </trkpt>
      <trkpt lat="45.86175" lon="6.57272">
        <ele>1777.13</ele>
        <time>2016-01-23T13:20:53Z</time>
      </trkpt>
      <trkpt lat="45.86175" lon="6.5728">
        <ele>1775.69</ele>
        <time>2016-01-23T13:20:55Z</time>
      </trkpt>
      <trkpt lat="45.86167" lon="6.57291">
        <ele>1773.77</ele>
        <time>2016-01-23T13:20:58Z</time>
      </trkpt>
      <trkpt lat="45.86162" lon="6.57306">
        <ele>1770.41</ele>
        <time>2016-01-23T13:21:00Z</time>
      </trkpt>
      <trkpt lat="45.86153" lon="6.57328">
        <ele>1766.56</ele>
        <time>2016-01-23T13:21:03Z</time>
      </trkpt>
      <trkpt lat="45.86152" lon="6.57336">
        <ele>1763.2</ele>
        <time>2016-01-23T13:21:04Z</time>
      </trkpt>
      <trkpt lat="45.86139" lon="6.5738">
        <ele>1755.99</ele>
        <time>2016-01-23T13:21:09Z</time>
      </trkpt>
      <trkpt lat="45.86132" lon="6.57402">
        <ele>1752.62</ele>
        <time>2016-01-23T13:21:11Z</time>
      </trkpt>
      <trkpt lat="45.8613" lon="6.57413">
        <ele>1749.26</ele>
        <time>2016-01-23T13:21:12Z</time>
      </trkpt>
      <trkpt lat="45.86132" lon="6.57438">
        <ele>1748.29</ele>
        <time>2016-01-23T13:21:14Z</time>
      </trkpt>
      <trkpt lat="45.86134" lon="6.57488">
        <ele>1743.49</ele>
        <time>2016-01-23T13:21:17Z</time>
      </trkpt>
      <trkpt lat="45.86139" lon="6.57546">
        <ele>1729.55</ele>
        <time>2016-01-23T13:21:20Z</time>
      </trkpt>
      <trkpt lat="45.86142" lon="6.57565">
        <ele>1726.18</ele>
        <time>2016-01-23T13:21:21Z</time>
      </trkpt>
      <trkpt lat="45.86149" lon="6.57619">
        <ele>1722.82</ele>
        <time>2016-01-23T13:21:24Z</time>
      </trkpt>
      <trkpt lat="45.86153" lon="6.57669">
        <ele>1719.94</ele>
        <time>2016-01-23T13:21:27Z</time>
      </trkpt>
      <trkpt lat="45.86155" lon="6.577">
        <ele>1718.01</ele>
        <time>2016-01-23T13:21:29Z</time>
      </trkpt>
      <trkpt lat="45.86162" lon="6.57788">
        <ele>1713.69</ele>
        <time>2016-01-23T13:21:35Z</time>
      </trkpt>
      <trkpt lat="45.86167" lon="6.57814">
        <ele>1713.21</ele>
        <time>2016-01-23T13:21:37Z</time>
      </trkpt>
      <trkpt lat="45.86171" lon="6.57833">
        <ele>1711.28</ele>
        <time>2016-01-23T13:21:40Z</time>
      </trkpt>
      <trkpt lat="45.86184" lon="6.57861">
        <ele>1708.88</ele>
        <time>2016-01-23T13:21:50Z</time>
      </trkpt>
      <trkpt lat="45.86185" lon="6.57864">
        <ele>1707.92</ele>
        <time>2016-01-23T13:21:56Z</time>
      </trkpt>
      <trkpt lat="45.86184" lon="6.57883">
        <ele>1705.04</ele>
        <time>2016-01-23T13:22:02Z</time>
      </trkpt>
      <trkpt lat="45.8619" lon="6.57901">
        <ele>1700.71</ele>
        <time>2016-01-23T13:22:05Z</time>
      </trkpt>
      <trkpt lat="45.86192" lon="6.57923">
        <ele>1695.9</ele>
        <time>2016-01-23T13:22:08Z</time>
      </trkpt>
      <trkpt lat="45.86191" lon="6.57949">
        <ele>1689.65</ele>
        <time>2016-01-23T13:22:11Z</time>
      </trkpt>
      <trkpt lat="45.86196" lon="6.57966">
        <ele>1683.89</ele>
        <time>2016-01-23T13:22:13Z</time>
      </trkpt>
      <trkpt lat="45.86196" lon="6.57978">
        <ele>1678.6</ele>
        <time>2016-01-23T13:22:14Z</time>
      </trkpt>
      <trkpt lat="45.86195" lon="6.57988">
        <ele>1672.83</ele>
        <time>2016-01-23T13:22:15Z</time>
      </trkpt>
      <trkpt lat="45.86195" lon="6.57996">
        <ele>1675.72</ele>
        <time>2016-01-23T13:22:16Z</time>
      </trkpt>
      <trkpt lat="45.86197" lon="6.58003">
        <ele>1668.02</ele>
        <time>2016-01-23T13:22:19Z</time>
      </trkpt>
      <trkpt lat="45.86198" lon="6.58007">
        <ele>1667.54</ele>
        <time>2016-01-23T13:22:20Z</time>
      </trkpt>
      <trkpt lat="45.862" lon="6.5803">
        <ele>1663.22</ele>
        <time>2016-01-23T13:22:23Z</time>
      </trkpt>
      <trkpt lat="45.86202" lon="6.58041">
        <ele>1657.45</ele>
        <time>2016-01-23T13:22:24Z</time>
      </trkpt>
      <trkpt lat="45.86204" lon="6.58056">
        <ele>1649.28</ele>
        <time>2016-01-23T13:22:25Z</time>
      </trkpt>
      <trkpt lat="45.862" lon="6.58085">
        <ele>1646.88</ele>
        <time>2016-01-23T13:22:27Z</time>
      </trkpt>
      <trkpt lat="45.862" lon="6.581">
        <ele>1643.03</ele>
        <time>2016-01-23T13:22:28Z</time>
      </trkpt>
      <trkpt lat="45.862" lon="6.58136">
        <ele>1632.94</ele>
        <time>2016-01-23T13:22:30Z</time>
      </trkpt>
      <trkpt lat="45.86199" lon="6.58173">
        <ele>1627.65</ele>
        <time>2016-01-23T13:22:32Z</time>
      </trkpt>
      <trkpt lat="45.86202" lon="6.58188">
        <ele>1622.36</ele>
        <time>2016-01-23T13:22:33Z</time>
      </trkpt>
      <trkpt lat="45.86205" lon="6.58201">
        <ele>1618.04</ele>
        <time>2016-01-23T13:22:34Z</time>
      </trkpt>
      <trkpt lat="45.86206" lon="6.5821">
        <ele>1618.52</ele>
        <time>2016-01-23T13:22:35Z</time>
      </trkpt>
      <trkpt lat="45.86205" lon="6.58218">
        <ele>1619.48</ele>
        <time>2016-01-23T13:22:37Z</time>
      </trkpt>
      <trkpt lat="45.86203" lon="6.58224">
        <ele>1620.44</ele>
        <time>2016-01-23T13:22:47Z</time>
      </trkpt>
      <trkpt lat="45.862" lon="6.58223">
        <ele>1620.44</ele>
        <time>2016-01-23T13:23:06Z</time>
      </trkpt>
      <trkpt lat="45.86199" lon="6.58242">
        <ele>1616.11</ele>
        <time>2016-01-23T13:23:12Z</time>
      </trkpt>
      <trkpt lat="45.86199" lon="6.58243">
        <ele>1616.11</ele>
        <time>2016-01-23T13:23:13Z</time>
      </trkpt>
      <trkpt lat="45.86202" lon="6.58263">
        <ele>1612.27</ele>
        <time>2016-01-23T13:23:18Z</time>
      </trkpt>
      <trkpt lat="45.86201" lon="6.58276">
        <ele>1608.9</ele>
        <time>2016-01-23T13:23:20Z</time>
      </trkpt>
      <trkpt lat="45.862" lon="6.5829">
        <ele>1606.02</ele>
        <time>2016-01-23T13:23:22Z</time>
      </trkpt>
      <trkpt lat="45.86201" lon="6.58307">
        <ele>1600.25</ele>
        <time>2016-01-23T13:23:24Z</time>
      </trkpt>
      <trkpt lat="45.86203" lon="6.58326">
        <ele>1595.45</ele>
        <time>2016-01-23T13:23:26Z</time>
      </trkpt>
      <trkpt lat="45.86204" lon="6.58334">
        <ele>1592.56</ele>
        <time>2016-01-23T13:23:27Z</time>
      </trkpt>
      <trkpt lat="45.86207" lon="6.58342">
        <ele>1591.12</ele>
        <time>2016-01-23T13:23:28Z</time>
      </trkpt>
      <trkpt lat="45.86227" lon="6.58368">
        <ele>1582.47</ele>
        <time>2016-01-23T13:23:32Z</time>
      </trkpt>
      <trkpt lat="45.86242" lon="6.58374">
        <ele>1579.1</ele>
        <time>2016-01-23T13:23:34Z</time>
      </trkpt>
      <trkpt lat="45.86255" lon="6.58374">
        <ele>1574.3</ele>
        <time>2016-01-23T13:23:36Z</time>
      </trkpt>
      <trkpt lat="45.86258" lon="6.58372">
        <ele>1572.85</ele>
        <time>2016-01-23T13:23:37Z</time>
      </trkpt>
      <trkpt lat="45.86292" lon="6.58354">
        <ele>1564.68</ele>
        <time>2016-01-23T13:23:42Z</time>
      </trkpt>
      <trkpt lat="45.86309" lon="6.58342">
        <ele>1562.76</ele>
        <time>2016-01-23T13:23:44Z</time>
      </trkpt>
      <trkpt lat="45.86319" lon="6.5834">
        <ele>1566.61</ele>
        <time>2016-01-23T13:23:46Z</time>
      </trkpt>
      <trkpt lat="45.86322" lon="6.58341">
        <ele>1566.61</ele>
        <time>2016-01-23T13:23:47Z</time>
      </trkpt>
      <trkpt lat="45.86324" lon="6.58346">
        <ele>1566.12</ele>
        <time>2016-01-23T13:23:48Z</time>
      </trkpt>
      <trkpt lat="45.86328" lon="6.58363">
        <ele>1561.32</ele>
        <time>2016-01-23T13:23:51Z</time>
      </trkpt>
      <trkpt lat="45.86329" lon="6.58362">
        <ele>1560.84</ele>
        <time>2016-01-23T13:24:03Z</time>
      </trkpt>
      <trkpt lat="45.86339" lon="6.58381">
        <ele>1557.95</ele>
        <time>2016-01-23T13:24:08Z</time>
      </trkpt>
      <trkpt lat="45.86348" lon="6.58395">
        <ele>1554.11</ele>
        <time>2016-01-23T13:24:10Z</time>
      </trkpt>
      <trkpt lat="45.86352" lon="6.58401">
        <ele>1553.63</ele>
        <time>2016-01-23T13:24:11Z</time>
      </trkpt>
      <trkpt lat="45.86364" lon="6.58428">
        <ele>1547.86</ele>
        <time>2016-01-23T13:24:14Z</time>
      </trkpt>
      <trkpt lat="45.86367" lon="6.58436">
        <ele>1544.01</ele>
        <time>2016-01-23T13:24:16Z</time>
      </trkpt>
      <trkpt lat="45.86367" lon="6.58436">
        <ele>1544.01</ele>
        <time>2016-01-23T13:24:17Z</time>
      </trkpt>
      <trkpt lat="45.86367" lon="6.58434">
        <ele>1544.5</ele>
        <time>2016-01-23T13:24:36Z</time>
      </trkpt>
      <trkpt lat="45.86369" lon="6.58439">
        <ele>1544.5</ele>
        <time>2016-01-23T13:24:47Z</time>
      </trkpt>
      <trkpt lat="45.86374" lon="6.58451">
        <ele>1541.61</ele>
        <time>2016-01-23T13:24:52Z</time>
      </trkpt>
      <trkpt lat="45.86376" lon="6.58463">
        <ele>1536.8</ele>
        <time>2016-01-23T13:24:54Z</time>
      </trkpt>
      <trkpt lat="45.86379" lon="6.58475">
        <ele>1532.48</ele>
        <time>2016-01-23T13:24:56Z</time>
      </trkpt>
      <trkpt lat="45.8639" lon="6.58493">
        <ele>1527.67</ele>
        <time>2016-01-23T13:24:59Z</time>
      </trkpt>
      <trkpt lat="45.86394" lon="6.58497">
        <ele>1524.31</ele>
        <time>2016-01-23T13:25:00Z</time>
      </trkpt>
      <trkpt lat="45.86396" lon="6.585">
        <ele>1522.87</ele>
        <time>2016-01-23T13:25:01Z</time>
      </trkpt>
      <trkpt lat="45.86412" lon="6.58522">
        <ele>1517.58</ele>
        <time>2016-01-23T13:25:05Z</time>
      </trkpt>
      <trkpt lat="45.86418" lon="6.5854">
        <ele>1513.25</ele>
        <time>2016-01-23T13:25:07Z</time>
      </trkpt>
      <trkpt lat="45.86423" lon="6.58546">
        <ele>1509.89</ele>
        <time>2016-01-23T13:25:08Z</time>
      </trkpt>
      <trkpt lat="45.86431" lon="6.58559">
        <ele>1504.6</ele>
        <time>2016-01-23T13:25:10Z</time>
      </trkpt>
      <trkpt lat="45.86438" lon="6.58574">
        <ele>1499.31</ele>
        <time>2016-01-23T13:25:12Z</time>
      </trkpt>
      <trkpt lat="45.86444" lon="6.58581">
        <ele>1496.91</ele>
        <time>2016-01-23T13:25:13Z</time>
      </trkpt>
      <trkpt lat="45.86467" lon="6.58613">
        <ele>1487.3</ele>
        <time>2016-01-23T13:25:17Z</time>
      </trkpt>
      <trkpt lat="45.86475" lon="6.5862">
        <ele>1483.93</ele>
        <time>2016-01-23T13:25:18Z</time>
      </trkpt>
      <trkpt lat="45.86494" lon="6.58625">
        <ele>1475.76</ele>
        <time>2016-01-23T13:25:20Z</time>
      </trkpt>
      <trkpt lat="45.86514" lon="6.58635">
        <ele>1470.95</ele>
        <time>2016-01-23T13:25:22Z</time>
      </trkpt>
      <trkpt lat="45.86524" lon="6.58635">
        <ele>1467.59</ele>
        <time>2016-01-23T13:25:23Z</time>
      </trkpt>
      <trkpt lat="45.86536" lon="6.58633">
        <ele>1463.26</ele>
        <time>2016-01-23T13:25:24Z</time>
      </trkpt>
      <trkpt lat="45.86548" lon="6.58633">
        <ele>1456.53</ele>
        <time>2016-01-23T13:25:25Z</time>
      </trkpt>
      <trkpt lat="45.86559" lon="6.58636">
        <ele>1456.53</ele>
        <time>2016-01-23T13:25:26Z</time>
      </trkpt>
      <trkpt lat="45.86568" lon="6.58635">
        <ele>1455.57</ele>
        <time>2016-01-23T13:25:28Z</time>
      </trkpt>
      <trkpt lat="45.86567" lon="6.58636">
        <ele>1456.53</ele>
        <time>2016-01-23T13:25:38Z</time>
      </trkpt>
      <trkpt lat="45.86567" lon="6.58637">
        <ele>1456.53</ele>
        <time>2016-01-23T13:25:40Z</time>
      </trkpt>
      <trkpt lat="45.8658" lon="6.58637">
        <ele>1455.09</ele>
        <time>2016-01-23T13:25:51Z</time>
      </trkpt>
      <trkpt lat="45.86578" lon="6.58636">
        <ele>1454.13</ele>
        <time>2016-01-23T13:26:17Z</time>
      </trkpt>
      <trkpt lat="45.8658" lon="6.58636">
        <ele>1454.13</ele>
        <time>2016-01-23T13:26:54Z</time>
      </trkpt>
      <trkpt lat="45.86579" lon="6.58635">
        <ele>1454.13</ele>
        <time>2016-01-23T13:27:15Z</time>
      </trkpt>
      <trkpt lat="45.86581" lon="6.58637">
        <ele>1454.13</ele>
        <time>2016-01-23T13:27:33Z</time>
      </trkpt>
      <trkpt lat="45.8662" lon="6.58643">
        <ele>1445.96</ele>
        <time>2016-01-23T13:27:39Z</time>
      </trkpt>
      <trkpt lat="45.86633" lon="6.58645">
        <ele>1441.15</ele>
        <time>2016-01-23T13:27:40Z</time>
      </trkpt>
      <trkpt lat="45.86646" lon="6.58648">
        <ele>1437.79</ele>
        <time>2016-01-23T13:27:41Z</time>
      </trkpt>
      <trkpt lat="45.86675" lon="6.58653">
        <ele>1428.66</ele>
        <time>2016-01-23T13:27:43Z</time>
      </trkpt>
      <trkpt lat="45.86691" lon="6.58657">
        <ele>1422.41</ele>
        <time>2016-01-23T13:27:44Z</time>
      </trkpt>
      <trkpt lat="45.86708" lon="6.58662">
        <ele>1414.24</ele>
        <time>2016-01-23T13:27:45Z</time>
      </trkpt>
      <trkpt lat="45.86744" lon="6.58671">
        <ele>1408.95</ele>
        <time>2016-01-23T13:27:47Z</time>
      </trkpt>
      <trkpt lat="45.86772" lon="6.58678">
        <ele>1407.51</ele>
        <time>2016-01-23T13:27:49Z</time>
      </trkpt>
      <trkpt lat="45.86788" lon="6.58679">
        <ele>1408.47</ele>
        <time>2016-01-23T13:27:50Z</time>
      </trkpt>
      <trkpt lat="45.86797" lon="6.58679">
        <ele>1407.03</ele>
        <time>2016-01-23T13:27:51Z</time>
      </trkpt>
      <trkpt lat="45.86808" lon="6.58682">
        <ele>1407.03</ele>
        <time>2016-01-23T13:27:52Z</time>
      </trkpt>
      <trkpt lat="45.86817" lon="6.58687">
        <ele>1408.95</ele>
        <time>2016-01-23T13:27:53Z</time>
      </trkpt>
      <trkpt lat="45.86825" lon="6.58691">
        <ele>1409.91</ele>
        <time>2016-01-23T13:27:54Z</time>
      </trkpt>
      <trkpt lat="45.86832" lon="6.58692">
        <ele>1409.43</ele>
        <time>2016-01-23T13:27:55Z</time>
      </trkpt>
      <trkpt lat="45.86837" lon="6.58691">
        <ele>1409.43</ele>
        <time>2016-01-23T13:27:56Z</time>
      </trkpt>
      <trkpt lat="45.86848" lon="6.58691">
        <ele>1410.39</ele>
        <time>2016-01-23T13:28:03Z</time>
      </trkpt>
      <trkpt lat="45.86852" lon="6.5869">
        <ele>1410.39</ele>
        <time>2016-01-23T13:28:16Z</time>
      </trkpt>
      <trkpt lat="45.86854" lon="6.58692">
        <ele>1409.43</ele>
        <time>2016-01-23T13:28:23Z</time>
      </trkpt>
      <trkpt lat="45.86856" lon="6.58693">
        <ele>1409.43</ele>
        <time>2016-01-23T13:28:26Z</time>
      </trkpt>
      <trkpt lat="45.86858" lon="6.58693">
        <ele>1409.43</ele>
        <time>2016-01-23T13:28:27Z</time>
      </trkpt>
      <trkpt lat="45.86872" lon="6.58697">
        <ele>1412.79</ele>
        <time>2016-01-23T13:28:33Z</time>
      </trkpt>
      <trkpt lat="45.86878" lon="6.58698">
        <ele>1416.16</ele>
        <time>2016-01-23T13:28:36Z</time>
      </trkpt>
      <trkpt lat="45.86882" lon="6.58699">
        <ele>1419.52</ele>
        <time>2016-01-23T13:28:38Z</time>
      </trkpt>
      <trkpt lat="45.86889" lon="6.587">
        <ele>1423.37</ele>
        <time>2016-01-23T13:28:41Z</time>
      </trkpt>
      <trkpt lat="45.86895" lon="6.58701">
        <ele>1426.73</ele>
        <time>2016-01-23T13:28:44Z</time>
      </trkpt>
      <trkpt lat="45.86901" lon="6.58701">
        <ele>1431.06</ele>
        <time>2016-01-23T13:28:47Z</time>
      </trkpt>
      <trkpt lat="45.86907" lon="6.58703">
        <ele>1434.42</ele>
        <time>2016-01-23T13:28:50Z</time>
      </trkpt>
      <trkpt lat="45.86914" lon="6.58704">
        <ele>1438.27</ele>
        <time>2016-01-23T13:28:53Z</time>
      </trkpt>
      <trkpt lat="45.86921" lon="6.58705">
        <ele>1442.11</ele>
        <time>2016-01-23T13:28:56Z</time>
      </trkpt>
      <trkpt lat="45.8693" lon="6.58707">
        <ele>1445.96</ele>
        <time>2016-01-23T13:29:00Z</time>
      </trkpt>
      <trkpt lat="45.86943" lon="6.5871">
        <ele>1449.32</ele>
        <time>2016-01-23T13:29:06Z</time>
      </trkpt>
      <trkpt lat="45.86952" lon="6.58711">
        <ele>1453.17</ele>
        <time>2016-01-23T13:29:11Z</time>
      </trkpt>
      <trkpt lat="45.86962" lon="6.58713">
        <ele>1457.02</ele>
        <time>2016-01-23T13:29:16Z</time>
      </trkpt>
      <trkpt lat="45.86971" lon="6.58715">
        <ele>1460.38</ele>
        <time>2016-01-23T13:29:20Z</time>
      </trkpt>
      <trkpt lat="45.86979" lon="6.58717">
        <ele>1463.26</ele>
        <time>2016-01-23T13:29:24Z</time>
      </trkpt>
      <trkpt lat="45.86988" lon="6.58718">
        <ele>1467.11</ele>
        <time>2016-01-23T13:29:28Z</time>
      </trkpt>
      <trkpt lat="45.86996" lon="6.58719">
        <ele>1470.47</ele>
        <time>2016-01-23T13:29:32Z</time>
      </trkpt>
      <trkpt lat="45.87004" lon="6.5872">
        <ele>1474.32</ele>
        <time>2016-01-23T13:29:36Z</time>
      </trkpt>
      <trkpt lat="45.87013" lon="6.58722">
        <ele>1477.68</ele>
        <time>2016-01-23T13:29:40Z</time>
      </trkpt>
      <trkpt lat="45.87019" lon="6.58723">
        <ele>1481.05</ele>
        <time>2016-01-23T13:29:43Z</time>
      </trkpt>
      <trkpt lat="45.87025" lon="6.58724">
        <ele>1483.93</ele>
        <time>2016-01-23T13:29:46Z</time>
      </trkpt>
      <trkpt lat="45.87036" lon="6.58727">
        <ele>1487.3</ele>
        <time>2016-01-23T13:29:51Z</time>
      </trkpt>
      <trkpt lat="45.87049" lon="6.58728">
        <ele>1490.66</ele>
        <time>2016-01-23T13:29:57Z</time>
      </trkpt>
      <trkpt lat="45.8706" lon="6.58729">
        <ele>1494.03</ele>
        <time>2016-01-23T13:30:02Z</time>
      </trkpt>
      <trkpt lat="45.87071" lon="6.5873">
        <ele>1497.39</ele>
        <time>2016-01-23T13:30:07Z</time>
      </trkpt>
      <trkpt lat="45.87082" lon="6.58732">
        <ele>1501.24</ele>
        <time>2016-01-23T13:30:12Z</time>
      </trkpt>
      <trkpt lat="45.87092" lon="6.58734">
        <ele>1504.6</ele>
        <time>2016-01-23T13:30:17Z</time>
      </trkpt>
      <trkpt lat="45.871" lon="6.58735">
        <ele>1508.45</ele>
        <time>2016-01-23T13:30:21Z</time>
      </trkpt>
      <trkpt lat="45.87109" lon="6.58736">
        <ele>1511.33</ele>
        <time>2016-01-23T13:30:25Z</time>
      </trkpt>
      <trkpt lat="45.8712" lon="6.58737">
        <ele>1514.69</ele>
        <time>2016-01-23T13:30:30Z</time>
      </trkpt>
      <trkpt lat="45.87132" lon="6.58738">
        <ele>1517.58</ele>
        <time>2016-01-23T13:30:35Z</time>
      </trkpt>
      <trkpt lat="45.87143" lon="6.58739">
        <ele>1520.46</ele>
        <time>2016-01-23T13:30:40Z</time>
      </trkpt>
      <trkpt lat="45.87154" lon="6.5874">
        <ele>1524.31</ele>
        <time>2016-01-23T13:30:45Z</time>
      </trkpt>
      <trkpt lat="45.87165" lon="6.58742">
        <ele>1527.67</ele>
        <time>2016-01-23T13:30:50Z</time>
      </trkpt>
      <trkpt lat="45.87176" lon="6.58744">
        <ele>1531.52</ele>
        <time>2016-01-23T13:30:55Z</time>
      </trkpt>
      <trkpt lat="45.87187" lon="6.58745">
        <ele>1535.36</ele>
        <time>2016-01-23T13:31:00Z</time>
      </trkpt>
      <trkpt lat="45.87197" lon="6.58747">
        <ele>1538.25</ele>
        <time>2016-01-23T13:31:05Z</time>
      </trkpt>
      <trkpt lat="45.87209" lon="6.58749">
        <ele>1541.61</ele>
        <time>2016-01-23T13:31:11Z</time>
      </trkpt>
      <trkpt lat="45.87222" lon="6.58751">
        <ele>1544.98</ele>
        <time>2016-01-23T13:31:17Z</time>
      </trkpt>
      <trkpt lat="45.87235" lon="6.58753">
        <ele>1548.82</ele>
        <time>2016-01-23T13:31:23Z</time>
      </trkpt>
      <trkpt lat="45.87246" lon="6.58754">
        <ele>1552.19</ele>
        <time>2016-01-23T13:31:28Z</time>
      </trkpt>
      <trkpt lat="45.87257" lon="6.58756">
        <ele>1555.55</ele>
        <time>2016-01-23T13:31:33Z</time>
      </trkpt>
      <trkpt lat="45.87267" lon="6.58757">
        <ele>1559.4</ele>
        <time>2016-01-23T13:31:38Z</time>
      </trkpt>
      <trkpt lat="45.87277" lon="6.5876">
        <ele>1562.76</ele>
        <time>2016-01-23T13:31:43Z</time>
      </trkpt>
      <trkpt lat="45.87279" lon="6.5876">
        <ele>1562.76</ele>
        <time>2016-01-23T13:31:44Z</time>
      </trkpt>
      <trkpt lat="45.87297" lon="6.58762">
        <ele>1565.64</ele>
        <time>2016-01-23T13:31:52Z</time>
      </trkpt>
      <trkpt lat="45.87306" lon="6.58764">
        <ele>1567.09</ele>
        <time>2016-01-23T13:31:56Z</time>
      </trkpt>
      <trkpt lat="45.87323" lon="6.58766">
        <ele>1570.93</ele>
        <time>2016-01-23T13:32:04Z</time>
      </trkpt>
      <trkpt lat="45.87351" lon="6.58774">
        <ele>1571.41</ele>
        <time>2016-01-23T13:32:18Z</time>
      </trkpt>
      <trkpt lat="45.87388" lon="6.58785">
        <ele>1571.41</ele>
        <time>2016-01-23T13:32:36Z</time>
      </trkpt>
      <trkpt lat="45.87417" lon="6.58789">
        <ele>1574.78</ele>
        <time>2016-01-23T13:32:49Z</time>
      </trkpt>
      <trkpt lat="45.87426" lon="6.58788">
        <ele>1577.66</ele>
        <time>2016-01-23T13:32:53Z</time>
      </trkpt>
      <trkpt lat="45.87435" lon="6.58788">
        <ele>1581.51</ele>
        <time>2016-01-23T13:32:57Z</time>
      </trkpt>
      <trkpt lat="45.87444" lon="6.58788">
        <ele>1584.87</ele>
        <time>2016-01-23T13:33:01Z</time>
      </trkpt>
      <trkpt lat="45.87453" lon="6.58788">
        <ele>1588.24</ele>
        <time>2016-01-23T13:33:05Z</time>
      </trkpt>
      <trkpt lat="45.87462" lon="6.58788">
        <ele>1592.08</ele>
        <time>2016-01-23T13:33:09Z</time>
      </trkpt>
      <trkpt lat="45.8747" lon="6.58789">
        <ele>1595.93</ele>
        <time>2016-01-23T13:33:13Z</time>
      </trkpt>
      <trkpt lat="45.87479" lon="6.5879">
        <ele>1598.81</ele>
        <time>2016-01-23T13:33:17Z</time>
      </trkpt>
      <trkpt lat="45.8749" lon="6.58791">
        <ele>1602.17</ele>
        <time>2016-01-23T13:33:22Z</time>
      </trkpt>
      <trkpt lat="45.87498" lon="6.58792">
        <ele>1605.06</ele>
        <time>2016-01-23T13:33:26Z</time>
      </trkpt>
      <trkpt lat="45.87507" lon="6.58793">
        <ele>1608.42</ele>
        <time>2016-01-23T13:33:30Z</time>
      </trkpt>
      <trkpt lat="45.87515" lon="6.58794">
        <ele>1611.79</ele>
        <time>2016-01-23T13:33:34Z</time>
      </trkpt>
      <trkpt lat="45.87524" lon="6.58796">
        <ele>1614.67</ele>
        <time>2016-01-23T13:33:38Z</time>
      </trkpt>
      <trkpt lat="45.87533" lon="6.58797">
        <ele>1618.04</ele>
        <time>2016-01-23T13:33:42Z</time>
      </trkpt>
      <trkpt lat="45.87542" lon="6.58799">
        <ele>1621.4</ele>
        <time>2016-01-23T13:33:46Z</time>
      </trkpt>
      <trkpt lat="45.8755" lon="6.588">
        <ele>1625.25</ele>
        <time>2016-01-23T13:33:50Z</time>
      </trkpt>
      <trkpt lat="45.87558" lon="6.58802">
        <ele>1628.61</ele>
        <time>2016-01-23T13:33:54Z</time>
      </trkpt>
      <trkpt lat="45.87566" lon="6.58802">
        <ele>1632.46</ele>
        <time>2016-01-23T13:33:58Z</time>
      </trkpt>
      <trkpt lat="45.87574" lon="6.58803">
        <ele>1635.82</ele>
        <time>2016-01-23T13:34:02Z</time>
      </trkpt>
      <trkpt lat="45.87583" lon="6.58805">
        <ele>1639.67</ele>
        <time>2016-01-23T13:34:06Z</time>
      </trkpt>
      <trkpt lat="45.8759" lon="6.58805">
        <ele>1643.51</ele>
        <time>2016-01-23T13:34:10Z</time>
      </trkpt>
      <trkpt lat="45.87596" lon="6.58806">
        <ele>1646.88</ele>
        <time>2016-01-23T13:34:13Z</time>
      </trkpt>
      <trkpt lat="45.87604" lon="6.58805">
        <ele>1650.72</ele>
        <time>2016-01-23T13:34:17Z</time>
      </trkpt>
      <trkpt lat="45.87611" lon="6.58806">
        <ele>1654.09</ele>
        <time>2016-01-23T13:34:20Z</time>
      </trkpt>
      <trkpt lat="45.8762" lon="6.58808">
        <ele>1657.45</ele>
        <time>2016-01-23T13:34:24Z</time>
      </trkpt>
      <trkpt lat="45.87629" lon="6.58808">
        <ele>1660.33</ele>
        <time>2016-01-23T13:34:28Z</time>
      </trkpt>
      <trkpt lat="45.87639" lon="6.58809">
        <ele>1664.18</ele>
        <time>2016-01-23T13:34:32Z</time>
      </trkpt>
      <trkpt lat="45.87647" lon="6.5881">
        <ele>1667.54</ele>
        <time>2016-01-23T13:34:36Z</time>
      </trkpt>
      <trkpt lat="45.87656" lon="6.58812">
        <ele>1670.91</ele>
        <time>2016-01-23T13:34:40Z</time>
      </trkpt>
      <trkpt lat="45.87665" lon="6.58812">
        <ele>1674.75</ele>
        <time>2016-01-23T13:34:44Z</time>
      </trkpt>
      <trkpt lat="45.87673" lon="6.58813">
        <ele>1678.12</ele>
        <time>2016-01-23T13:34:48Z</time>
      </trkpt>
      <trkpt lat="45.87682" lon="6.58815">
        <ele>1682.44</ele>
        <time>2016-01-23T13:34:52Z</time>
      </trkpt>
      <trkpt lat="45.87689" lon="6.58816">
        <ele>1685.81</ele>
        <time>2016-01-23T13:34:56Z</time>
      </trkpt>
      <trkpt lat="45.87696" lon="6.58816">
        <ele>1689.65</ele>
        <time>2016-01-23T13:35:00Z</time>
      </trkpt>
      <trkpt lat="45.87702" lon="6.58817">
        <ele>1692.54</ele>
        <time>2016-01-23T13:35:03Z</time>
      </trkpt>
      <trkpt lat="45.8771" lon="6.58818">
        <ele>1695.9</ele>
        <time>2016-01-23T13:35:07Z</time>
      </trkpt>
      <trkpt lat="45.87719" lon="6.58819">
        <ele>1699.27</ele>
        <time>2016-01-23T13:35:11Z</time>
      </trkpt>
      <trkpt lat="45.87728" lon="6.58819">
        <ele>1702.63</ele>
        <time>2016-01-23T13:35:15Z</time>
      </trkpt>
      <trkpt lat="45.87736" lon="6.5882">
        <ele>1706</ele>
        <time>2016-01-23T13:35:19Z</time>
      </trkpt>
      <trkpt lat="45.87745" lon="6.58822">
        <ele>1709.36</ele>
        <time>2016-01-23T13:35:23Z</time>
      </trkpt>
      <trkpt lat="45.87753" lon="6.58823">
        <ele>1713.21</ele>
        <time>2016-01-23T13:35:27Z</time>
      </trkpt>
      <trkpt lat="45.87761" lon="6.58824">
        <ele>1716.57</ele>
        <time>2016-01-23T13:35:31Z</time>
      </trkpt>
      <trkpt lat="45.87769" lon="6.58825">
        <ele>1719.94</ele>
        <time>2016-01-23T13:35:35Z</time>
      </trkpt>
      <trkpt lat="45.87776" lon="6.58827">
        <ele>1723.3</ele>
        <time>2016-01-23T13:35:39Z</time>
      </trkpt>
      <trkpt lat="45.87787" lon="6.58828">
        <ele>1726.67</ele>
        <time>2016-01-23T13:35:44Z</time>
      </trkpt>
      <trkpt lat="45.87797" lon="6.58829">
        <ele>1730.03</ele>
        <time>2016-01-23T13:35:49Z</time>
      </trkpt>
      <trkpt lat="45.87807" lon="6.58831">
        <ele>1733.39</ele>
        <time>2016-01-23T13:35:54Z</time>
      </trkpt>
      <trkpt lat="45.87817" lon="6.58833">
        <ele>1737.24</ele>
        <time>2016-01-23T13:35:59Z</time>
      </trkpt>
      <trkpt lat="45.87826" lon="6.58835">
        <ele>1740.6</ele>
        <time>2016-01-23T13:36:04Z</time>
      </trkpt>
      <trkpt lat="45.87838" lon="6.58837">
        <ele>1743.49</ele>
        <time>2016-01-23T13:36:10Z</time>
      </trkpt>
      <trkpt lat="45.87846" lon="6.58838">
        <ele>1745.41</ele>
        <time>2016-01-23T13:36:14Z</time>
      </trkpt>
      <trkpt lat="45.87856" lon="6.5884">
        <ele>1748.29</ele>
        <time>2016-01-23T13:36:19Z</time>
      </trkpt>
      <trkpt lat="45.87869" lon="6.58843">
        <ele>1751.66</ele>
        <time>2016-01-23T13:36:25Z</time>
      </trkpt>
      <trkpt lat="45.87895" lon="6.58849">
        <ele>1749.26</ele>
        <time>2016-01-23T13:36:36Z</time>
      </trkpt>
      <trkpt lat="45.87911" lon="6.58853">
        <ele>1749.26</ele>
        <time>2016-01-23T13:36:48Z</time>
      </trkpt>
      <trkpt lat="45.87911" lon="6.58851">
        <ele>1749.26</ele>
        <time>2016-01-23T13:36:59Z</time>
      </trkpt>
      <trkpt lat="45.87911" lon="6.58851">
        <ele>1750.7</ele>
        <time>2016-01-23T13:37:11Z</time>
      </trkpt>
      <trkpt lat="45.87912" lon="6.58851">
        <ele>1750.7</ele>
        <time>2016-01-23T13:37:27Z</time>
      </trkpt>
      <trkpt lat="45.87912" lon="6.58851">
        <ele>1750.7</ele>
        <time>2016-01-23T13:37:58Z</time>
      </trkpt>
      <trkpt lat="45.87912" lon="6.58854">
        <ele>1750.7</ele>
        <time>2016-01-23T13:38:15Z</time>
      </trkpt>
      <trkpt lat="45.87914" lon="6.58858">
        <ele>1750.7</ele>
        <time>2016-01-23T13:38:20Z</time>
      </trkpt>
      <trkpt lat="45.87919" lon="6.58862">
        <ele>1749.26</ele>
        <time>2016-01-23T13:38:25Z</time>
      </trkpt>
      <trkpt lat="45.87921" lon="6.58862">
        <ele>1749.26</ele>
        <time>2016-01-23T13:38:47Z</time>
      </trkpt>
      <trkpt lat="45.87922" lon="6.58864">
        <ele>1749.26</ele>
        <time>2016-01-23T13:38:48Z</time>
      </trkpt>
      <trkpt lat="45.87924" lon="6.58865">
        <ele>1748.78</ele>
        <time>2016-01-23T13:38:49Z</time>
      </trkpt>
      <trkpt lat="45.87924" lon="6.58865">
        <ele>1747.81</ele>
        <time>2016-01-23T13:38:51Z</time>
      </trkpt>
      <trkpt lat="45.87926" lon="6.58864">
        <ele>1746.85</ele>
        <time>2016-01-23T13:39:08Z</time>
      </trkpt>
      <trkpt lat="45.87928" lon="6.58863">
        <ele>1746.85</ele>
        <time>2016-01-23T13:39:34Z</time>
      </trkpt>
      <trkpt lat="45.87932" lon="6.58863">
        <ele>1746.37</ele>
        <time>2016-01-23T13:39:36Z</time>
      </trkpt>
      <trkpt lat="45.87936" lon="6.58867">
        <ele>1745.41</ele>
        <time>2016-01-23T13:39:37Z</time>
      </trkpt>
      <trkpt lat="45.8794" lon="6.58873">
        <ele>1743.97</ele>
        <time>2016-01-23T13:39:38Z</time>
      </trkpt>
      <trkpt lat="45.87945" lon="6.58881">
        <ele>1743.97</ele>
        <time>2016-01-23T13:39:39Z</time>
      </trkpt>
      <trkpt lat="45.87966" lon="6.58913">
        <ele>1738.2</ele>
        <time>2016-01-23T13:39:42Z</time>
      </trkpt>
      <trkpt lat="45.87975" lon="6.58926">
        <ele>1734.84</ele>
        <time>2016-01-23T13:39:43Z</time>
      </trkpt>
      <trkpt lat="45.87985" lon="6.5894">
        <ele>1728.11</ele>
        <time>2016-01-23T13:39:44Z</time>
      </trkpt>
      <trkpt lat="45.87995" lon="6.58955">
        <ele>1723.3</ele>
        <time>2016-01-23T13:39:45Z</time>
      </trkpt>
      <trkpt lat="45.88005" lon="6.58969">
        <ele>1719.46</ele>
        <time>2016-01-23T13:39:46Z</time>
      </trkpt>
      <trkpt lat="45.88016" lon="6.58984">
        <ele>1719.46</ele>
        <time>2016-01-23T13:39:47Z</time>
      </trkpt>
      <trkpt lat="45.88028" lon="6.58998">
        <ele>1713.21</ele>
        <time>2016-01-23T13:39:48Z</time>
      </trkpt>
      <trkpt lat="45.88053" lon="6.59028">
        <ele>1708.4</ele>
        <time>2016-01-23T13:39:50Z</time>
      </trkpt>
      <trkpt lat="45.88078" lon="6.59053">
        <ele>1705.52</ele>
        <time>2016-01-23T13:39:52Z</time>
      </trkpt>
      <trkpt lat="45.88089" lon="6.59061">
        <ele>1703.59</ele>
        <time>2016-01-23T13:39:53Z</time>
      </trkpt>
      <trkpt lat="45.88102" lon="6.59068">
        <ele>1699.27</ele>
        <time>2016-01-23T13:39:54Z</time>
      </trkpt>
      <trkpt lat="45.88115" lon="6.59074">
        <ele>1699.27</ele>
        <time>2016-01-23T13:39:55Z</time>
      </trkpt>
      <trkpt lat="45.88159" lon="6.59093">
        <ele>1697.34</ele>
        <time>2016-01-23T13:39:59Z</time>
      </trkpt>
      <trkpt lat="45.88167" lon="6.591">
        <ele>1697.83</ele>
        <time>2016-01-23T13:40:00Z</time>
      </trkpt>
      <trkpt lat="45.88179" lon="6.59113">
        <ele>1697.83</ele>
        <time>2016-01-23T13:40:03Z</time>
      </trkpt>
      <trkpt lat="45.88179" lon="6.59115">
        <ele>1699.27</ele>
        <time>2016-01-23T13:40:06Z</time>
      </trkpt>
      <trkpt lat="45.88181" lon="6.59116">
        <ele>1699.75</ele>
        <time>2016-01-23T13:40:08Z</time>
      </trkpt>
      <trkpt lat="45.88182" lon="6.59117">
        <ele>1699.75</ele>
        <time>2016-01-23T13:40:09Z</time>
      </trkpt>
      <trkpt lat="45.88183" lon="6.59118">
        <ele>1699.75</ele>
        <time>2016-01-23T13:40:10Z</time>
      </trkpt>
      <trkpt lat="45.88184" lon="6.5912">
        <ele>1699.75</ele>
        <time>2016-01-23T13:40:11Z</time>
      </trkpt>
      <trkpt lat="45.88185" lon="6.59121">
        <ele>1699.75</ele>
        <time>2016-01-23T13:40:12Z</time>
      </trkpt>
      <trkpt lat="45.88186" lon="6.59122">
        <ele>1699.75</ele>
        <time>2016-01-23T13:40:13Z</time>
      </trkpt>
      <trkpt lat="45.88188" lon="6.59124">
        <ele>1699.75</ele>
        <time>2016-01-23T13:40:14Z</time>
      </trkpt>
      <trkpt lat="45.88191" lon="6.59125">
        <ele>1699.75</ele>
        <time>2016-01-23T13:40:15Z</time>
      </trkpt>
      <trkpt lat="45.88204" lon="6.59135">
        <ele>1698.31</ele>
        <time>2016-01-23T13:40:19Z</time>
      </trkpt>
      <trkpt lat="45.88222" lon="6.59152">
        <ele>1695.9</ele>
        <time>2016-01-23T13:40:23Z</time>
      </trkpt>
      <trkpt lat="45.88227" lon="6.59157">
        <ele>1694.94</ele>
        <time>2016-01-23T13:40:24Z</time>
      </trkpt>
      <trkpt lat="45.88231" lon="6.59164">
        <ele>1694.46</ele>
        <time>2016-01-23T13:40:25Z</time>
      </trkpt>
      <trkpt lat="45.88248" lon="6.59196">
        <ele>1692.06</ele>
        <time>2016-01-23T13:40:29Z</time>
      </trkpt>
      <trkpt lat="45.88252" lon="6.59203">
        <ele>1691.58</ele>
        <time>2016-01-23T13:40:30Z</time>
      </trkpt>
      <trkpt lat="45.88258" lon="6.59208">
        <ele>1690.62</ele>
        <time>2016-01-23T13:40:31Z</time>
      </trkpt>
      <trkpt lat="45.8827" lon="6.59216">
        <ele>1688.69</ele>
        <time>2016-01-23T13:40:33Z</time>
      </trkpt>
      <trkpt lat="45.8829" lon="6.59232">
        <ele>1683.89</ele>
        <time>2016-01-23T13:40:36Z</time>
      </trkpt>
      <trkpt lat="45.88296" lon="6.59236">
        <ele>1682.93</ele>
        <time>2016-01-23T13:40:37Z</time>
      </trkpt>
      <trkpt lat="45.88302" lon="6.59239">
        <ele>1682.44</ele>
        <time>2016-01-23T13:40:38Z</time>
      </trkpt>
      <trkpt lat="45.88319" lon="6.59264">
        <ele>1674.75</ele>
        <time>2016-01-23T13:40:41Z</time>
      </trkpt>
      <trkpt lat="45.88326" lon="6.59277">
        <ele>1669.95</ele>
        <time>2016-01-23T13:40:42Z</time>
      </trkpt>
      <trkpt lat="45.88334" lon="6.59295">
        <ele>1666.58</ele>
        <time>2016-01-23T13:40:43Z</time>
      </trkpt>
      <trkpt lat="45.88348" lon="6.59316">
        <ele>1660.81</ele>
        <time>2016-01-23T13:40:45Z</time>
      </trkpt>
      <trkpt lat="45.88352" lon="6.59322">
        <ele>1658.89</ele>
        <time>2016-01-23T13:40:47Z</time>
      </trkpt>
      <trkpt lat="45.88353" lon="6.59322">
        <ele>1658.89</ele>
        <time>2016-01-23T13:40:58Z</time>
      </trkpt>
      <trkpt lat="45.88358" lon="6.59323">
        <ele>1658.89</ele>
        <time>2016-01-23T13:41:01Z</time>
      </trkpt>
      <trkpt lat="45.88373" lon="6.59345">
        <ele>1656.01</ele>
        <time>2016-01-23T13:41:05Z</time>
      </trkpt>
      <trkpt lat="45.88395" lon="6.59371">
        <ele>1649.28</ele>
        <time>2016-01-23T13:41:09Z</time>
      </trkpt>
      <trkpt lat="45.88405" lon="6.59384">
        <ele>1644.95</ele>
        <time>2016-01-23T13:41:11Z</time>
      </trkpt>
      <trkpt lat="45.88413" lon="6.59411">
        <ele>1641.11</ele>
        <time>2016-01-23T13:41:14Z</time>
      </trkpt>
      <trkpt lat="45.88425" lon="6.59419">
        <ele>1637.26</ele>
        <time>2016-01-23T13:41:16Z</time>
      </trkpt>
      <trkpt lat="45.88432" lon="6.59437">
        <ele>1633.9</ele>
        <time>2016-01-23T13:41:18Z</time>
      </trkpt>
      <trkpt lat="45.88444" lon="6.5944">
        <ele>1630.53</ele>
        <time>2016-01-23T13:41:20Z</time>
      </trkpt>
      <trkpt lat="45.88461" lon="6.59445">
        <ele>1624.28</ele>
        <time>2016-01-23T13:41:22Z</time>
      </trkpt>
      <trkpt lat="45.88469" lon="6.59454">
        <ele>1620.92</ele>
        <time>2016-01-23T13:41:23Z</time>
      </trkpt>
      <trkpt lat="45.88483" lon="6.59492">
        <ele>1616.11</ele>
        <time>2016-01-23T13:41:28Z</time>
      </trkpt>
      <trkpt lat="45.88491" lon="6.595">
        <ele>1613.23</ele>
        <time>2016-01-23T13:41:29Z</time>
      </trkpt>
      <trkpt lat="45.88494" lon="6.59536">
        <ele>1609.86</ele>
        <time>2016-01-23T13:41:32Z</time>
      </trkpt>
      <trkpt lat="45.88497" lon="6.59542">
        <ele>1609.38</ele>
        <time>2016-01-23T13:41:33Z</time>
      </trkpt>
      <trkpt lat="45.88503" lon="6.59548">
        <ele>1608.42</ele>
        <time>2016-01-23T13:41:34Z</time>
      </trkpt>
      <trkpt lat="45.88519" lon="6.59584">
        <ele>1600.25</ele>
        <time>2016-01-23T13:41:38Z</time>
      </trkpt>
      <trkpt lat="45.8852" lon="6.596">
        <ele>1596.41</ele>
        <time>2016-01-23T13:41:39Z</time>
      </trkpt>
      <trkpt lat="45.8853" lon="6.59614">
        <ele>1593.52</ele>
        <time>2016-01-23T13:41:41Z</time>
      </trkpt>
      <trkpt lat="45.88541" lon="6.59621">
        <ele>1592.56</ele>
        <time>2016-01-23T13:41:43Z</time>
      </trkpt>
      <trkpt lat="45.88539" lon="6.59622">
        <ele>1593.52</ele>
        <time>2016-01-23T13:41:50Z</time>
      </trkpt>
      <trkpt lat="45.88543" lon="6.59628">
        <ele>1592.56</ele>
        <time>2016-01-23T13:41:53Z</time>
      </trkpt>
      <trkpt lat="45.88548" lon="6.5966">
        <ele>1588.72</ele>
        <time>2016-01-23T13:41:57Z</time>
      </trkpt>
      <trkpt lat="45.88559" lon="6.59686">
        <ele>1584.39</ele>
        <time>2016-01-23T13:42:00Z</time>
      </trkpt>
      <trkpt lat="45.88562" lon="6.59693">
        <ele>1581.51</ele>
        <time>2016-01-23T13:42:01Z</time>
      </trkpt>
      <trkpt lat="45.88576" lon="6.59718">
        <ele>1576.7</ele>
        <time>2016-01-23T13:42:04Z</time>
      </trkpt>
      <trkpt lat="45.88588" lon="6.59724">
        <ele>1571.41</ele>
        <time>2016-01-23T13:42:05Z</time>
      </trkpt>
      <trkpt lat="45.88595" lon="6.5973">
        <ele>1567.57</ele>
        <time>2016-01-23T13:42:06Z</time>
      </trkpt>
      <trkpt lat="45.88603" lon="6.59741">
        <ele>1564.68</ele>
        <time>2016-01-23T13:42:07Z</time>
      </trkpt>
      <trkpt lat="45.88616" lon="6.59764">
        <ele>1564.68</ele>
        <time>2016-01-23T13:42:09Z</time>
      </trkpt>
      <trkpt lat="45.88626" lon="6.59778">
        <ele>1558.92</ele>
        <time>2016-01-23T13:42:11Z</time>
      </trkpt>
      <trkpt lat="45.88632" lon="6.59791">
        <ele>1556.51</ele>
        <time>2016-01-23T13:42:13Z</time>
      </trkpt>
      <trkpt lat="45.88641" lon="6.59811">
        <ele>1551.71</ele>
        <time>2016-01-23T13:42:15Z</time>
      </trkpt>
      <trkpt lat="45.88644" lon="6.59823">
        <ele>1547.86</ele>
        <time>2016-01-23T13:42:16Z</time>
      </trkpt>
      <trkpt lat="45.88644" lon="6.59834">
        <ele>1547.86</ele>
        <time>2016-01-23T13:42:17Z</time>
      </trkpt>
      <trkpt lat="45.88639" lon="6.59859">
        <ele>1546.9</ele>
        <time>2016-01-23T13:42:23Z</time>
      </trkpt>
      <trkpt lat="45.88635" lon="6.5989">
        <ele>1544.98</ele>
        <time>2016-01-23T13:42:33Z</time>
      </trkpt>
      <trkpt lat="45.88634" lon="6.599">
        <ele>1544.01</ele>
        <time>2016-01-23T13:42:34Z</time>
      </trkpt>
      <trkpt lat="45.88635" lon="6.59943">
        <ele>1538.25</ele>
        <time>2016-01-23T13:42:38Z</time>
      </trkpt>
      <trkpt lat="45.8865" lon="6.59959">
        <ele>1532</ele>
        <time>2016-01-23T13:42:40Z</time>
      </trkpt>
      <trkpt lat="45.88654" lon="6.5997">
        <ele>1526.23</ele>
        <time>2016-01-23T13:42:41Z</time>
      </trkpt>
      <trkpt lat="45.88657" lon="6.59983">
        <ele>1526.23</ele>
        <time>2016-01-23T13:42:42Z</time>
      </trkpt>
      <trkpt lat="45.88664" lon="6.60003">
        <ele>1522.87</ele>
        <time>2016-01-23T13:42:44Z</time>
      </trkpt>
      <trkpt lat="45.8867" lon="6.6001">
        <ele>1517.1</ele>
        <time>2016-01-23T13:42:45Z</time>
      </trkpt>
      <trkpt lat="45.88695" lon="6.60037">
        <ele>1510.37</ele>
        <time>2016-01-23T13:42:48Z</time>
      </trkpt>
      <trkpt lat="45.88709" lon="6.60059">
        <ele>1507.97</ele>
        <time>2016-01-23T13:42:50Z</time>
      </trkpt>
      <trkpt lat="45.88712" lon="6.60079">
        <ele>1507.48</ele>
        <time>2016-01-23T13:42:52Z</time>
      </trkpt>
      <trkpt lat="45.88714" lon="6.6009">
        <ele>1508.93</ele>
        <time>2016-01-23T13:42:59Z</time>
      </trkpt>
      <trkpt lat="45.88713" lon="6.60099">
        <ele>1507.48</ele>
        <time>2016-01-23T13:43:12Z</time>
      </trkpt>
      <trkpt lat="45.88701" lon="6.60158">
        <ele>1505.08</ele>
        <time>2016-01-23T13:43:24Z</time>
      </trkpt>
      <trkpt lat="45.887" lon="6.60167">
        <ele>1502.68</ele>
        <time>2016-01-23T13:43:28Z</time>
      </trkpt>
      <trkpt lat="45.88699" lon="6.60166">
        <ele>1502.68</ele>
        <time>2016-01-23T13:43:49Z</time>
      </trkpt>
      <trkpt lat="45.88699" lon="6.60168">
        <ele>1502.68</ele>
        <time>2016-01-23T13:44:03Z</time>
      </trkpt>
      <trkpt lat="45.88698" lon="6.60185">
        <ele>1499.31</ele>
        <time>2016-01-23T13:44:08Z</time>
      </trkpt>
      <trkpt lat="45.88698" lon="6.60186">
        <ele>1499.31</ele>
        <time>2016-01-23T13:44:09Z</time>
      </trkpt>
      <trkpt lat="45.88699" lon="6.60187">
        <ele>1499.31</ele>
        <time>2016-01-23T13:44:24Z</time>
      </trkpt>
      <trkpt lat="45.88697" lon="6.60206">
        <ele>1496.43</ele>
        <time>2016-01-23T13:44:29Z</time>
      </trkpt>
      <trkpt lat="45.88693" lon="6.60237">
        <ele>1493.06</ele>
        <time>2016-01-23T13:44:33Z</time>
      </trkpt>
      <trkpt lat="45.8869" lon="6.60259">
        <ele>1488.74</ele>
        <time>2016-01-23T13:44:35Z</time>
      </trkpt>
      <trkpt lat="45.88686" lon="6.60269">
        <ele>1485.37</ele>
        <time>2016-01-23T13:44:36Z</time>
      </trkpt>
      <trkpt lat="45.88681" lon="6.60292">
        <ele>1481.05</ele>
        <time>2016-01-23T13:44:38Z</time>
      </trkpt>
      <trkpt lat="45.88678" lon="6.60315">
        <ele>1473.36</ele>
        <time>2016-01-23T13:44:40Z</time>
      </trkpt>
      <trkpt lat="45.88668" lon="6.60334">
        <ele>1469.03</ele>
        <time>2016-01-23T13:44:42Z</time>
      </trkpt>
      <trkpt lat="45.88664" lon="6.60355">
        <ele>1463.74</ele>
        <time>2016-01-23T13:44:44Z</time>
      </trkpt>
      <trkpt lat="45.88659" lon="6.60376">
        <ele>1458.94</ele>
        <time>2016-01-23T13:44:46Z</time>
      </trkpt>
      <trkpt lat="45.88648" lon="6.60393">
        <ele>1455.57</ele>
        <time>2016-01-23T13:44:48Z</time>
      </trkpt>
      <trkpt lat="45.88645" lon="6.60407">
        <ele>1450.77</ele>
        <time>2016-01-23T13:44:50Z</time>
      </trkpt>
      <trkpt lat="45.88644" lon="6.60408">
        <ele>1450.29</ele>
        <time>2016-01-23T13:44:51Z</time>
      </trkpt>
      <trkpt lat="45.88644" lon="6.60408">
        <ele>1450.77</ele>
        <time>2016-01-23T13:44:54Z</time>
      </trkpt>
      <trkpt lat="45.88651" lon="6.60443">
        <ele>1446.44</ele>
        <time>2016-01-23T13:44:59Z</time>
      </trkpt>
      <trkpt lat="45.88652" lon="6.60456">
        <ele>1442.6</ele>
        <time>2016-01-23T13:45:00Z</time>
      </trkpt>
      <trkpt lat="45.88655" lon="6.60472">
        <ele>1438.75</ele>
        <time>2016-01-23T13:45:01Z</time>
      </trkpt>
      <trkpt lat="45.88662" lon="6.60501">
        <ele>1432.5</ele>
        <time>2016-01-23T13:45:03Z</time>
      </trkpt>
      <trkpt lat="45.88665" lon="6.60508">
        <ele>1431.54</ele>
        <time>2016-01-23T13:45:05Z</time>
      </trkpt>
      <trkpt lat="45.88665" lon="6.60506">
        <ele>1432.02</ele>
        <time>2016-01-23T13:45:10Z</time>
      </trkpt>
      <trkpt lat="45.88677" lon="6.6053">
        <ele>1428.66</ele>
        <time>2016-01-23T13:45:16Z</time>
      </trkpt>
      <trkpt lat="45.88688" lon="6.60556">
        <ele>1421.93</ele>
        <time>2016-01-23T13:45:18Z</time>
      </trkpt>
      <trkpt lat="45.88693" lon="6.60566">
        <ele>1420</ele>
        <time>2016-01-23T13:45:19Z</time>
      </trkpt>
      <trkpt lat="45.887" lon="6.6058">
        <ele>1414.72</ele>
        <time>2016-01-23T13:45:22Z</time>
      </trkpt>
      <trkpt lat="45.88699" lon="6.60582">
        <ele>1414.72</ele>
        <time>2016-01-23T13:45:37Z</time>
      </trkpt>
      <trkpt lat="45.88704" lon="6.60586">
        <ele>1414.72</ele>
        <time>2016-01-23T13:45:44Z</time>
      </trkpt>
      <trkpt lat="45.88721" lon="6.60632">
        <ele>1409.43</ele>
        <time>2016-01-23T13:45:48Z</time>
      </trkpt>
      <trkpt lat="45.88728" lon="6.6065">
        <ele>1406.55</ele>
        <time>2016-01-23T13:45:49Z</time>
      </trkpt>
      <trkpt lat="45.88733" lon="6.60664">
        <ele>1397.41</ele>
        <time>2016-01-23T13:45:50Z</time>
      </trkpt>
      <trkpt lat="45.88744" lon="6.60693">
        <ele>1393.09</ele>
        <time>2016-01-23T13:45:52Z</time>
      </trkpt>
      <trkpt lat="45.88748" lon="6.60702">
        <ele>1393.09</ele>
        <time>2016-01-23T13:45:53Z</time>
      </trkpt>
      <trkpt lat="45.88751" lon="6.60707">
        <ele>1391.17</ele>
        <time>2016-01-23T13:45:55Z</time>
      </trkpt>
      <trkpt lat="45.88751" lon="6.60707">
        <ele>1391.17</ele>
        <time>2016-01-23T13:45:57Z</time>
      </trkpt>
      <trkpt lat="45.88763" lon="6.60746">
        <ele>1386.36</ele>
        <time>2016-01-23T13:46:04Z</time>
      </trkpt>
      <trkpt lat="45.88773" lon="6.60775">
        <ele>1380.11</ele>
        <time>2016-01-23T13:46:06Z</time>
      </trkpt>
      <trkpt lat="45.88778" lon="6.60789">
        <ele>1376.26</ele>
        <time>2016-01-23T13:46:07Z</time>
      </trkpt>
      <trkpt lat="45.88789" lon="6.60822">
        <ele>1372.42</ele>
        <time>2016-01-23T13:46:09Z</time>
      </trkpt>
      <trkpt lat="45.88795" lon="6.60839">
        <ele>1369.05</ele>
        <time>2016-01-23T13:46:10Z</time>
      </trkpt>
      <trkpt lat="45.88806" lon="6.60873">
        <ele>1363.77</ele>
        <time>2016-01-23T13:46:12Z</time>
      </trkpt>
      <trkpt lat="45.88817" lon="6.6091">
        <ele>1358</ele>
        <time>2016-01-23T13:46:14Z</time>
      </trkpt>
      <trkpt lat="45.8883" lon="6.60946">
        <ele>1352.71</ele>
        <time>2016-01-23T13:46:16Z</time>
      </trkpt>
      <trkpt lat="45.88838" lon="6.60964">
        <ele>1348.39</ele>
        <time>2016-01-23T13:46:17Z</time>
      </trkpt>
      <trkpt lat="45.88843" lon="6.60983">
        <ele>1343.58</ele>
        <time>2016-01-23T13:46:18Z</time>
      </trkpt>
      <trkpt lat="45.88849" lon="6.61001">
        <ele>1342.62</ele>
        <time>2016-01-23T13:46:19Z</time>
      </trkpt>
      <trkpt lat="45.88863" lon="6.61048">
        <ele>1337.81</ele>
        <time>2016-01-23T13:46:22Z</time>
      </trkpt>
      <trkpt lat="45.88888" lon="6.61084">
        <ele>1336.37</ele>
        <time>2016-01-23T13:46:27Z</time>
      </trkpt>
      <trkpt lat="45.88903" lon="6.61075">
        <ele>1336.37</ele>
        <time>2016-01-23T13:46:36Z</time>
      </trkpt>
      <trkpt lat="45.88903" lon="6.61075">
        <ele>1336.37</ele>
        <time>2016-01-23T13:46:37Z</time>
      </trkpt>
      <trkpt lat="45.88905" lon="6.61083">
        <ele>1336.37</ele>
        <time>2016-01-23T13:46:41Z</time>
      </trkpt>
      <trkpt lat="45.88895" lon="6.61094">
        <ele>1334.93</ele>
        <time>2016-01-23T13:46:45Z</time>
      </trkpt>
      <trkpt lat="45.88881" lon="6.61115">
        <ele>1329.64</ele>
        <time>2016-01-23T13:46:48Z</time>
      </trkpt>
      <trkpt lat="45.8887" lon="6.61126">
        <ele>1325.31</ele>
        <time>2016-01-23T13:46:49Z</time>
      </trkpt>
      <trkpt lat="45.88849" lon="6.61135">
        <ele>1322.91</ele>
        <time>2016-01-23T13:46:54Z</time>
      </trkpt>
      <trkpt lat="45.88829" lon="6.61141">
        <ele>1322.91</ele>
        <time>2016-01-23T13:47:03Z</time>
      </trkpt>
      <trkpt lat="45.88786" lon="6.61163">
        <ele>1319.07</ele>
        <time>2016-01-23T13:47:11Z</time>
      </trkpt>
      <trkpt lat="45.88779" lon="6.61169">
        <ele>1315.22</ele>
        <time>2016-01-23T13:47:12Z</time>
      </trkpt>
      <trkpt lat="45.88772" lon="6.61175">
        <ele>1315.22</ele>
        <time>2016-01-23T13:47:13Z</time>
      </trkpt>
      <trkpt lat="45.88765" lon="6.61181">
        <ele>1314.26</ele>
        <time>2016-01-23T13:47:14Z</time>
      </trkpt>
      <trkpt lat="45.8876" lon="6.61189">
        <ele>1313.78</ele>
        <time>2016-01-23T13:47:15Z</time>
      </trkpt>
      <trkpt lat="45.88755" lon="6.61199">
        <ele>1312.82</ele>
        <time>2016-01-23T13:47:16Z</time>
      </trkpt>
      <trkpt lat="45.88752" lon="6.61211">
        <ele>1312.34</ele>
        <time>2016-01-23T13:47:17Z</time>
      </trkpt>
      <trkpt lat="45.8875" lon="6.61223">
        <ele>1311.38</ele>
        <time>2016-01-23T13:47:18Z</time>
      </trkpt>
      <trkpt lat="45.88749" lon="6.61236">
        <ele>1310.41</ele>
        <time>2016-01-23T13:47:19Z</time>
      </trkpt>
      <trkpt lat="45.88748" lon="6.61248">
        <ele>1309.45</ele>
        <time>2016-01-23T13:47:20Z</time>
      </trkpt>
      <trkpt lat="45.88748" lon="6.61261">
        <ele>1308.49</ele>
        <time>2016-01-23T13:47:21Z</time>
      </trkpt>
      <trkpt lat="45.88748" lon="6.61273">
        <ele>1307.53</ele>
        <time>2016-01-23T13:47:22Z</time>
      </trkpt>
      <trkpt lat="45.8875" lon="6.61285">
        <ele>1307.53</ele>
        <time>2016-01-23T13:47:23Z</time>
      </trkpt>
      <trkpt lat="45.88753" lon="6.61296">
        <ele>1307.05</ele>
        <time>2016-01-23T13:47:24Z</time>
      </trkpt>
      <trkpt lat="45.88756" lon="6.61306">
        <ele>1305.13</ele>
        <time>2016-01-23T13:47:25Z</time>
      </trkpt>
      <trkpt lat="45.88759" lon="6.61315">
        <ele>1305.13</ele>
        <time>2016-01-23T13:47:26Z</time>
      </trkpt>
      <trkpt lat="45.88774" lon="6.61363">
        <ele>1301.76</ele>
        <time>2016-01-23T13:47:31Z</time>
      </trkpt>
      <trkpt lat="45.88776" lon="6.61373">
        <ele>1301.28</ele>
        <time>2016-01-23T13:47:32Z</time>
      </trkpt>
      <trkpt lat="45.88777" lon="6.61383">
        <ele>1301.28</ele>
        <time>2016-01-23T13:47:33Z</time>
      </trkpt>
      <trkpt lat="45.8878" lon="6.61392">
        <ele>1299.84</ele>
        <time>2016-01-23T13:47:34Z</time>
      </trkpt>
      <trkpt lat="45.88783" lon="6.61402">
        <ele>1299.36</ele>
        <time>2016-01-23T13:47:35Z</time>
      </trkpt>
      <trkpt lat="45.88787" lon="6.61412">
        <ele>1297.92</ele>
        <time>2016-01-23T13:47:36Z</time>
      </trkpt>
      <trkpt lat="45.88799" lon="6.61446">
        <ele>1294.07</ele>
        <time>2016-01-23T13:47:39Z</time>
      </trkpt>
      <trkpt lat="45.88801" lon="6.61458">
        <ele>1293.59</ele>
        <time>2016-01-23T13:47:40Z</time>
      </trkpt>
      <trkpt lat="45.88802" lon="6.61471">
        <ele>1292.15</ele>
        <time>2016-01-23T13:47:41Z</time>
      </trkpt>
      <trkpt lat="45.88803" lon="6.61484">
        <ele>1290.71</ele>
        <time>2016-01-23T13:47:42Z</time>
      </trkpt>
      <trkpt lat="45.88803" lon="6.61498">
        <ele>1289.75</ele>
        <time>2016-01-23T13:47:43Z</time>
      </trkpt>
      <trkpt lat="45.88802" lon="6.61526">
        <ele>1287.34</ele>
        <time>2016-01-23T13:47:45Z</time>
      </trkpt>
      <trkpt lat="45.888" lon="6.61539">
        <ele>1286.86</ele>
        <time>2016-01-23T13:47:46Z</time>
      </trkpt>
      <trkpt lat="45.888" lon="6.61553">
        <ele>1285.9</ele>
        <time>2016-01-23T13:47:47Z</time>
      </trkpt>
      <trkpt lat="45.88799" lon="6.61566">
        <ele>1284.46</ele>
        <time>2016-01-23T13:47:48Z</time>
      </trkpt>
      <trkpt lat="45.88797" lon="6.61579">
        <ele>1283.5</ele>
        <time>2016-01-23T13:47:49Z</time>
      </trkpt>
      <trkpt lat="45.88795" lon="6.61592">
        <ele>1282.54</ele>
        <time>2016-01-23T13:47:50Z</time>
      </trkpt>
      <trkpt lat="45.88795" lon="6.61605">
        <ele>1281.57</ele>
        <time>2016-01-23T13:47:51Z</time>
      </trkpt>
      <trkpt lat="45.88796" lon="6.61619">
        <ele>1281.09</ele>
        <time>2016-01-23T13:47:52Z</time>
      </trkpt>
      <trkpt lat="45.88798" lon="6.61633">
        <ele>1279.17</ele>
        <time>2016-01-23T13:47:53Z</time>
      </trkpt>
      <trkpt lat="45.88801" lon="6.61646">
        <ele>1278.21</ele>
        <time>2016-01-23T13:47:54Z</time>
      </trkpt>
      <trkpt lat="45.88807" lon="6.61668">
        <ele>1276.29</ele>
        <time>2016-01-23T13:47:56Z</time>
      </trkpt>
      <trkpt lat="45.88811" lon="6.61675">
        <ele>1276.29</ele>
        <time>2016-01-23T13:47:57Z</time>
      </trkpt>
      <trkpt lat="45.88814" lon="6.61682">
        <ele>1276.29</ele>
        <time>2016-01-23T13:47:58Z</time>
      </trkpt>
      <trkpt lat="45.88817" lon="6.61688">
        <ele>1274.36</ele>
        <time>2016-01-23T13:47:59Z</time>
      </trkpt>
      <trkpt lat="45.88819" lon="6.61695">
        <ele>1274.36</ele>
        <time>2016-01-23T13:48:00Z</time>
      </trkpt>
      <trkpt lat="45.88822" lon="6.61702">
        <ele>1274.36</ele>
        <time>2016-01-23T13:48:01Z</time>
      </trkpt>
      <trkpt lat="45.88825" lon="6.61707">
        <ele>1273.88</ele>
        <time>2016-01-23T13:48:02Z</time>
      </trkpt>
      <trkpt lat="45.88828" lon="6.6171">
        <ele>1272.92</ele>
        <time>2016-01-23T13:48:03Z</time>
      </trkpt>
      <trkpt lat="45.88829" lon="6.61711">
        <ele>1271.96</ele>
        <time>2016-01-23T13:48:10Z</time>
      </trkpt>
      <trkpt lat="45.88829" lon="6.6171">
        <ele>1271.96</ele>
        <time>2016-01-23T13:48:38Z</time>
      </trkpt>
      <trkpt lat="45.8883" lon="6.61711">
        <ele>1271.96</ele>
        <time>2016-01-23T13:48:49Z</time>
      </trkpt>
      <trkpt lat="45.88834" lon="6.61713">
        <ele>1271</ele>
        <time>2016-01-23T13:49:01Z</time>
      </trkpt>
      <trkpt lat="45.88839" lon="6.6173">
        <ele>1269.56</ele>
        <time>2016-01-23T13:49:05Z</time>
      </trkpt>
      <trkpt lat="45.88853" lon="6.61795">
        <ele>1265.23</ele>
        <time>2016-01-23T13:49:12Z</time>
      </trkpt>
      <trkpt lat="45.88861" lon="6.61826">
        <ele>1263.31</ele>
        <time>2016-01-23T13:49:15Z</time>
      </trkpt>
      <trkpt lat="45.88865" lon="6.61836">
        <ele>1262.35</ele>
        <time>2016-01-23T13:49:16Z</time>
      </trkpt>
      <trkpt lat="45.8887" lon="6.61844">
        <ele>1261.39</ele>
        <time>2016-01-23T13:49:17Z</time>
      </trkpt>
      <trkpt lat="45.88876" lon="6.61853">
        <ele>1260.43</ele>
        <time>2016-01-23T13:49:18Z</time>
      </trkpt>
      <trkpt lat="45.88911" lon="6.61896">
        <ele>1256.1</ele>
        <time>2016-01-23T13:49:23Z</time>
      </trkpt>
      <trkpt lat="45.88923" lon="6.61912">
        <ele>1252.74</ele>
        <time>2016-01-23T13:49:25Z</time>
      </trkpt>
      <trkpt lat="45.88936" lon="6.6193">
        <ele>1249.85</ele>
        <time>2016-01-23T13:49:27Z</time>
      </trkpt>
      <trkpt lat="45.88964" lon="6.61987">
        <ele>1247.45</ele>
        <time>2016-01-23T13:49:33Z</time>
      </trkpt>
      <trkpt lat="45.88986" lon="6.62023">
        <ele>1239.76</ele>
        <time>2016-01-23T13:49:36Z</time>
      </trkpt>
      <trkpt lat="45.88995" lon="6.62036">
        <ele>1235.43</ele>
        <time>2016-01-23T13:49:37Z</time>
      </trkpt>
      <trkpt lat="45.89003" lon="6.6205">
        <ele>1231.59</ele>
        <time>2016-01-23T13:49:38Z</time>
      </trkpt>
      <trkpt lat="45.89011" lon="6.62065">
        <ele>1228.7</ele>
        <time>2016-01-23T13:49:39Z</time>
      </trkpt>
      <trkpt lat="45.8903" lon="6.62095">
        <ele>1218.13</ele>
        <time>2016-01-23T13:49:41Z</time>
      </trkpt>
      <trkpt lat="45.8905" lon="6.62126">
        <ele>1214.28</ele>
        <time>2016-01-23T13:49:43Z</time>
      </trkpt>
      <trkpt lat="45.89082" lon="6.6217">
        <ele>1206.59</ele>
        <time>2016-01-23T13:49:46Z</time>
      </trkpt>
      <trkpt lat="45.89095" lon="6.62186">
        <ele>1203.23</ele>
        <time>2016-01-23T13:49:47Z</time>
      </trkpt>
      <trkpt lat="45.89104" lon="6.622">
        <ele>1203.23</ele>
        <time>2016-01-23T13:49:48Z</time>
      </trkpt>
      <trkpt lat="45.89123" lon="6.62237">
        <ele>1204.67</ele>
        <time>2016-01-23T13:49:51Z</time>
      </trkpt>
      <trkpt lat="45.89124" lon="6.6224">
        <ele>1203.23</ele>
        <time>2016-01-23T13:49:55Z</time>
      </trkpt>
      <trkpt lat="45.89132" lon="6.62245">
        <ele>1203.23</ele>
        <time>2016-01-23T13:50:00Z</time>
      </trkpt>
      <trkpt lat="45.8915" lon="6.62277">
        <ele>1200.34</ele>
        <time>2016-01-23T13:50:07Z</time>
      </trkpt>
      <trkpt lat="45.89169" lon="6.62303">
        <ele>1197.94</ele>
        <time>2016-01-23T13:50:11Z</time>
      </trkpt>
      <trkpt lat="45.89174" lon="6.62309">
        <ele>1196.98</ele>
        <time>2016-01-23T13:50:12Z</time>
      </trkpt>
      <trkpt lat="45.89183" lon="6.62327">
        <ele>1195.54</ele>
        <time>2016-01-23T13:50:19Z</time>
      </trkpt>
      <trkpt lat="45.89182" lon="6.62326">
        <ele>1195.54</ele>
        <time>2016-01-23T13:50:38Z</time>
      </trkpt>
      <trkpt lat="45.89182" lon="6.62325">
        <ele>1195.54</ele>
        <time>2016-01-23T13:51:00Z</time>
      </trkpt>
      <trkpt lat="45.89182" lon="6.62327">
        <ele>1195.54</ele>
        <time>2016-01-23T13:51:19Z</time>
      </trkpt>
      <trkpt lat="45.89183" lon="6.62326">
        <ele>1195.54</ele>
        <time>2016-01-23T13:51:36Z</time>
      </trkpt>
      <trkpt lat="45.89183" lon="6.62325">
        <ele>1195.54</ele>
        <time>2016-01-23T13:51:44Z</time>
      </trkpt>
      <trkpt lat="45.89185" lon="6.62312">
        <ele>1195.54</ele>
        <time>2016-01-23T13:51:51Z</time>
      </trkpt>
      <trkpt lat="45.89193" lon="6.62258">
        <ele>1193.13</ele>
        <time>2016-01-23T13:52:02Z</time>
      </trkpt>
      <trkpt lat="45.89194" lon="6.62252">
        <ele>1192.65</ele>
        <time>2016-01-23T13:52:09Z</time>
      </trkpt>
      <trkpt lat="45.89194" lon="6.62253">
        <ele>1192.65</ele>
        <time>2016-01-23T13:52:20Z</time>
      </trkpt>
      <trkpt lat="45.89195" lon="6.62252">
        <ele>1192.65</ele>
        <time>2016-01-23T13:52:43Z</time>
      </trkpt>
      <trkpt lat="45.89193" lon="6.62252">
        <ele>1192.65</ele>
        <time>2016-01-23T13:53:02Z</time>
      </trkpt>
      <trkpt lat="45.89194" lon="6.62251">
        <ele>1191.21</ele>
        <time>2016-01-23T13:53:15Z</time>
      </trkpt>
      <trkpt lat="45.89195" lon="6.62251">
        <ele>1190.73</ele>
        <time>2016-01-23T13:53:33Z</time>
      </trkpt>
      <trkpt lat="45.89195" lon="6.62249">
        <ele>1191.21</ele>
        <time>2016-01-23T13:53:52Z</time>
      </trkpt>
      <trkpt lat="45.89197" lon="6.62251">
        <ele>1191.21</ele>
        <time>2016-01-23T13:54:12Z</time>
      </trkpt>
      <trkpt lat="45.89198" lon="6.62252">
        <ele>1191.21</ele>
        <time>2016-01-23T13:54:36Z</time>
      </trkpt>
      <trkpt lat="45.89197" lon="6.62255">
        <ele>1191.21</ele>
        <time>2016-01-23T13:55:01Z</time>
      </trkpt>
    </trkseg>
  </trk>
</gpx>